<?xml version='1.0' encoding='UTF-8'?><gpx version="1.1" creator="JPX - https://github.com/jenetics/jpx" xmlns="http://www.topografix.com/GPX/1/1"><trk><trkseg><trkpt lat="44.6986399" lon="10.1718454"><ele>177.99999999999997</ele><time>2026-04-26T06:32:46.436Z</time></trkpt><trkpt lat="44.6987072" lon="10.1718593"><ele>178.0</ele><time>2026-04-26T06:33:14.042Z</time></trkpt><trkpt lat="44.698662" lon="10.1717831"><ele>178.0</ele><time>2026-04-26T06:34:55.08Z</time></trkpt><trkpt lat="44.6986486" lon="10.1716871"><ele>178.0</ele><time>2026-04-26T06:35:01.578Z</time></trkpt><trkpt lat="44.6985968" lon="10.1717845"><ele>178.0</ele><time>2026-04-26T06:35:23.106Z</time></trkpt><trkpt lat="44.6986287" lon="10.1718768"><ele>177.99999999999997</ele><time>2026-04-26T06:35:46.094Z</time></trkpt><trkpt lat="44.6986012" lon="10.1719639"><ele>178.0</ele><time>2026-04-26T06:35:57.055Z</time></trkpt><trkpt lat="44.6985833" lon="10.1720867"><ele>178.16666666666669</ele><time>2026-04-26T06:36:01.008Z</time></trkpt><trkpt lat="44.6985383" lon="10.1722"><ele>178.33333333333334</ele><time>2026-04-26T06:36:04.008Z</time></trkpt><trkpt lat="44.698535" lon="10.1723"><ele>178.5</ele><time>2026-04-26T06:36:07.008Z</time></trkpt><trkpt lat="44.69855" lon="10.1724217"><ele>178.66666666666666</ele><time>2026-04-26T06:36:11.008Z</time></trkpt><trkpt lat="44.6986267" lon="10.172445"><ele>178.83333333333331</ele><time>2026-04-26T06:36:16.008Z</time></trkpt><trkpt lat="44.6986883" lon="10.1724233"><ele>179.0</ele><time>2026-04-26T06:36:18.008Z</time></trkpt><trkpt lat="44.69877" lon="10.1724333"><ele>178.0</ele><time>2026-04-26T06:36:21.008Z</time></trkpt><trkpt lat="44.6988483" lon="10.1724767"><ele>177.0</ele><time>2026-04-26T06:36:23.008Z</time></trkpt><trkpt lat="44.698925" lon="10.1724833"><ele>176.0</ele><time>2026-04-26T06:36:25.009Z</time></trkpt><trkpt lat="44.699015" lon="10.1724967"><ele>175.0</ele><time>2026-04-26T06:36:27.008Z</time></trkpt><trkpt lat="44.699105" lon="10.1725517"><ele>174.0</ele><time>2026-04-26T06:36:29.008Z</time></trkpt><trkpt lat="44.6992117" lon="10.17263"><ele>174.0</ele><time>2026-04-26T06:36:31.008Z</time></trkpt><trkpt lat="44.6993133" lon="10.172725"><ele>174.0</ele><time>2026-04-26T06:36:33.008Z</time></trkpt><trkpt lat="44.69937" lon="10.172765"><ele>174.0</ele><time>2026-04-26T06:36:34.008Z</time></trkpt><trkpt lat="44.699475" lon="10.17282"><ele>174.0</ele><time>2026-04-26T06:36:36.009Z</time></trkpt><trkpt lat="44.6995817" lon="10.1728867"><ele>174.0</ele><time>2026-04-26T06:36:38.008Z</time></trkpt><trkpt lat="44.6996833" lon="10.1729633"><ele>174.39999999999998</ele><time>2026-04-26T06:36:40.009Z</time></trkpt><trkpt lat="44.69979" lon="10.1730283"><ele>174.8</ele><time>2026-04-26T06:36:42.008Z</time></trkpt><trkpt lat="44.69989" lon="10.1730833"><ele>175.2</ele><time>2026-04-26T06:36:44.008Z</time></trkpt><trkpt lat="44.6999817" lon="10.1731567"><ele>175.60000000000002</ele><time>2026-04-26T06:36:46.009Z</time></trkpt><trkpt lat="44.7000833" lon="10.1732233"><ele>176.0</ele><time>2026-04-26T06:36:48.008Z</time></trkpt><trkpt lat="44.700185" lon="10.17329"><ele>175.60000000000002</ele><time>2026-04-26T06:36:50.008Z</time></trkpt><trkpt lat="44.7002833" lon="10.1733567"><ele>175.2</ele><time>2026-04-26T06:36:52.008Z</time></trkpt><trkpt lat="44.7003767" lon="10.1734317"><ele>174.8</ele><time>2026-04-26T06:36:54.008Z</time></trkpt><trkpt lat="44.7004783" lon="10.1735133"><ele>174.39999999999998</ele><time>2026-04-26T06:36:56.008Z</time></trkpt><trkpt lat="44.7005767" lon="10.173585"><ele>174.0</ele><time>2026-04-26T06:36:58.009Z</time></trkpt><trkpt lat="44.7006717" lon="10.1736417"><ele>174.0</ele><time>2026-04-26T06:37:00.009Z</time></trkpt><trkpt lat="44.7007667" lon="10.1736883"><ele>174.0</ele><time>2026-04-26T06:37:02.008Z</time></trkpt><trkpt lat="44.7008667" lon="10.1737617"><ele>174.0</ele><time>2026-04-26T06:37:04.008Z</time></trkpt><trkpt lat="44.7009683" lon="10.1738267"><ele>174.0</ele><time>2026-04-26T06:37:06.008Z</time></trkpt><trkpt lat="44.7010683" lon="10.1739017"><ele>174.0</ele><time>2026-04-26T06:37:08.008Z</time></trkpt><trkpt lat="44.70117" lon="10.173965"><ele>173.39999999999998</ele><time>2026-04-26T06:37:10.008Z</time></trkpt><trkpt lat="44.70127" lon="10.1740283"><ele>172.8</ele><time>2026-04-26T06:37:12.008Z</time></trkpt><trkpt lat="44.701365" lon="10.1740933"><ele>172.2</ele><time>2026-04-26T06:37:14.009Z</time></trkpt><trkpt lat="44.7014567" lon="10.1741583"><ele>171.60000000000002</ele><time>2026-04-26T06:37:16.009Z</time></trkpt><trkpt lat="44.7015467" lon="10.17421"><ele>171.0</ele><time>2026-04-26T06:37:18.008Z</time></trkpt><trkpt lat="44.7016283" lon="10.1742433"><ele>171.0</ele><time>2026-04-26T06:37:20.008Z</time></trkpt><trkpt lat="44.701715" lon="10.17427"><ele>171.0</ele><time>2026-04-26T06:37:22.008Z</time></trkpt><trkpt lat="44.7017917" lon="10.1743133"><ele>171.0</ele><time>2026-04-26T06:37:24.008Z</time></trkpt><trkpt lat="44.70188" lon="10.1743567"><ele>171.0</ele><time>2026-04-26T06:37:26.008Z</time></trkpt><trkpt lat="44.7019683" lon="10.1743917"><ele>171.0</ele><time>2026-04-26T06:37:28.008Z</time></trkpt><trkpt lat="44.7020717" lon="10.1744433"><ele>172.25</ele><time>2026-04-26T06:37:30.008Z</time></trkpt><trkpt lat="44.70217" lon="10.1745167"><ele>173.5</ele><time>2026-04-26T06:37:32.008Z</time></trkpt><trkpt lat="44.7022717" lon="10.17459"><ele>174.75</ele><time>2026-04-26T06:37:34.008Z</time></trkpt><trkpt lat="44.7023783" lon="10.1746617"><ele>176.0</ele><time>2026-04-26T06:37:36.008Z</time></trkpt><trkpt lat="44.702485" lon="10.1747283"><ele>176.0</ele><time>2026-04-26T06:37:38.008Z</time></trkpt><trkpt lat="44.702585" lon="10.174815"><ele>176.0</ele><time>2026-04-26T06:37:40.008Z</time></trkpt><trkpt lat="44.70267" lon="10.1749033"><ele>176.0</ele><time>2026-04-26T06:37:42.008Z</time></trkpt><trkpt lat="44.7027533" lon="10.175"><ele>176.0</ele><time>2026-04-26T06:37:44.008Z</time></trkpt><trkpt lat="44.7028333" lon="10.17508"><ele>176.0</ele><time>2026-04-26T06:37:46.008Z</time></trkpt><trkpt lat="44.7029083" lon="10.1751433"><ele>175.33333333333331</ele><time>2026-04-26T06:37:48.008Z</time></trkpt><trkpt lat="44.702985" lon="10.1752233"><ele>174.66666666666666</ele><time>2026-04-26T06:37:50.009Z</time></trkpt><trkpt lat="44.7030383" lon="10.1752767"><ele>174.0</ele><time>2026-04-26T06:37:51.009Z</time></trkpt><trkpt lat="44.7030967" lon="10.175335"><ele>173.33333333333334</ele><time>2026-04-26T06:37:52.009Z</time></trkpt><trkpt lat="44.7031583" lon="10.1753933"><ele>172.66666666666669</ele><time>2026-04-26T06:37:53.008Z</time></trkpt><trkpt lat="44.70322" lon="10.1754583"><ele>172.0</ele><time>2026-04-26T06:37:54.008Z</time></trkpt><trkpt lat="44.7033167" lon="10.1755617"><ele>172.00000000000003</ele><time>2026-04-26T06:37:56.008Z</time></trkpt><trkpt lat="44.70337" lon="10.1756317"><ele>172.0</ele><time>2026-04-26T06:37:57.008Z</time></trkpt><trkpt lat="44.70342" lon="10.1757083"><ele>172.0</ele><time>2026-04-26T06:37:58.008Z</time></trkpt><trkpt lat="44.7034733" lon="10.17577"><ele>172.0</ele><time>2026-04-26T06:37:59.008Z</time></trkpt><trkpt lat="44.7035267" lon="10.1758517"><ele>172.0</ele><time>2026-04-26T06:38:00.008Z</time></trkpt><trkpt lat="44.70358" lon="10.1759317"><ele>172.00000000000003</ele><time>2026-04-26T06:38:01.009Z</time></trkpt><trkpt lat="44.7036217" lon="10.17601"><ele>172.0</ele><time>2026-04-26T06:38:02.009Z</time></trkpt><trkpt lat="44.70366" lon="10.1760867"><ele>171.85714285714286</ele><time>2026-04-26T06:38:03.008Z</time></trkpt><trkpt lat="44.7037033" lon="10.1761617"><ele>171.71428571428572</ele><time>2026-04-26T06:38:04.008Z</time></trkpt><trkpt lat="44.7037517" lon="10.17624"><ele>171.57142857142856</ele><time>2026-04-26T06:38:05.008Z</time></trkpt><trkpt lat="44.7037967" lon="10.1763267"><ele>171.42857142857144</ele><time>2026-04-26T06:38:06.008Z</time></trkpt><trkpt lat="44.70384" lon="10.1764083"><ele>171.28571428571428</ele><time>2026-04-26T06:38:07.008Z</time></trkpt><trkpt lat="44.7038883" lon="10.1764867"><ele>171.14285714285714</ele><time>2026-04-26T06:38:08.008Z</time></trkpt><trkpt lat="44.7039467" lon="10.1765583"><ele>171.0</ele><time>2026-04-26T06:38:09.009Z</time></trkpt><trkpt lat="44.7040083" lon="10.1766217"><ele>170.16666666666666</ele><time>2026-04-26T06:38:10.009Z</time></trkpt><trkpt lat="44.7040767" lon="10.1766767"><ele>169.33333333333334</ele><time>2026-04-26T06:38:11.008Z</time></trkpt><trkpt lat="44.704145" lon="10.1767367"><ele>168.5</ele><time>2026-04-26T06:38:12.008Z</time></trkpt><trkpt lat="44.70421" lon="10.17681"><ele>167.66666666666669</ele><time>2026-04-26T06:38:13.008Z</time></trkpt><trkpt lat="44.7042717" lon="10.1768883"><ele>166.83333333333334</ele><time>2026-04-26T06:38:14.008Z</time></trkpt><trkpt lat="44.704335" lon="10.1769817"><ele>166.0</ele><time>2026-04-26T06:38:15.009Z</time></trkpt><trkpt lat="44.7043917" lon="10.177075"><ele>165.83333333333334</ele><time>2026-04-26T06:38:16.008Z</time></trkpt><trkpt lat="44.70444" lon="10.1771683"><ele>165.66666666666669</ele><time>2026-04-26T06:38:17.008Z</time></trkpt><trkpt lat="44.7044783" lon="10.1772583"><ele>165.5</ele><time>2026-04-26T06:38:18.008Z</time></trkpt><trkpt lat="44.7045217" lon="10.177345"><ele>165.33333333333334</ele><time>2026-04-26T06:38:19.008Z</time></trkpt><trkpt lat="44.70456" lon="10.1774333"><ele>165.16666666666666</ele><time>2026-04-26T06:38:20.008Z</time></trkpt><trkpt lat="44.7045983" lon="10.17752"><ele>165.0</ele><time>2026-04-26T06:38:21.009Z</time></trkpt><trkpt lat="44.7046417" lon="10.1776033"><ele>165.0</ele><time>2026-04-26T06:38:22.008Z</time></trkpt><trkpt lat="44.704685" lon="10.177685"><ele>165.0</ele><time>2026-04-26T06:38:23.008Z</time></trkpt><trkpt lat="44.7047267" lon="10.1777583"><ele>165.0</ele><time>2026-04-26T06:38:24.008Z</time></trkpt><trkpt lat="44.7047717" lon="10.1778317"><ele>165.0</ele><time>2026-04-26T06:38:25.008Z</time></trkpt><trkpt lat="44.7048183" lon="10.177895"><ele>165.0</ele><time>2026-04-26T06:38:26.008Z</time></trkpt><trkpt lat="44.7048667" lon="10.1779533"><ele>165.0</ele><time>2026-04-26T06:38:27.009Z</time></trkpt><trkpt lat="44.7049633" lon="10.1780633"><ele>165.0</ele><time>2026-04-26T06:38:29.008Z</time></trkpt><trkpt lat="44.7050583" lon="10.178175"><ele>165.0</ele><time>2026-04-26T06:38:31.008Z</time></trkpt><trkpt lat="44.7051483" lon="10.17829"><ele>165.0</ele><time>2026-04-26T06:38:33.008Z</time></trkpt><trkpt lat="44.7051967" lon="10.1783533"><ele>165.0</ele><time>2026-04-26T06:38:34.008Z</time></trkpt><trkpt lat="44.7052517" lon="10.1784233"><ele>165.0</ele><time>2026-04-26T06:38:35.009Z</time></trkpt><trkpt lat="44.7053083" lon="10.1784917"><ele>165.14285714285717</ele><time>2026-04-26T06:38:36.009Z</time></trkpt><trkpt lat="44.7053617" lon="10.17856"><ele>165.28571428571428</ele><time>2026-04-26T06:38:37.009Z</time></trkpt><trkpt lat="44.70541" lon="10.178625"><ele>165.42857142857144</ele><time>2026-04-26T06:38:38.008Z</time></trkpt><trkpt lat="44.70545" lon="10.1786967"><ele>165.57142857142858</ele><time>2026-04-26T06:38:39.008Z</time></trkpt><trkpt lat="44.7054933" lon="10.1787767"><ele>165.71428571428572</ele><time>2026-04-26T06:38:40.008Z</time></trkpt><trkpt lat="44.7055317" lon="10.1788567"><ele>165.85714285714286</ele><time>2026-04-26T06:38:41.008Z</time></trkpt><trkpt lat="44.7055633" lon="10.1789383"><ele>166.0</ele><time>2026-04-26T06:38:42.008Z</time></trkpt><trkpt lat="44.70559" lon="10.1790433"><ele>165.33333333333334</ele><time>2026-04-26T06:38:43.008Z</time></trkpt><trkpt lat="44.705615" lon="10.179135"><ele>164.66666666666669</ele><time>2026-04-26T06:38:44.008Z</time></trkpt><trkpt lat="44.7056367" lon="10.1792333"><ele>164.0</ele><time>2026-04-26T06:38:45.008Z</time></trkpt><trkpt lat="44.7056583" lon="10.1793267"><ele>163.33333333333334</ele><time>2026-04-26T06:38:46.009Z</time></trkpt><trkpt lat="44.7056833" lon="10.1794167"><ele>162.66666666666666</ele><time>2026-04-26T06:38:47.008Z</time></trkpt><trkpt lat="44.7057067" lon="10.1795017"><ele>162.0</ele><time>2026-04-26T06:38:48.008Z</time></trkpt><trkpt lat="44.7057717" lon="10.1796533"><ele>162.0</ele><time>2026-04-26T06:38:50.009Z</time></trkpt><trkpt lat="44.70585" lon="10.1797867"><ele>162.0</ele><time>2026-04-26T06:38:52.008Z</time></trkpt><trkpt lat="44.70589" lon="10.1798583"><ele>162.0</ele><time>2026-04-26T06:38:53.009Z</time></trkpt><trkpt lat="44.7059367" lon="10.1799267"><ele>162.0</ele><time>2026-04-26T06:38:54.009Z</time></trkpt><trkpt lat="44.7059767" lon="10.18"><ele>162.0</ele><time>2026-04-26T06:38:55.008Z</time></trkpt><trkpt lat="44.7060583" lon="10.180125"><ele>162.0</ele><time>2026-04-26T06:38:57.009Z</time></trkpt><trkpt lat="44.70615" lon="10.1802533"><ele>162.2</ele><time>2026-04-26T06:38:59.009Z</time></trkpt><trkpt lat="44.7062317" lon="10.1803817"><ele>162.39999999999998</ele><time>2026-04-26T06:39:01.009Z</time></trkpt><trkpt lat="44.7062767" lon="10.1804483"><ele>162.60000000000002</ele><time>2026-04-26T06:39:02.008Z</time></trkpt><trkpt lat="44.7063567" lon="10.1805683"><ele>162.8</ele><time>2026-04-26T06:39:04.008Z</time></trkpt><trkpt lat="44.7064333" lon="10.1806967"><ele>163.0</ele><time>2026-04-26T06:39:06.009Z</time></trkpt><trkpt lat="44.70648" lon="10.1808433"><ele>162.2857142857143</ele><time>2026-04-26T06:39:08.009Z</time></trkpt><trkpt lat="44.7064983" lon="10.1809367"><ele>161.57142857142856</ele><time>2026-04-26T06:39:09.008Z</time></trkpt><trkpt lat="44.70651" lon="10.1810267"><ele>160.85714285714286</ele><time>2026-04-26T06:39:10.008Z</time></trkpt><trkpt lat="44.7065183" lon="10.1811233"><ele>160.14285714285717</ele><time>2026-04-26T06:39:11.008Z</time></trkpt><trkpt lat="44.7065133" lon="10.181215"><ele>159.42857142857144</ele><time>2026-04-26T06:39:12.009Z</time></trkpt><trkpt lat="44.706505" lon="10.1813083"><ele>158.71428571428572</ele><time>2026-04-26T06:39:13.008Z</time></trkpt><trkpt lat="44.7064967" lon="10.18141"><ele>158.0</ele><time>2026-04-26T06:39:14.008Z</time></trkpt><trkpt lat="44.706485" lon="10.1815083"><ele>157.57142857142858</ele><time>2026-04-26T06:39:15.009Z</time></trkpt><trkpt lat="44.70648" lon="10.1816033"><ele>157.14285714285714</ele><time>2026-04-26T06:39:16.009Z</time></trkpt><trkpt lat="44.706485" lon="10.1817"><ele>156.71428571428572</ele><time>2026-04-26T06:39:17.009Z</time></trkpt><trkpt lat="44.706485" lon="10.18179"><ele>156.28571428571428</ele><time>2026-04-26T06:39:18.008Z</time></trkpt><trkpt lat="44.7064967" lon="10.18189"><ele>155.85714285714286</ele><time>2026-04-26T06:39:19.009Z</time></trkpt><trkpt lat="44.7065117" lon="10.1819833"><ele>155.42857142857144</ele><time>2026-04-26T06:39:20.008Z</time></trkpt><trkpt lat="44.7065283" lon="10.1820817"><ele>155.0</ele><time>2026-04-26T06:39:21.008Z</time></trkpt><trkpt lat="44.70655" lon="10.1821683"><ele>155.0</ele><time>2026-04-26T06:39:22.008Z</time></trkpt><trkpt lat="44.7065917" lon="10.182335"><ele>155.0</ele><time>2026-04-26T06:39:24.008Z</time></trkpt><trkpt lat="44.70661" lon="10.1824283"><ele>155.0</ele><time>2026-04-26T06:39:25.009Z</time></trkpt><trkpt lat="44.7066317" lon="10.1825117"><ele>155.0</ele><time>2026-04-26T06:39:26.008Z</time></trkpt><trkpt lat="44.706645" lon="10.1826083"><ele>155.0</ele><time>2026-04-26T06:39:27.009Z</time></trkpt><trkpt lat="44.7066567" lon="10.1827017"><ele>155.0</ele><time>2026-04-26T06:39:28.008Z</time></trkpt><trkpt lat="44.706695" lon="10.1828617"><ele>155.0</ele><time>2026-04-26T06:39:30.008Z</time></trkpt><trkpt lat="44.7067417" lon="10.1830167"><ele>155.0</ele><time>2026-04-26T06:39:32.008Z</time></trkpt><trkpt lat="44.7067683" lon="10.183145"><ele>155.0</ele><time>2026-04-26T06:39:34.008Z</time></trkpt><trkpt lat="44.706745" lon="10.1830333"><ele>155.0</ele><time>2026-04-26T06:39:41.009Z</time></trkpt><trkpt lat="44.7067067" lon="10.1829533"><ele>155.0</ele><time>2026-04-26T06:39:43.009Z</time></trkpt><trkpt lat="44.706675" lon="10.18284"><ele>155.0</ele><time>2026-04-26T06:39:45.009Z</time></trkpt><trkpt lat="44.706645" lon="10.1827133"><ele>155.0</ele><time>2026-04-26T06:39:47.008Z</time></trkpt><trkpt lat="44.7066133" lon="10.1826033"><ele>155.0</ele><time>2026-04-26T06:39:49.008Z</time></trkpt><trkpt lat="44.7065783" lon="10.1824817"><ele>155.0</ele><time>2026-04-26T06:39:51.008Z</time></trkpt><trkpt lat="44.70656" lon="10.1823433"><ele>155.0</ele><time>2026-04-26T06:39:53.008Z</time></trkpt><trkpt lat="44.706535" lon="10.182225"><ele>155.0</ele><time>2026-04-26T06:39:55.009Z</time></trkpt><trkpt lat="44.70652" lon="10.1820833"><ele>155.0</ele><time>2026-04-26T06:39:57.008Z</time></trkpt><trkpt lat="44.7065083" lon="10.18194"><ele>155.0</ele><time>2026-04-26T06:39:59.008Z</time></trkpt><trkpt lat="44.7064917" lon="10.1818117"><ele>155.0</ele><time>2026-04-26T06:40:01.008Z</time></trkpt><trkpt lat="44.7064817" lon="10.18168"><ele>155.0</ele><time>2026-04-26T06:40:03.009Z</time></trkpt><trkpt lat="44.70649" lon="10.18154"><ele>155.6</ele><time>2026-04-26T06:40:05.008Z</time></trkpt><trkpt lat="44.706495" lon="10.181405"><ele>156.2</ele><time>2026-04-26T06:40:07.008Z</time></trkpt><trkpt lat="44.7064933" lon="10.18127"><ele>156.8</ele><time>2026-04-26T06:40:09.008Z</time></trkpt><trkpt lat="44.7064833" lon="10.1811417"><ele>157.4</ele><time>2026-04-26T06:40:11.008Z</time></trkpt><trkpt lat="44.7064767" lon="10.1810133"><ele>158.0</ele><time>2026-04-26T06:40:13.008Z</time></trkpt><trkpt lat="44.7064633" lon="10.18086"><ele>158.0</ele><time>2026-04-26T06:40:15.008Z</time></trkpt><trkpt lat="44.7064317" lon="10.18075"><ele>158.0</ele><time>2026-04-26T06:40:17.009Z</time></trkpt><trkpt lat="44.7063817" lon="10.18068"><ele>158.0</ele><time>2026-04-26T06:40:19.008Z</time></trkpt><trkpt lat="44.7063017" lon="10.1806533"><ele>158.0</ele><time>2026-04-26T06:40:21.008Z</time></trkpt><trkpt lat="44.706235" lon="10.1807133"><ele>158.0</ele><time>2026-04-26T06:40:23.008Z</time></trkpt><trkpt lat="44.7061667" lon="10.180785"><ele>158.0</ele><time>2026-04-26T06:40:26.007Z</time></trkpt><trkpt lat="44.70609" lon="10.1808133"><ele>158.5</ele><time>2026-04-26T06:40:29.008Z</time></trkpt><trkpt lat="44.706015" lon="10.180805"><ele>159.0</ele><time>2026-04-26T06:40:32.008Z</time></trkpt><trkpt lat="44.7059567" lon="10.180755"><ele>159.5</ele><time>2026-04-26T06:40:35.007Z</time></trkpt><trkpt lat="44.7058817" lon="10.1806983"><ele>160.0</ele><time>2026-04-26T06:40:39.008Z</time></trkpt><trkpt lat="44.7058167" lon="10.1806433"><ele>160.5</ele><time>2026-04-26T06:40:43.007Z</time></trkpt><trkpt lat="44.705755" lon="10.1805733"><ele>161.0</ele><time>2026-04-26T06:40:47.007Z</time></trkpt><trkpt lat="44.7056817" lon="10.1805183"><ele>161.0</ele><time>2026-04-26T06:40:51.007Z</time></trkpt><trkpt lat="44.70561" lon="10.18046"><ele>161.0</ele><time>2026-04-26T06:40:55.008Z</time></trkpt><trkpt lat="44.705545" lon="10.1804283"><ele>161.0</ele><time>2026-04-26T06:40:59.008Z</time></trkpt><trkpt lat="44.705475" lon="10.18038"><ele>161.0</ele><time>2026-04-26T06:41:04.008Z</time></trkpt><trkpt lat="44.7054183" lon="10.18034"><ele>161.0</ele><time>2026-04-26T06:41:07.007Z</time></trkpt><trkpt lat="44.705355" lon="10.1803"><ele>161.0</ele><time>2026-04-26T06:41:11.007Z</time></trkpt><trkpt lat="44.7052867" lon="10.1802883"><ele>161.0</ele><time>2026-04-26T06:41:15.007Z</time></trkpt><trkpt lat="44.705225" lon="10.1802467"><ele>162.66666666666666</ele><time>2026-04-26T06:41:20.008Z</time></trkpt><trkpt lat="44.705165" lon="10.1802183"><ele>164.33333333333331</ele><time>2026-04-26T06:41:25.007Z</time></trkpt><trkpt lat="44.7050533" lon="10.1801617"><ele>166.0</ele><time>2026-04-26T06:41:34.007Z</time></trkpt><trkpt lat="44.7049883" lon="10.1801333"><ele>167.66666666666666</ele><time>2026-04-26T06:41:40.008Z</time></trkpt><trkpt lat="44.704925" lon="10.1801033"><ele>169.33333333333334</ele><time>2026-04-26T06:41:45.007Z</time></trkpt><trkpt lat="44.70484" lon="10.1800683"><ele>171.0</ele><time>2026-04-26T06:41:53.007Z</time></trkpt><trkpt lat="44.704695" lon="10.1800133"><ele>171.0</ele><time>2026-04-26T06:42:03.007Z</time></trkpt><trkpt lat="44.7046267" lon="10.179995"><ele>171.0</ele><time>2026-04-26T06:42:09.007Z</time></trkpt><trkpt lat="44.7045483" lon="10.1800033"><ele>171.0</ele><time>2026-04-26T06:42:12.007Z</time></trkpt><trkpt lat="44.7044683" lon="10.1800267"><ele>171.0</ele><time>2026-04-26T06:42:18.007Z</time></trkpt><trkpt lat="44.704335" lon="10.180125"><ele>171.0</ele><time>2026-04-26T06:42:30.007Z</time></trkpt><trkpt lat="44.70425" lon="10.1802367"><ele>174.0</ele><time>2026-04-26T06:42:41.007Z</time></trkpt><trkpt lat="44.7041467" lon="10.1803133"><ele>177.0</ele><time>2026-04-26T06:42:54.007Z</time></trkpt><trkpt lat="44.7040033" lon="10.1803733"><ele>180.0</ele><time>2026-04-26T06:43:03.007Z</time></trkpt><trkpt lat="44.7039233" lon="10.1803783"><ele>183.0</ele><time>2026-04-26T06:43:06.007Z</time></trkpt><trkpt lat="44.7038567" lon="10.18037"><ele>186.0</ele><time>2026-04-26T06:43:08.008Z</time></trkpt><trkpt lat="44.7037317" lon="10.1802567"><ele>186.0</ele><time>2026-04-26T06:43:20.007Z</time></trkpt><trkpt lat="44.7036367" lon="10.1801267"><ele>186.0</ele><time>2026-04-26T06:43:26.007Z</time></trkpt><trkpt lat="44.7036017" lon="10.1800317"><ele>186.0</ele><time>2026-04-26T06:43:31.007Z</time></trkpt><trkpt lat="44.70355" lon="10.1799467"><ele>186.0</ele><time>2026-04-26T06:43:36.007Z</time></trkpt><trkpt lat="44.7034883" lon="10.179835"><ele>186.0</ele><time>2026-04-26T06:43:44.007Z</time></trkpt><trkpt lat="44.7034267" lon="10.1797667"><ele>186.57142857142858</ele><time>2026-04-26T06:43:48.007Z</time></trkpt><trkpt lat="44.7033633" lon="10.1797133"><ele>187.14285714285714</ele><time>2026-04-26T06:43:53.008Z</time></trkpt><trkpt lat="44.7032983" lon="10.1796867"><ele>187.71428571428572</ele><time>2026-04-26T06:43:57.007Z</time></trkpt><trkpt lat="44.703225" lon="10.1796567"><ele>188.28571428571428</ele><time>2026-04-26T06:44:02.007Z</time></trkpt><trkpt lat="44.7031533" lon="10.1796217"><ele>188.85714285714286</ele><time>2026-04-26T06:44:07.007Z</time></trkpt><trkpt lat="44.7030867" lon="10.17961"><ele>189.42857142857144</ele><time>2026-04-26T06:44:11.007Z</time></trkpt><trkpt lat="44.7030233" lon="10.17959"><ele>190.0</ele><time>2026-04-26T06:44:17.007Z</time></trkpt><trkpt lat="44.7028817" lon="10.1796067"><ele>194.0</ele><time>2026-04-26T06:44:35.007Z</time></trkpt><trkpt lat="44.7027367" lon="10.17961"><ele>198.0</ele><time>2026-04-26T06:44:47.007Z</time></trkpt><trkpt lat="44.7026183" lon="10.179545"><ele>202.0</ele><time>2026-04-26T06:44:57.007Z</time></trkpt><trkpt lat="44.7024833" lon="10.1794767"><ele>206.0</ele><time>2026-04-26T06:45:09.007Z</time></trkpt><trkpt lat="44.702415" lon="10.1794667"><ele>206.0</ele><time>2026-04-26T06:45:13.007Z</time></trkpt><trkpt lat="44.7022783" lon="10.1793917"><ele>206.0</ele><time>2026-04-26T06:45:23.007Z</time></trkpt><trkpt lat="44.7021817" lon="10.1793583"><ele>206.0</ele><time>2026-04-26T06:45:28.007Z</time></trkpt><trkpt lat="44.7021133" lon="10.17935"><ele>206.0</ele><time>2026-04-26T06:45:31.007Z</time></trkpt><trkpt lat="44.702035" lon="10.1793317"><ele>206.0</ele><time>2026-04-26T06:45:35.007Z</time></trkpt><trkpt lat="44.7019533" lon="10.1793233"><ele>208.33333333333334</ele><time>2026-04-26T06:45:40.007Z</time></trkpt><trkpt lat="44.7018867" lon="10.1793017"><ele>210.66666666666669</ele><time>2026-04-26T06:45:44.007Z</time></trkpt><trkpt lat="44.701775" lon="10.179275"><ele>213.0</ele><time>2026-04-26T06:45:52.007Z</time></trkpt><trkpt lat="44.70166" lon="10.179255"><ele>215.33333333333331</ele><time>2026-04-26T06:46:00.007Z</time></trkpt><trkpt lat="44.70158" lon="10.17923"><ele>217.66666666666666</ele><time>2026-04-26T06:46:05.007Z</time></trkpt><trkpt lat="44.7015183" lon="10.1792083"><ele>220.0</ele><time>2026-04-26T06:46:08.008Z</time></trkpt><trkpt lat="44.70144" lon="10.1791967"><ele>219.99999999999997</ele><time>2026-04-26T06:46:13.007Z</time></trkpt><trkpt lat="44.7013833" lon="10.179155"><ele>220.0</ele><time>2026-04-26T06:46:16.007Z</time></trkpt><trkpt lat="44.701325" lon="10.1791083"><ele>220.0</ele><time>2026-04-26T06:46:19.007Z</time></trkpt><trkpt lat="44.7012517" lon="10.1790817"><ele>220.0</ele><time>2026-04-26T06:46:23.007Z</time></trkpt><trkpt lat="44.7011717" lon="10.1790767"><ele>220.0</ele><time>2026-04-26T06:46:29.007Z</time></trkpt><trkpt lat="44.7011" lon="10.1790617"><ele>219.99999999999997</ele><time>2026-04-26T06:46:32.007Z</time></trkpt><trkpt lat="44.7010367" lon="10.1790383"><ele>220.0</ele><time>2026-04-26T06:46:35.007Z</time></trkpt><trkpt lat="44.7009617" lon="10.1790117"><ele>219.7142857142857</ele><time>2026-04-26T06:46:39.008Z</time></trkpt><trkpt lat="44.7008883" lon="10.1789767"><ele>219.42857142857142</ele><time>2026-04-26T06:46:43.007Z</time></trkpt><trkpt lat="44.70082" lon="10.178955"><ele>219.14285714285714</ele><time>2026-04-26T06:46:46.007Z</time></trkpt><trkpt lat="44.7007567" lon="10.1789367"><ele>218.85714285714283</ele><time>2026-04-26T06:46:50.007Z</time></trkpt><trkpt lat="44.700675" lon="10.1789117"><ele>218.57142857142858</ele><time>2026-04-26T06:46:54.007Z</time></trkpt><trkpt lat="44.700605" lon="10.1788917"><ele>218.28571428571428</ele><time>2026-04-26T06:46:58.007Z</time></trkpt><trkpt lat="44.700545" lon="10.1788617"><ele>218.0</ele><time>2026-04-26T06:47:02.007Z</time></trkpt><trkpt lat="44.7004767" lon="10.1788317"><ele>218.0</ele><time>2026-04-26T06:47:08.008Z</time></trkpt><trkpt lat="44.7004133" lon="10.1788117"><ele>218.0</ele><time>2026-04-26T06:47:12.007Z</time></trkpt><trkpt lat="44.7003383" lon="10.1787883"><ele>218.0</ele><time>2026-04-26T06:47:17.008Z</time></trkpt><trkpt lat="44.7002383" lon="10.1787983"><ele>218.0</ele><time>2026-04-26T06:47:25.007Z</time></trkpt><trkpt lat="44.7001283" lon="10.1789117"><ele>218.0</ele><time>2026-04-26T06:47:38.007Z</time></trkpt><trkpt lat="44.7001017" lon="10.1790317"><ele>221.83333333333334</ele><time>2026-04-26T06:47:44.007Z</time></trkpt><trkpt lat="44.7000933" lon="10.1791267"><ele>225.66666666666669</ele><time>2026-04-26T06:47:49.007Z</time></trkpt><trkpt lat="44.7000517" lon="10.179215"><ele>229.5</ele><time>2026-04-26T06:47:55.007Z</time></trkpt><trkpt lat="44.6999433" lon="10.1793033"><ele>233.33333333333331</ele><time>2026-04-26T06:48:08.007Z</time></trkpt><trkpt lat="44.699885" lon="10.1793467"><ele>237.16666666666666</ele><time>2026-04-26T06:48:11.007Z</time></trkpt><trkpt lat="44.6998267" lon="10.1794417"><ele>241.0</ele><time>2026-04-26T06:48:16.007Z</time></trkpt><trkpt lat="44.699765" lon="10.1794667"><ele>240.99999999999997</ele><time>2026-04-26T06:48:22.007Z</time></trkpt><trkpt lat="44.6997017" lon="10.17944"><ele>241.0</ele><time>2026-04-26T06:48:26.007Z</time></trkpt><trkpt lat="44.6996383" lon="10.1794133"><ele>241.0</ele><time>2026-04-26T06:48:29.007Z</time></trkpt><trkpt lat="44.699565" lon="10.1793883"><ele>241.0</ele><time>2026-04-26T06:48:33.007Z</time></trkpt><trkpt lat="44.6994767" lon="10.1793517"><ele>240.99999999999997</ele><time>2026-04-26T06:48:36.007Z</time></trkpt><trkpt lat="44.69939" lon="10.1792783"><ele>241.0</ele><time>2026-04-26T06:48:38.008Z</time></trkpt><trkpt lat="44.699325" lon="10.17924"><ele>240.66666666666666</ele><time>2026-04-26T06:48:39.007Z</time></trkpt><trkpt lat="44.6992617" lon="10.1792083"><ele>240.33333333333331</ele><time>2026-04-26T06:48:40.007Z</time></trkpt><trkpt lat="44.6991867" lon="10.1791717"><ele>240.0</ele><time>2026-04-26T06:48:41.008Z</time></trkpt><trkpt lat="44.6991067" lon="10.179135"><ele>239.66666666666669</ele><time>2026-04-26T06:48:42.007Z</time></trkpt><trkpt lat="44.6990333" lon="10.1790983"><ele>239.33333333333334</ele><time>2026-04-26T06:48:43.007Z</time></trkpt><trkpt lat="44.6989683" lon="10.1790633"><ele>239.0</ele><time>2026-04-26T06:48:44.008Z</time></trkpt><trkpt lat="44.698895" lon="10.178965"><ele>239.00000000000003</ele><time>2026-04-26T06:48:46.007Z</time></trkpt><trkpt lat="44.69885" lon="10.1788883"><ele>239.0</ele><time>2026-04-26T06:48:49.007Z</time></trkpt><trkpt lat="44.6988" lon="10.1788183"><ele>239.0</ele><time>2026-04-26T06:48:53.008Z</time></trkpt><trkpt lat="44.6987283" lon="10.1787483"><ele>239.0</ele><time>2026-04-26T06:48:57.007Z</time></trkpt><trkpt lat="44.6986633" lon="10.1787033"><ele>239.00000000000003</ele><time>2026-04-26T06:49:00.007Z</time></trkpt><trkpt lat="44.6985933" lon="10.1786583"><ele>239.0</ele><time>2026-04-26T06:49:04.007Z</time></trkpt><trkpt lat="44.6985183" lon="10.1786133"><ele>239.8571428571429</ele><time>2026-04-26T06:49:08.007Z</time></trkpt><trkpt lat="44.6984567" lon="10.1785833"><ele>240.71428571428572</ele><time>2026-04-26T06:49:11.007Z</time></trkpt><trkpt lat="44.6983867" lon="10.1785467"><ele>241.57142857142858</ele><time>2026-04-26T06:49:17.008Z</time></trkpt><trkpt lat="44.6983217" lon="10.1785"><ele>242.42857142857144</ele><time>2026-04-26T06:49:22.007Z</time></trkpt><trkpt lat="44.6982633" lon="10.1784633"><ele>243.28571428571428</ele><time>2026-04-26T06:49:26.008Z</time></trkpt><trkpt lat="44.69819" lon="10.17842"><ele>244.14285714285714</ele><time>2026-04-26T06:49:30.007Z</time></trkpt><trkpt lat="44.6981283" lon="10.178385"><ele>245.0</ele><time>2026-04-26T06:49:34.007Z</time></trkpt><trkpt lat="44.698065" lon="10.1783517"><ele>245.0</ele><time>2026-04-26T06:49:40.007Z</time></trkpt><trkpt lat="44.698005" lon="10.1783133"><ele>245.0</ele><time>2026-04-26T06:49:45.007Z</time></trkpt><trkpt lat="44.69794" lon="10.17827"><ele>245.0</ele><time>2026-04-26T06:49:50.007Z</time></trkpt><trkpt lat="44.6978767" lon="10.1782267"><ele>245.0</ele><time>2026-04-26T06:49:55.007Z</time></trkpt><trkpt lat="44.697805" lon="10.178185"><ele>245.0</ele><time>2026-04-26T06:49:59.008Z</time></trkpt><trkpt lat="44.6977233" lon="10.1781283"><ele>245.0</ele><time>2026-04-26T06:50:02.007Z</time></trkpt><trkpt lat="44.6976683" lon="10.178075"><ele>245.0</ele><time>2026-04-26T06:50:04.007Z</time></trkpt><trkpt lat="44.6976033" lon="10.1780233"><ele>246.0</ele><time>2026-04-26T06:50:07.007Z</time></trkpt><trkpt lat="44.697545" lon="10.1779817"><ele>247.0</ele><time>2026-04-26T06:50:10.007Z</time></trkpt><trkpt lat="44.697475" lon="10.1779367"><ele>248.0</ele><time>2026-04-26T06:50:14.008Z</time></trkpt><trkpt lat="44.697415" lon="10.177895"><ele>249.0</ele><time>2026-04-26T06:50:19.007Z</time></trkpt><trkpt lat="44.6973467" lon="10.1778483"><ele>250.0</ele><time>2026-04-26T06:50:24.008Z</time></trkpt><trkpt lat="44.697275" lon="10.17779"><ele>251.0</ele><time>2026-04-26T06:50:28.008Z</time></trkpt><trkpt lat="44.6972133" lon="10.1777367"><ele>252.0</ele><time>2026-04-26T06:50:32.007Z</time></trkpt><trkpt lat="44.6971483" lon="10.1776967"><ele>252.0</ele><time>2026-04-26T06:50:36.008Z</time></trkpt><trkpt lat="44.6970817" lon="10.1776383"><ele>252.0</ele><time>2026-04-26T06:50:41.007Z</time></trkpt><trkpt lat="44.6970083" lon="10.1775833"><ele>252.0</ele><time>2026-04-26T06:50:47.007Z</time></trkpt><trkpt lat="44.696945" lon="10.17754"><ele>252.0</ele><time>2026-04-26T06:50:52.007Z</time></trkpt><trkpt lat="44.696875" lon="10.177485"><ele>252.0</ele><time>2026-04-26T06:50:57.007Z</time></trkpt><trkpt lat="44.6968183" lon="10.1774417"><ele>252.0</ele><time>2026-04-26T06:51:01.007Z</time></trkpt><trkpt lat="44.6967583" lon="10.1774083"><ele>252.0</ele><time>2026-04-26T06:51:06.007Z</time></trkpt><trkpt lat="44.69669" lon="10.17736"><ele>252.5</ele><time>2026-04-26T06:51:11.008Z</time></trkpt><trkpt lat="44.69663" lon="10.177325"><ele>253.0</ele><time>2026-04-26T06:51:15.007Z</time></trkpt><trkpt lat="44.6965583" lon="10.1772817"><ele>253.5</ele><time>2026-04-26T06:51:19.007Z</time></trkpt><trkpt lat="44.696485" lon="10.1772333"><ele>254.0</ele><time>2026-04-26T06:51:23.007Z</time></trkpt><trkpt lat="44.6964167" lon="10.17718"><ele>254.5</ele><time>2026-04-26T06:51:29.007Z</time></trkpt><trkpt lat="44.6963383" lon="10.1771317"><ele>255.0</ele><time>2026-04-26T06:51:35.007Z</time></trkpt><trkpt lat="44.6962733" lon="10.1770817"><ele>255.0</ele><time>2026-04-26T06:51:39.007Z</time></trkpt><trkpt lat="44.696205" lon="10.1770233"><ele>255.00000000000003</ele><time>2026-04-26T06:51:44.007Z</time></trkpt><trkpt lat="44.69615" lon="10.1769583"><ele>255.0</ele><time>2026-04-26T06:51:48.008Z</time></trkpt><trkpt lat="44.6961467" lon="10.1768633"><ele>255.0</ele><time>2026-04-26T06:51:54.007Z</time></trkpt><trkpt lat="44.6961517" lon="10.1767733"><ele>255.00000000000003</ele><time>2026-04-26T06:52:00.007Z</time></trkpt><trkpt lat="44.6961683" lon="10.1766717"><ele>255.0</ele><time>2026-04-26T06:52:06.008Z</time></trkpt><trkpt lat="44.6961533" lon="10.176575"><ele>255.0</ele><time>2026-04-26T06:52:11.007Z</time></trkpt><trkpt lat="44.6961383" lon="10.176465"><ele>255.0</ele><time>2026-04-26T06:52:16.008Z</time></trkpt><trkpt lat="44.69612" lon="10.176375"><ele>255.00000000000003</ele><time>2026-04-26T06:52:20.007Z</time></trkpt><trkpt lat="44.69606" lon="10.1762983"><ele>255.0</ele><time>2026-04-26T06:52:24.007Z</time></trkpt><trkpt lat="44.696005" lon="10.17623"><ele>255.0</ele><time>2026-04-26T06:52:29.007Z</time></trkpt><trkpt lat="44.69596" lon="10.17616"><ele>255.00000000000003</ele><time>2026-04-26T06:52:33.007Z</time></trkpt><trkpt lat="44.6959083" lon="10.1761017"><ele>255.0</ele><time>2026-04-26T06:52:36.007Z</time></trkpt><trkpt lat="44.695855" lon="10.1760467"><ele>255.0</ele><time>2026-04-26T06:52:39.007Z</time></trkpt><trkpt lat="44.6958033" lon="10.1759833"><ele>257.3333333333333</ele><time>2026-04-26T06:52:42.007Z</time></trkpt><trkpt lat="44.6957383" lon="10.1759433"><ele>259.6666666666667</ele><time>2026-04-26T06:52:45.007Z</time></trkpt><trkpt lat="44.69567" lon="10.17591"><ele>262.0</ele><time>2026-04-26T06:52:48.007Z</time></trkpt><trkpt lat="44.69559" lon="10.1758617"><ele>264.33333333333337</ele><time>2026-04-26T06:52:51.008Z</time></trkpt><trkpt lat="44.6954983" lon="10.175835"><ele>266.6666666666667</ele><time>2026-04-26T06:52:54.007Z</time></trkpt><trkpt lat="44.6954083" lon="10.17582"><ele>269.0</ele><time>2026-04-26T06:52:56.007Z</time></trkpt><trkpt lat="44.6952983" lon="10.175815"><ele>267.4</ele><time>2026-04-26T06:52:58.007Z</time></trkpt><trkpt lat="44.6952067" lon="10.1758233"><ele>265.79999999999995</ele><time>2026-04-26T06:53:00.007Z</time></trkpt><trkpt lat="44.695115" lon="10.1758233"><ele>264.20000000000005</ele><time>2026-04-26T06:53:02.007Z</time></trkpt><trkpt lat="44.6950017" lon="10.1758167"><ele>262.6</ele><time>2026-04-26T06:53:04.007Z</time></trkpt><trkpt lat="44.6949033" lon="10.17582"><ele>261.0</ele><time>2026-04-26T06:53:06.007Z</time></trkpt><trkpt lat="44.6948" lon="10.1758233"><ele>261.0</ele><time>2026-04-26T06:53:08.007Z</time></trkpt><trkpt lat="44.6946933" lon="10.175835"><ele>261.0</ele><time>2026-04-26T06:53:10.007Z</time></trkpt><trkpt lat="44.6945833" lon="10.175845"><ele>261.0</ele><time>2026-04-26T06:53:12.007Z</time></trkpt><trkpt lat="44.6945183" lon="10.1758583"><ele>261.0</ele><time>2026-04-26T06:53:13.007Z</time></trkpt><trkpt lat="44.6944533" lon="10.1758567"><ele>261.0</ele><time>2026-04-26T06:53:14.008Z</time></trkpt><trkpt lat="44.694335" lon="10.1758117"><ele>259.1666666666667</ele><time>2026-04-26T06:53:16.008Z</time></trkpt><trkpt lat="44.6942717" lon="10.1757933"><ele>257.3333333333333</ele><time>2026-04-26T06:53:17.007Z</time></trkpt><trkpt lat="44.6941717" lon="10.1757567"><ele>255.5</ele><time>2026-04-26T06:53:19.007Z</time></trkpt><trkpt lat="44.6940617" lon="10.1756983"><ele>253.66666666666666</ele><time>2026-04-26T06:53:21.007Z</time></trkpt><trkpt lat="44.6939833" lon="10.1756583"><ele>251.83333333333331</ele><time>2026-04-26T06:53:23.007Z</time></trkpt><trkpt lat="44.6939167" lon="10.1756317"><ele>250.0</ele><time>2026-04-26T06:53:25.008Z</time></trkpt><trkpt lat="44.693825" lon="10.1755867"><ele>249.49999999999997</ele><time>2026-04-26T06:53:27.008Z</time></trkpt><trkpt lat="44.6937483" lon="10.1755483"><ele>249.0</ele><time>2026-04-26T06:53:29.007Z</time></trkpt><trkpt lat="44.6936717" lon="10.1755183"><ele>248.5</ele><time>2026-04-26T06:53:31.007Z</time></trkpt><trkpt lat="44.693605" lon="10.1754983"><ele>248.0</ele><time>2026-04-26T06:53:34.007Z</time></trkpt><trkpt lat="44.69353" lon="10.1754733"><ele>247.49999999999997</ele><time>2026-04-26T06:53:38.008Z</time></trkpt><trkpt lat="44.69346" lon="10.17544"><ele>247.0</ele><time>2026-04-26T06:53:42.007Z</time></trkpt><trkpt lat="44.693385" lon="10.1754"><ele>248.49999999999997</ele><time>2026-04-26T06:53:46.007Z</time></trkpt><trkpt lat="44.6933183" lon="10.175375"><ele>250.0</ele><time>2026-04-26T06:53:49.007Z</time></trkpt><trkpt lat="44.6932433" lon="10.1753433"><ele>251.5</ele><time>2026-04-26T06:53:53.007Z</time></trkpt><trkpt lat="44.6931733" lon="10.1753217"><ele>253.0</ele><time>2026-04-26T06:53:58.007Z</time></trkpt><trkpt lat="44.6931067" lon="10.1752633"><ele>254.49999999999997</ele><time>2026-04-26T06:54:03.007Z</time></trkpt><trkpt lat="44.6930417" lon="10.175215"><ele>256.0</ele><time>2026-04-26T06:54:06.007Z</time></trkpt><trkpt lat="44.6929767" lon="10.1751417"><ele>256.0</ele><time>2026-04-26T06:54:09.007Z</time></trkpt><trkpt lat="44.6929283" lon="10.17507"><ele>255.99999999999997</ele><time>2026-04-26T06:54:12.007Z</time></trkpt><trkpt lat="44.6928817" lon="10.174985"><ele>256.0</ele><time>2026-04-26T06:54:16.007Z</time></trkpt><trkpt lat="44.69283" lon="10.1749033"><ele>256.0</ele><time>2026-04-26T06:54:20.007Z</time></trkpt><trkpt lat="44.6927833" lon="10.1748333"><ele>255.99999999999997</ele><time>2026-04-26T06:54:24.007Z</time></trkpt><trkpt lat="44.6927433" lon="10.17476"><ele>256.0</ele><time>2026-04-26T06:54:28.007Z</time></trkpt><trkpt lat="44.6927" lon="10.1746833"><ele>256.0</ele><time>2026-04-26T06:54:33.008Z</time></trkpt><trkpt lat="44.6926417" lon="10.1746267"><ele>257.16666666666663</ele><time>2026-04-26T06:54:37.007Z</time></trkpt><trkpt lat="44.6925717" lon="10.1745733"><ele>258.3333333333333</ele><time>2026-04-26T06:54:41.007Z</time></trkpt><trkpt lat="44.6925183" lon="10.174515"><ele>259.5</ele><time>2026-04-26T06:54:46.007Z</time></trkpt><trkpt lat="44.69246" lon="10.17448"><ele>260.6666666666667</ele><time>2026-04-26T06:54:50.007Z</time></trkpt><trkpt lat="44.6924017" lon="10.1744267"><ele>261.83333333333337</ele><time>2026-04-26T06:54:55.007Z</time></trkpt><trkpt lat="44.6923267" lon="10.1744017"><ele>263.0</ele><time>2026-04-26T06:55:00.007Z</time></trkpt><trkpt lat="44.69223" lon="10.1743817"><ele>263.0</ele><time>2026-04-26T06:55:06.007Z</time></trkpt><trkpt lat="44.6921567" lon="10.1743667"><ele>263.0</ele><time>2026-04-26T06:55:11.007Z</time></trkpt><trkpt lat="44.6920867" lon="10.174345"><ele>263.0</ele><time>2026-04-26T06:55:14.007Z</time></trkpt><trkpt lat="44.6920167" lon="10.17432"><ele>263.0</ele><time>2026-04-26T06:55:17.007Z</time></trkpt><trkpt lat="44.6919533" lon="10.1742967"><ele>263.0</ele><time>2026-04-26T06:55:20.007Z</time></trkpt><trkpt lat="44.6918733" lon="10.1742867"><ele>263.0</ele><time>2026-04-26T06:55:25.007Z</time></trkpt><trkpt lat="44.6917983" lon="10.1742767"><ele>263.0</ele><time>2026-04-26T06:55:29.007Z</time></trkpt><trkpt lat="44.691725" lon="10.174275"><ele>264.1666666666667</ele><time>2026-04-26T06:55:33.007Z</time></trkpt><trkpt lat="44.6916483" lon="10.17428"><ele>265.33333333333337</ele><time>2026-04-26T06:55:36.007Z</time></trkpt><trkpt lat="44.6915633" lon="10.1743117"><ele>266.5</ele><time>2026-04-26T06:55:40.007Z</time></trkpt><trkpt lat="44.6914783" lon="10.1743333"><ele>267.6666666666667</ele><time>2026-04-26T06:55:43.007Z</time></trkpt><trkpt lat="44.6913883" lon="10.1743583"><ele>268.8333333333333</ele><time>2026-04-26T06:55:46.007Z</time></trkpt><trkpt lat="44.6913233" lon="10.1743917"><ele>270.0</ele><time>2026-04-26T06:55:49.007Z</time></trkpt><trkpt lat="44.6912617" lon="10.1744333"><ele>270.0</ele><time>2026-04-26T06:55:52.007Z</time></trkpt><trkpt lat="44.6911883" lon="10.1744833"><ele>270.0</ele><time>2026-04-26T06:55:57.007Z</time></trkpt><trkpt lat="44.6911183" lon="10.174515"><ele>270.0</ele><time>2026-04-26T06:56:01.007Z</time></trkpt><trkpt lat="44.6910367" lon="10.17453"><ele>270.0</ele><time>2026-04-26T06:56:05.007Z</time></trkpt><trkpt lat="44.6909633" lon="10.1745367"><ele>270.0</ele><time>2026-04-26T06:56:08.007Z</time></trkpt><trkpt lat="44.690895" lon="10.1745583"><ele>270.0</ele><time>2026-04-26T06:56:11.007Z</time></trkpt><trkpt lat="44.69078" lon="10.1746333"><ele>270.2857142857143</ele><time>2026-04-26T06:56:20.007Z</time></trkpt><trkpt lat="44.6907217" lon="10.1746683"><ele>270.57142857142856</ele><time>2026-04-26T06:56:23.007Z</time></trkpt><trkpt lat="44.6906567" lon="10.1747183"><ele>270.85714285714283</ele><time>2026-04-26T06:56:27.007Z</time></trkpt><trkpt lat="44.6905983" lon="10.1747633"><ele>271.1428571428571</ele><time>2026-04-26T06:56:31.007Z</time></trkpt><trkpt lat="44.690515" lon="10.1748017"><ele>271.42857142857144</ele><time>2026-04-26T06:56:34.007Z</time></trkpt><trkpt lat="44.6904417" lon="10.1748467"><ele>271.71428571428567</ele><time>2026-04-26T06:56:37.007Z</time></trkpt><trkpt lat="44.6903783" lon="10.174865"><ele>272.0</ele><time>2026-04-26T06:56:39.007Z</time></trkpt><trkpt lat="44.6903133" lon="10.1748817"><ele>274.33333333333337</ele><time>2026-04-26T06:56:41.007Z</time></trkpt><trkpt lat="44.69022" lon="10.1749033"><ele>276.6666666666667</ele><time>2026-04-26T06:56:44.008Z</time></trkpt><trkpt lat="44.6901567" lon="10.174915"><ele>279.0</ele><time>2026-04-26T06:56:46.007Z</time></trkpt><trkpt lat="44.6900683" lon="10.1749383"><ele>281.3333333333333</ele><time>2026-04-26T06:56:49.007Z</time></trkpt><trkpt lat="44.689985" lon="10.17495"><ele>283.66666666666663</ele><time>2026-04-26T06:56:52.007Z</time></trkpt><trkpt lat="44.6899217" lon="10.1749617"><ele>286.0</ele><time>2026-04-26T06:56:55.007Z</time></trkpt><trkpt lat="44.6898567" lon="10.174985"><ele>286.0</ele><time>2026-04-26T06:56:58.008Z</time></trkpt><trkpt lat="44.6897833" lon="10.1750033"><ele>286.0</ele><time>2026-04-26T06:57:02.008Z</time></trkpt><trkpt lat="44.68972" lon="10.1750317"><ele>286.0</ele><time>2026-04-26T06:57:06.007Z</time></trkpt><trkpt lat="44.6896417" lon="10.1750517"><ele>286.0</ele><time>2026-04-26T06:57:10.007Z</time></trkpt><trkpt lat="44.6895633" lon="10.175075"><ele>286.0</ele><time>2026-04-26T06:57:14.008Z</time></trkpt><trkpt lat="44.6894867" lon="10.1751083"><ele>286.0</ele><time>2026-04-26T06:57:18.007Z</time></trkpt><trkpt lat="44.68941" lon="10.1751367"><ele>286.8333333333333</ele><time>2026-04-26T06:57:22.008Z</time></trkpt><trkpt lat="44.6893383" lon="10.175155"><ele>287.66666666666663</ele><time>2026-04-26T06:57:26.007Z</time></trkpt><trkpt lat="44.689245" lon="10.1751883"><ele>288.5</ele><time>2026-04-26T06:57:32.007Z</time></trkpt><trkpt lat="44.6891783" lon="10.17523"><ele>289.3333333333333</ele><time>2026-04-26T06:57:36.007Z</time></trkpt><trkpt lat="44.6891117" lon="10.1752517"><ele>290.1666666666667</ele><time>2026-04-26T06:57:40.008Z</time></trkpt><trkpt lat="44.689045" lon="10.1752717"><ele>291.0</ele><time>2026-04-26T06:57:44.007Z</time></trkpt><trkpt lat="44.6889717" lon="10.1752817"><ele>291.0</ele><time>2026-04-26T06:57:48.007Z</time></trkpt><trkpt lat="44.6889067" lon="10.1753067"><ele>291.0</ele><time>2026-04-26T06:57:53.007Z</time></trkpt><trkpt lat="44.6888283" lon="10.175335"><ele>291.0</ele><time>2026-04-26T06:57:58.008Z</time></trkpt><trkpt lat="44.6887633" lon="10.175355"><ele>291.0</ele><time>2026-04-26T06:58:03.007Z</time></trkpt><trkpt lat="44.6886967" lon="10.175375"><ele>291.0</ele><time>2026-04-26T06:58:08.007Z</time></trkpt><trkpt lat="44.6886333" lon="10.175395"><ele>291.0</ele><time>2026-04-26T06:58:14.007Z</time></trkpt><trkpt lat="44.6885867" lon="10.1754683"><ele>291.0</ele><time>2026-04-26T06:58:19.008Z</time></trkpt><trkpt lat="44.688525" lon="10.1755367"><ele>291.8333333333333</ele><time>2026-04-26T06:58:24.008Z</time></trkpt><trkpt lat="44.6884517" lon="10.17557"><ele>292.6666666666667</ele><time>2026-04-26T06:58:28.007Z</time></trkpt><trkpt lat="44.6883717" lon="10.1755983"><ele>293.5</ele><time>2026-04-26T06:58:32.007Z</time></trkpt><trkpt lat="44.6883083" lon="10.1755983"><ele>294.33333333333337</ele><time>2026-04-26T06:58:35.007Z</time></trkpt><trkpt lat="44.6882283" lon="10.17559"><ele>295.1666666666667</ele><time>2026-04-26T06:58:39.007Z</time></trkpt><trkpt lat="44.68816" lon="10.1756767"><ele>296.0</ele><time>2026-04-26T06:58:42.007Z</time></trkpt><trkpt lat="44.6880967" lon="10.175795"><ele>296.0</ele><time>2026-04-26T06:58:44.007Z</time></trkpt><trkpt lat="44.688035" lon="10.17593"><ele>296.0</ele><time>2026-04-26T06:58:46.008Z</time></trkpt><trkpt lat="44.688" lon="10.176005"><ele>296.0</ele><time>2026-04-26T06:58:47.007Z</time></trkpt><trkpt lat="44.68796" lon="10.1760817"><ele>296.0</ele><time>2026-04-26T06:58:48.007Z</time></trkpt><trkpt lat="44.6879117" lon="10.1761583"><ele>296.0</ele><time>2026-04-26T06:58:49.007Z</time></trkpt><trkpt lat="44.6878633" lon="10.17624"><ele>296.0</ele><time>2026-04-26T06:58:50.008Z</time></trkpt><trkpt lat="44.6878133" lon="10.1763217"><ele>296.0</ele><time>2026-04-26T06:58:51.007Z</time></trkpt><trkpt lat="44.6877767" lon="10.1764017"><ele>296.0</ele><time>2026-04-26T06:58:52.008Z</time></trkpt><trkpt lat="44.6877067" lon="10.176545"><ele>296.0</ele><time>2026-04-26T06:58:54.008Z</time></trkpt><trkpt lat="44.6876367" lon="10.1766667"><ele>296.0</ele><time>2026-04-26T06:58:56.007Z</time></trkpt><trkpt lat="44.6875933" lon="10.1767767"><ele>296.0</ele><time>2026-04-26T06:58:58.007Z</time></trkpt><trkpt lat="44.6875733" lon="10.1768667"><ele>296.1666666666667</ele><time>2026-04-26T06:59:00.007Z</time></trkpt><trkpt lat="44.6875383" lon="10.1769717"><ele>296.33333333333337</ele><time>2026-04-26T06:59:02.007Z</time></trkpt><trkpt lat="44.6875067" lon="10.1770983"><ele>296.5</ele><time>2026-04-26T06:59:04.007Z</time></trkpt><trkpt lat="44.6874767" lon="10.1772183"><ele>296.6666666666667</ele><time>2026-04-26T06:59:06.007Z</time></trkpt><trkpt lat="44.6874767" lon="10.1773317"><ele>296.8333333333333</ele><time>2026-04-26T06:59:08.008Z</time></trkpt><trkpt lat="44.6874367" lon="10.1774517"><ele>297.0</ele><time>2026-04-26T06:59:10.007Z</time></trkpt><trkpt lat="44.6874033" lon="10.177575"><ele>296.5</ele><time>2026-04-26T06:59:12.007Z</time></trkpt><trkpt lat="44.687375" lon="10.177705"><ele>296.0</ele><time>2026-04-26T06:59:14.007Z</time></trkpt><trkpt lat="44.6873717" lon="10.1778583"><ele>295.5</ele><time>2026-04-26T06:59:16.008Z</time></trkpt><trkpt lat="44.6873767" lon="10.1779567"><ele>295.0</ele><time>2026-04-26T06:59:17.008Z</time></trkpt><trkpt lat="44.687375" lon="10.1780633"><ele>294.5</ele><time>2026-04-26T06:59:18.007Z</time></trkpt><trkpt lat="44.68738" lon="10.1781783"><ele>294.0</ele><time>2026-04-26T06:59:19.007Z</time></trkpt><trkpt lat="44.6873767" lon="10.1782917"><ele>293.0</ele><time>2026-04-26T06:59:20.007Z</time></trkpt><trkpt lat="44.6873683" lon="10.1784067"><ele>292.0</ele><time>2026-04-26T06:59:21.007Z</time></trkpt><trkpt lat="44.6873583" lon="10.178515"><ele>291.0</ele><time>2026-04-26T06:59:22.007Z</time></trkpt><trkpt lat="44.6873467" lon="10.1786133"><ele>290.0</ele><time>2026-04-26T06:59:23.008Z</time></trkpt><trkpt lat="44.6873367" lon="10.1787033"><ele>289.0</ele><time>2026-04-26T06:59:24.008Z</time></trkpt><trkpt lat="44.6873267" lon="10.1787917"><ele>288.0</ele><time>2026-04-26T06:59:25.007Z</time></trkpt><trkpt lat="44.6873183" lon="10.178885"><ele>287.0</ele><time>2026-04-26T06:59:26.007Z</time></trkpt><trkpt lat="44.6873083" lon="10.1789783"><ele>286.5</ele><time>2026-04-26T06:59:27.007Z</time></trkpt><trkpt lat="44.6872833" lon="10.179065"><ele>286.0</ele><time>2026-04-26T06:59:28.007Z</time></trkpt><trkpt lat="44.6872667" lon="10.1792"><ele>285.5</ele><time>2026-04-26T06:59:30.008Z</time></trkpt><trkpt lat="44.6872283" lon="10.1793067"><ele>285.0</ele><time>2026-04-26T06:59:33.007Z</time></trkpt><trkpt lat="44.6871983" lon="10.1793967"><ele>284.5</ele><time>2026-04-26T06:59:36.007Z</time></trkpt><trkpt lat="44.6871733" lon="10.1794783"><ele>284.0</ele><time>2026-04-26T06:59:39.007Z</time></trkpt><trkpt lat="44.6871417" lon="10.1795617"><ele>284.0</ele><time>2026-04-26T06:59:41.007Z</time></trkpt><trkpt lat="44.6871" lon="10.1796417"><ele>284.0</ele><time>2026-04-26T06:59:43.007Z</time></trkpt><trkpt lat="44.6870633" lon="10.1797367"><ele>284.0</ele><time>2026-04-26T06:59:45.008Z</time></trkpt><trkpt lat="44.6870217" lon="10.1798417"><ele>284.0</ele><time>2026-04-26T06:59:47.007Z</time></trkpt><trkpt lat="44.687" lon="10.1799483"><ele>284.0</ele><time>2026-04-26T06:59:49.007Z</time></trkpt><trkpt lat="44.6869967" lon="10.1800683"><ele>284.0</ele><time>2026-04-26T06:59:51.007Z</time></trkpt><trkpt lat="44.6869867" lon="10.1801933"><ele>283.0</ele><time>2026-04-26T06:59:53.007Z</time></trkpt><trkpt lat="44.6869783" lon="10.1803267"><ele>282.0</ele><time>2026-04-26T06:59:55.007Z</time></trkpt><trkpt lat="44.6869733" lon="10.1804467"><ele>281.0</ele><time>2026-04-26T06:59:57.007Z</time></trkpt><trkpt lat="44.68697" lon="10.1805517"><ele>280.0</ele><time>2026-04-26T06:59:59.008Z</time></trkpt><trkpt lat="44.686965" lon="10.18066"><ele>279.0</ele><time>2026-04-26T07:00:01.008Z</time></trkpt><trkpt lat="44.68696" lon="10.1807817"><ele>278.0</ele><time>2026-04-26T07:00:03.007Z</time></trkpt><trkpt lat="44.68694" lon="10.1809133"><ele>281.6666666666667</ele><time>2026-04-26T07:00:05.007Z</time></trkpt><trkpt lat="44.6869217" lon="10.1810367"><ele>285.33333333333337</ele><time>2026-04-26T07:00:07.007Z</time></trkpt><trkpt lat="44.686905" lon="10.181165"><ele>289.0</ele><time>2026-04-26T07:00:09.007Z</time></trkpt><trkpt lat="44.68689" lon="10.1812783"><ele>292.6666666666667</ele><time>2026-04-26T07:00:11.008Z</time></trkpt><trkpt lat="44.686855" lon="10.1813933"><ele>296.3333333333333</ele><time>2026-04-26T07:00:13.007Z</time></trkpt><trkpt lat="44.6868267" lon="10.1815067"><ele>300.0</ele><time>2026-04-26T07:00:15.008Z</time></trkpt><trkpt lat="44.686805" lon="10.1816083"><ele>300.3333333333333</ele><time>2026-04-26T07:00:17.007Z</time></trkpt><trkpt lat="44.6868" lon="10.1817"><ele>300.6666666666667</ele><time>2026-04-26T07:00:19.007Z</time></trkpt><trkpt lat="44.6867833" lon="10.1818167"><ele>301.0</ele><time>2026-04-26T07:00:22.007Z</time></trkpt><trkpt lat="44.6867733" lon="10.18192"><ele>301.33333333333337</ele><time>2026-04-26T07:00:25.007Z</time></trkpt><trkpt lat="44.686725" lon="10.1820367"><ele>301.6666666666667</ele><time>2026-04-26T07:00:32.007Z</time></trkpt><trkpt lat="44.686715" lon="10.18213"><ele>302.0</ele><time>2026-04-26T07:00:35.007Z</time></trkpt><trkpt lat="44.6867233" lon="10.1822267"><ele>302.00000000000006</ele><time>2026-04-26T07:00:38.007Z</time></trkpt><trkpt lat="44.68673" lon="10.1823317"><ele>302.0</ele><time>2026-04-26T07:00:41.007Z</time></trkpt><trkpt lat="44.6867583" lon="10.182425"><ele>302.0</ele><time>2026-04-26T07:00:44.007Z</time></trkpt><trkpt lat="44.686755" lon="10.1825167"><ele>302.0</ele><time>2026-04-26T07:00:47.007Z</time></trkpt><trkpt lat="44.6867583" lon="10.182635"><ele>302.0</ele><time>2026-04-26T07:00:50.007Z</time></trkpt><trkpt lat="44.6867667" lon="10.182725"><ele>302.00000000000006</ele><time>2026-04-26T07:00:52.007Z</time></trkpt><trkpt lat="44.686785" lon="10.18283"><ele>302.0</ele><time>2026-04-26T07:00:54.007Z</time></trkpt><trkpt lat="44.6867983" lon="10.1829433"><ele>301.83333333333337</ele><time>2026-04-26T07:00:56.007Z</time></trkpt><trkpt lat="44.6868033" lon="10.18305"><ele>301.6666666666667</ele><time>2026-04-26T07:00:58.007Z</time></trkpt><trkpt lat="44.686815" lon="10.1831617"><ele>301.5</ele><time>2026-04-26T07:01:00.007Z</time></trkpt><trkpt lat="44.6868317" lon="10.18328"><ele>301.3333333333333</ele><time>2026-04-26T07:01:02.007Z</time></trkpt><trkpt lat="44.686855" lon="10.1834033"><ele>301.16666666666663</ele><time>2026-04-26T07:01:04.007Z</time></trkpt><trkpt lat="44.6868767" lon="10.1835483"><ele>301.0</ele><time>2026-04-26T07:01:06.007Z</time></trkpt><trkpt lat="44.6869" lon="10.1837217"><ele>300.66666666666663</ele><time>2026-04-26T07:01:08.008Z</time></trkpt><trkpt lat="44.6869083" lon="10.18381"><ele>300.3333333333333</ele><time>2026-04-26T07:01:09.007Z</time></trkpt><trkpt lat="44.6869167" lon="10.183915"><ele>300.0</ele><time>2026-04-26T07:01:10.008Z</time></trkpt><trkpt lat="44.686925" lon="10.18401"><ele>299.6666666666667</ele><time>2026-04-26T07:01:11.007Z</time></trkpt><trkpt lat="44.6869383" lon="10.1840967"><ele>299.33333333333337</ele><time>2026-04-26T07:01:12.007Z</time></trkpt><trkpt lat="44.6869833" lon="10.184245"><ele>299.0</ele><time>2026-04-26T07:01:14.008Z</time></trkpt><trkpt lat="44.6870617" lon="10.1843667"><ele>297.7142857142857</ele><time>2026-04-26T07:01:16.007Z</time></trkpt><trkpt lat="44.6871117" lon="10.18443"><ele>296.42857142857144</ele><time>2026-04-26T07:01:17.007Z</time></trkpt><trkpt lat="44.687155" lon="10.184505"><ele>295.14285714285717</ele><time>2026-04-26T07:01:18.007Z</time></trkpt><trkpt lat="44.687195" lon="10.1845833"><ele>293.8571428571429</ele><time>2026-04-26T07:01:19.007Z</time></trkpt><trkpt lat="44.6872333" lon="10.184675"><ele>292.5714285714286</ele><time>2026-04-26T07:01:20.007Z</time></trkpt><trkpt lat="44.6872633" lon="10.18476"><ele>291.2857142857143</ele><time>2026-04-26T07:01:21.007Z</time></trkpt><trkpt lat="44.687305" lon="10.1848617"><ele>290.0</ele><time>2026-04-26T07:01:22.007Z</time></trkpt><trkpt lat="44.68735" lon="10.18495"><ele>290.0</ele><time>2026-04-26T07:01:23.007Z</time></trkpt><trkpt lat="44.6874017" lon="10.1850367"><ele>290.0</ele><time>2026-04-26T07:01:24.007Z</time></trkpt><trkpt lat="44.687465" lon="10.185105"><ele>290.0</ele><time>2026-04-26T07:01:25.007Z</time></trkpt><trkpt lat="44.6875283" lon="10.18519"><ele>290.0</ele><time>2026-04-26T07:01:26.007Z</time></trkpt><trkpt lat="44.6876133" lon="10.1852183"><ele>290.0</ele><time>2026-04-26T07:01:27.008Z</time></trkpt><trkpt lat="44.6877067" lon="10.1852233"><ele>290.0</ele><time>2026-04-26T07:01:28.007Z</time></trkpt><trkpt lat="44.6878067" lon="10.1852217"><ele>288.0</ele><time>2026-04-26T07:01:29.007Z</time></trkpt><trkpt lat="44.6879" lon="10.1852117"><ele>286.0</ele><time>2026-04-26T07:01:30.008Z</time></trkpt><trkpt lat="44.68798" lon="10.1852233"><ele>284.0</ele><time>2026-04-26T07:01:31.007Z</time></trkpt><trkpt lat="44.6880467" lon="10.18524"><ele>282.0</ele><time>2026-04-26T07:01:32.007Z</time></trkpt><trkpt lat="44.688165" lon="10.1852933"><ele>280.0</ele><time>2026-04-26T07:01:34.007Z</time></trkpt><trkpt lat="44.6882633" lon="10.1853667"><ele>280.0</ele><time>2026-04-26T07:01:36.008Z</time></trkpt><trkpt lat="44.688345" lon="10.1854267"><ele>280.0</ele><time>2026-04-26T07:01:38.007Z</time></trkpt><trkpt lat="44.68844" lon="10.18551"><ele>280.0</ele><time>2026-04-26T07:01:40.007Z</time></trkpt><trkpt lat="44.6885017" lon="10.1855433"><ele>280.0</ele><time>2026-04-26T07:01:42.007Z</time></trkpt><trkpt lat="44.6885917" lon="10.185585"><ele>280.0</ele><time>2026-04-26T07:01:45.008Z</time></trkpt><trkpt lat="44.68866" lon="10.18565"><ele>280.0</ele><time>2026-04-26T07:01:47.007Z</time></trkpt><trkpt lat="44.688735" lon="10.1857317"><ele>281.3333333333333</ele><time>2026-04-26T07:01:49.007Z</time></trkpt><trkpt lat="44.688835" lon="10.1858467"><ele>282.66666666666663</ele><time>2026-04-26T07:01:51.007Z</time></trkpt><trkpt lat="44.68889" lon="10.1859017"><ele>284.0</ele><time>2026-04-26T07:01:52.007Z</time></trkpt><trkpt lat="44.6889583" lon="10.18596"><ele>285.3333333333333</ele><time>2026-04-26T07:01:53.007Z</time></trkpt><trkpt lat="44.6890183" lon="10.185995"><ele>286.6666666666667</ele><time>2026-04-26T07:01:54.008Z</time></trkpt><trkpt lat="44.689085" lon="10.186015"><ele>288.0</ele><time>2026-04-26T07:01:55.007Z</time></trkpt><trkpt lat="44.689195" lon="10.1860583"><ele>288.0</ele><time>2026-04-26T07:01:57.007Z</time></trkpt><trkpt lat="44.689285" lon="10.186095"><ele>288.0</ele><time>2026-04-26T07:01:59.007Z</time></trkpt><trkpt lat="44.6893617" lon="10.18606"><ele>288.0</ele><time>2026-04-26T07:02:01.007Z</time></trkpt><trkpt lat="44.6894583" lon="10.1860433"><ele>288.0</ele><time>2026-04-26T07:02:04.007Z</time></trkpt><trkpt lat="44.6895317" lon="10.1860667"><ele>288.0</ele><time>2026-04-26T07:02:06.007Z</time></trkpt><trkpt lat="44.6896133" lon="10.1860867"><ele>288.0</ele><time>2026-04-26T07:02:09.007Z</time></trkpt><trkpt lat="44.689685" lon="10.1861417"><ele>287.6666666666667</ele><time>2026-04-26T07:02:13.008Z</time></trkpt><trkpt lat="44.6897717" lon="10.1861583"><ele>287.3333333333333</ele><time>2026-04-26T07:02:17.007Z</time></trkpt><trkpt lat="44.6898417" lon="10.18617"><ele>287.0</ele><time>2026-04-26T07:02:19.007Z</time></trkpt><trkpt lat="44.6899133" lon="10.1861683"><ele>286.66666666666663</ele><time>2026-04-26T07:02:21.008Z</time></trkpt><trkpt lat="44.69" lon="10.1861483"><ele>286.3333333333333</ele><time>2026-04-26T07:02:24.008Z</time></trkpt><trkpt lat="44.6900817" lon="10.186155"><ele>286.0</ele><time>2026-04-26T07:02:27.008Z</time></trkpt><trkpt lat="44.69016" lon="10.1861567"><ele>286.0</ele><time>2026-04-26T07:02:30.008Z</time></trkpt><trkpt lat="44.690225" lon="10.1861917"><ele>286.0</ele><time>2026-04-26T07:02:32.007Z</time></trkpt><trkpt lat="44.690315" lon="10.186225"><ele>286.0</ele><time>2026-04-26T07:02:34.007Z</time></trkpt><trkpt lat="44.6903917" lon="10.1862683"><ele>286.0</ele><time>2026-04-26T07:02:36.007Z</time></trkpt><trkpt lat="44.6904633" lon="10.18635"><ele>286.0</ele><time>2026-04-26T07:02:38.007Z</time></trkpt><trkpt lat="44.6905083" lon="10.1864217"><ele>286.0</ele><time>2026-04-26T07:02:39.007Z</time></trkpt><trkpt lat="44.69055" lon="10.186495"><ele>287.3333333333333</ele><time>2026-04-26T07:02:40.008Z</time></trkpt><trkpt lat="44.690585" lon="10.1865767"><ele>288.66666666666663</ele><time>2026-04-26T07:02:41.007Z</time></trkpt><trkpt lat="44.69064" lon="10.1867317"><ele>290.0</ele><time>2026-04-26T07:02:43.007Z</time></trkpt><trkpt lat="44.690705" lon="10.1868733"><ele>291.3333333333333</ele><time>2026-04-26T07:02:45.008Z</time></trkpt><trkpt lat="44.69073" lon="10.186955"><ele>292.6666666666667</ele><time>2026-04-26T07:02:46.007Z</time></trkpt><trkpt lat="44.6907583" lon="10.18704"><ele>294.0</ele><time>2026-04-26T07:02:47.007Z</time></trkpt><trkpt lat="44.6908217" lon="10.187195"><ele>294.0</ele><time>2026-04-26T07:02:49.007Z</time></trkpt><trkpt lat="44.6908517" lon="10.1872767"><ele>294.0</ele><time>2026-04-26T07:02:50.008Z</time></trkpt><trkpt lat="44.6908717" lon="10.1873767"><ele>294.0</ele><time>2026-04-26T07:02:51.008Z</time></trkpt><trkpt lat="44.6908983" lon="10.18748"><ele>294.0</ele><time>2026-04-26T07:02:52.007Z</time></trkpt><trkpt lat="44.6909133" lon="10.18759"><ele>294.0</ele><time>2026-04-26T07:02:53.007Z</time></trkpt><trkpt lat="44.6909183" lon="10.1876983"><ele>294.0</ele><time>2026-04-26T07:02:54.008Z</time></trkpt><trkpt lat="44.6909117" lon="10.187815"><ele>293.8333333333333</ele><time>2026-04-26T07:02:55.007Z</time></trkpt><trkpt lat="44.69091" lon="10.187935"><ele>293.6666666666667</ele><time>2026-04-26T07:02:56.007Z</time></trkpt><trkpt lat="44.690915" lon="10.1880433"><ele>293.5</ele><time>2026-04-26T07:02:57.007Z</time></trkpt><trkpt lat="44.6909217" lon="10.1881633"><ele>293.33333333333337</ele><time>2026-04-26T07:02:58.008Z</time></trkpt><trkpt lat="44.6909483" lon="10.1882867"><ele>293.1666666666667</ele><time>2026-04-26T07:02:59.008Z</time></trkpt><trkpt lat="44.6909833" lon="10.1884117"><ele>293.0</ele><time>2026-04-26T07:03:00.007Z</time></trkpt><trkpt lat="44.6910183" lon="10.1885383"><ele>292.0</ele><time>2026-04-26T07:03:01.007Z</time></trkpt><trkpt lat="44.6910367" lon="10.1886533"><ele>291.0</ele><time>2026-04-26T07:03:02.007Z</time></trkpt><trkpt lat="44.6910517" lon="10.1887533"><ele>290.0</ele><time>2026-04-26T07:03:03.007Z</time></trkpt><trkpt lat="44.6910867" lon="10.1888633"><ele>289.0</ele><time>2026-04-26T07:03:04.007Z</time></trkpt><trkpt lat="44.6911183" lon="10.1889567"><ele>288.0</ele><time>2026-04-26T07:03:05.007Z</time></trkpt><trkpt lat="44.6911567" lon="10.1890483"><ele>287.0</ele><time>2026-04-26T07:03:06.007Z</time></trkpt><trkpt lat="44.6911967" lon="10.1891217"><ele>286.4</ele><time>2026-04-26T07:03:07.007Z</time></trkpt><trkpt lat="44.6912783" lon="10.1892367"><ele>285.79999999999995</ele><time>2026-04-26T07:03:09.007Z</time></trkpt><trkpt lat="44.69136" lon="10.18933"><ele>285.2</ele><time>2026-04-26T07:03:11.007Z</time></trkpt><trkpt lat="44.6914417" lon="10.1894067"><ele>284.59999999999997</ele><time>2026-04-26T07:03:13.007Z</time></trkpt><trkpt lat="44.6915217" lon="10.1894517"><ele>284.0</ele><time>2026-04-26T07:03:15.007Z</time></trkpt><trkpt lat="44.6915917" lon="10.1894817"><ele>284.0</ele><time>2026-04-26T07:03:17.007Z</time></trkpt><trkpt lat="44.691665" lon="10.1895033"><ele>284.0</ele><time>2026-04-26T07:03:20.007Z</time></trkpt><trkpt lat="44.6917317" lon="10.1895"><ele>284.0</ele><time>2026-04-26T07:03:23.007Z</time></trkpt><trkpt lat="44.6917967" lon="10.189545"><ele>284.0</ele><time>2026-04-26T07:03:27.007Z</time></trkpt><trkpt lat="44.6918433" lon="10.1896267"><ele>284.0</ele><time>2026-04-26T07:03:30.007Z</time></trkpt><trkpt lat="44.691885" lon="10.1897117"><ele>284.0</ele><time>2026-04-26T07:03:33.007Z</time></trkpt><trkpt lat="44.69193" lon="10.1898167"><ele>284.0</ele><time>2026-04-26T07:03:37.007Z</time></trkpt><trkpt lat="44.6919667" lon="10.1899267"><ele>284.83333333333337</ele><time>2026-04-26T07:03:40.007Z</time></trkpt><trkpt lat="44.6920033" lon="10.1900167"><ele>285.6666666666667</ele><time>2026-04-26T07:03:43.007Z</time></trkpt><trkpt lat="44.6920483" lon="10.1900867"><ele>286.5</ele><time>2026-04-26T07:03:46.008Z</time></trkpt><trkpt lat="44.6920917" lon="10.1901517"><ele>287.3333333333333</ele><time>2026-04-26T07:03:49.008Z</time></trkpt><trkpt lat="44.6921567" lon="10.19021"><ele>288.16666666666663</ele><time>2026-04-26T07:03:52.007Z</time></trkpt><trkpt lat="44.692235" lon="10.1902583"><ele>289.0</ele><time>2026-04-26T07:03:55.007Z</time></trkpt><trkpt lat="44.692315" lon="10.1903"><ele>289.0</ele><time>2026-04-26T07:03:58.008Z</time></trkpt><trkpt lat="44.6923883" lon="10.1903133"><ele>289.0</ele><time>2026-04-26T07:04:01.007Z</time></trkpt><trkpt lat="44.6924683" lon="10.190325"><ele>289.0</ele><time>2026-04-26T07:04:04.008Z</time></trkpt><trkpt lat="44.6925533" lon="10.1903467"><ele>289.0</ele><time>2026-04-26T07:04:07.008Z</time></trkpt><trkpt lat="44.6926417" lon="10.1903633"><ele>289.0</ele><time>2026-04-26T07:04:10.007Z</time></trkpt><trkpt lat="44.6927217" lon="10.19034"><ele>289.0</ele><time>2026-04-26T07:04:13.008Z</time></trkpt><trkpt lat="44.6928017" lon="10.1903283"><ele>290.3333333333333</ele><time>2026-04-26T07:04:16.007Z</time></trkpt><trkpt lat="44.692885" lon="10.19034"><ele>291.66666666666663</ele><time>2026-04-26T07:04:18.007Z</time></trkpt><trkpt lat="44.6929767" lon="10.190415"><ele>293.0</ele><time>2026-04-26T07:04:20.008Z</time></trkpt><trkpt lat="44.69306" lon="10.190505"><ele>294.3333333333333</ele><time>2026-04-26T07:04:22.008Z</time></trkpt><trkpt lat="44.6931083" lon="10.1905683"><ele>295.6666666666667</ele><time>2026-04-26T07:04:23.007Z</time></trkpt><trkpt lat="44.6931633" lon="10.190635"><ele>297.0</ele><time>2026-04-26T07:04:24.008Z</time></trkpt><trkpt lat="44.6932483" lon="10.190745"><ele>297.0</ele><time>2026-04-26T07:04:26.007Z</time></trkpt><trkpt lat="44.6933267" lon="10.19086"><ele>297.0</ele><time>2026-04-26T07:04:28.008Z</time></trkpt><trkpt lat="44.6933833" lon="10.1909533"><ele>297.0</ele><time>2026-04-26T07:04:29.008Z</time></trkpt><trkpt lat="44.693445" lon="10.19106"><ele>297.0</ele><time>2026-04-26T07:04:30.007Z</time></trkpt><trkpt lat="44.6935033" lon="10.1911683"><ele>297.0</ele><time>2026-04-26T07:04:31.007Z</time></trkpt><trkpt lat="44.6935733" lon="10.1912783"><ele>295.0</ele><time>2026-04-26T07:04:32.007Z</time></trkpt><trkpt lat="44.6936417" lon="10.1914"><ele>293.0</ele><time>2026-04-26T07:04:33.007Z</time></trkpt><trkpt lat="44.6937133" lon="10.19152"><ele>291.0</ele><time>2026-04-26T07:04:34.007Z</time></trkpt><trkpt lat="44.69378" lon="10.1916417"><ele>289.0</ele><time>2026-04-26T07:04:35.007Z</time></trkpt><trkpt lat="44.6938217" lon="10.1917767"><ele>287.0</ele><time>2026-04-26T07:04:36.008Z</time></trkpt><trkpt lat="44.6938517" lon="10.1919083"><ele>287.0</ele><time>2026-04-26T07:04:37.007Z</time></trkpt><trkpt lat="44.6938567" lon="10.19202"><ele>287.0</ele><time>2026-04-26T07:04:38.007Z</time></trkpt><trkpt lat="44.6938983" lon="10.1921"><ele>287.0</ele><time>2026-04-26T07:04:39.007Z</time></trkpt><trkpt lat="44.6939417" lon="10.19219"><ele>287.0</ele><time>2026-04-26T07:04:40.007Z</time></trkpt><trkpt lat="44.6939733" lon="10.19231"><ele>287.0</ele><time>2026-04-26T07:04:41.007Z</time></trkpt><trkpt lat="44.6940283" lon="10.1923717"><ele>287.0</ele><time>2026-04-26T07:04:42.007Z</time></trkpt><trkpt lat="44.6940467" lon="10.1924667"><ele>287.2</ele><time>2026-04-26T07:04:43.007Z</time></trkpt><trkpt lat="44.6940917" lon="10.1925867"><ele>287.4</ele><time>2026-04-26T07:04:45.008Z</time></trkpt><trkpt lat="44.6941317" lon="10.1927033"><ele>287.6</ele><time>2026-04-26T07:04:47.007Z</time></trkpt><trkpt lat="44.6942067" lon="10.192845"><ele>287.8</ele><time>2026-04-26T07:04:49.008Z</time></trkpt><trkpt lat="44.6942467" lon="10.1929283"><ele>288.0</ele><time>2026-04-26T07:04:50.007Z</time></trkpt><trkpt lat="44.6942883" lon="10.1930267"><ele>288.0</ele><time>2026-04-26T07:04:51.007Z</time></trkpt><trkpt lat="44.6943233" lon="10.193115"><ele>288.0</ele><time>2026-04-26T07:04:52.008Z</time></trkpt><trkpt lat="44.69435" lon="10.1932233"><ele>288.0</ele><time>2026-04-26T07:04:53.008Z</time></trkpt><trkpt lat="44.6943517" lon="10.1933367"><ele>288.0</ele><time>2026-04-26T07:04:54.008Z</time></trkpt><trkpt lat="44.6943567" lon="10.193445"><ele>288.0</ele><time>2026-04-26T07:04:55.008Z</time></trkpt><trkpt lat="44.6943733" lon="10.1935583"><ele>288.0</ele><time>2026-04-26T07:04:56.008Z</time></trkpt><trkpt lat="44.6943933" lon="10.193675"><ele>288.1666666666667</ele><time>2026-04-26T07:04:57.007Z</time></trkpt><trkpt lat="44.69441" lon="10.193785"><ele>288.3333333333333</ele><time>2026-04-26T07:04:58.007Z</time></trkpt><trkpt lat="44.6944333" lon="10.1939067"><ele>288.5</ele><time>2026-04-26T07:04:59.008Z</time></trkpt><trkpt lat="44.6944567" lon="10.19403"><ele>288.66666666666663</ele><time>2026-04-26T07:05:00.007Z</time></trkpt><trkpt lat="44.6944733" lon="10.1941367"><ele>288.8333333333333</ele><time>2026-04-26T07:05:01.007Z</time></trkpt><trkpt lat="44.6944833" lon="10.1942267"><ele>289.0</ele><time>2026-04-26T07:05:02.007Z</time></trkpt><trkpt lat="44.694505" lon="10.1943283"><ele>287.0</ele><time>2026-04-26T07:05:03.008Z</time></trkpt><trkpt lat="44.694535" lon="10.1944267"><ele>285.0</ele><time>2026-04-26T07:05:04.007Z</time></trkpt><trkpt lat="44.69457" lon="10.194535"><ele>283.0</ele><time>2026-04-26T07:05:05.007Z</time></trkpt><trkpt lat="44.6945967" lon="10.1946317"><ele>281.0</ele><time>2026-04-26T07:05:06.007Z</time></trkpt><trkpt lat="44.6946283" lon="10.1947117"><ele>279.0</ele><time>2026-04-26T07:05:07.007Z</time></trkpt><trkpt lat="44.69466" lon="10.1947917"><ele>277.0</ele><time>2026-04-26T07:05:08.007Z</time></trkpt><trkpt lat="44.6946983" lon="10.1948817"><ele>275.0</ele><time>2026-04-26T07:05:09.007Z</time></trkpt><trkpt lat="44.6947433" lon="10.1949683"><ele>275.0</ele><time>2026-04-26T07:05:10.007Z</time></trkpt><trkpt lat="44.6947833" lon="10.1950533"><ele>275.0</ele><time>2026-04-26T07:05:11.008Z</time></trkpt><trkpt lat="44.6948183" lon="10.19514"><ele>275.0</ele><time>2026-04-26T07:05:12.007Z</time></trkpt><trkpt lat="44.6948517" lon="10.195225"><ele>275.0</ele><time>2026-04-26T07:05:13.007Z</time></trkpt><trkpt lat="44.69489" lon="10.1953083"><ele>275.0</ele><time>2026-04-26T07:05:14.007Z</time></trkpt><trkpt lat="44.69493" lon="10.1953867"><ele>275.0</ele><time>2026-04-26T07:05:15.007Z</time></trkpt><trkpt lat="44.6949717" lon="10.1954667"><ele>275.0</ele><time>2026-04-26T07:05:16.008Z</time></trkpt><trkpt lat="44.69501" lon="10.1955483"><ele>275.0</ele><time>2026-04-26T07:05:17.007Z</time></trkpt><trkpt lat="44.6950467" lon="10.1956233"><ele>275.0</ele><time>2026-04-26T07:05:18.007Z</time></trkpt><trkpt lat="44.6950917" lon="10.1956917"><ele>275.0</ele><time>2026-04-26T07:05:20.007Z</time></trkpt><trkpt lat="44.69515" lon="10.19577"><ele>275.0</ele><time>2026-04-26T07:05:23.007Z</time></trkpt><trkpt lat="44.6951883" lon="10.1958417"><ele>275.0</ele><time>2026-04-26T07:05:25.007Z</time></trkpt><trkpt lat="44.695235" lon="10.1959233"><ele>275.0</ele><time>2026-04-26T07:05:27.007Z</time></trkpt><trkpt lat="44.6953033" lon="10.196005"><ele>275.0</ele><time>2026-04-26T07:05:30.007Z</time></trkpt><trkpt lat="44.6953583" lon="10.1960817"><ele>274.33333333333337</ele><time>2026-04-26T07:05:32.007Z</time></trkpt><trkpt lat="44.6954083" lon="10.1961533"><ele>273.6666666666667</ele><time>2026-04-26T07:05:34.007Z</time></trkpt><trkpt lat="44.6954483" lon="10.196265"><ele>273.0</ele><time>2026-04-26T07:05:37.007Z</time></trkpt><trkpt lat="44.6954683" lon="10.1963983"><ele>272.3333333333333</ele><time>2026-04-26T07:05:40.008Z</time></trkpt><trkpt lat="44.6954817" lon="10.19652"><ele>271.66666666666663</ele><time>2026-04-26T07:05:42.007Z</time></trkpt><trkpt lat="44.6955033" lon="10.1966383"><ele>271.0</ele><time>2026-04-26T07:05:44.007Z</time></trkpt><trkpt lat="44.6955117" lon="10.1967617"><ele>272.8333333333333</ele><time>2026-04-26T07:05:46.007Z</time></trkpt><trkpt lat="44.6955183" lon="10.1968783"><ele>274.66666666666663</ele><time>2026-04-26T07:05:48.007Z</time></trkpt><trkpt lat="44.6955467" lon="10.1970033"><ele>276.5</ele><time>2026-04-26T07:05:50.007Z</time></trkpt><trkpt lat="44.6955767" lon="10.1970933"><ele>278.3333333333333</ele><time>2026-04-26T07:05:52.007Z</time></trkpt><trkpt lat="44.6956333" lon="10.1971833"><ele>280.1666666666667</ele><time>2026-04-26T07:05:55.007Z</time></trkpt><trkpt lat="44.6956867" lon="10.1972367"><ele>282.0</ele><time>2026-04-26T07:05:57.007Z</time></trkpt><trkpt lat="44.695755" lon="10.19728"><ele>282.0</ele><time>2026-04-26T07:06:00.007Z</time></trkpt><trkpt lat="44.695835" lon="10.1973317"><ele>282.0</ele><time>2026-04-26T07:06:03.007Z</time></trkpt><trkpt lat="44.6959167" lon="10.1973717"><ele>282.0</ele><time>2026-04-26T07:06:06.007Z</time></trkpt><trkpt lat="44.69599" lon="10.1974117"><ele>282.0</ele><time>2026-04-26T07:06:09.007Z</time></trkpt><trkpt lat="44.6960667" lon="10.197435"><ele>282.0</ele><time>2026-04-26T07:06:12.007Z</time></trkpt><trkpt lat="44.69613" lon="10.1974683"><ele>282.0</ele><time>2026-04-26T07:06:14.008Z</time></trkpt><trkpt lat="44.6961983" lon="10.1974917"><ele>282.3333333333333</ele><time>2026-04-26T07:06:16.007Z</time></trkpt><trkpt lat="44.6962883" lon="10.1975283"><ele>282.6666666666667</ele><time>2026-04-26T07:06:18.007Z</time></trkpt><trkpt lat="44.6963467" lon="10.1975667"><ele>283.0</ele><time>2026-04-26T07:06:19.007Z</time></trkpt><trkpt lat="44.6964133" lon="10.1975867"><ele>283.33333333333337</ele><time>2026-04-26T07:06:20.007Z</time></trkpt><trkpt lat="44.696495" lon="10.1976333"><ele>283.6666666666667</ele><time>2026-04-26T07:06:21.007Z</time></trkpt><trkpt lat="44.69657" lon="10.1976567"><ele>284.0</ele><time>2026-04-26T07:06:22.007Z</time></trkpt><trkpt lat="44.6966383" lon="10.1976833"><ele>284.0</ele><time>2026-04-26T07:06:23.008Z</time></trkpt><trkpt lat="44.6967167" lon="10.1977017"><ele>284.0</ele><time>2026-04-26T07:06:24.008Z</time></trkpt><trkpt lat="44.6968017" lon="10.19772"><ele>284.0</ele><time>2026-04-26T07:06:25.007Z</time></trkpt><trkpt lat="44.6968767" lon="10.1977367"><ele>284.0</ele><time>2026-04-26T07:06:26.008Z</time></trkpt><trkpt lat="44.6969433" lon="10.197755"><ele>284.0</ele><time>2026-04-26T07:06:27.008Z</time></trkpt><trkpt lat="44.69701" lon="10.1977983"><ele>284.0</ele><time>2026-04-26T07:06:28.007Z</time></trkpt><trkpt lat="44.6970683" lon="10.1978417"><ele>284.0</ele><time>2026-04-26T07:06:29.007Z</time></trkpt><trkpt lat="44.697125" lon="10.197885"><ele>284.0</ele><time>2026-04-26T07:06:30.007Z</time></trkpt><trkpt lat="44.69718" lon="10.1979417"><ele>284.0</ele><time>2026-04-26T07:06:31.008Z</time></trkpt><trkpt lat="44.697225" lon="10.198005"><ele>284.0</ele><time>2026-04-26T07:06:32.008Z</time></trkpt><trkpt lat="44.697265" lon="10.1981233"><ele>284.0</ele><time>2026-04-26T07:06:33.007Z</time></trkpt><trkpt lat="44.6973083" lon="10.1982383"><ele>284.0</ele><time>2026-04-26T07:06:34.007Z</time></trkpt><trkpt lat="44.697345" lon="10.198345"><ele>284.0</ele><time>2026-04-26T07:06:35.007Z</time></trkpt><trkpt lat="44.6973633" lon="10.198505"><ele>284.0</ele><time>2026-04-26T07:06:37.007Z</time></trkpt><trkpt lat="44.69733" lon="10.1985833"><ele>284.0</ele><time>2026-04-26T07:06:39.007Z</time></trkpt><trkpt lat="44.6972783" lon="10.1986417"><ele>284.0</ele><time>2026-04-26T07:06:41.007Z</time></trkpt><trkpt lat="44.6972283" lon="10.198715"><ele>284.0</ele><time>2026-04-26T07:06:43.007Z</time></trkpt><trkpt lat="44.6971767" lon="10.1987933"><ele>284.0</ele><time>2026-04-26T07:06:45.007Z</time></trkpt><trkpt lat="44.6971067" lon="10.1988867"><ele>284.0</ele><time>2026-04-26T07:06:47.007Z</time></trkpt><trkpt lat="44.6970817" lon="10.1990083"><ele>283.6666666666667</ele><time>2026-04-26T07:06:49.008Z</time></trkpt><trkpt lat="44.6970367" lon="10.1990967"><ele>283.33333333333337</ele><time>2026-04-26T07:06:51.007Z</time></trkpt><trkpt lat="44.6970117" lon="10.1991983"><ele>283.0</ele><time>2026-04-26T07:06:53.007Z</time></trkpt><trkpt lat="44.6969783" lon="10.1992933"><ele>282.6666666666667</ele><time>2026-04-26T07:06:55.007Z</time></trkpt><trkpt lat="44.6969417" lon="10.19938"><ele>282.3333333333333</ele><time>2026-04-26T07:06:57.007Z</time></trkpt><trkpt lat="44.6968917" lon="10.199485"><ele>282.0</ele><time>2026-04-26T07:06:59.007Z</time></trkpt><trkpt lat="44.6968683" lon="10.1995817"><ele>283.6666666666667</ele><time>2026-04-26T07:07:01.007Z</time></trkpt><trkpt lat="44.6968617" lon="10.1996883"><ele>285.3333333333333</ele><time>2026-04-26T07:07:03.008Z</time></trkpt><trkpt lat="44.696845" lon="10.19981"><ele>287.0</ele><time>2026-04-26T07:07:06.007Z</time></trkpt><trkpt lat="44.6968333" lon="10.1999167"><ele>288.66666666666663</ele><time>2026-04-26T07:07:09.007Z</time></trkpt><trkpt lat="44.696815" lon="10.2000283"><ele>290.3333333333333</ele><time>2026-04-26T07:07:12.007Z</time></trkpt><trkpt lat="44.6968183" lon="10.2001183"><ele>292.0</ele><time>2026-04-26T07:07:14.007Z</time></trkpt><trkpt lat="44.6968233" lon="10.2002317"><ele>292.8333333333333</ele><time>2026-04-26T07:07:17.007Z</time></trkpt><trkpt lat="44.6968133" lon="10.20033"><ele>293.66666666666663</ele><time>2026-04-26T07:07:19.007Z</time></trkpt><trkpt lat="44.696805" lon="10.2004517"><ele>294.5</ele><time>2026-04-26T07:07:22.007Z</time></trkpt><trkpt lat="44.6968083" lon="10.2005683"><ele>295.3333333333333</ele><time>2026-04-26T07:07:24.007Z</time></trkpt><trkpt lat="44.6967867" lon="10.200705"><ele>296.1666666666667</ele><time>2026-04-26T07:07:26.007Z</time></trkpt><trkpt lat="44.6967617" lon="10.2008317"><ele>297.0</ele><time>2026-04-26T07:07:28.007Z</time></trkpt><trkpt lat="44.696725" lon="10.2009433"><ele>297.4</ele><time>2026-04-26T07:07:30.007Z</time></trkpt><trkpt lat="44.696665" lon="10.2010733"><ele>297.79999999999995</ele><time>2026-04-26T07:07:32.007Z</time></trkpt><trkpt lat="44.6966083" lon="10.2012233"><ele>298.2</ele><time>2026-04-26T07:07:34.007Z</time></trkpt><trkpt lat="44.6965717" lon="10.2013117"><ele>298.59999999999997</ele><time>2026-04-26T07:07:35.007Z</time></trkpt><trkpt lat="44.6965283" lon="10.201405"><ele>299.0</ele><time>2026-04-26T07:07:36.007Z</time></trkpt><trkpt lat="44.696485" lon="10.2014967"><ele>297.83333333333337</ele><time>2026-04-26T07:07:37.007Z</time></trkpt><trkpt lat="44.6964483" lon="10.201595"><ele>296.6666666666667</ele><time>2026-04-26T07:07:38.007Z</time></trkpt><trkpt lat="44.6964283" lon="10.201685"><ele>295.5</ele><time>2026-04-26T07:07:39.007Z</time></trkpt><trkpt lat="44.6964217" lon="10.201775"><ele>294.3333333333333</ele><time>2026-04-26T07:07:40.007Z</time></trkpt><trkpt lat="44.69644" lon="10.201945"><ele>293.16666666666663</ele><time>2026-04-26T07:07:42.007Z</time></trkpt><trkpt lat="44.69648" lon="10.2020683"><ele>292.0</ele><time>2026-04-26T07:07:44.007Z</time></trkpt><trkpt lat="44.6965333" lon="10.2021683"><ele>292.0</ele><time>2026-04-26T07:07:46.007Z</time></trkpt><trkpt lat="44.6965867" lon="10.2022733"><ele>292.0</ele><time>2026-04-26T07:07:48.007Z</time></trkpt><trkpt lat="44.696655" lon="10.2023733"><ele>292.0</ele><time>2026-04-26T07:07:50.007Z</time></trkpt><trkpt lat="44.6967083" lon="10.2024567"><ele>292.0</ele><time>2026-04-26T07:07:52.007Z</time></trkpt><trkpt lat="44.6967667" lon="10.2025933"><ele>292.0</ele><time>2026-04-26T07:07:54.007Z</time></trkpt><trkpt lat="44.69679" lon="10.2026767"><ele>292.0</ele><time>2026-04-26T07:07:55.007Z</time></trkpt><trkpt lat="44.6968183" lon="10.2027683"><ele>291.8</ele><time>2026-04-26T07:07:56.007Z</time></trkpt><trkpt lat="44.6968417" lon="10.2028533"><ele>291.6</ele><time>2026-04-26T07:07:57.007Z</time></trkpt><trkpt lat="44.696865" lon="10.2029433"><ele>291.40000000000003</ele><time>2026-04-26T07:07:58.007Z</time></trkpt><trkpt lat="44.696915" lon="10.2031"><ele>291.2</ele><time>2026-04-26T07:08:00.007Z</time></trkpt><trkpt lat="44.6969783" lon="10.2032367"><ele>291.0</ele><time>2026-04-26T07:08:02.007Z</time></trkpt><trkpt lat="44.6970517" lon="10.203375"><ele>290.40000000000003</ele><time>2026-04-26T07:08:04.007Z</time></trkpt><trkpt lat="44.6971233" lon="10.203465"><ele>289.8</ele><time>2026-04-26T07:08:06.007Z</time></trkpt><trkpt lat="44.6971983" lon="10.2035517"><ele>289.20000000000005</ele><time>2026-04-26T07:08:08.007Z</time></trkpt><trkpt lat="44.6972633" lon="10.2036433"><ele>288.6</ele><time>2026-04-26T07:08:10.007Z</time></trkpt><trkpt lat="44.69733" lon="10.2037417"><ele>288.0</ele><time>2026-04-26T07:08:12.008Z</time></trkpt><trkpt lat="44.6973833" lon="10.2038183"><ele>288.0</ele><time>2026-04-26T07:08:14.008Z</time></trkpt><trkpt lat="44.697435" lon="10.2038933"><ele>288.0</ele><time>2026-04-26T07:08:16.008Z</time></trkpt><trkpt lat="44.6974667" lon="10.2039867"><ele>288.0</ele><time>2026-04-26T07:08:18.007Z</time></trkpt><trkpt lat="44.6974883" lon="10.2040933"><ele>288.0</ele><time>2026-04-26T07:08:20.007Z</time></trkpt><trkpt lat="44.6975083" lon="10.2041883"><ele>288.0</ele><time>2026-04-26T07:08:22.007Z</time></trkpt><trkpt lat="44.6975317" lon="10.2043017"><ele>288.0</ele><time>2026-04-26T07:08:25.007Z</time></trkpt><trkpt lat="44.69757" lon="10.2044217"><ele>290.0</ele><time>2026-04-26T07:08:28.008Z</time></trkpt><trkpt lat="44.6975933" lon="10.2045117"><ele>292.0</ele><time>2026-04-26T07:08:30.007Z</time></trkpt><trkpt lat="44.6975883" lon="10.2046033"><ele>294.0</ele><time>2026-04-26T07:08:32.007Z</time></trkpt><trkpt lat="44.697585" lon="10.204715"><ele>296.0</ele><time>2026-04-26T07:08:35.007Z</time></trkpt><trkpt lat="44.69762" lon="10.2048033"><ele>298.0</ele><time>2026-04-26T07:08:38.007Z</time></trkpt><trkpt lat="44.6976533" lon="10.2048833"><ele>300.0</ele><time>2026-04-26T07:08:41.007Z</time></trkpt><trkpt lat="44.6976733" lon="10.20502"><ele>301.0</ele><time>2026-04-26T07:08:44.007Z</time></trkpt><trkpt lat="44.6976833" lon="10.205125"><ele>302.0</ele><time>2026-04-26T07:08:46.007Z</time></trkpt><trkpt lat="44.6977083" lon="10.20524"><ele>303.0</ele><time>2026-04-26T07:08:48.007Z</time></trkpt><trkpt lat="44.697735" lon="10.2053733"><ele>304.0</ele><time>2026-04-26T07:08:50.008Z</time></trkpt><trkpt lat="44.6977717" lon="10.2055017"><ele>305.0</ele><time>2026-04-26T07:08:52.007Z</time></trkpt><trkpt lat="44.6978233" lon="10.2056617"><ele>304.2857142857143</ele><time>2026-04-26T07:08:54.007Z</time></trkpt><trkpt lat="44.6978517" lon="10.205745"><ele>303.57142857142856</ele><time>2026-04-26T07:08:55.007Z</time></trkpt><trkpt lat="44.697885" lon="10.20584"><ele>302.85714285714283</ele><time>2026-04-26T07:08:56.007Z</time></trkpt><trkpt lat="44.6979133" lon="10.205925"><ele>302.1428571428571</ele><time>2026-04-26T07:08:57.007Z</time></trkpt><trkpt lat="44.6979483" lon="10.2060167"><ele>301.42857142857144</ele><time>2026-04-26T07:08:58.007Z</time></trkpt><trkpt lat="44.6979883" lon="10.2061033"><ele>300.71428571428567</ele><time>2026-04-26T07:08:59.007Z</time></trkpt><trkpt lat="44.6980283" lon="10.206185"><ele>300.0</ele><time>2026-04-26T07:09:00.007Z</time></trkpt><trkpt lat="44.6980783" lon="10.2062733"><ele>300.0</ele><time>2026-04-26T07:09:01.007Z</time></trkpt><trkpt lat="44.6981283" lon="10.20638"><ele>300.0</ele><time>2026-04-26T07:09:02.008Z</time></trkpt><trkpt lat="44.698175" lon="10.2064867"><ele>300.0</ele><time>2026-04-26T07:09:03.007Z</time></trkpt><trkpt lat="44.6982217" lon="10.2065917"><ele>300.0</ele><time>2026-04-26T07:09:04.007Z</time></trkpt><trkpt lat="44.6982667" lon="10.2066933"><ele>300.0</ele><time>2026-04-26T07:09:05.007Z</time></trkpt><trkpt lat="44.6983133" lon="10.2068033"><ele>300.0</ele><time>2026-04-26T07:09:06.007Z</time></trkpt><trkpt lat="44.6983583" lon="10.2069183"><ele>299.4</ele><time>2026-04-26T07:09:07.007Z</time></trkpt><trkpt lat="44.69842" lon="10.207055"><ele>298.8</ele><time>2026-04-26T07:09:08.007Z</time></trkpt><trkpt lat="44.69847" lon="10.2071917"><ele>298.2</ele><time>2026-04-26T07:09:09.007Z</time></trkpt><trkpt lat="44.6985217" lon="10.2073333"><ele>297.6</ele><time>2026-04-26T07:09:10.007Z</time></trkpt><trkpt lat="44.6985733" lon="10.207465"><ele>297.0</ele><time>2026-04-26T07:09:11.007Z</time></trkpt><trkpt lat="44.698625" lon="10.2075983"><ele>294.25</ele><time>2026-04-26T07:09:12.007Z</time></trkpt><trkpt lat="44.6986783" lon="10.20773"><ele>291.5</ele><time>2026-04-26T07:09:13.007Z</time></trkpt><trkpt lat="44.6987333" lon="10.2078683"><ele>288.75</ele><time>2026-04-26T07:09:14.007Z</time></trkpt><trkpt lat="44.6987983" lon="10.2080133"><ele>286.0</ele><time>2026-04-26T07:09:15.007Z</time></trkpt><trkpt lat="44.6988567" lon="10.2081533"><ele>285.75</ele><time>2026-04-26T07:09:16.007Z</time></trkpt><trkpt lat="44.698915" lon="10.20828"><ele>285.5</ele><time>2026-04-26T07:09:17.007Z</time></trkpt><trkpt lat="44.6989867" lon="10.2084117"><ele>285.25</ele><time>2026-04-26T07:09:18.007Z</time></trkpt><trkpt lat="44.6990617" lon="10.2085433"><ele>285.0</ele><time>2026-04-26T07:09:19.007Z</time></trkpt><trkpt lat="44.69913" lon="10.20867"><ele>285.0</ele><time>2026-04-26T07:09:20.007Z</time></trkpt><trkpt lat="44.699195" lon="10.2087917"><ele>285.0</ele><time>2026-04-26T07:09:21.007Z</time></trkpt><trkpt lat="44.6992567" lon="10.2089117"><ele>285.0</ele><time>2026-04-26T07:09:22.007Z</time></trkpt><trkpt lat="44.6993233" lon="10.2090317"><ele>285.0</ele><time>2026-04-26T07:09:23.007Z</time></trkpt><trkpt lat="44.699385" lon="10.2091567"><ele>285.0</ele><time>2026-04-26T07:09:24.008Z</time></trkpt><trkpt lat="44.6994483" lon="10.2092667"><ele>284.6666666666667</ele><time>2026-04-26T07:09:25.007Z</time></trkpt><trkpt lat="44.69952" lon="10.20938"><ele>284.3333333333333</ele><time>2026-04-26T07:09:26.008Z</time></trkpt><trkpt lat="44.6995717" lon="10.2095483"><ele>284.0</ele><time>2026-04-26T07:09:28.007Z</time></trkpt><trkpt lat="44.6996033" lon="10.2096317"><ele>283.66666666666663</ele><time>2026-04-26T07:09:29.007Z</time></trkpt><trkpt lat="44.6996283" lon="10.20972"><ele>283.3333333333333</ele><time>2026-04-26T07:09:30.007Z</time></trkpt><trkpt lat="44.6996433" lon="10.20981"><ele>283.0</ele><time>2026-04-26T07:09:31.007Z</time></trkpt><trkpt lat="44.6996283" lon="10.2099033"><ele>282.2</ele><time>2026-04-26T07:09:32.007Z</time></trkpt><trkpt lat="44.6996083" lon="10.210005"><ele>281.4</ele><time>2026-04-26T07:09:33.007Z</time></trkpt><trkpt lat="44.699555" lon="10.210115"><ele>280.59999999999997</ele><time>2026-04-26T07:09:34.008Z</time></trkpt><trkpt lat="44.6994967" lon="10.2102283"><ele>279.8</ele><time>2026-04-26T07:09:35.007Z</time></trkpt><trkpt lat="44.6994367" lon="10.210335"><ele>279.0</ele><time>2026-04-26T07:09:36.007Z</time></trkpt><trkpt lat="44.699385" lon="10.210445"><ele>279.0</ele><time>2026-04-26T07:09:37.007Z</time></trkpt><trkpt lat="44.6993317" lon="10.2105617"><ele>279.0</ele><time>2026-04-26T07:09:38.007Z</time></trkpt><trkpt lat="44.699275" lon="10.2106733"><ele>279.0</ele><time>2026-04-26T07:09:39.008Z</time></trkpt><trkpt lat="44.69922" lon="10.2107917"><ele>279.0</ele><time>2026-04-26T07:09:40.007Z</time></trkpt><trkpt lat="44.6991533" lon="10.210895"><ele>279.0</ele><time>2026-04-26T07:09:41.007Z</time></trkpt><trkpt lat="44.699095" lon="10.2109917"><ele>277.5</ele><time>2026-04-26T07:09:42.008Z</time></trkpt><trkpt lat="44.6990283" lon="10.2110783"><ele>276.0</ele><time>2026-04-26T07:09:43.007Z</time></trkpt><trkpt lat="44.69898" lon="10.2111567"><ele>274.5</ele><time>2026-04-26T07:09:44.008Z</time></trkpt><trkpt lat="44.6989283" lon="10.211225"><ele>273.0</ele><time>2026-04-26T07:09:45.007Z</time></trkpt><trkpt lat="44.6988767" lon="10.2112817"><ele>271.5</ele><time>2026-04-26T07:09:46.008Z</time></trkpt><trkpt lat="44.6987917" lon="10.2113883"><ele>270.0</ele><time>2026-04-26T07:09:48.007Z</time></trkpt><trkpt lat="44.6987533" lon="10.211465"><ele>268.3333333333333</ele><time>2026-04-26T07:09:49.007Z</time></trkpt><trkpt lat="44.6987317" lon="10.2115633"><ele>266.6666666666667</ele><time>2026-04-26T07:09:50.007Z</time></trkpt><trkpt lat="44.69871" lon="10.211675"><ele>265.0</ele><time>2026-04-26T07:09:51.007Z</time></trkpt><trkpt lat="44.6987017" lon="10.2117833"><ele>263.33333333333337</ele><time>2026-04-26T07:09:52.007Z</time></trkpt><trkpt lat="44.69871" lon="10.2118933"><ele>261.6666666666667</ele><time>2026-04-26T07:09:53.008Z</time></trkpt><trkpt lat="44.6987167" lon="10.21201"><ele>260.0</ele><time>2026-04-26T07:09:54.007Z</time></trkpt><trkpt lat="44.6986983" lon="10.2121317"><ele>260.0</ele><time>2026-04-26T07:09:55.007Z</time></trkpt><trkpt lat="44.6986917" lon="10.2122483"><ele>260.0</ele><time>2026-04-26T07:09:56.008Z</time></trkpt><trkpt lat="44.69869" lon="10.21235"><ele>260.0</ele><time>2026-04-26T07:09:57.007Z</time></trkpt><trkpt lat="44.6986767" lon="10.212475"><ele>260.0</ele><time>2026-04-26T07:09:59.007Z</time></trkpt><trkpt lat="44.6987333" lon="10.2125983"><ele>260.0</ele><time>2026-04-26T07:10:02.007Z</time></trkpt><trkpt lat="44.6988" lon="10.212685"><ele>260.0</ele><time>2026-04-26T07:10:04.007Z</time></trkpt><trkpt lat="44.6988583" lon="10.2128383"><ele>258.4</ele><time>2026-04-26T07:10:06.007Z</time></trkpt><trkpt lat="44.698885" lon="10.2129483"><ele>256.8</ele><time>2026-04-26T07:10:07.007Z</time></trkpt><trkpt lat="44.698915" lon="10.2131033"><ele>255.2</ele><time>2026-04-26T07:10:08.007Z</time></trkpt><trkpt lat="44.69896" lon="10.2132717"><ele>253.6</ele><time>2026-04-26T07:10:09.007Z</time></trkpt><trkpt lat="44.699005" lon="10.2134283"><ele>252.0</ele><time>2026-04-26T07:10:10.007Z</time></trkpt><trkpt lat="44.6990367" lon="10.2135683"><ele>249.6</ele><time>2026-04-26T07:10:11.007Z</time></trkpt><trkpt lat="44.699085" lon="10.213715"><ele>247.2</ele><time>2026-04-26T07:10:12.007Z</time></trkpt><trkpt lat="44.699125" lon="10.2138467"><ele>244.8</ele><time>2026-04-26T07:10:13.007Z</time></trkpt><trkpt lat="44.6991567" lon="10.2139833"><ele>242.4</ele><time>2026-04-26T07:10:14.007Z</time></trkpt><trkpt lat="44.6991867" lon="10.21411"><ele>240.0</ele><time>2026-04-26T07:10:15.007Z</time></trkpt><trkpt lat="44.699215" lon="10.2142317"><ele>239.6</ele><time>2026-04-26T07:10:16.007Z</time></trkpt><trkpt lat="44.69925" lon="10.2143617"><ele>239.2</ele><time>2026-04-26T07:10:17.007Z</time></trkpt><trkpt lat="44.6992833" lon="10.2145083"><ele>238.8</ele><time>2026-04-26T07:10:18.007Z</time></trkpt><trkpt lat="44.6993233" lon="10.2146133"><ele>238.4</ele><time>2026-04-26T07:10:19.007Z</time></trkpt><trkpt lat="44.6993717" lon="10.21469"><ele>238.0</ele><time>2026-04-26T07:10:20.007Z</time></trkpt><trkpt lat="44.6994383" lon="10.21478"><ele>237.0</ele><time>2026-04-26T07:10:21.008Z</time></trkpt><trkpt lat="44.6995533" lon="10.214855"><ele>236.0</ele><time>2026-04-26T07:10:22.007Z</time></trkpt><trkpt lat="44.6996533" lon="10.2149083"><ele>235.0</ele><time>2026-04-26T07:10:23.007Z</time></trkpt><trkpt lat="44.6997483" lon="10.2149683"><ele>234.0</ele><time>2026-04-26T07:10:24.007Z</time></trkpt><trkpt lat="44.6998383" lon="10.2150133"><ele>233.0</ele><time>2026-04-26T07:10:25.007Z</time></trkpt><trkpt lat="44.69992" lon="10.215075"><ele>233.00000000000003</ele><time>2026-04-26T07:10:26.007Z</time></trkpt><trkpt lat="44.699995" lon="10.2151283"><ele>233.0</ele><time>2026-04-26T07:10:27.007Z</time></trkpt><trkpt lat="44.700065" lon="10.21518"><ele>233.0</ele><time>2026-04-26T07:10:28.008Z</time></trkpt><trkpt lat="44.7001317" lon="10.2152283"><ele>233.0</ele><time>2026-04-26T07:10:29.007Z</time></trkpt><trkpt lat="44.700205" lon="10.2152783"><ele>233.00000000000003</ele><time>2026-04-26T07:10:30.007Z</time></trkpt><trkpt lat="44.7002833" lon="10.2153433"><ele>233.0</ele><time>2026-04-26T07:10:31.007Z</time></trkpt><trkpt lat="44.7003567" lon="10.2154083"><ele>232.66666666666669</ele><time>2026-04-26T07:10:32.007Z</time></trkpt><trkpt lat="44.7004417" lon="10.2154767"><ele>232.33333333333334</ele><time>2026-04-26T07:10:33.007Z</time></trkpt><trkpt lat="44.7005167" lon="10.2155417"><ele>232.0</ele><time>2026-04-26T07:10:34.007Z</time></trkpt><trkpt lat="44.70059" lon="10.2156067"><ele>231.66666666666669</ele><time>2026-04-26T07:10:35.007Z</time></trkpt><trkpt lat="44.7006667" lon="10.2156733"><ele>231.33333333333334</ele><time>2026-04-26T07:10:36.007Z</time></trkpt><trkpt lat="44.70074" lon="10.2157283"><ele>231.0</ele><time>2026-04-26T07:10:37.007Z</time></trkpt><trkpt lat="44.70081" lon="10.2157717"><ele>230.16666666666666</ele><time>2026-04-26T07:10:38.008Z</time></trkpt><trkpt lat="44.7008783" lon="10.21582"><ele>229.33333333333331</ele><time>2026-04-26T07:10:39.008Z</time></trkpt><trkpt lat="44.70095" lon="10.2158933"><ele>228.5</ele><time>2026-04-26T07:10:40.007Z</time></trkpt><trkpt lat="44.7010217" lon="10.21595"><ele>227.66666666666666</ele><time>2026-04-26T07:10:41.007Z</time></trkpt><trkpt lat="44.7010933" lon="10.21602"><ele>226.83333333333331</ele><time>2026-04-26T07:10:42.007Z</time></trkpt><trkpt lat="44.701165" lon="10.2160783"><ele>226.0</ele><time>2026-04-26T07:10:43.007Z</time></trkpt><trkpt lat="44.7012383" lon="10.2161317"><ele>225.49999999999997</ele><time>2026-04-26T07:10:44.007Z</time></trkpt><trkpt lat="44.701305" lon="10.2161867"><ele>225.0</ele><time>2026-04-26T07:10:45.008Z</time></trkpt><trkpt lat="44.7013767" lon="10.2162483"><ele>224.5</ele><time>2026-04-26T07:10:46.007Z</time></trkpt><trkpt lat="44.7014467" lon="10.2163067"><ele>224.0</ele><time>2026-04-26T07:10:47.008Z</time></trkpt><trkpt lat="44.701515" lon="10.2163633"><ele>223.49999999999997</ele><time>2026-04-26T07:10:48.008Z</time></trkpt><trkpt lat="44.7015683" lon="10.2164217"><ele>223.0</ele><time>2026-04-26T07:10:49.008Z</time></trkpt><trkpt lat="44.7016217" lon="10.2165333"><ele>223.0</ele><time>2026-04-26T07:10:51.007Z</time></trkpt><trkpt lat="44.701615" lon="10.2167067"><ele>223.0</ele><time>2026-04-26T07:10:53.007Z</time></trkpt><trkpt lat="44.7015983" lon="10.2168"><ele>223.0</ele><time>2026-04-26T07:10:54.008Z</time></trkpt><trkpt lat="44.7015833" lon="10.2168933"><ele>223.0</ele><time>2026-04-26T07:10:55.007Z</time></trkpt><trkpt lat="44.70157" lon="10.2169917"><ele>223.0</ele><time>2026-04-26T07:10:56.007Z</time></trkpt><trkpt lat="44.70155" lon="10.2171683"><ele>222.99999999999997</ele><time>2026-04-26T07:10:58.007Z</time></trkpt><trkpt lat="44.7015417" lon="10.2172667"><ele>223.0</ele><time>2026-04-26T07:10:59.007Z</time></trkpt><trkpt lat="44.7015267" lon="10.2173617"><ele>223.0</ele><time>2026-04-26T07:11:00.007Z</time></trkpt><trkpt lat="44.7015133" lon="10.217465"><ele>223.0</ele><time>2026-04-26T07:11:01.007Z</time></trkpt><trkpt lat="44.701505" lon="10.2175767"><ele>222.99999999999997</ele><time>2026-04-26T07:11:02.007Z</time></trkpt><trkpt lat="44.701495" lon="10.217695"><ele>223.0</ele><time>2026-04-26T07:11:03.007Z</time></trkpt><trkpt lat="44.7014833" lon="10.2178217"><ele>222.49999999999997</ele><time>2026-04-26T07:11:04.008Z</time></trkpt><trkpt lat="44.7014783" lon="10.2179483"><ele>222.0</ele><time>2026-04-26T07:11:05.008Z</time></trkpt><trkpt lat="44.7014817" lon="10.218075"><ele>221.5</ele><time>2026-04-26T07:11:06.007Z</time></trkpt><trkpt lat="44.7014817" lon="10.2182033"><ele>221.0</ele><time>2026-04-26T07:11:07.007Z</time></trkpt><trkpt lat="44.70149" lon="10.218315"><ele>220.49999999999997</ele><time>2026-04-26T07:11:08.007Z</time></trkpt><trkpt lat="44.701495" lon="10.2184383"><ele>220.0</ele><time>2026-04-26T07:11:09.007Z</time></trkpt><trkpt lat="44.7014983" lon="10.2185633"><ele>218.8</ele><time>2026-04-26T07:11:10.007Z</time></trkpt><trkpt lat="44.7014983" lon="10.2186933"><ele>217.6</ele><time>2026-04-26T07:11:11.008Z</time></trkpt><trkpt lat="44.7015067" lon="10.21883"><ele>216.39999999999998</ele><time>2026-04-26T07:11:12.007Z</time></trkpt><trkpt lat="44.701515" lon="10.218965"><ele>215.2</ele><time>2026-04-26T07:11:13.007Z</time></trkpt><trkpt lat="44.70152" lon="10.2191183"><ele>214.0</ele><time>2026-04-26T07:11:14.007Z</time></trkpt><trkpt lat="44.7015283" lon="10.21927"><ele>212.39999999999998</ele><time>2026-04-26T07:11:15.007Z</time></trkpt><trkpt lat="44.701505" lon="10.2194267"><ele>210.79999999999998</ele><time>2026-04-26T07:11:16.007Z</time></trkpt><trkpt lat="44.7014717" lon="10.21958"><ele>209.2</ele><time>2026-04-26T07:11:17.008Z</time></trkpt><trkpt lat="44.701435" lon="10.21972"><ele>207.60000000000002</ele><time>2026-04-26T07:11:18.007Z</time></trkpt><trkpt lat="44.7013967" lon="10.219855"><ele>206.0</ele><time>2026-04-26T07:11:19.008Z</time></trkpt><trkpt lat="44.7013583" lon="10.2199917"><ele>205.4</ele><time>2026-04-26T07:11:20.007Z</time></trkpt><trkpt lat="44.701315" lon="10.2201233"><ele>204.8</ele><time>2026-04-26T07:11:21.007Z</time></trkpt><trkpt lat="44.7012733" lon="10.2202617"><ele>204.20000000000002</ele><time>2026-04-26T07:11:22.007Z</time></trkpt><trkpt lat="44.70123" lon="10.220395"><ele>203.60000000000002</ele><time>2026-04-26T07:11:23.008Z</time></trkpt><trkpt lat="44.7011867" lon="10.2205233"><ele>203.0</ele><time>2026-04-26T07:11:24.007Z</time></trkpt><trkpt lat="44.7011467" lon="10.2206417"><ele>202.60000000000002</ele><time>2026-04-26T07:11:25.007Z</time></trkpt><trkpt lat="44.7011133" lon="10.2207667"><ele>202.20000000000002</ele><time>2026-04-26T07:11:26.007Z</time></trkpt><trkpt lat="44.7010667" lon="10.2209017"><ele>201.8</ele><time>2026-04-26T07:11:27.007Z</time></trkpt><trkpt lat="44.7010117" lon="10.22104"><ele>201.4</ele><time>2026-04-26T07:11:28.007Z</time></trkpt><trkpt lat="44.70096" lon="10.22119"><ele>201.0</ele><time>2026-04-26T07:11:29.007Z</time></trkpt><trkpt lat="44.7009233" lon="10.2213333"><ele>200.4</ele><time>2026-04-26T07:11:30.007Z</time></trkpt><trkpt lat="44.7008933" lon="10.2214667"><ele>199.8</ele><time>2026-04-26T07:11:31.007Z</time></trkpt><trkpt lat="44.7008633" lon="10.22158"><ele>199.20000000000002</ele><time>2026-04-26T07:11:32.007Z</time></trkpt><trkpt lat="44.7008467" lon="10.22168"><ele>198.60000000000002</ele><time>2026-04-26T07:11:33.007Z</time></trkpt><trkpt lat="44.7008183" lon="10.22185"><ele>198.0</ele><time>2026-04-26T07:11:35.007Z</time></trkpt><trkpt lat="44.7008033" lon="10.2219433"><ele>196.60000000000002</ele><time>2026-04-26T07:11:36.007Z</time></trkpt><trkpt lat="44.70076" lon="10.222065"><ele>195.20000000000002</ele><time>2026-04-26T07:11:38.007Z</time></trkpt><trkpt lat="44.700695" lon="10.2221333"><ele>193.8</ele><time>2026-04-26T07:11:40.007Z</time></trkpt><trkpt lat="44.7006033" lon="10.2221783"><ele>192.4</ele><time>2026-04-26T07:11:42.008Z</time></trkpt><trkpt lat="44.70049" lon="10.222195"><ele>191.0</ele><time>2026-04-26T07:11:44.007Z</time></trkpt><trkpt lat="44.7004217" lon="10.2222117"><ele>191.0</ele><time>2026-04-26T07:11:45.007Z</time></trkpt><trkpt lat="44.700355" lon="10.2222367"><ele>191.0</ele><time>2026-04-26T07:11:46.007Z</time></trkpt><trkpt lat="44.7002467" lon="10.2222733"><ele>191.0</ele><time>2026-04-26T07:11:48.007Z</time></trkpt><trkpt lat="44.700135" lon="10.2223183"><ele>191.0</ele><time>2026-04-26T07:11:50.007Z</time></trkpt><trkpt lat="44.7000383" lon="10.2223433"><ele>191.0</ele><time>2026-04-26T07:11:52.007Z</time></trkpt><trkpt lat="44.69995" lon="10.2223267"><ele>191.0</ele><time>2026-04-26T07:11:54.007Z</time></trkpt><trkpt lat="44.6998483" lon="10.2223217"><ele>191.0</ele><time>2026-04-26T07:11:56.007Z</time></trkpt><trkpt lat="44.69975" lon="10.2223033"><ele>191.0</ele><time>2026-04-26T07:11:58.007Z</time></trkpt><trkpt lat="44.6996633" lon="10.2222767"><ele>191.0</ele><time>2026-04-26T07:12:00.007Z</time></trkpt><trkpt lat="44.69957" lon="10.2222383"><ele>191.0</ele><time>2026-04-26T07:12:02.007Z</time></trkpt><trkpt lat="44.6994383" lon="10.2221867"><ele>191.20000000000002</ele><time>2026-04-26T07:12:04.007Z</time></trkpt><trkpt lat="44.6993183" lon="10.222155"><ele>191.4</ele><time>2026-04-26T07:12:06.007Z</time></trkpt><trkpt lat="44.6992217" lon="10.222125"><ele>191.6</ele><time>2026-04-26T07:12:08.007Z</time></trkpt><trkpt lat="44.6990983" lon="10.2220767"><ele>191.8</ele><time>2026-04-26T07:12:10.007Z</time></trkpt><trkpt lat="44.6990283" lon="10.2220483"><ele>192.0</ele><time>2026-04-26T07:12:11.007Z</time></trkpt><trkpt lat="44.6989583" lon="10.2220133"><ele>192.0</ele><time>2026-04-26T07:12:12.008Z</time></trkpt><trkpt lat="44.69889" lon="10.22198"><ele>192.0</ele><time>2026-04-26T07:12:13.007Z</time></trkpt><trkpt lat="44.6988217" lon="10.22196"><ele>192.0</ele><time>2026-04-26T07:12:14.007Z</time></trkpt><trkpt lat="44.698755" lon="10.221935"><ele>192.0</ele><time>2026-04-26T07:12:15.007Z</time></trkpt><trkpt lat="44.6986917" lon="10.221915"><ele>192.0</ele><time>2026-04-26T07:12:16.008Z</time></trkpt><trkpt lat="44.69857" lon="10.2219167"><ele>192.0</ele><time>2026-04-26T07:12:18.008Z</time></trkpt><trkpt lat="44.698455" lon="10.2219717"><ele>191.16666666666666</ele><time>2026-04-26T07:12:20.007Z</time></trkpt><trkpt lat="44.6983583" lon="10.2220733"><ele>190.33333333333334</ele><time>2026-04-26T07:12:22.007Z</time></trkpt><trkpt lat="44.6983333" lon="10.2221633"><ele>189.5</ele><time>2026-04-26T07:12:23.007Z</time></trkpt><trkpt lat="44.69831" lon="10.2222533"><ele>188.66666666666669</ele><time>2026-04-26T07:12:24.008Z</time></trkpt><trkpt lat="44.6982867" lon="10.2223467"><ele>187.83333333333334</ele><time>2026-04-26T07:12:25.007Z</time></trkpt><trkpt lat="44.6982683" lon="10.2224367"><ele>187.0</ele><time>2026-04-26T07:12:26.007Z</time></trkpt><trkpt lat="44.698245" lon="10.222525"><ele>186.5</ele><time>2026-04-26T07:12:27.007Z</time></trkpt><trkpt lat="44.6982217" lon="10.22261"><ele>186.0</ele><time>2026-04-26T07:12:28.007Z</time></trkpt><trkpt lat="44.698195" lon="10.222695"><ele>185.5</ele><time>2026-04-26T07:12:29.007Z</time></trkpt><trkpt lat="44.69816" lon="10.222775"><ele>185.0</ele><time>2026-04-26T07:12:30.007Z</time></trkpt><trkpt lat="44.6981183" lon="10.2228417"><ele>184.5</ele><time>2026-04-26T07:12:31.007Z</time></trkpt><trkpt lat="44.6980133" lon="10.22291"><ele>184.0</ele><time>2026-04-26T07:12:33.007Z</time></trkpt><trkpt lat="44.6978983" lon="10.222855"><ele>184.0</ele><time>2026-04-26T07:12:35.007Z</time></trkpt><trkpt lat="44.6978433" lon="10.2228067"><ele>184.0</ele><time>2026-04-26T07:12:36.008Z</time></trkpt><trkpt lat="44.697745" lon="10.22272"><ele>184.0</ele><time>2026-04-26T07:12:38.007Z</time></trkpt><trkpt lat="44.69764" lon="10.2226433"><ele>184.0</ele><time>2026-04-26T07:12:40.007Z</time></trkpt><trkpt lat="44.6975267" lon="10.22257"><ele>184.0</ele><time>2026-04-26T07:12:42.007Z</time></trkpt><trkpt lat="44.6974167" lon="10.2224917"><ele>184.6</ele><time>2026-04-26T07:12:44.007Z</time></trkpt><trkpt lat="44.6973467" lon="10.222415"><ele>185.2</ele><time>2026-04-26T07:12:46.007Z</time></trkpt><trkpt lat="44.697255" lon="10.2223383"><ele>185.79999999999998</ele><time>2026-04-26T07:12:48.007Z</time></trkpt><trkpt lat="44.697195" lon="10.222305"><ele>186.39999999999998</ele><time>2026-04-26T07:12:49.007Z</time></trkpt><trkpt lat="44.69709" lon="10.2222217"><ele>187.0</ele><time>2026-04-26T07:12:51.008Z</time></trkpt><trkpt lat="44.6969817" lon="10.2221317"><ele>187.0</ele><time>2026-04-26T07:12:53.007Z</time></trkpt><trkpt lat="44.6969233" lon="10.2220933"><ele>187.0</ele><time>2026-04-26T07:12:54.007Z</time></trkpt><trkpt lat="44.6968667" lon="10.2220517"><ele>187.0</ele><time>2026-04-26T07:12:55.007Z</time></trkpt><trkpt lat="44.69676" lon="10.2219767"><ele>187.0</ele><time>2026-04-26T07:12:57.008Z</time></trkpt><trkpt lat="44.696645" lon="10.2219033"><ele>187.0</ele><time>2026-04-26T07:12:59.007Z</time></trkpt><trkpt lat="44.6965867" lon="10.2218583"><ele>187.0</ele><time>2026-04-26T07:13:00.007Z</time></trkpt><trkpt lat="44.6965283" lon="10.2218117"><ele>187.39999999999998</ele><time>2026-04-26T07:13:01.007Z</time></trkpt><trkpt lat="44.69647" lon="10.2217683"><ele>187.79999999999998</ele><time>2026-04-26T07:13:02.007Z</time></trkpt><trkpt lat="44.6963717" lon="10.2216883"><ele>188.2</ele><time>2026-04-26T07:13:04.007Z</time></trkpt><trkpt lat="44.69626" lon="10.2216067"><ele>188.6</ele><time>2026-04-26T07:13:06.007Z</time></trkpt><trkpt lat="44.6961683" lon="10.22155"><ele>189.0</ele><time>2026-04-26T07:13:08.007Z</time></trkpt><trkpt lat="44.6960733" lon="10.2214983"><ele>189.25</ele><time>2026-04-26T07:13:10.007Z</time></trkpt><trkpt lat="44.695975" lon="10.2214433"><ele>189.5</ele><time>2026-04-26T07:13:12.007Z</time></trkpt><trkpt lat="44.6958783" lon="10.2213817"><ele>189.75</ele><time>2026-04-26T07:13:14.007Z</time></trkpt><trkpt lat="44.6957733" lon="10.2213283"><ele>190.0</ele><time>2026-04-26T07:13:16.007Z</time></trkpt><trkpt lat="44.695655" lon="10.2212667"><ele>190.0</ele><time>2026-04-26T07:13:18.008Z</time></trkpt><trkpt lat="44.69555" lon="10.2211933"><ele>190.0</ele><time>2026-04-26T07:13:20.007Z</time></trkpt><trkpt lat="44.695445" lon="10.2211367"><ele>190.0</ele><time>2026-04-26T07:13:22.007Z</time></trkpt><trkpt lat="44.6953417" lon="10.22106"><ele>190.0</ele><time>2026-04-26T07:13:24.008Z</time></trkpt><trkpt lat="44.6952433" lon="10.220985"><ele>190.25</ele><time>2026-04-26T07:13:26.007Z</time></trkpt><trkpt lat="44.6951383" lon="10.2209183"><ele>190.5</ele><time>2026-04-26T07:13:28.007Z</time></trkpt><trkpt lat="44.6950383" lon="10.2208433"><ele>190.75</ele><time>2026-04-26T07:13:30.008Z</time></trkpt><trkpt lat="44.69494" lon="10.2207617"><ele>191.0</ele><time>2026-04-26T07:13:32.008Z</time></trkpt><trkpt lat="44.6948417" lon="10.2207017"><ele>190.8</ele><time>2026-04-26T07:13:34.007Z</time></trkpt><trkpt lat="44.6947467" lon="10.2206217"><ele>190.60000000000002</ele><time>2026-04-26T07:13:36.007Z</time></trkpt><trkpt lat="44.6946417" lon="10.220555"><ele>190.4</ele><time>2026-04-26T07:13:38.007Z</time></trkpt><trkpt lat="44.69454" lon="10.220495"><ele>190.2</ele><time>2026-04-26T07:13:40.008Z</time></trkpt><trkpt lat="44.69444" lon="10.2204217"><ele>190.0</ele><time>2026-04-26T07:13:42.007Z</time></trkpt><trkpt lat="44.6943467" lon="10.22033"><ele>191.0</ele><time>2026-04-26T07:13:44.008Z</time></trkpt><trkpt lat="44.6942533" lon="10.22024"><ele>192.0</ele><time>2026-04-26T07:13:46.008Z</time></trkpt><trkpt lat="44.6941533" lon="10.2201533"><ele>193.0</ele><time>2026-04-26T07:13:48.007Z</time></trkpt><trkpt lat="44.69406" lon="10.22008"><ele>194.0</ele><time>2026-04-26T07:13:50.007Z</time></trkpt><trkpt lat="44.69396" lon="10.2200017"><ele>194.0</ele><time>2026-04-26T07:13:52.008Z</time></trkpt><trkpt lat="44.69387" lon="10.219935"><ele>194.0</ele><time>2026-04-26T07:13:54.007Z</time></trkpt><trkpt lat="44.693785" lon="10.2198683"><ele>194.0</ele><time>2026-04-26T07:13:56.007Z</time></trkpt><trkpt lat="44.6937" lon="10.219815"><ele>194.0</ele><time>2026-04-26T07:13:58.007Z</time></trkpt><trkpt lat="44.6935967" lon="10.219755"><ele>194.0</ele><time>2026-04-26T07:14:00.007Z</time></trkpt><trkpt lat="44.6934967" lon="10.2196833"><ele>194.2</ele><time>2026-04-26T07:14:02.007Z</time></trkpt><trkpt lat="44.6933983" lon="10.2196233"><ele>194.39999999999998</ele><time>2026-04-26T07:14:04.007Z</time></trkpt><trkpt lat="44.6932933" lon="10.219545"><ele>194.6</ele><time>2026-04-26T07:14:06.007Z</time></trkpt><trkpt lat="44.6931983" lon="10.2194533"><ele>194.8</ele><time>2026-04-26T07:14:08.007Z</time></trkpt><trkpt lat="44.6931067" lon="10.2193767"><ele>195.0</ele><time>2026-04-26T07:14:10.007Z</time></trkpt><trkpt lat="44.6930167" lon="10.2193067"><ele>195.0</ele><time>2026-04-26T07:14:12.007Z</time></trkpt><trkpt lat="44.6929267" lon="10.2192367"><ele>195.0</ele><time>2026-04-26T07:14:14.008Z</time></trkpt><trkpt lat="44.6928433" lon="10.2191767"><ele>195.0</ele><time>2026-04-26T07:14:16.007Z</time></trkpt><trkpt lat="44.6927467" lon="10.2191117"><ele>195.0</ele><time>2026-04-26T07:14:18.008Z</time></trkpt><trkpt lat="44.6926483" lon="10.2190333"><ele>195.0</ele><time>2026-04-26T07:14:20.007Z</time></trkpt><trkpt lat="44.6925467" lon="10.21895"><ele>195.2</ele><time>2026-04-26T07:14:22.007Z</time></trkpt><trkpt lat="44.6924467" lon="10.2188817"><ele>195.4</ele><time>2026-04-26T07:14:24.007Z</time></trkpt><trkpt lat="44.6923433" lon="10.2188033"><ele>195.60000000000002</ele><time>2026-04-26T07:14:26.007Z</time></trkpt><trkpt lat="44.6922867" lon="10.2187567"><ele>195.8</ele><time>2026-04-26T07:14:27.008Z</time></trkpt><trkpt lat="44.6921783" lon="10.2186633"><ele>196.0</ele><time>2026-04-26T07:14:29.007Z</time></trkpt><trkpt lat="44.692075" lon="10.21858"><ele>196.0</ele><time>2026-04-26T07:14:31.007Z</time></trkpt><trkpt lat="44.6919733" lon="10.218495"><ele>196.0</ele><time>2026-04-26T07:14:33.007Z</time></trkpt><trkpt lat="44.6919167" lon="10.2184467"><ele>196.0</ele><time>2026-04-26T07:14:34.008Z</time></trkpt><trkpt lat="44.6918583" lon="10.218405"><ele>196.0</ele><time>2026-04-26T07:14:35.007Z</time></trkpt><trkpt lat="44.691755" lon="10.2183317"><ele>196.0</ele><time>2026-04-26T07:14:37.007Z</time></trkpt><trkpt lat="44.69165" lon="10.21825"><ele>196.0</ele><time>2026-04-26T07:14:39.007Z</time></trkpt><trkpt lat="44.69155" lon="10.218175"><ele>196.0</ele><time>2026-04-26T07:14:41.007Z</time></trkpt><trkpt lat="44.691445" lon="10.218085"><ele>196.0</ele><time>2026-04-26T07:14:43.007Z</time></trkpt><trkpt lat="44.691345" lon="10.218005"><ele>196.0</ele><time>2026-04-26T07:14:45.007Z</time></trkpt><trkpt lat="44.69124" lon="10.217945"><ele>196.0</ele><time>2026-04-26T07:14:47.007Z</time></trkpt><trkpt lat="44.6911417" lon="10.2178817"><ele>196.0</ele><time>2026-04-26T07:14:49.007Z</time></trkpt><trkpt lat="44.6910483" lon="10.2178033"><ele>196.0</ele><time>2026-04-26T07:14:51.007Z</time></trkpt><trkpt lat="44.6909483" lon="10.21773"><ele>196.0</ele><time>2026-04-26T07:14:53.007Z</time></trkpt><trkpt lat="44.69085" lon="10.217645"><ele>196.0</ele><time>2026-04-26T07:14:55.007Z</time></trkpt><trkpt lat="44.6907517" lon="10.2175767"><ele>196.4</ele><time>2026-04-26T07:14:57.007Z</time></trkpt><trkpt lat="44.69066" lon="10.2175167"><ele>196.8</ele><time>2026-04-26T07:14:59.008Z</time></trkpt><trkpt lat="44.6905617" lon="10.2174533"><ele>197.20000000000002</ele><time>2026-04-26T07:15:01.008Z</time></trkpt><trkpt lat="44.6904533" lon="10.2173933"><ele>197.60000000000002</ele><time>2026-04-26T07:15:03.007Z</time></trkpt><trkpt lat="44.6903533" lon="10.2173383"><ele>198.0</ele><time>2026-04-26T07:15:05.007Z</time></trkpt><trkpt lat="44.6902483" lon="10.2172917"><ele>198.8</ele><time>2026-04-26T07:15:07.008Z</time></trkpt><trkpt lat="44.69014" lon="10.2172217"><ele>199.60000000000002</ele><time>2026-04-26T07:15:09.007Z</time></trkpt><trkpt lat="44.6900433" lon="10.2171433"><ele>200.39999999999998</ele><time>2026-04-26T07:15:11.007Z</time></trkpt><trkpt lat="44.6899483" lon="10.2170583"><ele>201.2</ele><time>2026-04-26T07:15:13.007Z</time></trkpt><trkpt lat="44.6898617" lon="10.2169783"><ele>202.0</ele><time>2026-04-26T07:15:15.007Z</time></trkpt><trkpt lat="44.6897633" lon="10.2168933"><ele>202.0</ele><time>2026-04-26T07:15:17.007Z</time></trkpt><trkpt lat="44.6896617" lon="10.216825"><ele>202.0</ele><time>2026-04-26T07:15:19.007Z</time></trkpt><trkpt lat="44.6895667" lon="10.21677"><ele>202.0</ele><time>2026-04-26T07:15:21.008Z</time></trkpt><trkpt lat="44.68947" lon="10.2166983"><ele>202.0</ele><time>2026-04-26T07:15:23.007Z</time></trkpt><trkpt lat="44.689375" lon="10.216605"><ele>202.0</ele><time>2026-04-26T07:15:25.007Z</time></trkpt><trkpt lat="44.689285" lon="10.2165133"><ele>202.2</ele><time>2026-04-26T07:15:27.008Z</time></trkpt><trkpt lat="44.6891983" lon="10.21644"><ele>202.39999999999998</ele><time>2026-04-26T07:15:29.007Z</time></trkpt><trkpt lat="44.689095" lon="10.2163783"><ele>202.60000000000002</ele><time>2026-04-26T07:15:31.007Z</time></trkpt><trkpt lat="44.6890067" lon="10.2163"><ele>202.8</ele><time>2026-04-26T07:15:33.007Z</time></trkpt><trkpt lat="44.68891" lon="10.2162167"><ele>203.0</ele><time>2026-04-26T07:15:35.007Z</time></trkpt><trkpt lat="44.68885" lon="10.216185"><ele>203.0</ele><time>2026-04-26T07:15:36.007Z</time></trkpt><trkpt lat="44.68875" lon="10.2161083"><ele>203.0</ele><time>2026-04-26T07:15:38.008Z</time></trkpt><trkpt lat="44.6886533" lon="10.2160333"><ele>203.0</ele><time>2026-04-26T07:15:40.007Z</time></trkpt><trkpt lat="44.6885517" lon="10.21596"><ele>203.0</ele><time>2026-04-26T07:15:42.007Z</time></trkpt><trkpt lat="44.6884567" lon="10.21587"><ele>202.5</ele><time>2026-04-26T07:15:44.007Z</time></trkpt><trkpt lat="44.6883583" lon="10.2157917"><ele>202.0</ele><time>2026-04-26T07:15:46.008Z</time></trkpt><trkpt lat="44.6882667" lon="10.21569"><ele>201.5</ele><time>2026-04-26T07:15:48.008Z</time></trkpt><trkpt lat="44.6881767" lon="10.21559"><ele>201.0</ele><time>2026-04-26T07:15:50.007Z</time></trkpt><trkpt lat="44.688085" lon="10.2154883"><ele>200.8</ele><time>2026-04-26T07:15:52.007Z</time></trkpt><trkpt lat="44.6879933" lon="10.215385"><ele>200.60000000000002</ele><time>2026-04-26T07:15:54.007Z</time></trkpt><trkpt lat="44.6879033" lon="10.2152817"><ele>200.4</ele><time>2026-04-26T07:15:56.007Z</time></trkpt><trkpt lat="44.6878117" lon="10.2151933"><ele>200.2</ele><time>2026-04-26T07:15:58.007Z</time></trkpt><trkpt lat="44.687765" lon="10.2151333"><ele>200.0</ele><time>2026-04-26T07:15:59.008Z</time></trkpt><trkpt lat="44.6876717" lon="10.2150317"><ele>200.6</ele><time>2026-04-26T07:16:01.007Z</time></trkpt><trkpt lat="44.6875817" lon="10.2149617"><ele>201.2</ele><time>2026-04-26T07:16:03.007Z</time></trkpt><trkpt lat="44.6875067" lon="10.2148867"><ele>201.8</ele><time>2026-04-26T07:16:05.008Z</time></trkpt><trkpt lat="44.6874133" lon="10.2148133"><ele>202.4</ele><time>2026-04-26T07:16:07.007Z</time></trkpt><trkpt lat="44.6873183" lon="10.2147467"><ele>203.0</ele><time>2026-04-26T07:16:09.008Z</time></trkpt><trkpt lat="44.6872267" lon="10.2146717"><ele>203.0</ele><time>2026-04-26T07:16:11.008Z</time></trkpt><trkpt lat="44.6871383" lon="10.21459"><ele>203.0</ele><time>2026-04-26T07:16:13.008Z</time></trkpt><trkpt lat="44.6870467" lon="10.2145017"><ele>203.0</ele><time>2026-04-26T07:16:15.007Z</time></trkpt><trkpt lat="44.686965" lon="10.2143817"><ele>203.0</ele><time>2026-04-26T07:16:17.007Z</time></trkpt><trkpt lat="44.686855" lon="10.2143033"><ele>203.4</ele><time>2026-04-26T07:16:19.007Z</time></trkpt><trkpt lat="44.68676" lon="10.21421"><ele>203.8</ele><time>2026-04-26T07:16:21.008Z</time></trkpt><trkpt lat="44.68666" lon="10.214115"><ele>204.2</ele><time>2026-04-26T07:16:23.008Z</time></trkpt><trkpt lat="44.686615" lon="10.21404"><ele>204.6</ele><time>2026-04-26T07:16:24.007Z</time></trkpt><trkpt lat="44.6865233" lon="10.2139267"><ele>205.0</ele><time>2026-04-26T07:16:26.007Z</time></trkpt><trkpt lat="44.68643" lon="10.213825"><ele>205.0</ele><time>2026-04-26T07:16:28.007Z</time></trkpt><trkpt lat="44.6863417" lon="10.2137367"><ele>205.0</ele><time>2026-04-26T07:16:30.007Z</time></trkpt><trkpt lat="44.6862583" lon="10.2136567"><ele>205.0</ele><time>2026-04-26T07:16:32.007Z</time></trkpt><trkpt lat="44.6861783" lon="10.2135683"><ele>205.0</ele><time>2026-04-26T07:16:34.008Z</time></trkpt><trkpt lat="44.6860867" lon="10.213485"><ele>205.0</ele><time>2026-04-26T07:16:36.008Z</time></trkpt><trkpt lat="44.686005" lon="10.21339"><ele>205.6</ele><time>2026-04-26T07:16:38.007Z</time></trkpt><trkpt lat="44.6859217" lon="10.2133117"><ele>206.2</ele><time>2026-04-26T07:16:40.008Z</time></trkpt><trkpt lat="44.6858367" lon="10.2132567"><ele>206.8</ele><time>2026-04-26T07:16:42.007Z</time></trkpt><trkpt lat="44.68575" lon="10.2131917"><ele>207.4</ele><time>2026-04-26T07:16:44.007Z</time></trkpt><trkpt lat="44.6856567" lon="10.213135"><ele>208.0</ele><time>2026-04-26T07:16:46.007Z</time></trkpt><trkpt lat="44.68557" lon="10.213065"><ele>208.0</ele><time>2026-04-26T07:16:48.007Z</time></trkpt><trkpt lat="44.685475" lon="10.212975"><ele>208.0</ele><time>2026-04-26T07:16:50.007Z</time></trkpt><trkpt lat="44.6853933" lon="10.212905"><ele>208.0</ele><time>2026-04-26T07:16:52.007Z</time></trkpt><trkpt lat="44.68531" lon="10.21283"><ele>208.0</ele><time>2026-04-26T07:16:54.008Z</time></trkpt><trkpt lat="44.68523" lon="10.212755"><ele>208.0</ele><time>2026-04-26T07:16:56.007Z</time></trkpt><trkpt lat="44.6851417" lon="10.2126733"><ele>208.60000000000002</ele><time>2026-04-26T07:16:58.007Z</time></trkpt><trkpt lat="44.68506" lon="10.2126017"><ele>209.20000000000002</ele><time>2026-04-26T07:17:00.008Z</time></trkpt><trkpt lat="44.6849633" lon="10.2125167"><ele>209.8</ele><time>2026-04-26T07:17:02.008Z</time></trkpt><trkpt lat="44.6848633" lon="10.2124067"><ele>210.4</ele><time>2026-04-26T07:17:04.007Z</time></trkpt><trkpt lat="44.684815" lon="10.212335"><ele>211.0</ele><time>2026-04-26T07:17:05.007Z</time></trkpt><trkpt lat="44.6847633" lon="10.2122717"><ele>210.99999999999997</ele><time>2026-04-26T07:17:06.007Z</time></trkpt><trkpt lat="44.6846683" lon="10.212175"><ele>211.0</ele><time>2026-04-26T07:17:08.007Z</time></trkpt><trkpt lat="44.6845717" lon="10.2120833"><ele>211.0</ele><time>2026-04-26T07:17:10.007Z</time></trkpt><trkpt lat="44.6845217" lon="10.2120217"><ele>211.0</ele><time>2026-04-26T07:17:11.007Z</time></trkpt><trkpt lat="44.6844633" lon="10.2119583"><ele>210.99999999999997</ele><time>2026-04-26T07:17:12.007Z</time></trkpt><trkpt lat="44.6844067" lon="10.2118883"><ele>211.0</ele><time>2026-04-26T07:17:13.007Z</time></trkpt><trkpt lat="44.6843583" lon="10.2118283"><ele>211.0</ele><time>2026-04-26T07:17:14.007Z</time></trkpt><trkpt lat="44.6843133" lon="10.2117433"><ele>211.0</ele><time>2026-04-26T07:17:15.008Z</time></trkpt><trkpt lat="44.6842617" lon="10.21167"><ele>211.0</ele><time>2026-04-26T07:17:16.007Z</time></trkpt><trkpt lat="44.6842067" lon="10.21161"><ele>211.0</ele><time>2026-04-26T07:17:17.008Z</time></trkpt><trkpt lat="44.684155" lon="10.2115383"><ele>211.0</ele><time>2026-04-26T07:17:18.008Z</time></trkpt><trkpt lat="44.684105" lon="10.21148"><ele>211.0</ele><time>2026-04-26T07:17:19.008Z</time></trkpt><trkpt lat="44.6840517" lon="10.2114317"><ele>211.0</ele><time>2026-04-26T07:17:20.007Z</time></trkpt><trkpt lat="44.6840017" lon="10.211375"><ele>210.75</ele><time>2026-04-26T07:17:21.007Z</time></trkpt><trkpt lat="44.6839067" lon="10.2112933"><ele>210.5</ele><time>2026-04-26T07:17:23.007Z</time></trkpt><trkpt lat="44.6838183" lon="10.2111867"><ele>210.25</ele><time>2026-04-26T07:17:25.007Z</time></trkpt><trkpt lat="44.6837283" lon="10.2110883"><ele>210.0</ele><time>2026-04-26T07:17:27.008Z</time></trkpt><trkpt lat="44.6836367" lon="10.211005"><ele>210.16666666666666</ele><time>2026-04-26T07:17:29.007Z</time></trkpt><trkpt lat="44.6835867" lon="10.21095"><ele>210.33333333333331</ele><time>2026-04-26T07:17:30.007Z</time></trkpt><trkpt lat="44.6834883" lon="10.2108667"><ele>210.5</ele><time>2026-04-26T07:17:32.008Z</time></trkpt><trkpt lat="44.683435" lon="10.210815"><ele>210.66666666666666</ele><time>2026-04-26T07:17:33.007Z</time></trkpt><trkpt lat="44.683385" lon="10.21076"><ele>210.83333333333331</ele><time>2026-04-26T07:17:34.008Z</time></trkpt><trkpt lat="44.6833" lon="10.21064"><ele>211.0</ele><time>2026-04-26T07:17:36.007Z</time></trkpt><trkpt lat="44.6832133" lon="10.210525"><ele>211.0</ele><time>2026-04-26T07:17:38.008Z</time></trkpt><trkpt lat="44.6831167" lon="10.2104283"><ele>211.0</ele><time>2026-04-26T07:17:40.007Z</time></trkpt><trkpt lat="44.6830167" lon="10.2103467"><ele>211.0</ele><time>2026-04-26T07:17:42.007Z</time></trkpt><trkpt lat="44.6829217" lon="10.2102583"><ele>211.0</ele><time>2026-04-26T07:17:44.007Z</time></trkpt><trkpt lat="44.6828217" lon="10.2101633"><ele>211.0</ele><time>2026-04-26T07:17:46.008Z</time></trkpt><trkpt lat="44.6827367" lon="10.21004"><ele>211.0</ele><time>2026-04-26T07:17:48.008Z</time></trkpt><trkpt lat="44.682645" lon="10.2099383"><ele>211.0</ele><time>2026-04-26T07:17:50.007Z</time></trkpt><trkpt lat="44.6825967" lon="10.20988"><ele>211.0</ele><time>2026-04-26T07:17:51.007Z</time></trkpt><trkpt lat="44.6825483" lon="10.2098233"><ele>211.0</ele><time>2026-04-26T07:17:52.008Z</time></trkpt><trkpt lat="44.6824517" lon="10.2097183"><ele>212.0</ele><time>2026-04-26T07:17:54.007Z</time></trkpt><trkpt lat="44.68235" lon="10.2096233"><ele>213.0</ele><time>2026-04-26T07:17:56.007Z</time></trkpt><trkpt lat="44.6822567" lon="10.209525"><ele>214.00000000000003</ele><time>2026-04-26T07:17:58.007Z</time></trkpt><trkpt lat="44.6822083" lon="10.2094617"><ele>215.0</ele><time>2026-04-26T07:17:59.007Z</time></trkpt><trkpt lat="44.6821133" lon="10.209375"><ele>216.0</ele><time>2026-04-26T07:18:01.007Z</time></trkpt><trkpt lat="44.68202" lon="10.209285"><ele>215.60000000000002</ele><time>2026-04-26T07:18:03.007Z</time></trkpt><trkpt lat="44.68193" lon="10.209215"><ele>215.20000000000002</ele><time>2026-04-26T07:18:05.007Z</time></trkpt><trkpt lat="44.6818367" lon="10.20915"><ele>214.79999999999998</ele><time>2026-04-26T07:18:07.008Z</time></trkpt><trkpt lat="44.68175" lon="10.2090567"><ele>214.39999999999998</ele><time>2026-04-26T07:18:09.007Z</time></trkpt><trkpt lat="44.6816567" lon="10.2089733"><ele>214.0</ele><time>2026-04-26T07:18:11.007Z</time></trkpt><trkpt lat="44.6815633" lon="10.2088717"><ele>214.0</ele><time>2026-04-26T07:18:13.007Z</time></trkpt><trkpt lat="44.6814683" lon="10.2087583"><ele>214.0</ele><time>2026-04-26T07:18:15.008Z</time></trkpt><trkpt lat="44.6813767" lon="10.2086367"><ele>214.0</ele><time>2026-04-26T07:18:17.007Z</time></trkpt><trkpt lat="44.6812917" lon="10.20852"><ele>214.0</ele><time>2026-04-26T07:18:19.007Z</time></trkpt><trkpt lat="44.6811933" lon="10.20843"><ele>214.0</ele><time>2026-04-26T07:18:21.007Z</time></trkpt><trkpt lat="44.6811433" lon="10.2083733"><ele>213.99999999999997</ele><time>2026-04-26T07:18:22.007Z</time></trkpt><trkpt lat="44.6810467" lon="10.2082667"><ele>213.99999999999997</ele><time>2026-04-26T07:18:24.008Z</time></trkpt><trkpt lat="44.680955" lon="10.2081567"><ele>214.0</ele><time>2026-04-26T07:18:26.007Z</time></trkpt><trkpt lat="44.6808617" lon="10.2080617"><ele>214.0</ele><time>2026-04-26T07:18:28.008Z</time></trkpt><trkpt lat="44.680765" lon="10.207965"><ele>214.6</ele><time>2026-04-26T07:18:30.007Z</time></trkpt><trkpt lat="44.6806683" lon="10.2078883"><ele>215.2</ele><time>2026-04-26T07:18:32.007Z</time></trkpt><trkpt lat="44.6805717" lon="10.2077917"><ele>215.79999999999998</ele><time>2026-04-26T07:18:34.007Z</time></trkpt><trkpt lat="44.68052" lon="10.2077283"><ele>216.39999999999998</ele><time>2026-04-26T07:18:35.007Z</time></trkpt><trkpt lat="44.6804283" lon="10.207605"><ele>217.0</ele><time>2026-04-26T07:18:37.007Z</time></trkpt><trkpt lat="44.6803267" lon="10.2075083"><ele>217.0</ele><time>2026-04-26T07:18:39.007Z</time></trkpt><trkpt lat="44.680275" lon="10.2074567"><ele>217.0</ele><time>2026-04-26T07:18:40.008Z</time></trkpt><trkpt lat="44.6801733" lon="10.20735"><ele>217.0</ele><time>2026-04-26T07:18:42.008Z</time></trkpt><trkpt lat="44.6800683" lon="10.20725"><ele>217.0</ele><time>2026-04-26T07:18:44.007Z</time></trkpt><trkpt lat="44.679965" lon="10.20717"><ele>217.0</ele><time>2026-04-26T07:18:46.007Z</time></trkpt><trkpt lat="44.6798733" lon="10.20708"><ele>217.5</ele><time>2026-04-26T07:18:48.007Z</time></trkpt><trkpt lat="44.679785" lon="10.2069783"><ele>218.0</ele><time>2026-04-26T07:18:50.007Z</time></trkpt><trkpt lat="44.6796917" lon="10.206885"><ele>218.5</ele><time>2026-04-26T07:18:52.007Z</time></trkpt><trkpt lat="44.6796017" lon="10.2067933"><ele>219.0</ele><time>2026-04-26T07:18:54.007Z</time></trkpt><trkpt lat="44.679515" lon="10.2066867"><ele>218.5</ele><time>2026-04-26T07:18:56.007Z</time></trkpt><trkpt lat="44.6794217" lon="10.2066033"><ele>218.0</ele><time>2026-04-26T07:18:58.008Z</time></trkpt><trkpt lat="44.6793233" lon="10.2065117"><ele>217.5</ele><time>2026-04-26T07:19:00.007Z</time></trkpt><trkpt lat="44.6792317" lon="10.20642"><ele>217.0</ele><time>2026-04-26T07:19:02.007Z</time></trkpt><trkpt lat="44.6791433" lon="10.206305"><ele>218.0</ele><time>2026-04-26T07:19:04.008Z</time></trkpt><trkpt lat="44.679045" lon="10.2061967"><ele>219.0</ele><time>2026-04-26T07:19:06.007Z</time></trkpt><trkpt lat="44.6789483" lon="10.2061067"><ele>220.0</ele><time>2026-04-26T07:19:08.007Z</time></trkpt><trkpt lat="44.67886" lon="10.2060033"><ele>221.0</ele><time>2026-04-26T07:19:10.007Z</time></trkpt><trkpt lat="44.678775" lon="10.2059283"><ele>221.0</ele><time>2026-04-26T07:19:12.008Z</time></trkpt><trkpt lat="44.6786883" lon="10.20585"><ele>221.0</ele><time>2026-04-26T07:19:14.007Z</time></trkpt><trkpt lat="44.678595" lon="10.2057567"><ele>221.0</ele><time>2026-04-26T07:19:16.007Z</time></trkpt><trkpt lat="44.6784917" lon="10.205675"><ele>221.0</ele><time>2026-04-26T07:19:18.007Z</time></trkpt><trkpt lat="44.67839" lon="10.20559"><ele>222.25</ele><time>2026-04-26T07:19:20.007Z</time></trkpt><trkpt lat="44.6782967" lon="10.205485"><ele>223.5</ele><time>2026-04-26T07:19:22.007Z</time></trkpt><trkpt lat="44.6782033" lon="10.2053933"><ele>224.75</ele><time>2026-04-26T07:19:24.007Z</time></trkpt><trkpt lat="44.6781117" lon="10.2052967"><ele>226.0</ele><time>2026-04-26T07:19:26.007Z</time></trkpt><trkpt lat="44.678025" lon="10.20518"><ele>226.0</ele><time>2026-04-26T07:19:28.007Z</time></trkpt><trkpt lat="44.677975" lon="10.2051233"><ele>226.00000000000003</ele><time>2026-04-26T07:19:29.007Z</time></trkpt><trkpt lat="44.6779217" lon="10.20507"><ele>226.00000000000003</ele><time>2026-04-26T07:19:30.008Z</time></trkpt><trkpt lat="44.6778217" lon="10.2049683"><ele>226.0</ele><time>2026-04-26T07:19:32.007Z</time></trkpt><trkpt lat="44.6777233" lon="10.2048767"><ele>226.0</ele><time>2026-04-26T07:19:34.008Z</time></trkpt><trkpt lat="44.677625" lon="10.2047817"><ele>226.0</ele><time>2026-04-26T07:19:36.007Z</time></trkpt><trkpt lat="44.6775283" lon="10.20469"><ele>226.0</ele><time>2026-04-26T07:19:38.007Z</time></trkpt><trkpt lat="44.677435" lon="10.2046017"><ele>226.0</ele><time>2026-04-26T07:19:40.007Z</time></trkpt><trkpt lat="44.6773367" lon="10.204505"><ele>226.0</ele><time>2026-04-26T07:19:42.007Z</time></trkpt><trkpt lat="44.6772417" lon="10.2043983"><ele>226.0</ele><time>2026-04-26T07:19:44.007Z</time></trkpt><trkpt lat="44.6771483" lon="10.2043017"><ele>226.0</ele><time>2026-04-26T07:19:46.007Z</time></trkpt><trkpt lat="44.67706" lon="10.2041917"><ele>226.0</ele><time>2026-04-26T07:19:48.007Z</time></trkpt><trkpt lat="44.67697" lon="10.2040933"><ele>226.0</ele><time>2026-04-26T07:19:50.007Z</time></trkpt><trkpt lat="44.6768733" lon="10.2039967"><ele>226.60000000000002</ele><time>2026-04-26T07:19:52.008Z</time></trkpt><trkpt lat="44.6767817" lon="10.2038983"><ele>227.20000000000002</ele><time>2026-04-26T07:19:54.007Z</time></trkpt><trkpt lat="44.6767333" lon="10.2038383"><ele>227.79999999999998</ele><time>2026-04-26T07:19:55.008Z</time></trkpt><trkpt lat="44.6766483" lon="10.2037283"><ele>228.39999999999998</ele><time>2026-04-26T07:19:57.007Z</time></trkpt><trkpt lat="44.67656" lon="10.2036133"><ele>229.0</ele><time>2026-04-26T07:19:59.007Z</time></trkpt><trkpt lat="44.6764683" lon="10.2035067"><ele>229.0</ele><time>2026-04-26T07:20:01.007Z</time></trkpt><trkpt lat="44.6763783" lon="10.2034217"><ele>228.99999999999997</ele><time>2026-04-26T07:20:03.007Z</time></trkpt><trkpt lat="44.67629" lon="10.2033433"><ele>228.99999999999997</ele><time>2026-04-26T07:20:05.007Z</time></trkpt><trkpt lat="44.6762033" lon="10.2032467"><ele>229.0</ele><time>2026-04-26T07:20:07.008Z</time></trkpt><trkpt lat="44.67612" lon="10.2031567"><ele>229.0</ele><time>2026-04-26T07:20:09.008Z</time></trkpt><trkpt lat="44.6760367" lon="10.203075"><ele>228.39999999999998</ele><time>2026-04-26T07:20:11.008Z</time></trkpt><trkpt lat="44.6759483" lon="10.203035"><ele>227.79999999999998</ele><time>2026-04-26T07:20:13.007Z</time></trkpt><trkpt lat="44.6758633" lon="10.202975"><ele>227.20000000000002</ele><time>2026-04-26T07:20:15.007Z</time></trkpt><trkpt lat="44.6757733" lon="10.2029133"><ele>226.60000000000002</ele><time>2026-04-26T07:20:17.007Z</time></trkpt><trkpt lat="44.6756933" lon="10.2028183"><ele>226.0</ele><time>2026-04-26T07:20:19.007Z</time></trkpt><trkpt lat="44.6756" lon="10.2027417"><ele>226.0</ele><time>2026-04-26T07:20:21.007Z</time></trkpt><trkpt lat="44.6755033" lon="10.202655"><ele>226.00000000000003</ele><time>2026-04-26T07:20:23.007Z</time></trkpt><trkpt lat="44.6754117" lon="10.20258"><ele>226.00000000000003</ele><time>2026-04-26T07:20:25.007Z</time></trkpt><trkpt lat="44.67532" lon="10.20253"><ele>226.0</ele><time>2026-04-26T07:20:27.007Z</time></trkpt><trkpt lat="44.6752217" lon="10.20246"><ele>226.0</ele><time>2026-04-26T07:20:29.007Z</time></trkpt><trkpt lat="44.6751233" lon="10.2023633"><ele>226.0</ele><time>2026-04-26T07:20:31.008Z</time></trkpt><trkpt lat="44.6750683" lon="10.20232"><ele>226.00000000000003</ele><time>2026-04-26T07:20:32.007Z</time></trkpt><trkpt lat="44.6749667" lon="10.2022533"><ele>226.00000000000003</ele><time>2026-04-26T07:20:34.007Z</time></trkpt><trkpt lat="44.6748683" lon="10.20217"><ele>226.0</ele><time>2026-04-26T07:20:36.007Z</time></trkpt><trkpt lat="44.6747733" lon="10.2020817"><ele>226.0</ele><time>2026-04-26T07:20:38.007Z</time></trkpt><trkpt lat="44.67468" lon="10.2019933"><ele>226.0</ele><time>2026-04-26T07:20:40.008Z</time></trkpt><trkpt lat="44.67459" lon="10.201925"><ele>226.00000000000003</ele><time>2026-04-26T07:20:42.008Z</time></trkpt><trkpt lat="44.67449" lon="10.2018717"><ele>226.00000000000003</ele><time>2026-04-26T07:20:44.007Z</time></trkpt><trkpt lat="44.6743967" lon="10.20182"><ele>226.0</ele><time>2026-04-26T07:20:46.007Z</time></trkpt><trkpt lat="44.6743033" lon="10.2017467"><ele>226.0</ele><time>2026-04-26T07:20:48.007Z</time></trkpt><trkpt lat="44.6742117" lon="10.2016867"><ele>226.4</ele><time>2026-04-26T07:20:50.007Z</time></trkpt><trkpt lat="44.6741167" lon="10.20164"><ele>226.8</ele><time>2026-04-26T07:20:52.007Z</time></trkpt><trkpt lat="44.6740217" lon="10.2016033"><ele>227.20000000000002</ele><time>2026-04-26T07:20:54.007Z</time></trkpt><trkpt lat="44.673925" lon="10.2015233"><ele>227.60000000000002</ele><time>2026-04-26T07:20:56.007Z</time></trkpt><trkpt lat="44.6738317" lon="10.2014417"><ele>228.0</ele><time>2026-04-26T07:20:58.007Z</time></trkpt><trkpt lat="44.67373" lon="10.2013683"><ele>228.25</ele><time>2026-04-26T07:21:00.007Z</time></trkpt><trkpt lat="44.6736417" lon="10.201285"><ele>228.5</ele><time>2026-04-26T07:21:02.007Z</time></trkpt><trkpt lat="44.67355" lon="10.2012033"><ele>228.75</ele><time>2026-04-26T07:21:04.007Z</time></trkpt><trkpt lat="44.67345" lon="10.2011083"><ele>229.0</ele><time>2026-04-26T07:21:06.007Z</time></trkpt><trkpt lat="44.6733483" lon="10.201005"><ele>229.39999999999998</ele><time>2026-04-26T07:21:08.008Z</time></trkpt><trkpt lat="44.673305" lon="10.20094"><ele>229.79999999999998</ele><time>2026-04-26T07:21:09.008Z</time></trkpt><trkpt lat="44.6732317" lon="10.2008217"><ele>230.20000000000002</ele><time>2026-04-26T07:21:11.007Z</time></trkpt><trkpt lat="44.6731733" lon="10.200695"><ele>230.60000000000002</ele><time>2026-04-26T07:21:13.008Z</time></trkpt><trkpt lat="44.67311" lon="10.2005683"><ele>231.0</ele><time>2026-04-26T07:21:15.008Z</time></trkpt><trkpt lat="44.67304" lon="10.2004517"><ele>231.0</ele><time>2026-04-26T07:21:17.007Z</time></trkpt><trkpt lat="44.672975" lon="10.20033"><ele>231.0</ele><time>2026-04-26T07:21:19.007Z</time></trkpt><trkpt lat="44.672915" lon="10.2002"><ele>231.0</ele><time>2026-04-26T07:21:21.007Z</time></trkpt><trkpt lat="44.67285" lon="10.200065"><ele>231.0</ele><time>2026-04-26T07:21:23.008Z</time></trkpt><trkpt lat="44.6727667" lon="10.19994"><ele>230.8</ele><time>2026-04-26T07:21:25.007Z</time></trkpt><trkpt lat="44.6726983" lon="10.19983"><ele>230.60000000000002</ele><time>2026-04-26T07:21:27.008Z</time></trkpt><trkpt lat="44.6726333" lon="10.1997183"><ele>230.4</ele><time>2026-04-26T07:21:29.007Z</time></trkpt><trkpt lat="44.6725717" lon="10.199605"><ele>230.2</ele><time>2026-04-26T07:21:31.007Z</time></trkpt><trkpt lat="44.6725083" lon="10.1995083"><ele>230.0</ele><time>2026-04-26T07:21:33.007Z</time></trkpt><trkpt lat="44.6724383" lon="10.1994067"><ele>230.0</ele><time>2026-04-26T07:21:35.007Z</time></trkpt><trkpt lat="44.6723633" lon="10.1993067"><ele>230.0</ele><time>2026-04-26T07:21:37.007Z</time></trkpt><trkpt lat="44.672295" lon="10.1991933"><ele>230.0</ele><time>2026-04-26T07:21:39.007Z</time></trkpt><trkpt lat="44.67223" lon="10.19908"><ele>230.0</ele><time>2026-04-26T07:21:41.007Z</time></trkpt><trkpt lat="44.6721767" lon="10.19894"><ele>230.0</ele><time>2026-04-26T07:21:43.007Z</time></trkpt><trkpt lat="44.6721367" lon="10.198855"><ele>230.4</ele><time>2026-04-26T07:21:44.007Z</time></trkpt><trkpt lat="44.6720783" lon="10.1987267"><ele>230.8</ele><time>2026-04-26T07:21:46.008Z</time></trkpt><trkpt lat="44.672025" lon="10.1985983"><ele>231.2</ele><time>2026-04-26T07:21:48.007Z</time></trkpt><trkpt lat="44.6719667" lon="10.1984717"><ele>231.6</ele><time>2026-04-26T07:21:50.007Z</time></trkpt><trkpt lat="44.671905" lon="10.19836"><ele>232.0</ele><time>2026-04-26T07:21:52.007Z</time></trkpt><trkpt lat="44.67185" lon="10.1982417"><ele>233.0</ele><time>2026-04-26T07:21:54.007Z</time></trkpt><trkpt lat="44.6717883" lon="10.1981267"><ele>234.0</ele><time>2026-04-26T07:21:56.008Z</time></trkpt><trkpt lat="44.6717167" lon="10.1980267"><ele>235.0</ele><time>2026-04-26T07:21:58.007Z</time></trkpt><trkpt lat="44.6716533" lon="10.1979333"><ele>236.0</ele><time>2026-04-26T07:22:00.007Z</time></trkpt><trkpt lat="44.6715933" lon="10.1978317"><ele>237.0</ele><time>2026-04-26T07:22:02.007Z</time></trkpt><trkpt lat="44.6715333" lon="10.1977333"><ele>237.0</ele><time>2026-04-26T07:22:04.008Z</time></trkpt><trkpt lat="44.6714767" lon="10.1976083"><ele>237.0</ele><time>2026-04-26T07:22:06.007Z</time></trkpt><trkpt lat="44.6714133" lon="10.1974867"><ele>237.0</ele><time>2026-04-26T07:22:08.007Z</time></trkpt><trkpt lat="44.67136" lon="10.19736"><ele>237.0</ele><time>2026-04-26T07:22:10.007Z</time></trkpt><trkpt lat="44.6713" lon="10.1972367"><ele>237.0</ele><time>2026-04-26T07:22:12.008Z</time></trkpt><trkpt lat="44.6712367" lon="10.1971117"><ele>237.2</ele><time>2026-04-26T07:22:14.008Z</time></trkpt><trkpt lat="44.6711717" lon="10.197"><ele>237.39999999999998</ele><time>2026-04-26T07:22:16.008Z</time></trkpt><trkpt lat="44.6711033" lon="10.1969233"><ele>237.60000000000002</ele><time>2026-04-26T07:22:18.007Z</time></trkpt><trkpt lat="44.6710267" lon="10.1968833"><ele>237.8</ele><time>2026-04-26T07:22:20.008Z</time></trkpt><trkpt lat="44.67094" lon="10.1968067"><ele>238.0</ele><time>2026-04-26T07:22:22.008Z</time></trkpt><trkpt lat="44.6708567" lon="10.196705"><ele>238.0</ele><time>2026-04-26T07:22:24.007Z</time></trkpt><trkpt lat="44.6707667" lon="10.1966067"><ele>238.0</ele><time>2026-04-26T07:22:26.007Z</time></trkpt><trkpt lat="44.6706783" lon="10.1965133"><ele>238.0</ele><time>2026-04-26T07:22:28.008Z</time></trkpt><trkpt lat="44.6705917" lon="10.1964267"><ele>238.0</ele><time>2026-04-26T07:22:30.007Z</time></trkpt><trkpt lat="44.6705067" lon="10.1963183"><ele>238.0</ele><time>2026-04-26T07:22:32.007Z</time></trkpt><trkpt lat="44.6704133" lon="10.1962117"><ele>238.5</ele><time>2026-04-26T07:22:34.008Z</time></trkpt><trkpt lat="44.6703233" lon="10.196105"><ele>239.0</ele><time>2026-04-26T07:22:36.007Z</time></trkpt><trkpt lat="44.6702333" lon="10.19601"><ele>239.5</ele><time>2026-04-26T07:22:38.007Z</time></trkpt><trkpt lat="44.6701467" lon="10.1959167"><ele>240.0</ele><time>2026-04-26T07:22:40.008Z</time></trkpt><trkpt lat="44.6700617" lon="10.195795"><ele>240.25</ele><time>2026-04-26T07:22:42.007Z</time></trkpt><trkpt lat="44.6699717" lon="10.1956867"><ele>240.5</ele><time>2026-04-26T07:22:44.007Z</time></trkpt><trkpt lat="44.6698733" lon="10.1955983"><ele>240.75</ele><time>2026-04-26T07:22:46.007Z</time></trkpt><trkpt lat="44.6697783" lon="10.1954867"><ele>241.0</ele><time>2026-04-26T07:22:48.008Z</time></trkpt><trkpt lat="44.6696833" lon="10.1953983"><ele>241.20000000000002</ele><time>2026-04-26T07:22:50.008Z</time></trkpt><trkpt lat="44.66958" lon="10.1953017"><ele>241.40000000000003</ele><time>2026-04-26T07:22:52.008Z</time></trkpt><trkpt lat="44.6695267" lon="10.19524"><ele>241.6</ele><time>2026-04-26T07:22:53.007Z</time></trkpt><trkpt lat="44.6694317" lon="10.195135"><ele>241.8</ele><time>2026-04-26T07:22:55.007Z</time></trkpt><trkpt lat="44.6693383" lon="10.1950167"><ele>242.0</ele><time>2026-04-26T07:22:57.007Z</time></trkpt><trkpt lat="44.6692917" lon="10.1949533"><ele>242.0</ele><time>2026-04-26T07:22:58.007Z</time></trkpt><trkpt lat="44.6691983" lon="10.1948433"><ele>242.0</ele><time>2026-04-26T07:23:00.007Z</time></trkpt><trkpt lat="44.66915" lon="10.1947833"><ele>242.0</ele><time>2026-04-26T07:23:01.007Z</time></trkpt><trkpt lat="44.6690517" lon="10.1946933"><ele>242.0</ele><time>2026-04-26T07:23:03.007Z</time></trkpt><trkpt lat="44.6689533" lon="10.1946"><ele>242.0</ele><time>2026-04-26T07:23:05.007Z</time></trkpt><trkpt lat="44.6688533" lon="10.194505"><ele>242.25</ele><time>2026-04-26T07:23:07.007Z</time></trkpt><trkpt lat="44.668755" lon="10.1944083"><ele>242.5</ele><time>2026-04-26T07:23:09.007Z</time></trkpt><trkpt lat="44.6686617" lon="10.1943067"><ele>242.75</ele><time>2026-04-26T07:23:11.007Z</time></trkpt><trkpt lat="44.668575" lon="10.1942133"><ele>243.0</ele><time>2026-04-26T07:23:13.007Z</time></trkpt><trkpt lat="44.6684817" lon="10.19412"><ele>243.0</ele><time>2026-04-26T07:23:15.007Z</time></trkpt><trkpt lat="44.6683883" lon="10.194025"><ele>243.0</ele><time>2026-04-26T07:23:17.007Z</time></trkpt><trkpt lat="44.6682983" lon="10.193925"><ele>243.0</ele><time>2026-04-26T07:23:19.008Z</time></trkpt><trkpt lat="44.6682117" lon="10.193835"><ele>243.0</ele><time>2026-04-26T07:23:21.007Z</time></trkpt><trkpt lat="44.668125" lon="10.1937517"><ele>243.0</ele><time>2026-04-26T07:23:23.008Z</time></trkpt><trkpt lat="44.668035" lon="10.19366"><ele>243.0</ele><time>2026-04-26T07:23:25.007Z</time></trkpt><trkpt lat="44.667945" lon="10.1935783"><ele>243.0</ele><time>2026-04-26T07:23:27.008Z</time></trkpt><trkpt lat="44.667865" lon="10.1935"><ele>243.0</ele><time>2026-04-26T07:23:29.007Z</time></trkpt><trkpt lat="44.66778" lon="10.19342"><ele>243.0</ele><time>2026-04-26T07:23:31.007Z</time></trkpt><trkpt lat="44.66769" lon="10.19334"><ele>243.0</ele><time>2026-04-26T07:23:33.008Z</time></trkpt><trkpt lat="44.6676067" lon="10.1932733"><ele>243.2</ele><time>2026-04-26T07:23:35.008Z</time></trkpt><trkpt lat="44.667525" lon="10.1932"><ele>243.4</ele><time>2026-04-26T07:23:37.007Z</time></trkpt><trkpt lat="44.6674417" lon="10.1931167"><ele>243.59999999999997</ele><time>2026-04-26T07:23:39.008Z</time></trkpt><trkpt lat="44.667365" lon="10.1930333"><ele>243.79999999999998</ele><time>2026-04-26T07:23:41.007Z</time></trkpt><trkpt lat="44.6672917" lon="10.1929433"><ele>244.0</ele><time>2026-04-26T07:23:43.007Z</time></trkpt><trkpt lat="44.6672217" lon="10.1928783"><ele>244.6</ele><time>2026-04-26T07:23:45.007Z</time></trkpt><trkpt lat="44.6671383" lon="10.192795"><ele>245.2</ele><time>2026-04-26T07:23:47.007Z</time></trkpt><trkpt lat="44.667055" lon="10.1927017"><ele>245.79999999999998</ele><time>2026-04-26T07:23:49.008Z</time></trkpt><trkpt lat="44.6669783" lon="10.1926117"><ele>246.39999999999998</ele><time>2026-04-26T07:23:51.008Z</time></trkpt><trkpt lat="44.6669017" lon="10.192525"><ele>247.0</ele><time>2026-04-26T07:23:53.007Z</time></trkpt><trkpt lat="44.6668133" lon="10.1924483"><ele>247.0</ele><time>2026-04-26T07:23:55.007Z</time></trkpt><trkpt lat="44.66673" lon="10.1923483"><ele>247.0</ele><time>2026-04-26T07:23:57.008Z</time></trkpt><trkpt lat="44.6666533" lon="10.1922317"><ele>247.0</ele><time>2026-04-26T07:23:59.008Z</time></trkpt><trkpt lat="44.6665617" lon="10.1921417"><ele>247.0</ele><time>2026-04-26T07:24:01.007Z</time></trkpt><trkpt lat="44.6664667" lon="10.1920267"><ele>247.0</ele><time>2026-04-26T07:24:03.007Z</time></trkpt><trkpt lat="44.6663783" lon="10.191905"><ele>247.0</ele><time>2026-04-26T07:24:05.007Z</time></trkpt><trkpt lat="44.6663" lon="10.1918083"><ele>247.0</ele><time>2026-04-26T07:24:07.008Z</time></trkpt><trkpt lat="44.6662167" lon="10.1917117"><ele>247.0</ele><time>2026-04-26T07:24:09.007Z</time></trkpt><trkpt lat="44.6661317" lon="10.191625"><ele>247.0</ele><time>2026-04-26T07:24:11.007Z</time></trkpt><trkpt lat="44.66605" lon="10.191545"><ele>247.16666666666666</ele><time>2026-04-26T07:24:13.007Z</time></trkpt><trkpt lat="44.6659817" lon="10.1914483"><ele>247.33333333333331</ele><time>2026-04-26T07:24:15.007Z</time></trkpt><trkpt lat="44.6659317" lon="10.19135"><ele>247.5</ele><time>2026-04-26T07:24:17.007Z</time></trkpt><trkpt lat="44.6658783" lon="10.1912917"><ele>247.66666666666669</ele><time>2026-04-26T07:24:19.007Z</time></trkpt><trkpt lat="44.6658083" lon="10.1912283"><ele>247.83333333333334</ele><time>2026-04-26T07:24:22.007Z</time></trkpt><trkpt lat="44.6657733" lon="10.19137"><ele>248.0</ele><time>2026-04-26T07:24:45.007Z</time></trkpt><trkpt lat="44.6657183" lon="10.19145"><ele>247.83333333333334</ele><time>2026-04-26T07:24:48.007Z</time></trkpt><trkpt lat="44.6656567" lon="10.1915333"><ele>247.66666666666669</ele><time>2026-04-26T07:24:51.007Z</time></trkpt><trkpt lat="44.6656083" lon="10.1916133"><ele>247.5</ele><time>2026-04-26T07:24:53.008Z</time></trkpt><trkpt lat="44.6655583" lon="10.1916883"><ele>247.33333333333331</ele><time>2026-04-26T07:24:55.007Z</time></trkpt><trkpt lat="44.665495" lon="10.1917683"><ele>247.16666666666666</ele><time>2026-04-26T07:24:57.007Z</time></trkpt><trkpt lat="44.6654283" lon="10.1918283"><ele>247.0</ele><time>2026-04-26T07:24:59.007Z</time></trkpt><trkpt lat="44.6653617" lon="10.1918717"><ele>246.99999999999997</ele><time>2026-04-26T07:25:01.008Z</time></trkpt><trkpt lat="44.6652933" lon="10.1919217"><ele>247.0</ele><time>2026-04-26T07:25:03.007Z</time></trkpt><trkpt lat="44.6652267" lon="10.1919767"><ele>247.0</ele><time>2026-04-26T07:25:05.007Z</time></trkpt><trkpt lat="44.665175" lon="10.1920383"><ele>247.0</ele><time>2026-04-26T07:25:07.008Z</time></trkpt><trkpt lat="44.6651117" lon="10.192125"><ele>246.99999999999997</ele><time>2026-04-26T07:25:09.007Z</time></trkpt><trkpt lat="44.6650333" lon="10.1921867"><ele>247.0</ele><time>2026-04-26T07:25:11.008Z</time></trkpt><trkpt lat="44.66496" lon="10.19225"><ele>246.83333333333331</ele><time>2026-04-26T07:25:13.007Z</time></trkpt><trkpt lat="44.6648783" lon="10.1923017"><ele>246.66666666666666</ele><time>2026-04-26T07:25:15.007Z</time></trkpt><trkpt lat="44.6648117" lon="10.1923583"><ele>246.5</ele><time>2026-04-26T07:25:17.007Z</time></trkpt><trkpt lat="44.6647467" lon="10.1924133"><ele>246.33333333333331</ele><time>2026-04-26T07:25:19.008Z</time></trkpt><trkpt lat="44.6646733" lon="10.19248"><ele>246.16666666666666</ele><time>2026-04-26T07:25:21.007Z</time></trkpt><trkpt lat="44.6645767" lon="10.19255"><ele>246.0</ele><time>2026-04-26T07:25:23.007Z</time></trkpt><trkpt lat="44.6644917" lon="10.1926183"><ele>245.8</ele><time>2026-04-26T07:25:25.008Z</time></trkpt><trkpt lat="44.6644133" lon="10.1926833"><ele>245.60000000000002</ele><time>2026-04-26T07:25:27.007Z</time></trkpt><trkpt lat="44.6643367" lon="10.1927467"><ele>245.4</ele><time>2026-04-26T07:25:29.007Z</time></trkpt><trkpt lat="44.6642483" lon="10.1928217"><ele>245.2</ele><time>2026-04-26T07:25:31.007Z</time></trkpt><trkpt lat="44.664165" lon="10.19291"><ele>245.0</ele><time>2026-04-26T07:25:33.007Z</time></trkpt><trkpt lat="44.6640883" lon="10.1929817"><ele>245.0</ele><time>2026-04-26T07:25:35.007Z</time></trkpt><trkpt lat="44.66401" lon="10.1930483"><ele>245.0</ele><time>2026-04-26T07:25:37.007Z</time></trkpt><trkpt lat="44.66393" lon="10.193125"><ele>245.0</ele><time>2026-04-26T07:25:39.007Z</time></trkpt><trkpt lat="44.6638467" lon="10.1932033"><ele>245.0</ele><time>2026-04-26T07:25:41.007Z</time></trkpt><trkpt lat="44.663765" lon="10.1932933"><ele>245.0</ele><time>2026-04-26T07:25:43.008Z</time></trkpt><trkpt lat="44.6636867" lon="10.1933617"><ele>245.50000000000003</ele><time>2026-04-26T07:25:45.007Z</time></trkpt><trkpt lat="44.663605" lon="10.1934233"><ele>246.0</ele><time>2026-04-26T07:25:47.007Z</time></trkpt><trkpt lat="44.6635217" lon="10.193495"><ele>246.5</ele><time>2026-04-26T07:25:49.007Z</time></trkpt><trkpt lat="44.6634683" lon="10.193565"><ele>247.0</ele><time>2026-04-26T07:25:51.007Z</time></trkpt><trkpt lat="44.6634183" lon="10.1936333"><ele>247.50000000000003</ele><time>2026-04-26T07:25:53.008Z</time></trkpt><trkpt lat="44.6633667" lon="10.1936967"><ele>248.0</ele><time>2026-04-26T07:25:55.008Z</time></trkpt><trkpt lat="44.6633083" lon="10.1937533"><ele>248.00000000000003</ele><time>2026-04-26T07:25:58.007Z</time></trkpt><trkpt lat="44.663255" lon="10.1938367"><ele>248.0</ele><time>2026-04-26T07:26:01.007Z</time></trkpt><trkpt lat="44.6632133" lon="10.1939117"><ele>248.0</ele><time>2026-04-26T07:26:03.008Z</time></trkpt><trkpt lat="44.6631583" lon="10.1939767"><ele>248.0</ele><time>2026-04-26T07:26:05.008Z</time></trkpt><trkpt lat="44.6630783" lon="10.1940533"><ele>248.00000000000003</ele><time>2026-04-26T07:26:07.007Z</time></trkpt><trkpt lat="44.6629983" lon="10.1941283"><ele>248.0</ele><time>2026-04-26T07:26:09.007Z</time></trkpt><trkpt lat="44.662925" lon="10.1942033"><ele>247.8</ele><time>2026-04-26T07:26:11.007Z</time></trkpt><trkpt lat="44.6628367" lon="10.1942717"><ele>247.60000000000002</ele><time>2026-04-26T07:26:13.007Z</time></trkpt><trkpt lat="44.6627933" lon="10.1943567"><ele>247.39999999999998</ele><time>2026-04-26T07:26:15.007Z</time></trkpt><trkpt lat="44.6627167" lon="10.1944583"><ele>247.2</ele><time>2026-04-26T07:26:17.007Z</time></trkpt><trkpt lat="44.6626817" lon="10.194535"><ele>247.0</ele><time>2026-04-26T07:26:18.008Z</time></trkpt><trkpt lat="44.6626" lon="10.1946433"><ele>247.0</ele><time>2026-04-26T07:26:20.007Z</time></trkpt><trkpt lat="44.662555" lon="10.1947083"><ele>247.0</ele><time>2026-04-26T07:26:21.007Z</time></trkpt><trkpt lat="44.66248" lon="10.1948433"><ele>247.0</ele><time>2026-04-26T07:26:23.008Z</time></trkpt><trkpt lat="44.6624167" lon="10.1949733"><ele>247.0</ele><time>2026-04-26T07:26:25.008Z</time></trkpt><trkpt lat="44.6623633" lon="10.1951"><ele>247.0</ele><time>2026-04-26T07:26:27.007Z</time></trkpt><trkpt lat="44.6623083" lon="10.1952383"><ele>247.0</ele><time>2026-04-26T07:26:29.007Z</time></trkpt><trkpt lat="44.6622433" lon="10.195365"><ele>247.0</ele><time>2026-04-26T07:26:31.007Z</time></trkpt><trkpt lat="44.662185" lon="10.1954783"><ele>247.0</ele><time>2026-04-26T07:26:33.007Z</time></trkpt><trkpt lat="44.6621517" lon="10.1956017"><ele>247.0</ele><time>2026-04-26T07:26:35.007Z</time></trkpt><trkpt lat="44.6621067" lon="10.19574"><ele>247.0</ele><time>2026-04-26T07:26:37.007Z</time></trkpt><trkpt lat="44.6620667" lon="10.1958567"><ele>247.2</ele><time>2026-04-26T07:26:39.008Z</time></trkpt><trkpt lat="44.6620433" lon="10.19597"><ele>247.39999999999998</ele><time>2026-04-26T07:26:41.007Z</time></trkpt><trkpt lat="44.6619983" lon="10.1960967"><ele>247.60000000000002</ele><time>2026-04-26T07:26:43.007Z</time></trkpt><trkpt lat="44.661955" lon="10.1962283"><ele>247.8</ele><time>2026-04-26T07:26:45.007Z</time></trkpt><trkpt lat="44.661905" lon="10.19636"><ele>248.0</ele><time>2026-04-26T07:26:47.007Z</time></trkpt><trkpt lat="44.6618383" lon="10.196475"><ele>249.00000000000003</ele><time>2026-04-26T07:26:49.007Z</time></trkpt><trkpt lat="44.6617783" lon="10.1965683"><ele>250.0</ele><time>2026-04-26T07:26:51.007Z</time></trkpt><trkpt lat="44.6617333" lon="10.1966483"><ele>251.0</ele><time>2026-04-26T07:26:53.007Z</time></trkpt><trkpt lat="44.66168" lon="10.1967117"><ele>252.0</ele><time>2026-04-26T07:26:55.007Z</time></trkpt><trkpt lat="44.661615" lon="10.196765"><ele>253.00000000000003</ele><time>2026-04-26T07:26:57.007Z</time></trkpt><trkpt lat="44.6615433" lon="10.1967967"><ele>254.0</ele><time>2026-04-26T07:27:00.007Z</time></trkpt><trkpt lat="44.6614633" lon="10.19682"><ele>254.0</ele><time>2026-04-26T07:27:03.007Z</time></trkpt><trkpt lat="44.6613733" lon="10.1968483"><ele>254.0</ele><time>2026-04-26T07:27:06.007Z</time></trkpt><trkpt lat="44.6613017" lon="10.1968433"><ele>254.0</ele><time>2026-04-26T07:27:09.007Z</time></trkpt><trkpt lat="44.661225" lon="10.1968567"><ele>254.0</ele><time>2026-04-26T07:27:13.007Z</time></trkpt><trkpt lat="44.661175" lon="10.19692"><ele>254.0</ele><time>2026-04-26T07:27:18.007Z</time></trkpt><trkpt lat="44.661185" lon="10.1970117"><ele>254.0</ele><time>2026-04-26T07:27:25.008Z</time></trkpt><trkpt lat="44.6612133" lon="10.1971017"><ele>254.0</ele><time>2026-04-26T07:27:29.008Z</time></trkpt><trkpt lat="44.6611933" lon="10.1971917"><ele>254.00000000000003</ele><time>2026-04-26T07:27:33.007Z</time></trkpt><trkpt lat="44.6611517" lon="10.1972783"><ele>254.0</ele><time>2026-04-26T07:27:37.007Z</time></trkpt><trkpt lat="44.6610817" lon="10.1973317"><ele>254.0</ele><time>2026-04-26T07:27:39.007Z</time></trkpt><trkpt lat="44.6609983" lon="10.1974017"><ele>254.0</ele><time>2026-04-26T07:27:42.007Z</time></trkpt><trkpt lat="44.6609333" lon="10.1974233"><ele>254.00000000000003</ele><time>2026-04-26T07:27:44.007Z</time></trkpt><trkpt lat="44.6608533" lon="10.1974317"><ele>254.0</ele><time>2026-04-26T07:27:47.007Z</time></trkpt><trkpt lat="44.6607257" lon="10.197533"><ele>256.5</ele><time>2026-04-26T07:28:21.281Z</time></trkpt><trkpt lat="44.6608" lon="10.1974183"><ele>259.0</ele><time>2026-04-26T07:29:23.009Z</time></trkpt><trkpt lat="44.6609383" lon="10.1973717"><ele>261.5</ele><time>2026-04-26T07:29:24.008Z</time></trkpt><trkpt lat="44.66109" lon="10.19745"><ele>264.0</ele><time>2026-04-26T07:29:34.999Z</time></trkpt><trkpt lat="44.6610283" lon="10.19751"><ele>264.0</ele><time>2026-04-26T07:29:46.999Z</time></trkpt><trkpt lat="44.66088" lon="10.1974667"><ele>264.0</ele><time>2026-04-26T07:29:49.999Z</time></trkpt><trkpt lat="44.6608083" lon="10.19746"><ele>264.0</ele><time>2026-04-26T07:29:51.999Z</time></trkpt><trkpt lat="44.6608067" lon="10.1976017"><ele>264.0</ele><time>2026-04-26T07:30:00Z</time></trkpt><trkpt lat="44.6607883" lon="10.1977233"><ele>264.0</ele><time>2026-04-26T07:30:01.999Z</time></trkpt><trkpt lat="44.6607533" lon="10.197855"><ele>264.0</ele><time>2026-04-26T07:30:03.999Z</time></trkpt><trkpt lat="44.6607083" lon="10.197995"><ele>264.0</ele><time>2026-04-26T07:30:06Z</time></trkpt><trkpt lat="44.6606483" lon="10.1981333"><ele>264.0</ele><time>2026-04-26T07:30:08Z</time></trkpt><trkpt lat="44.660595" lon="10.19829"><ele>264.0</ele><time>2026-04-26T07:30:09.999Z</time></trkpt><trkpt lat="44.6605417" lon="10.1984383"><ele>264.0</ele><time>2026-04-26T07:30:11.999Z</time></trkpt><trkpt lat="44.66049" lon="10.1985667"><ele>264.0</ele><time>2026-04-26T07:30:13.999Z</time></trkpt><trkpt lat="44.6604583" lon="10.1986933"><ele>264.0</ele><time>2026-04-26T07:30:15.999Z</time></trkpt><trkpt lat="44.660425" lon="10.1988483"><ele>264.0</ele><time>2026-04-26T07:30:17.999Z</time></trkpt><trkpt lat="44.6603767" lon="10.19899"><ele>264.0</ele><time>2026-04-26T07:30:19.999Z</time></trkpt><trkpt lat="44.66032" lon="10.199125"><ele>264.0</ele><time>2026-04-26T07:30:22Z</time></trkpt><trkpt lat="44.6602567" lon="10.199265"><ele>264.0</ele><time>2026-04-26T07:30:24Z</time></trkpt><trkpt lat="44.6602433" lon="10.1993817"><ele>264.0</ele><time>2026-04-26T07:30:25.999Z</time></trkpt><trkpt lat="44.6602267" lon="10.199515"><ele>264.0</ele><time>2026-04-26T07:30:28Z</time></trkpt><trkpt lat="44.6601833" lon="10.1996483"><ele>264.0</ele><time>2026-04-26T07:30:29.999Z</time></trkpt><trkpt lat="44.6601217" lon="10.1997867"><ele>263.25</ele><time>2026-04-26T07:30:32Z</time></trkpt><trkpt lat="44.6600633" lon="10.1999117"><ele>262.5</ele><time>2026-04-26T07:30:33.999Z</time></trkpt><trkpt lat="44.6600033" lon="10.2000583"><ele>261.75</ele><time>2026-04-26T07:30:35.999Z</time></trkpt><trkpt lat="44.6599483" lon="10.2002117"><ele>261.0</ele><time>2026-04-26T07:30:37.999Z</time></trkpt><trkpt lat="44.6598817" lon="10.20036"><ele>261.0</ele><time>2026-04-26T07:30:39.999Z</time></trkpt><trkpt lat="44.659815" lon="10.2005033"><ele>261.0</ele><time>2026-04-26T07:30:41.999Z</time></trkpt><trkpt lat="44.6597783" lon="10.20058"><ele>261.0</ele><time>2026-04-26T07:30:42.999Z</time></trkpt><trkpt lat="44.6597383" lon="10.2006533"><ele>261.0</ele><time>2026-04-26T07:30:44Z</time></trkpt><trkpt lat="44.6597" lon="10.2007283"><ele>261.0</ele><time>2026-04-26T07:30:44.999Z</time></trkpt><trkpt lat="44.6596283" lon="10.2008717"><ele>261.0</ele><time>2026-04-26T07:30:46.999Z</time></trkpt><trkpt lat="44.6595667" lon="10.201"><ele>260.8</ele><time>2026-04-26T07:30:48.999Z</time></trkpt><trkpt lat="44.6595117" lon="10.2011217"><ele>260.6</ele><time>2026-04-26T07:30:50.999Z</time></trkpt><trkpt lat="44.659465" lon="10.201245"><ele>260.4</ele><time>2026-04-26T07:30:52.999Z</time></trkpt><trkpt lat="44.6594267" lon="10.2013867"><ele>260.2</ele><time>2026-04-26T07:30:54.999Z</time></trkpt><trkpt lat="44.6593733" lon="10.20154"><ele>260.0</ele><time>2026-04-26T07:30:56.999Z</time></trkpt><trkpt lat="44.6593233" lon="10.2016967"><ele>260.33333333333337</ele><time>2026-04-26T07:30:58.999Z</time></trkpt><trkpt lat="44.6592917" lon="10.201775"><ele>260.6666666666667</ele><time>2026-04-26T07:30:59.999Z</time></trkpt><trkpt lat="44.6592433" lon="10.2019317"><ele>261.0</ele><time>2026-04-26T07:31:02Z</time></trkpt><trkpt lat="44.6591817" lon="10.2020767"><ele>261.3333333333333</ele><time>2026-04-26T07:31:03.999Z</time></trkpt><trkpt lat="44.65915" lon="10.2021583"><ele>261.66666666666663</ele><time>2026-04-26T07:31:04.999Z</time></trkpt><trkpt lat="44.6591133" lon="10.2022333"><ele>262.0</ele><time>2026-04-26T07:31:05.999Z</time></trkpt><trkpt lat="44.6590767" lon="10.202315"><ele>261.8</ele><time>2026-04-26T07:31:07Z</time></trkpt><trkpt lat="44.65901" lon="10.2024717"><ele>261.6</ele><time>2026-04-26T07:31:08.999Z</time></trkpt><trkpt lat="44.6589517" lon="10.2026233"><ele>261.40000000000003</ele><time>2026-04-26T07:31:10.999Z</time></trkpt><trkpt lat="44.658925" lon="10.202705"><ele>261.2</ele><time>2026-04-26T07:31:11.999Z</time></trkpt><trkpt lat="44.65889" lon="10.2027833"><ele>261.0</ele><time>2026-04-26T07:31:12.999Z</time></trkpt><trkpt lat="44.6588183" lon="10.2029317"><ele>261.0</ele><time>2026-04-26T07:31:14.999Z</time></trkpt><trkpt lat="44.6587867" lon="10.2030083"><ele>261.0</ele><time>2026-04-26T07:31:15.999Z</time></trkpt><trkpt lat="44.658765" lon="10.2030983"><ele>261.0</ele><time>2026-04-26T07:31:16.999Z</time></trkpt><trkpt lat="44.6587317" lon="10.203175"><ele>261.0</ele><time>2026-04-26T07:31:17.999Z</time></trkpt><trkpt lat="44.6586517" lon="10.2033167"><ele>261.0</ele><time>2026-04-26T07:31:19.999Z</time></trkpt><trkpt lat="44.6586133" lon="10.2033917"><ele>261.0</ele><time>2026-04-26T07:31:21Z</time></trkpt><trkpt lat="44.6585583" lon="10.2034683"><ele>261.14285714285717</ele><time>2026-04-26T07:31:21.999Z</time></trkpt><trkpt lat="44.65851" lon="10.20354"><ele>261.2857142857143</ele><time>2026-04-26T07:31:23Z</time></trkpt><trkpt lat="44.658465" lon="10.2036133"><ele>261.42857142857144</ele><time>2026-04-26T07:31:23.999Z</time></trkpt><trkpt lat="44.658425" lon="10.2036817"><ele>261.57142857142856</ele><time>2026-04-26T07:31:25Z</time></trkpt><trkpt lat="44.658375" lon="10.2037467"><ele>261.7142857142857</ele><time>2026-04-26T07:31:26Z</time></trkpt><trkpt lat="44.6583333" lon="10.2038133"><ele>261.8571428571429</ele><time>2026-04-26T07:31:26.999Z</time></trkpt><trkpt lat="44.65829" lon="10.2038817"><ele>262.0</ele><time>2026-04-26T07:31:27.999Z</time></trkpt><trkpt lat="44.6582033" lon="10.2040083"><ele>262.0</ele><time>2026-04-26T07:31:30Z</time></trkpt><trkpt lat="44.6581617" lon="10.204075"><ele>262.0</ele><time>2026-04-26T07:31:31Z</time></trkpt><trkpt lat="44.6580783" lon="10.2042017"><ele>262.0</ele><time>2026-04-26T07:31:32.999Z</time></trkpt><trkpt lat="44.6580333" lon="10.2042667"><ele>262.0</ele><time>2026-04-26T07:31:33.999Z</time></trkpt><trkpt lat="44.6579583" lon="10.204405"><ele>262.0</ele><time>2026-04-26T07:31:36Z</time></trkpt><trkpt lat="44.6579167" lon="10.2044767"><ele>262.0</ele><time>2026-04-26T07:31:36.999Z</time></trkpt><trkpt lat="44.6578483" lon="10.2046117"><ele>262.0</ele><time>2026-04-26T07:31:38.999Z</time></trkpt><trkpt lat="44.6578067" lon="10.2046783"><ele>262.0</ele><time>2026-04-26T07:31:39.999Z</time></trkpt><trkpt lat="44.657725" lon="10.2048067"><ele>262.0</ele><time>2026-04-26T07:31:41.999Z</time></trkpt><trkpt lat="44.65765" lon="10.2049283"><ele>262.0</ele><time>2026-04-26T07:31:44Z</time></trkpt><trkpt lat="44.6575733" lon="10.2050367"><ele>262.0</ele><time>2026-04-26T07:31:45.999Z</time></trkpt><trkpt lat="44.6574883" lon="10.2051183"><ele>263.25</ele><time>2026-04-26T07:31:47.999Z</time></trkpt><trkpt lat="44.65739" lon="10.2051983"><ele>264.5</ele><time>2026-04-26T07:31:49.999Z</time></trkpt><trkpt lat="44.6572817" lon="10.2052867"><ele>265.75</ele><time>2026-04-26T07:31:51.999Z</time></trkpt><trkpt lat="44.6571883" lon="10.2053767"><ele>267.0</ele><time>2026-04-26T07:31:53.999Z</time></trkpt><trkpt lat="44.65708" lon="10.205455"><ele>267.0</ele><time>2026-04-26T07:31:55.999Z</time></trkpt><trkpt lat="44.6569817" lon="10.205515"><ele>267.0</ele><time>2026-04-26T07:31:57.999Z</time></trkpt><trkpt lat="44.6568717" lon="10.2055667"><ele>267.0</ele><time>2026-04-26T07:31:59.999Z</time></trkpt><trkpt lat="44.65677" lon="10.205635"><ele>267.0</ele><time>2026-04-26T07:32:01.999Z</time></trkpt><trkpt lat="44.6566767" lon="10.2057133"><ele>267.0</ele><time>2026-04-26T07:32:04Z</time></trkpt><trkpt lat="44.6566017" lon="10.2057683"><ele>267.6</ele><time>2026-04-26T07:32:05.999Z</time></trkpt><trkpt lat="44.6565217" lon="10.2058333"><ele>268.2</ele><time>2026-04-26T07:32:07.999Z</time></trkpt><trkpt lat="44.656435" lon="10.2059067"><ele>268.8</ele><time>2026-04-26T07:32:09.999Z</time></trkpt><trkpt lat="44.6563383" lon="10.2059617"><ele>269.4</ele><time>2026-04-26T07:32:11.999Z</time></trkpt><trkpt lat="44.656255" lon="10.206035"><ele>270.0</ele><time>2026-04-26T07:32:13.999Z</time></trkpt><trkpt lat="44.6561867" lon="10.206125"><ele>270.0</ele><time>2026-04-26T07:32:15.999Z</time></trkpt><trkpt lat="44.65613" lon="10.206215"><ele>270.0</ele><time>2026-04-26T07:32:17.999Z</time></trkpt><trkpt lat="44.6560783" lon="10.2063317"><ele>270.0</ele><time>2026-04-26T07:32:19.999Z</time></trkpt><trkpt lat="44.656025" lon="10.2064567"><ele>270.0</ele><time>2026-04-26T07:32:22Z</time></trkpt><trkpt lat="44.6559683" lon="10.2065867"><ele>270.0</ele><time>2026-04-26T07:32:23.999Z</time></trkpt><trkpt lat="44.655915" lon="10.2067133"><ele>269.8</ele><time>2026-04-26T07:32:25.999Z</time></trkpt><trkpt lat="44.65586" lon="10.2068483"><ele>269.6</ele><time>2026-04-26T07:32:27.999Z</time></trkpt><trkpt lat="44.6558" lon="10.2069783"><ele>269.4</ele><time>2026-04-26T07:32:29.999Z</time></trkpt><trkpt lat="44.6557467" lon="10.207115"><ele>269.2</ele><time>2026-04-26T07:32:32Z</time></trkpt><trkpt lat="44.6556967" lon="10.2072467"><ele>269.0</ele><time>2026-04-26T07:32:33.999Z</time></trkpt><trkpt lat="44.65564" lon="10.20737"><ele>269.4</ele><time>2026-04-26T07:32:35.999Z</time></trkpt><trkpt lat="44.6555883" lon="10.207485"><ele>269.79999999999995</ele><time>2026-04-26T07:32:38Z</time></trkpt><trkpt lat="44.655545" lon="10.2075983"><ele>270.20000000000005</ele><time>2026-04-26T07:32:39.999Z</time></trkpt><trkpt lat="44.655525" lon="10.2077183"><ele>270.6</ele><time>2026-04-26T07:32:41.999Z</time></trkpt><trkpt lat="44.6554933" lon="10.2078417"><ele>271.0</ele><time>2026-04-26T07:32:43.999Z</time></trkpt><trkpt lat="44.6554517" lon="10.2079617"><ele>271.0</ele><time>2026-04-26T07:32:45.999Z</time></trkpt><trkpt lat="44.6554133" lon="10.2080833"><ele>271.0</ele><time>2026-04-26T07:32:48Z</time></trkpt><trkpt lat="44.6553833" lon="10.20821"><ele>271.0</ele><time>2026-04-26T07:32:49.999Z</time></trkpt><trkpt lat="44.6553233" lon="10.2083317"><ele>271.0</ele><time>2026-04-26T07:32:51.999Z</time></trkpt><trkpt lat="44.6552767" lon="10.2084517"><ele>271.0</ele><time>2026-04-26T07:32:53.999Z</time></trkpt><trkpt lat="44.6552217" lon="10.2085617"><ele>271.3333333333333</ele><time>2026-04-26T07:32:55.999Z</time></trkpt><trkpt lat="44.655165" lon="10.208665"><ele>271.66666666666663</ele><time>2026-04-26T07:32:57.999Z</time></trkpt><trkpt lat="44.6551" lon="10.20872"><ele>272.0</ele><time>2026-04-26T07:32:59.999Z</time></trkpt><trkpt lat="44.65502" lon="10.20878"><ele>272.3333333333333</ele><time>2026-04-26T07:33:01.999Z</time></trkpt><trkpt lat="44.654945" lon="10.2088533"><ele>272.6666666666667</ele><time>2026-04-26T07:33:03.999Z</time></trkpt><trkpt lat="44.6548617" lon="10.20892"><ele>273.0</ele><time>2026-04-26T07:33:06Z</time></trkpt><trkpt lat="44.654765" lon="10.208955"><ele>273.6</ele><time>2026-04-26T07:33:07.999Z</time></trkpt><trkpt lat="44.6546717" lon="10.20901"><ele>274.20000000000005</ele><time>2026-04-26T07:33:09.999Z</time></trkpt><trkpt lat="44.6545767" lon="10.2090767"><ele>274.8</ele><time>2026-04-26T07:33:11.999Z</time></trkpt><trkpt lat="44.6544967" lon="10.2091517"><ele>275.40000000000003</ele><time>2026-04-26T07:33:13.999Z</time></trkpt><trkpt lat="44.6544233" lon="10.209235"><ele>276.0</ele><time>2026-04-26T07:33:15.999Z</time></trkpt><trkpt lat="44.6543533" lon="10.20933"><ele>276.0</ele><time>2026-04-26T07:33:18Z</time></trkpt><trkpt lat="44.6542967" lon="10.2093917"><ele>276.0</ele><time>2026-04-26T07:33:20Z</time></trkpt><trkpt lat="44.654245" lon="10.2094433"><ele>276.0</ele><time>2026-04-26T07:33:21.999Z</time></trkpt><trkpt lat="44.6541817" lon="10.20951"><ele>276.0</ele><time>2026-04-26T07:33:24Z</time></trkpt><trkpt lat="44.654125" lon="10.2095733"><ele>276.0</ele><time>2026-04-26T07:33:25.999Z</time></trkpt><trkpt lat="44.6540533" lon="10.2096433"><ele>276.0</ele><time>2026-04-26T07:33:28.999Z</time></trkpt><trkpt lat="44.6540033" lon="10.2097067"><ele>276.0</ele><time>2026-04-26T07:33:30.999Z</time></trkpt><trkpt lat="44.6539483" lon="10.2097617"><ele>276.0</ele><time>2026-04-26T07:33:32.999Z</time></trkpt><trkpt lat="44.653875" lon="10.20982"><ele>276.0</ele><time>2026-04-26T07:33:35.999Z</time></trkpt><trkpt lat="44.653805" lon="10.209875"><ele>276.0</ele><time>2026-04-26T07:33:38.999Z</time></trkpt><trkpt lat="44.6537433" lon="10.2099633"><ele>276.0</ele><time>2026-04-26T07:33:41.999Z</time></trkpt><trkpt lat="44.653695" lon="10.2100283"><ele>276.0</ele><time>2026-04-26T07:33:43.999Z</time></trkpt><trkpt lat="44.65364" lon="10.2100833"><ele>276.0</ele><time>2026-04-26T07:33:45.999Z</time></trkpt><trkpt lat="44.6535817" lon="10.210165"><ele>277.1666666666667</ele><time>2026-04-26T07:33:48.999Z</time></trkpt><trkpt lat="44.65356" lon="10.2102583"><ele>278.3333333333333</ele><time>2026-04-26T07:33:52.999Z</time></trkpt><trkpt lat="44.65357" lon="10.21035"><ele>279.5</ele><time>2026-04-26T07:33:55.999Z</time></trkpt><trkpt lat="44.653595" lon="10.2104317"><ele>280.66666666666663</ele><time>2026-04-26T07:33:57.999Z</time></trkpt><trkpt lat="44.6536183" lon="10.2105633"><ele>281.8333333333333</ele><time>2026-04-26T07:34:00.999Z</time></trkpt><trkpt lat="44.65365" lon="10.21068"><ele>283.0</ele><time>2026-04-26T07:34:02.999Z</time></trkpt><trkpt lat="44.65368" lon="10.2108133"><ele>283.0</ele><time>2026-04-26T07:34:04.999Z</time></trkpt><trkpt lat="44.653725" lon="10.2109467"><ele>283.0</ele><time>2026-04-26T07:34:06.999Z</time></trkpt><trkpt lat="44.6537733" lon="10.2110883"><ele>283.0</ele><time>2026-04-26T07:34:08.999Z</time></trkpt><trkpt lat="44.653825" lon="10.2112167"><ele>283.0</ele><time>2026-04-26T07:34:11Z</time></trkpt><trkpt lat="44.6538733" lon="10.2113167"><ele>283.0</ele><time>2026-04-26T07:34:12.999Z</time></trkpt><trkpt lat="44.6539133" lon="10.2113883"><ele>283.0</ele><time>2026-04-26T07:34:15Z</time></trkpt><trkpt lat="44.6539633" lon="10.2114833"><ele>283.0</ele><time>2026-04-26T07:34:17.999Z</time></trkpt><trkpt lat="44.6539683" lon="10.2115983"><ele>283.0</ele><time>2026-04-26T07:34:21.999Z</time></trkpt><trkpt lat="44.6539917" lon="10.211705"><ele>283.0</ele><time>2026-04-26T07:34:25.999Z</time></trkpt><trkpt lat="44.6540133" lon="10.2117933"><ele>283.0</ele><time>2026-04-26T07:34:30Z</time></trkpt><trkpt lat="44.65405" lon="10.2118783"><ele>283.0</ele><time>2026-04-26T07:34:33.999Z</time></trkpt><trkpt lat="44.6540833" lon="10.2119733"><ele>283.7142857142857</ele><time>2026-04-26T07:34:38Z</time></trkpt><trkpt lat="44.6541233" lon="10.21206"><ele>284.42857142857144</ele><time>2026-04-26T07:34:42Z</time></trkpt><trkpt lat="44.654155" lon="10.212165"><ele>285.14285714285717</ele><time>2026-04-26T07:34:45.999Z</time></trkpt><trkpt lat="44.6541683" lon="10.2122617"><ele>285.8571428571429</ele><time>2026-04-26T07:34:49.999Z</time></trkpt><trkpt lat="44.6542017" lon="10.2123533"><ele>286.57142857142856</ele><time>2026-04-26T07:34:53.999Z</time></trkpt><trkpt lat="44.654235" lon="10.21245"><ele>287.28571428571433</ele><time>2026-04-26T07:34:58.999Z</time></trkpt><trkpt lat="44.65426" lon="10.2125467"><ele>288.0</ele><time>2026-04-26T07:35:03Z</time></trkpt><trkpt lat="44.6542767" lon="10.21264"><ele>288.7142857142857</ele><time>2026-04-26T07:35:06.999Z</time></trkpt><trkpt lat="44.6542933" lon="10.2127383"><ele>289.42857142857144</ele><time>2026-04-26T07:35:10.999Z</time></trkpt><trkpt lat="44.6542967" lon="10.2128333"><ele>290.1428571428571</ele><time>2026-04-26T07:35:14.999Z</time></trkpt><trkpt lat="44.65431" lon="10.2129217"><ele>290.8571428571429</ele><time>2026-04-26T07:35:18.999Z</time></trkpt><trkpt lat="44.6543367" lon="10.213005"><ele>291.57142857142856</ele><time>2026-04-26T07:35:23Z</time></trkpt><trkpt lat="44.6543633" lon="10.21311"><ele>292.2857142857143</ele><time>2026-04-26T07:35:27.999Z</time></trkpt><trkpt lat="44.6543733" lon="10.2132167"><ele>293.0</ele><time>2026-04-26T07:35:31.999Z</time></trkpt><trkpt lat="44.65438" lon="10.2133233"><ele>293.4285714285714</ele><time>2026-04-26T07:35:36.999Z</time></trkpt><trkpt lat="44.65439" lon="10.2134167"><ele>293.85714285714283</ele><time>2026-04-26T07:35:40.999Z</time></trkpt><trkpt lat="44.6544367" lon="10.2135083"><ele>294.2857142857143</ele><time>2026-04-26T07:35:44.999Z</time></trkpt><trkpt lat="44.6544617" lon="10.213595"><ele>294.71428571428567</ele><time>2026-04-26T07:35:48.999Z</time></trkpt><trkpt lat="44.6544817" lon="10.2136817"><ele>295.1428571428571</ele><time>2026-04-26T07:35:52.999Z</time></trkpt><trkpt lat="44.65449" lon="10.2137867"><ele>295.57142857142856</ele><time>2026-04-26T07:35:57.999Z</time></trkpt><trkpt lat="44.6545067" lon="10.2138783"><ele>296.0</ele><time>2026-04-26T07:36:02Z</time></trkpt><trkpt lat="44.6545633" lon="10.2139567"><ele>298.83333333333337</ele><time>2026-04-26T07:36:06.999Z</time></trkpt><trkpt lat="44.6545633" lon="10.21407"><ele>301.6666666666667</ele><time>2026-04-26T07:36:10.999Z</time></trkpt><trkpt lat="44.654555" lon="10.214185"><ele>304.5</ele><time>2026-04-26T07:36:15.999Z</time></trkpt><trkpt lat="44.65457" lon="10.2142767"><ele>307.3333333333333</ele><time>2026-04-26T07:36:18.999Z</time></trkpt><trkpt lat="44.6545867" lon="10.2143783"><ele>310.16666666666663</ele><time>2026-04-26T07:36:22.999Z</time></trkpt><trkpt lat="44.6546" lon="10.2144833"><ele>313.0</ele><time>2026-04-26T07:36:26.999Z</time></trkpt><trkpt lat="44.6546217" lon="10.21458"><ele>313.0</ele><time>2026-04-26T07:36:30.999Z</time></trkpt><trkpt lat="44.6546367" lon="10.2146733"><ele>313.0</ele><time>2026-04-26T07:36:34.999Z</time></trkpt><trkpt lat="44.65467" lon="10.21478"><ele>313.0</ele><time>2026-04-26T07:36:38.999Z</time></trkpt><trkpt lat="44.6547" lon="10.2148717"><ele>313.0</ele><time>2026-04-26T07:36:41.999Z</time></trkpt><trkpt lat="44.6547217" lon="10.2149567"><ele>313.0</ele><time>2026-04-26T07:36:45Z</time></trkpt><trkpt lat="44.65474" lon="10.2150617"><ele>313.0</ele><time>2026-04-26T07:36:47.999Z</time></trkpt><trkpt lat="44.6547667" lon="10.2151483"><ele>313.0</ele><time>2026-04-26T07:36:49.999Z</time></trkpt><trkpt lat="44.6547917" lon="10.2152517"><ele>313.3333333333333</ele><time>2026-04-26T07:36:51.999Z</time></trkpt><trkpt lat="44.6548117" lon="10.2153583"><ele>313.66666666666663</ele><time>2026-04-26T07:36:53.999Z</time></trkpt><trkpt lat="44.6548217" lon="10.2154633"><ele>314.0</ele><time>2026-04-26T07:36:55.999Z</time></trkpt><trkpt lat="44.6548233" lon="10.2155717"><ele>314.3333333333333</ele><time>2026-04-26T07:36:57.999Z</time></trkpt><trkpt lat="44.6548317" lon="10.215685"><ele>314.6666666666667</ele><time>2026-04-26T07:36:59.999Z</time></trkpt><trkpt lat="44.6548067" lon="10.2158083"><ele>315.0</ele><time>2026-04-26T07:37:02.999Z</time></trkpt><trkpt lat="44.65479" lon="10.2159167"><ele>315.2857142857143</ele><time>2026-04-26T07:37:05.999Z</time></trkpt><trkpt lat="44.65479" lon="10.21603"><ele>315.57142857142856</ele><time>2026-04-26T07:37:08.999Z</time></trkpt><trkpt lat="44.654785" lon="10.2161367"><ele>315.8571428571429</ele><time>2026-04-26T07:37:11.999Z</time></trkpt><trkpt lat="44.65478" lon="10.2162283"><ele>316.1428571428571</ele><time>2026-04-26T07:37:14.999Z</time></trkpt><trkpt lat="44.6547567" lon="10.2163167"><ele>316.42857142857144</ele><time>2026-04-26T07:37:18Z</time></trkpt><trkpt lat="44.654735" lon="10.2164283"><ele>316.7142857142857</ele><time>2026-04-26T07:37:20.999Z</time></trkpt><trkpt lat="44.654715" lon="10.21652"><ele>317.0</ele><time>2026-04-26T07:37:23.999Z</time></trkpt><trkpt lat="44.654705" lon="10.2166233"><ele>318.14285714285717</ele><time>2026-04-26T07:37:26.999Z</time></trkpt><trkpt lat="44.6547083" lon="10.2167433"><ele>319.2857142857143</ele><time>2026-04-26T07:37:29.999Z</time></trkpt><trkpt lat="44.6547067" lon="10.2168483"><ele>320.42857142857144</ele><time>2026-04-26T07:37:33Z</time></trkpt><trkpt lat="44.654725" lon="10.2169483"><ele>321.57142857142856</ele><time>2026-04-26T07:37:35.999Z</time></trkpt><trkpt lat="44.6547467" lon="10.2170483"><ele>322.7142857142857</ele><time>2026-04-26T07:37:38.999Z</time></trkpt><trkpt lat="44.6547617" lon="10.2171417"><ele>323.85714285714283</ele><time>2026-04-26T07:37:42.999Z</time></trkpt><trkpt lat="44.6548083" lon="10.2172167"><ele>325.0</ele><time>2026-04-26T07:37:47Z</time></trkpt><trkpt lat="44.6548467" lon="10.2173067"><ele>325.66666666666663</ele><time>2026-04-26T07:37:51Z</time></trkpt><trkpt lat="44.6548683" lon="10.2173983"><ele>326.3333333333333</ele><time>2026-04-26T07:37:53.999Z</time></trkpt><trkpt lat="44.6549017" lon="10.2175233"><ele>327.0</ele><time>2026-04-26T07:37:57.999Z</time></trkpt><trkpt lat="44.654915" lon="10.2176267"><ele>327.6666666666667</ele><time>2026-04-26T07:38:01.999Z</time></trkpt><trkpt lat="44.6549333" lon="10.2177467"><ele>328.33333333333337</ele><time>2026-04-26T07:38:05.999Z</time></trkpt><trkpt lat="44.6549533" lon="10.21785"><ele>329.0</ele><time>2026-04-26T07:38:08.999Z</time></trkpt><trkpt lat="44.6549617" lon="10.2179667"><ele>329.0</ele><time>2026-04-26T07:38:11.999Z</time></trkpt><trkpt lat="44.6549683" lon="10.2180567"><ele>329.0</ele><time>2026-04-26T07:38:14.999Z</time></trkpt><trkpt lat="44.6549583" lon="10.2181467"><ele>329.0</ele><time>2026-04-26T07:38:19.999Z</time></trkpt><trkpt lat="44.6549183" lon="10.2182367"><ele>329.0</ele><time>2026-04-26T07:38:23.999Z</time></trkpt><trkpt lat="44.6548933" lon="10.2183433"><ele>329.0</ele><time>2026-04-26T07:38:27.999Z</time></trkpt><trkpt lat="44.65488" lon="10.2184367"><ele>329.0</ele><time>2026-04-26T07:38:31.999Z</time></trkpt><trkpt lat="44.6548333" lon="10.2184983"><ele>329.0</ele><time>2026-04-26T07:38:36Z</time></trkpt><trkpt lat="44.6548117" lon="10.2185817"><ele>329.1666666666667</ele><time>2026-04-26T07:38:39.999Z</time></trkpt><trkpt lat="44.654825" lon="10.2186867"><ele>329.33333333333337</ele><time>2026-04-26T07:38:43.999Z</time></trkpt><trkpt lat="44.65482" lon="10.21878"><ele>329.5</ele><time>2026-04-26T07:38:47.999Z</time></trkpt><trkpt lat="44.6548067" lon="10.21888"><ele>329.6666666666667</ele><time>2026-04-26T07:38:51.999Z</time></trkpt><trkpt lat="44.6548167" lon="10.219025"><ele>329.8333333333333</ele><time>2026-04-26T07:38:57.999Z</time></trkpt><trkpt lat="44.6548067" lon="10.2191317"><ele>330.0</ele><time>2026-04-26T07:39:01.999Z</time></trkpt><trkpt lat="44.6548083" lon="10.2192333"><ele>331.3333333333333</ele><time>2026-04-26T07:39:05.999Z</time></trkpt><trkpt lat="44.6548267" lon="10.219365"><ele>332.6666666666667</ele><time>2026-04-26T07:39:13Z</time></trkpt><trkpt lat="44.6548283" lon="10.2194667"><ele>334.0</ele><time>2026-04-26T07:39:15.999Z</time></trkpt><trkpt lat="44.65481" lon="10.219585"><ele>335.33333333333337</ele><time>2026-04-26T07:39:19.999Z</time></trkpt><trkpt lat="44.6548017" lon="10.21969"><ele>336.6666666666667</ele><time>2026-04-26T07:39:23.999Z</time></trkpt><trkpt lat="44.6547933" lon="10.2197883"><ele>338.0</ele><time>2026-04-26T07:39:27.999Z</time></trkpt><trkpt lat="44.6547733" lon="10.2198767"><ele>338.7142857142857</ele><time>2026-04-26T07:39:32.999Z</time></trkpt><trkpt lat="44.6547483" lon="10.2199683"><ele>339.42857142857144</ele><time>2026-04-26T07:39:36Z</time></trkpt><trkpt lat="44.6547217" lon="10.2200517"><ele>340.1428571428571</ele><time>2026-04-26T07:39:38.999Z</time></trkpt><trkpt lat="44.6546917" lon="10.2201517"><ele>340.8571428571429</ele><time>2026-04-26T07:39:42.999Z</time></trkpt><trkpt lat="44.65466" lon="10.2202483"><ele>341.57142857142856</ele><time>2026-04-26T07:39:46.999Z</time></trkpt><trkpt lat="44.6546467" lon="10.2203433"><ele>342.2857142857143</ele><time>2026-04-26T07:39:51Z</time></trkpt><trkpt lat="44.65463" lon="10.2204367"><ele>343.0</ele><time>2026-04-26T07:39:54.999Z</time></trkpt><trkpt lat="44.6546233" lon="10.2205417"><ele>343.0</ele><time>2026-04-26T07:39:58.999Z</time></trkpt><trkpt lat="44.6546083" lon="10.2206483"><ele>343.0</ele><time>2026-04-26T07:40:02.999Z</time></trkpt><trkpt lat="44.6545933" lon="10.22074"><ele>343.0</ele><time>2026-04-26T07:40:06.999Z</time></trkpt><trkpt lat="44.6545767" lon="10.2208467"><ele>343.0</ele><time>2026-04-26T07:40:11.999Z</time></trkpt><trkpt lat="44.6545733" lon="10.2209517"><ele>343.0</ele><time>2026-04-26T07:40:15.999Z</time></trkpt><trkpt lat="44.6545683" lon="10.2210517"><ele>343.0</ele><time>2026-04-26T07:40:19.999Z</time></trkpt><trkpt lat="44.65457" lon="10.22115"><ele>343.0</ele><time>2026-04-26T07:40:23.999Z</time></trkpt><trkpt lat="44.65456" lon="10.2212483"><ele>343.3333333333333</ele><time>2026-04-26T07:40:28.999Z</time></trkpt><trkpt lat="44.6545417" lon="10.22134"><ele>343.66666666666663</ele><time>2026-04-26T07:40:32Z</time></trkpt><trkpt lat="44.6545217" lon="10.2214283"><ele>344.0</ele><time>2026-04-26T07:40:34.999Z</time></trkpt><trkpt lat="44.6545017" lon="10.2215383"><ele>344.3333333333333</ele><time>2026-04-26T07:40:38.999Z</time></trkpt><trkpt lat="44.6544933" lon="10.22165"><ele>344.6666666666667</ele><time>2026-04-26T07:40:42.999Z</time></trkpt><trkpt lat="44.6544617" lon="10.2217567"><ele>345.0</ele><time>2026-04-26T07:40:47Z</time></trkpt><trkpt lat="44.6544117" lon="10.2218517"><ele>346.5</ele><time>2026-04-26T07:40:50.999Z</time></trkpt><trkpt lat="44.65434" lon="10.221905"><ele>348.0</ele><time>2026-04-26T07:40:54.999Z</time></trkpt><trkpt lat="44.65426" lon="10.2219283"><ele>349.5</ele><time>2026-04-26T07:40:57.999Z</time></trkpt><trkpt lat="44.65419" lon="10.2219233"><ele>351.0</ele><time>2026-04-26T07:41:00.999Z</time></trkpt><trkpt lat="44.65412" lon="10.221945"><ele>352.5</ele><time>2026-04-26T07:41:03.999Z</time></trkpt><trkpt lat="44.654045" lon="10.2219633"><ele>354.0</ele><time>2026-04-26T07:41:06.999Z</time></trkpt><trkpt lat="44.6539617" lon="10.221965"><ele>354.0</ele><time>2026-04-26T07:41:09.999Z</time></trkpt><trkpt lat="44.6538917" lon="10.2219617"><ele>354.0</ele><time>2026-04-26T07:41:13Z</time></trkpt><trkpt lat="44.653825" lon="10.2219667"><ele>354.0</ele><time>2026-04-26T07:41:15.999Z</time></trkpt><trkpt lat="44.6537483" lon="10.22195"><ele>354.0</ele><time>2026-04-26T07:41:19Z</time></trkpt><trkpt lat="44.6536833" lon="10.2219283"><ele>354.0</ele><time>2026-04-26T07:41:20.999Z</time></trkpt><trkpt lat="44.6536" lon="10.2218967"><ele>354.0</ele><time>2026-04-26T07:41:23.999Z</time></trkpt><trkpt lat="44.6535317" lon="10.2218467"><ele>354.0</ele><time>2026-04-26T07:41:26.999Z</time></trkpt><trkpt lat="44.6534517" lon="10.221785"><ele>356.1666666666667</ele><time>2026-04-26T07:41:29.999Z</time></trkpt><trkpt lat="44.6533883" lon="10.2217317"><ele>358.3333333333333</ele><time>2026-04-26T07:41:32.999Z</time></trkpt><trkpt lat="44.6533183" lon="10.221675"><ele>360.5</ele><time>2026-04-26T07:41:35.999Z</time></trkpt><trkpt lat="44.65324" lon="10.2216283"><ele>362.66666666666663</ele><time>2026-04-26T07:41:39Z</time></trkpt><trkpt lat="44.65316" lon="10.2215817"><ele>364.8333333333333</ele><time>2026-04-26T07:41:41.999Z</time></trkpt><trkpt lat="44.6530867" lon="10.22156"><ele>367.0</ele><time>2026-04-26T07:41:44.999Z</time></trkpt><trkpt lat="44.6530117" lon="10.221555"><ele>367.0</ele><time>2026-04-26T07:41:47.999Z</time></trkpt><trkpt lat="44.6529383" lon="10.221605"><ele>367.0</ele><time>2026-04-26T07:41:50.999Z</time></trkpt><trkpt lat="44.6528733" lon="10.2216533"><ele>367.0</ele><time>2026-04-26T07:41:53.999Z</time></trkpt><trkpt lat="44.6528133" lon="10.221685"><ele>367.0</ele><time>2026-04-26T07:41:56.999Z</time></trkpt><trkpt lat="44.6527233" lon="10.2216833"><ele>367.0</ele><time>2026-04-26T07:42:00Z</time></trkpt><trkpt lat="44.6526583" lon="10.221635"><ele>367.0</ele><time>2026-04-26T07:42:02.999Z</time></trkpt><trkpt lat="44.6525867" lon="10.2215767"><ele>367.8333333333333</ele><time>2026-04-26T07:42:05.999Z</time></trkpt><trkpt lat="44.652515" lon="10.2215233"><ele>368.66666666666663</ele><time>2026-04-26T07:42:08.999Z</time></trkpt><trkpt lat="44.65244" lon="10.2214983"><ele>369.5</ele><time>2026-04-26T07:42:11.999Z</time></trkpt><trkpt lat="44.6523733" lon="10.221525"><ele>370.3333333333333</ele><time>2026-04-26T07:42:15Z</time></trkpt><trkpt lat="44.6523017" lon="10.2215633"><ele>371.1666666666667</ele><time>2026-04-26T07:42:18.999Z</time></trkpt><trkpt lat="44.6522283" lon="10.221605"><ele>372.0</ele><time>2026-04-26T07:42:22.999Z</time></trkpt><trkpt lat="44.6521733" lon="10.22167"><ele>372.00000000000006</ele><time>2026-04-26T07:42:27Z</time></trkpt><trkpt lat="44.6521383" lon="10.2217517"><ele>372.0</ele><time>2026-04-26T07:42:30Z</time></trkpt><trkpt lat="44.65209" lon="10.221815"><ele>372.0</ele><time>2026-04-26T07:42:32.999Z</time></trkpt><trkpt lat="44.6520317" lon="10.2218883"><ele>372.0</ele><time>2026-04-26T07:42:37Z</time></trkpt><trkpt lat="44.65198" lon="10.2219583"><ele>372.0</ele><time>2026-04-26T07:42:40.999Z</time></trkpt><trkpt lat="44.65194" lon="10.2220317"><ele>372.00000000000006</ele><time>2026-04-26T07:42:44.999Z</time></trkpt><trkpt lat="44.6519117" lon="10.2221233"><ele>372.0</ele><time>2026-04-26T07:42:48.999Z</time></trkpt><trkpt lat="44.6518633" lon="10.2222"><ele>371.42857142857144</ele><time>2026-04-26T07:42:54.999Z</time></trkpt><trkpt lat="44.6518267" lon="10.222275"><ele>370.8571428571429</ele><time>2026-04-26T07:42:58.999Z</time></trkpt><trkpt lat="44.6517817" lon="10.2223417"><ele>370.28571428571433</ele><time>2026-04-26T07:43:02.999Z</time></trkpt><trkpt lat="44.6517333" lon="10.222445"><ele>369.7142857142857</ele><time>2026-04-26T07:43:06.999Z</time></trkpt><trkpt lat="44.6516933" lon="10.2225167"><ele>369.1428571428571</ele><time>2026-04-26T07:43:09.999Z</time></trkpt><trkpt lat="44.6516883" lon="10.2226117"><ele>368.5714285714286</ele><time>2026-04-26T07:43:13.999Z</time></trkpt><trkpt lat="44.65171" lon="10.2227033"><ele>368.0</ele><time>2026-04-26T07:43:18.999Z</time></trkpt><trkpt lat="44.6517617" lon="10.2227733"><ele>369.7142857142857</ele><time>2026-04-26T07:43:23.999Z</time></trkpt><trkpt lat="44.6518067" lon="10.2228467"><ele>371.4285714285714</ele><time>2026-04-26T07:43:26.999Z</time></trkpt><trkpt lat="44.6518633" lon="10.2229333"><ele>373.1428571428571</ele><time>2026-04-26T07:43:30Z</time></trkpt><trkpt lat="44.65192" lon="10.223005"><ele>374.8571428571429</ele><time>2026-04-26T07:43:32.999Z</time></trkpt><trkpt lat="44.6519667" lon="10.2230683"><ele>376.57142857142856</ele><time>2026-04-26T07:43:34.999Z</time></trkpt><trkpt lat="44.6520183" lon="10.2231383"><ele>378.2857142857143</ele><time>2026-04-26T07:43:37Z</time></trkpt><trkpt lat="44.65206" lon="10.2232267"><ele>380.0</ele><time>2026-04-26T07:43:38.999Z</time></trkpt><trkpt lat="44.652095" lon="10.2233133"><ele>382.0</ele><time>2026-04-26T07:43:40.999Z</time></trkpt><trkpt lat="44.6521383" lon="10.2234283"><ele>384.0</ele><time>2026-04-26T07:43:44Z</time></trkpt><trkpt lat="44.6521683" lon="10.2235283"><ele>386.0</ele><time>2026-04-26T07:43:46.999Z</time></trkpt><trkpt lat="44.6522067" lon="10.22363"><ele>388.0</ele><time>2026-04-26T07:43:50.999Z</time></trkpt><trkpt lat="44.6522667" lon="10.22368"><ele>389.99999999999994</ele><time>2026-04-26T07:43:53.999Z</time></trkpt><trkpt lat="44.6522917" lon="10.2237883"><ele>392.0</ele><time>2026-04-26T07:43:57.999Z</time></trkpt><trkpt lat="44.6523117" lon="10.2238933"><ele>392.16666666666663</ele><time>2026-04-26T07:44:00.999Z</time></trkpt><trkpt lat="44.6523367" lon="10.2240017"><ele>392.3333333333333</ele><time>2026-04-26T07:44:03.999Z</time></trkpt><trkpt lat="44.65236" lon="10.2241"><ele>392.5</ele><time>2026-04-26T07:44:06.999Z</time></trkpt><trkpt lat="44.652395" lon="10.2242"><ele>392.66666666666663</ele><time>2026-04-26T07:44:09.999Z</time></trkpt><trkpt lat="44.6524083" lon="10.2243083"><ele>392.8333333333333</ele><time>2026-04-26T07:44:13.999Z</time></trkpt><trkpt lat="44.652445" lon="10.224425"><ele>393.0</ele><time>2026-04-26T07:44:17.999Z</time></trkpt><trkpt lat="44.6524733" lon="10.224515"><ele>393.0</ele><time>2026-04-26T07:44:20.999Z</time></trkpt><trkpt lat="44.6524967" lon="10.22461"><ele>393.0</ele><time>2026-04-26T07:44:24Z</time></trkpt><trkpt lat="44.652555" lon="10.2246967"><ele>393.0</ele><time>2026-04-26T07:44:26.999Z</time></trkpt><trkpt lat="44.6525983" lon="10.2247767"><ele>393.0</ele><time>2026-04-26T07:44:29.999Z</time></trkpt><trkpt lat="44.6526483" lon="10.2248767"><ele>393.0</ele><time>2026-04-26T07:44:32.999Z</time></trkpt><trkpt lat="44.65268" lon="10.22496"><ele>393.0</ele><time>2026-04-26T07:44:37Z</time></trkpt><trkpt lat="44.6527083" lon="10.2250567"><ele>392.28571428571433</ele><time>2026-04-26T07:44:41.999Z</time></trkpt><trkpt lat="44.6527533" lon="10.2251317"><ele>391.57142857142856</ele><time>2026-04-26T07:44:45.999Z</time></trkpt><trkpt lat="44.6528133" lon="10.2251717"><ele>390.8571428571429</ele><time>2026-04-26T07:44:50.999Z</time></trkpt><trkpt lat="44.6528833" lon="10.2251533"><ele>390.14285714285717</ele><time>2026-04-26T07:44:56.999Z</time></trkpt><trkpt lat="44.65295" lon="10.2251617"><ele>389.42857142857144</ele><time>2026-04-26T07:45:01.999Z</time></trkpt><trkpt lat="44.6530183" lon="10.22516"><ele>388.7142857142857</ele><time>2026-04-26T07:45:07.999Z</time></trkpt><trkpt lat="44.6530883" lon="10.225175"><ele>388.0</ele><time>2026-04-26T07:45:12.999Z</time></trkpt><trkpt lat="44.6531767" lon="10.225175"><ele>388.2857142857143</ele><time>2026-04-26T07:45:19.999Z</time></trkpt><trkpt lat="44.653255" lon="10.225175"><ele>388.5714285714286</ele><time>2026-04-26T07:45:25.999Z</time></trkpt><trkpt lat="44.653325" lon="10.2251917"><ele>388.8571428571429</ele><time>2026-04-26T07:45:29.999Z</time></trkpt><trkpt lat="44.65339" lon="10.2252383"><ele>389.1428571428571</ele><time>2026-04-26T07:45:33.999Z</time></trkpt><trkpt lat="44.6534617" lon="10.2252583"><ele>389.42857142857144</ele><time>2026-04-26T07:45:36.999Z</time></trkpt><trkpt lat="44.653535" lon="10.22528"><ele>389.7142857142857</ele><time>2026-04-26T07:45:39.999Z</time></trkpt><trkpt lat="44.6536017" lon="10.2253117"><ele>390.0</ele><time>2026-04-26T07:45:42.999Z</time></trkpt><trkpt lat="44.6536733" lon="10.2253617"><ele>390.0</ele><time>2026-04-26T07:45:46Z</time></trkpt><trkpt lat="44.65376" lon="10.2254167"><ele>390.0</ele><time>2026-04-26T07:45:49Z</time></trkpt><trkpt lat="44.6538283" lon="10.22546"><ele>390.0</ele><time>2026-04-26T07:45:51Z</time></trkpt><trkpt lat="44.6539" lon="10.2255267"><ele>390.0</ele><time>2026-04-26T07:45:53.999Z</time></trkpt><trkpt lat="44.6539733" lon="10.22561"><ele>390.0</ele><time>2026-04-26T07:45:56.999Z</time></trkpt><trkpt lat="44.6540433" lon="10.2256883"><ele>390.0</ele><time>2026-04-26T07:45:59.999Z</time></trkpt><trkpt lat="44.65409" lon="10.2257783"><ele>391.5</ele><time>2026-04-26T07:46:03Z</time></trkpt><trkpt lat="44.65415" lon="10.2258567"><ele>393.0</ele><time>2026-04-26T07:46:05.999Z</time></trkpt><trkpt lat="44.6542117" lon="10.2259233"><ele>394.5</ele><time>2026-04-26T07:46:08.999Z</time></trkpt><trkpt lat="44.65426" lon="10.2259933"><ele>396.0</ele><time>2026-04-26T07:46:11.999Z</time></trkpt><trkpt lat="44.6543283" lon="10.2260467"><ele>397.5</ele><time>2026-04-26T07:46:15.999Z</time></trkpt><trkpt lat="44.6543933" lon="10.2261183"><ele>399.0</ele><time>2026-04-26T07:46:19.999Z</time></trkpt><trkpt lat="44.6544433" lon="10.2261733"><ele>399.7142857142857</ele><time>2026-04-26T07:46:22.999Z</time></trkpt><trkpt lat="44.6545017" lon="10.2262167"><ele>400.42857142857144</ele><time>2026-04-26T07:46:25.999Z</time></trkpt><trkpt lat="44.6545567" lon="10.226275"><ele>401.1428571428571</ele><time>2026-04-26T07:46:28.999Z</time></trkpt><trkpt lat="44.6546083" lon="10.2263283"><ele>401.8571428571429</ele><time>2026-04-26T07:46:31.999Z</time></trkpt><trkpt lat="44.6546633" lon="10.226395"><ele>402.57142857142856</ele><time>2026-04-26T07:46:34.999Z</time></trkpt><trkpt lat="44.654715" lon="10.2264583"><ele>403.2857142857143</ele><time>2026-04-26T07:46:37.999Z</time></trkpt><trkpt lat="44.6547817" lon="10.226515"><ele>404.0</ele><time>2026-04-26T07:46:41.999Z</time></trkpt><trkpt lat="44.65484" lon="10.226585"><ele>403.99999999999994</ele><time>2026-04-26T07:46:45.999Z</time></trkpt><trkpt lat="44.6549" lon="10.2266433"><ele>404.0</ele><time>2026-04-26T07:46:49.999Z</time></trkpt><trkpt lat="44.6549767" lon="10.2266867"><ele>404.0</ele><time>2026-04-26T07:46:53Z</time></trkpt><trkpt lat="44.65504" lon="10.2267417"><ele>404.0</ele><time>2026-04-26T07:46:54.999Z</time></trkpt><trkpt lat="44.655105" lon="10.2267817"><ele>403.99999999999994</ele><time>2026-04-26T07:46:56.999Z</time></trkpt><trkpt lat="44.655175" lon="10.22682"><ele>404.0</ele><time>2026-04-26T07:46:58.999Z</time></trkpt><trkpt lat="44.65525" lon="10.2268667"><ele>403.66666666666663</ele><time>2026-04-26T07:47:01Z</time></trkpt><trkpt lat="44.6553267" lon="10.2269167"><ele>403.3333333333333</ele><time>2026-04-26T07:47:02.999Z</time></trkpt><trkpt lat="44.6554017" lon="10.2269717"><ele>403.0</ele><time>2026-04-26T07:47:04.999Z</time></trkpt><trkpt lat="44.6554817" lon="10.22702"><ele>402.66666666666663</ele><time>2026-04-26T07:47:06.999Z</time></trkpt><trkpt lat="44.65556" lon="10.2270467"><ele>402.3333333333333</ele><time>2026-04-26T07:47:09Z</time></trkpt><trkpt lat="44.6556317" lon="10.22707"><ele>402.0</ele><time>2026-04-26T07:47:11Z</time></trkpt><trkpt lat="44.6556933" lon="10.2271017"><ele>402.0</ele><time>2026-04-26T07:47:12.999Z</time></trkpt><trkpt lat="44.655755" lon="10.2271317"><ele>402.0</ele><time>2026-04-26T07:47:14.999Z</time></trkpt><trkpt lat="44.65583" lon="10.2271733"><ele>402.0</ele><time>2026-04-26T07:47:17.999Z</time></trkpt><trkpt lat="44.6558967" lon="10.2271983"><ele>402.0</ele><time>2026-04-26T07:47:20.999Z</time></trkpt><trkpt lat="44.65596" lon="10.2272217"><ele>402.0</ele><time>2026-04-26T07:47:23.999Z</time></trkpt><trkpt lat="44.6560433" lon="10.2272283"><ele>402.0</ele><time>2026-04-26T07:47:27.999Z</time></trkpt><trkpt lat="44.6561233" lon="10.2272517"><ele>402.0</ele><time>2026-04-26T07:47:30.999Z</time></trkpt><trkpt lat="44.65619" lon="10.2272683"><ele>403.0</ele><time>2026-04-26T07:47:33.999Z</time></trkpt><trkpt lat="44.6562633" lon="10.22729"><ele>404.0</ele><time>2026-04-26T07:47:36.999Z</time></trkpt><trkpt lat="44.65634" lon="10.227315"><ele>405.0</ele><time>2026-04-26T07:47:39.999Z</time></trkpt><trkpt lat="44.656425" lon="10.2273433"><ele>406.0</ele><time>2026-04-26T07:47:42.999Z</time></trkpt><trkpt lat="44.6565" lon="10.2273733"><ele>407.0</ele><time>2026-04-26T07:47:44.999Z</time></trkpt><trkpt lat="44.656575" lon="10.2274067"><ele>408.0</ele><time>2026-04-26T07:47:47Z</time></trkpt><trkpt lat="44.65665" lon="10.2274417"><ele>408.79999999999995</ele><time>2026-04-26T07:47:48.999Z</time></trkpt><trkpt lat="44.656735" lon="10.2274767"><ele>409.6</ele><time>2026-04-26T07:47:50.999Z</time></trkpt><trkpt lat="44.656815" lon="10.2275317"><ele>410.4</ele><time>2026-04-26T07:47:52.999Z</time></trkpt><trkpt lat="44.6568983" lon="10.22758"><ele>411.20000000000005</ele><time>2026-04-26T07:47:54.999Z</time></trkpt><trkpt lat="44.656985" lon="10.227625"><ele>412.0</ele><time>2026-04-26T07:47:56.999Z</time></trkpt><trkpt lat="44.6570717" lon="10.2276683"><ele>412.50000000000006</ele><time>2026-04-26T07:47:58.999Z</time></trkpt><trkpt lat="44.657155" lon="10.2277117"><ele>413.0</ele><time>2026-04-26T07:48:00.999Z</time></trkpt><trkpt lat="44.6572367" lon="10.22776"><ele>413.5</ele><time>2026-04-26T07:48:02.999Z</time></trkpt><trkpt lat="44.6573233" lon="10.22781"><ele>414.0</ele><time>2026-04-26T07:48:05Z</time></trkpt><trkpt lat="44.657405" lon="10.2278433"><ele>414.50000000000006</ele><time>2026-04-26T07:48:06.999Z</time></trkpt><trkpt lat="44.6574817" lon="10.2278683"><ele>415.0</ele><time>2026-04-26T07:48:08.999Z</time></trkpt><trkpt lat="44.657545" lon="10.227895"><ele>415.00000000000006</ele><time>2026-04-26T07:48:10.999Z</time></trkpt><trkpt lat="44.657635" lon="10.2279167"><ele>415.0</ele><time>2026-04-26T07:48:14Z</time></trkpt><trkpt lat="44.6577" lon="10.2279483"><ele>415.0</ele><time>2026-04-26T07:48:16Z</time></trkpt><trkpt lat="44.6577683" lon="10.22798"><ele>415.0</ele><time>2026-04-26T07:48:17.999Z</time></trkpt><trkpt lat="44.65784" lon="10.2280017"><ele>415.00000000000006</ele><time>2026-04-26T07:48:19.999Z</time></trkpt><trkpt lat="44.657905" lon="10.228045"><ele>415.0</ele><time>2026-04-26T07:48:21.999Z</time></trkpt><trkpt lat="44.65798" lon="10.2280867"><ele>414.33333333333337</ele><time>2026-04-26T07:48:23.999Z</time></trkpt><trkpt lat="44.658055" lon="10.22811"><ele>413.6666666666667</ele><time>2026-04-26T07:48:25.999Z</time></trkpt><trkpt lat="44.6581217" lon="10.22813"><ele>413.0</ele><time>2026-04-26T07:48:27.999Z</time></trkpt><trkpt lat="44.6582033" lon="10.2281583"><ele>412.33333333333337</ele><time>2026-04-26T07:48:29.999Z</time></trkpt><trkpt lat="44.65828" lon="10.2281783"><ele>411.6666666666667</ele><time>2026-04-26T07:48:31.999Z</time></trkpt><trkpt lat="44.6583533" lon="10.22819"><ele>411.0</ele><time>2026-04-26T07:48:33.999Z</time></trkpt><trkpt lat="44.65844" lon="10.2282083"><ele>411.0</ele><time>2026-04-26T07:48:36.999Z</time></trkpt><trkpt lat="44.6585233" lon="10.228215"><ele>411.0</ele><time>2026-04-26T07:48:39.999Z</time></trkpt><trkpt lat="44.658605" lon="10.2282183"><ele>411.0</ele><time>2026-04-26T07:48:41.999Z</time></trkpt><trkpt lat="44.6587017" lon="10.22824"><ele>411.0</ele><time>2026-04-26T07:48:44Z</time></trkpt><trkpt lat="44.658805" lon="10.2282817"><ele>411.0</ele><time>2026-04-26T07:48:45.999Z</time></trkpt><trkpt lat="44.65892" lon="10.2283533"><ele>410.7142857142857</ele><time>2026-04-26T07:48:47.999Z</time></trkpt><trkpt lat="44.658985" lon="10.2284033"><ele>410.42857142857144</ele><time>2026-04-26T07:48:48.999Z</time></trkpt><trkpt lat="44.65905" lon="10.2284633"><ele>410.1428571428571</ele><time>2026-04-26T07:48:49.999Z</time></trkpt><trkpt lat="44.659115" lon="10.2285083"><ele>409.8571428571429</ele><time>2026-04-26T07:48:50.999Z</time></trkpt><trkpt lat="44.6591817" lon="10.2285567"><ele>409.5714285714286</ele><time>2026-04-26T07:48:52Z</time></trkpt><trkpt lat="44.6592433" lon="10.2286083"><ele>409.2857142857143</ele><time>2026-04-26T07:48:52.999Z</time></trkpt><trkpt lat="44.6593033" lon="10.22865"><ele>409.0</ele><time>2026-04-26T07:48:54Z</time></trkpt><trkpt lat="44.65937" lon="10.22871"><ele>409.00000000000006</ele><time>2026-04-26T07:48:54.999Z</time></trkpt><trkpt lat="44.6594367" lon="10.2287683"><ele>409.0</ele><time>2026-04-26T07:48:55.999Z</time></trkpt><trkpt lat="44.65951" lon="10.2288217"><ele>409.0</ele><time>2026-04-26T07:48:56.999Z</time></trkpt><trkpt lat="44.6595867" lon="10.228865"><ele>409.0</ele><time>2026-04-26T07:48:57.999Z</time></trkpt><trkpt lat="44.6596533" lon="10.2289183"><ele>409.00000000000006</ele><time>2026-04-26T07:48:58.999Z</time></trkpt><trkpt lat="44.659725" lon="10.2289633"><ele>409.0</ele><time>2026-04-26T07:49:00Z</time></trkpt><trkpt lat="44.6598" lon="10.2290133"><ele>409.50000000000006</ele><time>2026-04-26T07:49:00.999Z</time></trkpt><trkpt lat="44.6598767" lon="10.2290383"><ele>410.0</ele><time>2026-04-26T07:49:01.999Z</time></trkpt><trkpt lat="44.6599517" lon="10.2290633"><ele>410.5</ele><time>2026-04-26T07:49:02.999Z</time></trkpt><trkpt lat="44.6600283" lon="10.2290517"><ele>411.0</ele><time>2026-04-26T07:49:04Z</time></trkpt><trkpt lat="44.6601067" lon="10.22903"><ele>411.50000000000006</ele><time>2026-04-26T07:49:04.999Z</time></trkpt><trkpt lat="44.6601867" lon="10.2289983"><ele>412.0</ele><time>2026-04-26T07:49:06Z</time></trkpt><trkpt lat="44.6603" lon="10.2289483"><ele>412.00000000000006</ele><time>2026-04-26T07:49:07.999Z</time></trkpt><trkpt lat="44.66039" lon="10.22891"><ele>412.0</ele><time>2026-04-26T07:49:09.999Z</time></trkpt><trkpt lat="44.6604567" lon="10.2288733"><ele>412.0</ele><time>2026-04-26T07:49:12Z</time></trkpt><trkpt lat="44.6605117" lon="10.228815"><ele>412.0</ele><time>2026-04-26T07:49:13.999Z</time></trkpt><trkpt lat="44.6605767" lon="10.2287633"><ele>412.00000000000006</ele><time>2026-04-26T07:49:15.999Z</time></trkpt><trkpt lat="44.6606633" lon="10.228705"><ele>412.0</ele><time>2026-04-26T07:49:18.999Z</time></trkpt><trkpt lat="44.6607633" lon="10.22868"><ele>411.99999999999994</ele><time>2026-04-26T07:49:22Z</time></trkpt><trkpt lat="44.6608383" lon="10.2286683"><ele>412.0</ele><time>2026-04-26T07:49:24Z</time></trkpt><trkpt lat="44.6609067" lon="10.2286567"><ele>412.0</ele><time>2026-04-26T07:49:26Z</time></trkpt><trkpt lat="44.6609833" lon="10.2286483"><ele>412.0</ele><time>2026-04-26T07:49:27.999Z</time></trkpt><trkpt lat="44.6610533" lon="10.2286367"><ele>412.0</ele><time>2026-04-26T07:49:29.999Z</time></trkpt><trkpt lat="44.6611283" lon="10.2286267"><ele>411.99999999999994</ele><time>2026-04-26T07:49:31.999Z</time></trkpt><trkpt lat="44.6612017" lon="10.228635"><ele>412.0</ele><time>2026-04-26T07:49:33.999Z</time></trkpt><trkpt lat="44.6612767" lon="10.2286617"><ele>411.83333333333337</ele><time>2026-04-26T07:49:35.999Z</time></trkpt><trkpt lat="44.6613467" lon="10.22867"><ele>411.6666666666667</ele><time>2026-04-26T07:49:37.999Z</time></trkpt><trkpt lat="44.6614317" lon="10.2286617"><ele>411.5</ele><time>2026-04-26T07:49:40.999Z</time></trkpt><trkpt lat="44.6615" lon="10.2286783"><ele>411.33333333333337</ele><time>2026-04-26T07:49:43.999Z</time></trkpt><trkpt lat="44.66156" lon="10.2287333"><ele>411.1666666666667</ele><time>2026-04-26T07:49:47Z</time></trkpt><trkpt lat="44.66162" lon="10.228825"><ele>411.0</ele><time>2026-04-26T07:49:48.999Z</time></trkpt><trkpt lat="44.6616983" lon="10.2289817"><ele>411.0</ele><time>2026-04-26T07:49:50.999Z</time></trkpt><trkpt lat="44.66174" lon="10.2290733"><ele>411.0</ele><time>2026-04-26T07:49:51.999Z</time></trkpt><trkpt lat="44.66178" lon="10.2291733"><ele>411.0</ele><time>2026-04-26T07:49:52.999Z</time></trkpt><trkpt lat="44.66182" lon="10.2292867"><ele>411.0</ele><time>2026-04-26T07:49:53.999Z</time></trkpt><trkpt lat="44.6618517" lon="10.2294017"><ele>411.0</ele><time>2026-04-26T07:49:54.999Z</time></trkpt><trkpt lat="44.6618867" lon="10.2295067"><ele>411.0</ele><time>2026-04-26T07:49:55.999Z</time></trkpt><trkpt lat="44.66192" lon="10.2295917"><ele>411.1666666666667</ele><time>2026-04-26T07:49:56.999Z</time></trkpt><trkpt lat="44.6619567" lon="10.22968"><ele>411.33333333333337</ele><time>2026-04-26T07:49:57.999Z</time></trkpt><trkpt lat="44.6619933" lon="10.2297583"><ele>411.5</ele><time>2026-04-26T07:49:58.999Z</time></trkpt><trkpt lat="44.66203" lon="10.2298333"><ele>411.6666666666667</ele><time>2026-04-26T07:49:59.999Z</time></trkpt><trkpt lat="44.6621" lon="10.2299783"><ele>411.83333333333337</ele><time>2026-04-26T07:50:01.999Z</time></trkpt><trkpt lat="44.66214" lon="10.2300467"><ele>412.0</ele><time>2026-04-26T07:50:02.999Z</time></trkpt><trkpt lat="44.6621783" lon="10.23012"><ele>412.0</ele><time>2026-04-26T07:50:03.999Z</time></trkpt><trkpt lat="44.6622533" lon="10.2302467"><ele>412.0</ele><time>2026-04-26T07:50:05.999Z</time></trkpt><trkpt lat="44.662325" lon="10.2303467"><ele>412.0</ele><time>2026-04-26T07:50:07.999Z</time></trkpt><trkpt lat="44.66239" lon="10.23044"><ele>412.0</ele><time>2026-04-26T07:50:09.999Z</time></trkpt><trkpt lat="44.6624517" lon="10.230525"><ele>412.0</ele><time>2026-04-26T07:50:11.999Z</time></trkpt><trkpt lat="44.66251" lon="10.2306"><ele>411.57142857142856</ele><time>2026-04-26T07:50:13.999Z</time></trkpt><trkpt lat="44.6625583" lon="10.2306833"><ele>411.1428571428571</ele><time>2026-04-26T07:50:16Z</time></trkpt><trkpt lat="44.6626083" lon="10.2307483"><ele>410.71428571428567</ele><time>2026-04-26T07:50:17.999Z</time></trkpt><trkpt lat="44.662665" lon="10.2307983"><ele>410.2857142857143</ele><time>2026-04-26T07:50:19.999Z</time></trkpt><trkpt lat="44.66271" lon="10.2308683"><ele>409.8571428571429</ele><time>2026-04-26T07:50:21.999Z</time></trkpt><trkpt lat="44.6627567" lon="10.230945"><ele>409.4285714285714</ele><time>2026-04-26T07:50:24Z</time></trkpt><trkpt lat="44.66281" lon="10.2310433"><ele>409.0</ele><time>2026-04-26T07:50:25.999Z</time></trkpt><trkpt lat="44.6628617" lon="10.2311617"><ele>409.79999999999995</ele><time>2026-04-26T07:50:28Z</time></trkpt><trkpt lat="44.6629233" lon="10.231275"><ele>410.59999999999997</ele><time>2026-04-26T07:50:29.999Z</time></trkpt><trkpt lat="44.6629883" lon="10.2313783"><ele>411.4</ele><time>2026-04-26T07:50:31.999Z</time></trkpt><trkpt lat="44.663055" lon="10.2314633"><ele>412.2</ele><time>2026-04-26T07:50:34Z</time></trkpt><trkpt lat="44.6631267" lon="10.2315083"><ele>413.0</ele><time>2026-04-26T07:50:35.999Z</time></trkpt><trkpt lat="44.6632033" lon="10.2315533"><ele>412.99999999999994</ele><time>2026-04-26T07:50:37.999Z</time></trkpt><trkpt lat="44.6632767" lon="10.2315833"><ele>413.0</ele><time>2026-04-26T07:50:40Z</time></trkpt><trkpt lat="44.66336" lon="10.231615"><ele>413.0</ele><time>2026-04-26T07:50:41.999Z</time></trkpt><trkpt lat="44.6634467" lon="10.2316567"><ele>413.0</ele><time>2026-04-26T07:50:43.999Z</time></trkpt><trkpt lat="44.6635317" lon="10.2316933"><ele>412.99999999999994</ele><time>2026-04-26T07:50:45.999Z</time></trkpt><trkpt lat="44.6636233" lon="10.2317217"><ele>413.0</ele><time>2026-04-26T07:50:47.999Z</time></trkpt><trkpt lat="44.6637267" lon="10.231795"><ele>410.79999999999995</ele><time>2026-04-26T07:50:49.999Z</time></trkpt><trkpt lat="44.66383" lon="10.2318967"><ele>408.6</ele><time>2026-04-26T07:50:51.999Z</time></trkpt><trkpt lat="44.6639233" lon="10.2320183"><ele>406.4</ele><time>2026-04-26T07:50:53.999Z</time></trkpt><trkpt lat="44.66397" lon="10.2320867"><ele>404.20000000000005</ele><time>2026-04-26T07:50:55Z</time></trkpt><trkpt lat="44.6640167" lon="10.232155"><ele>402.0</ele><time>2026-04-26T07:50:55.999Z</time></trkpt><trkpt lat="44.6641033" lon="10.2322867"><ele>403.75</ele><time>2026-04-26T07:50:57.999Z</time></trkpt><trkpt lat="44.6641917" lon="10.23242"><ele>405.5</ele><time>2026-04-26T07:50:59.999Z</time></trkpt><trkpt lat="44.664285" lon="10.2325367"><ele>407.25</ele><time>2026-04-26T07:51:01.999Z</time></trkpt><trkpt lat="44.6643767" lon="10.232655"><ele>409.0</ele><time>2026-04-26T07:51:04Z</time></trkpt><trkpt lat="44.6644633" lon="10.232765"><ele>405.0</ele><time>2026-04-26T07:51:05.999Z</time></trkpt><trkpt lat="44.6645417" lon="10.23286"><ele>401.0</ele><time>2026-04-26T07:51:08Z</time></trkpt><trkpt lat="44.6646117" lon="10.2329283"><ele>397.0</ele><time>2026-04-26T07:51:09.999Z</time></trkpt><trkpt lat="44.6646883" lon="10.232995"><ele>393.0</ele><time>2026-04-26T07:51:11.999Z</time></trkpt><trkpt lat="44.664775" lon="10.233055"><ele>389.0</ele><time>2026-04-26T07:51:13.999Z</time></trkpt><trkpt lat="44.6648833" lon="10.23313"><ele>388.3333333333333</ele><time>2026-04-26T07:51:16Z</time></trkpt><trkpt lat="44.66494" lon="10.2331817"><ele>387.66666666666663</ele><time>2026-04-26T07:51:17Z</time></trkpt><trkpt lat="44.6650117" lon="10.2332383"><ele>387.0</ele><time>2026-04-26T07:51:18Z</time></trkpt><trkpt lat="44.6650833" lon="10.23329"><ele>386.33333333333337</ele><time>2026-04-26T07:51:18.999Z</time></trkpt><trkpt lat="44.6651483" lon="10.2333483"><ele>385.6666666666667</ele><time>2026-04-26T07:51:19.999Z</time></trkpt><trkpt lat="44.6652183" lon="10.233425"><ele>385.0</ele><time>2026-04-26T07:51:21Z</time></trkpt><trkpt lat="44.6652833" lon="10.2335233"><ele>385.0</ele><time>2026-04-26T07:51:21.999Z</time></trkpt><trkpt lat="44.6653383" lon="10.233645"><ele>385.0</ele><time>2026-04-26T07:51:22.999Z</time></trkpt><trkpt lat="44.6653483" lon="10.2337883"><ele>385.0</ele><time>2026-04-26T07:51:23.999Z</time></trkpt><trkpt lat="44.665345" lon="10.2339167"><ele>385.0</ele><time>2026-04-26T07:51:24.999Z</time></trkpt><trkpt lat="44.6653417" lon="10.234045"><ele>385.0</ele><time>2026-04-26T07:51:25.999Z</time></trkpt><trkpt lat="44.66535" lon="10.234165"><ele>386.50000000000006</ele><time>2026-04-26T07:51:26.999Z</time></trkpt><trkpt lat="44.66537" lon="10.23428"><ele>388.0</ele><time>2026-04-26T07:51:27.999Z</time></trkpt><trkpt lat="44.6654017" lon="10.23439"><ele>389.5</ele><time>2026-04-26T07:51:28.999Z</time></trkpt><trkpt lat="44.6654483" lon="10.2344933"><ele>391.0</ele><time>2026-04-26T07:51:29.999Z</time></trkpt><trkpt lat="44.6655" lon="10.23457"><ele>392.50000000000006</ele><time>2026-04-26T07:51:30.999Z</time></trkpt><trkpt lat="44.6655633" lon="10.2346567"><ele>394.0</ele><time>2026-04-26T07:51:32Z</time></trkpt><trkpt lat="44.66562" lon="10.2347167"><ele>394.00000000000006</ele><time>2026-04-26T07:51:32.999Z</time></trkpt><trkpt lat="44.6656767" lon="10.23478"><ele>394.0</ele><time>2026-04-26T07:51:33.999Z</time></trkpt><trkpt lat="44.6657367" lon="10.2348483"><ele>394.0</ele><time>2026-04-26T07:51:34.999Z</time></trkpt><trkpt lat="44.665795" lon="10.234895"><ele>394.0</ele><time>2026-04-26T07:51:35.999Z</time></trkpt><trkpt lat="44.6658533" lon="10.2349367"><ele>394.00000000000006</ele><time>2026-04-26T07:51:36.999Z</time></trkpt><trkpt lat="44.6659717" lon="10.2349917"><ele>394.0</ele><time>2026-04-26T07:51:38.999Z</time></trkpt><trkpt lat="44.6660833" lon="10.2350233"><ele>394.1666666666667</ele><time>2026-04-26T07:51:40.999Z</time></trkpt><trkpt lat="44.6661983" lon="10.2350367"><ele>394.33333333333337</ele><time>2026-04-26T07:51:42.999Z</time></trkpt><trkpt lat="44.6663167" lon="10.23502"><ele>394.5</ele><time>2026-04-26T07:51:44.999Z</time></trkpt><trkpt lat="44.66638" lon="10.2349983"><ele>394.66666666666663</ele><time>2026-04-26T07:51:45.999Z</time></trkpt><trkpt lat="44.6664417" lon="10.2349733"><ele>394.8333333333333</ele><time>2026-04-26T07:51:46.999Z</time></trkpt><trkpt lat="44.6665117" lon="10.2349417"><ele>395.0</ele><time>2026-04-26T07:51:47.999Z</time></trkpt><trkpt lat="44.6665867" lon="10.2349167"><ele>394.99999999999994</ele><time>2026-04-26T07:51:49Z</time></trkpt><trkpt lat="44.6666617" lon="10.2348983"><ele>395.0</ele><time>2026-04-26T07:51:49.999Z</time></trkpt><trkpt lat="44.66674" lon="10.2348817"><ele>395.0</ele><time>2026-04-26T07:51:51Z</time></trkpt><trkpt lat="44.6668183" lon="10.234875"><ele>395.0</ele><time>2026-04-26T07:51:51.999Z</time></trkpt><trkpt lat="44.6669" lon="10.2348717"><ele>394.99999999999994</ele><time>2026-04-26T07:51:52.999Z</time></trkpt><trkpt lat="44.6669867" lon="10.234875"><ele>395.0</ele><time>2026-04-26T07:51:53.999Z</time></trkpt><trkpt lat="44.6670817" lon="10.2348833"><ele>393.2</ele><time>2026-04-26T07:51:54.999Z</time></trkpt><trkpt lat="44.6671667" lon="10.2349317"><ele>391.4</ele><time>2026-04-26T07:51:55.999Z</time></trkpt><trkpt lat="44.6672533" lon="10.234985"><ele>389.6</ele><time>2026-04-26T07:51:56.999Z</time></trkpt><trkpt lat="44.66733" lon="10.23506"><ele>387.8</ele><time>2026-04-26T07:51:57.999Z</time></trkpt><trkpt lat="44.6673767" lon="10.2351817"><ele>386.0</ele><time>2026-04-26T07:51:59Z</time></trkpt><trkpt lat="44.6674067" lon="10.235305"><ele>386.0</ele><time>2026-04-26T07:52:00Z</time></trkpt><trkpt lat="44.6674267" lon="10.2354383"><ele>386.0</ele><time>2026-04-26T07:52:00.999Z</time></trkpt><trkpt lat="44.6674233" lon="10.2355767"><ele>386.0</ele><time>2026-04-26T07:52:01.999Z</time></trkpt><trkpt lat="44.6674233" lon="10.2357133"><ele>386.0</ele><time>2026-04-26T07:52:02.999Z</time></trkpt><trkpt lat="44.6674167" lon="10.235845"><ele>386.0</ele><time>2026-04-26T07:52:03.999Z</time></trkpt><trkpt lat="44.6674217" lon="10.2359867"><ele>386.20000000000005</ele><time>2026-04-26T07:52:05Z</time></trkpt><trkpt lat="44.66743" lon="10.23612"><ele>386.40000000000003</ele><time>2026-04-26T07:52:05.999Z</time></trkpt><trkpt lat="44.66742" lon="10.2362533"><ele>386.6</ele><time>2026-04-26T07:52:07Z</time></trkpt><trkpt lat="44.6674117" lon="10.2363933"><ele>386.8</ele><time>2026-04-26T07:52:07.999Z</time></trkpt><trkpt lat="44.6674017" lon="10.2365383"><ele>387.0</ele><time>2026-04-26T07:52:08.999Z</time></trkpt><trkpt lat="44.6673967" lon="10.23669"><ele>385.8</ele><time>2026-04-26T07:52:10Z</time></trkpt><trkpt lat="44.6673983" lon="10.23684"><ele>384.6</ele><time>2026-04-26T07:52:10.999Z</time></trkpt><trkpt lat="44.66739" lon="10.2369783"><ele>383.40000000000003</ele><time>2026-04-26T07:52:11.999Z</time></trkpt><trkpt lat="44.6674017" lon="10.2371117"><ele>382.20000000000005</ele><time>2026-04-26T07:52:12.999Z</time></trkpt><trkpt lat="44.6674267" lon="10.2372267"><ele>381.0</ele><time>2026-04-26T07:52:13.999Z</time></trkpt><trkpt lat="44.6674667" lon="10.23734"><ele>380.20000000000005</ele><time>2026-04-26T07:52:14.999Z</time></trkpt><trkpt lat="44.6675233" lon="10.2374533"><ele>379.40000000000003</ele><time>2026-04-26T07:52:15.999Z</time></trkpt><trkpt lat="44.6675733" lon="10.23756"><ele>378.6</ele><time>2026-04-26T07:52:16.999Z</time></trkpt><trkpt lat="44.667625" lon="10.2376683"><ele>377.8</ele><time>2026-04-26T07:52:17.999Z</time></trkpt><trkpt lat="44.6676783" lon="10.2377833"><ele>377.0</ele><time>2026-04-26T07:52:18.999Z</time></trkpt><trkpt lat="44.6677417" lon="10.2378967"><ele>375.20000000000005</ele><time>2026-04-26T07:52:19.999Z</time></trkpt><trkpt lat="44.6677917" lon="10.238015"><ele>373.4</ele><time>2026-04-26T07:52:21Z</time></trkpt><trkpt lat="44.667845" lon="10.2381317"><ele>371.6</ele><time>2026-04-26T07:52:21.999Z</time></trkpt><trkpt lat="44.6679117" lon="10.2382433"><ele>369.79999999999995</ele><time>2026-04-26T07:52:23Z</time></trkpt><trkpt lat="44.6679967" lon="10.2383267"><ele>368.0</ele><time>2026-04-26T07:52:23.999Z</time></trkpt><trkpt lat="44.6680817" lon="10.2384083"><ele>368.0</ele><time>2026-04-26T07:52:24.999Z</time></trkpt><trkpt lat="44.66817" lon="10.2384883"><ele>368.0</ele><time>2026-04-26T07:52:25.999Z</time></trkpt><trkpt lat="44.6682583" lon="10.2385567"><ele>368.0</ele><time>2026-04-26T07:52:26.999Z</time></trkpt><trkpt lat="44.66835" lon="10.2386167"><ele>368.0</ele><time>2026-04-26T07:52:28Z</time></trkpt><trkpt lat="44.6684383" lon="10.2386683"><ele>368.0</ele><time>2026-04-26T07:52:29Z</time></trkpt><trkpt lat="44.6685333" lon="10.2387117"><ele>366.4</ele><time>2026-04-26T07:52:29.999Z</time></trkpt><trkpt lat="44.6686267" lon="10.2387333"><ele>364.79999999999995</ele><time>2026-04-26T07:52:30.999Z</time></trkpt><trkpt lat="44.6687217" lon="10.2387567"><ele>363.2</ele><time>2026-04-26T07:52:31.999Z</time></trkpt><trkpt lat="44.66881" lon="10.2387567"><ele>361.6</ele><time>2026-04-26T07:52:32.999Z</time></trkpt><trkpt lat="44.6689033" lon="10.238755"><ele>360.0</ele><time>2026-04-26T07:52:34Z</time></trkpt><trkpt lat="44.6689967" lon="10.2387517"><ele>360.0</ele><time>2026-04-26T07:52:35Z</time></trkpt><trkpt lat="44.66909" lon="10.23876"><ele>360.0</ele><time>2026-04-26T07:52:35.999Z</time></trkpt><trkpt lat="44.669185" lon="10.2387717"><ele>360.0</ele><time>2026-04-26T07:52:36.999Z</time></trkpt><trkpt lat="44.6692733" lon="10.2388167"><ele>360.0</ele><time>2026-04-26T07:52:38Z</time></trkpt><trkpt lat="44.6693533" lon="10.23887"><ele>360.0</ele><time>2026-04-26T07:52:38.999Z</time></trkpt><trkpt lat="44.66943" lon="10.2389283"><ele>359.6666666666667</ele><time>2026-04-26T07:52:39.999Z</time></trkpt><trkpt lat="44.6695067" lon="10.2389933"><ele>359.3333333333333</ele><time>2026-04-26T07:52:40.999Z</time></trkpt><trkpt lat="44.6695817" lon="10.2390567"><ele>359.0</ele><time>2026-04-26T07:52:42Z</time></trkpt><trkpt lat="44.669655" lon="10.239115"><ele>358.66666666666663</ele><time>2026-04-26T07:52:42.999Z</time></trkpt><trkpt lat="44.6697333" lon="10.2391783"><ele>358.3333333333333</ele><time>2026-04-26T07:52:43.999Z</time></trkpt><trkpt lat="44.66981" lon="10.23924"><ele>358.0</ele><time>2026-04-26T07:52:45Z</time></trkpt><trkpt lat="44.669885" lon="10.2393083"><ele>358.0</ele><time>2026-04-26T07:52:45.999Z</time></trkpt><trkpt lat="44.6699567" lon="10.2393783"><ele>358.0</ele><time>2026-04-26T07:52:46.999Z</time></trkpt><trkpt lat="44.670025" lon="10.239435"><ele>358.0</ele><time>2026-04-26T07:52:47.999Z</time></trkpt><trkpt lat="44.6700933" lon="10.2394767"><ele>358.0</ele><time>2026-04-26T07:52:48.999Z</time></trkpt><trkpt lat="44.670165" lon="10.2394967"><ele>358.0</ele><time>2026-04-26T07:52:49.999Z</time></trkpt><trkpt lat="44.670235" lon="10.23948"><ele>358.0</ele><time>2026-04-26T07:52:51Z</time></trkpt><trkpt lat="44.6702917" lon="10.2394017"><ele>355.3333333333333</ele><time>2026-04-26T07:52:51.999Z</time></trkpt><trkpt lat="44.6703333" lon="10.2393167"><ele>352.66666666666663</ele><time>2026-04-26T07:52:53Z</time></trkpt><trkpt lat="44.67037" lon="10.2392117"><ele>350.0</ele><time>2026-04-26T07:52:54Z</time></trkpt><trkpt lat="44.670385" lon="10.2391"><ele>347.3333333333333</ele><time>2026-04-26T07:52:54.999Z</time></trkpt><trkpt lat="44.6703883" lon="10.23898"><ele>344.6666666666667</ele><time>2026-04-26T07:52:56Z</time></trkpt><trkpt lat="44.6703933" lon="10.2388733"><ele>342.0</ele><time>2026-04-26T07:52:56.999Z</time></trkpt><trkpt lat="44.67038" lon="10.2387467"><ele>340.5</ele><time>2026-04-26T07:52:57.999Z</time></trkpt><trkpt lat="44.6703517" lon="10.23864"><ele>339.0</ele><time>2026-04-26T07:52:58.999Z</time></trkpt><trkpt lat="44.67031" lon="10.238535"><ele>337.5</ele><time>2026-04-26T07:52:59.999Z</time></trkpt><trkpt lat="44.6702467" lon="10.23845"><ele>336.0</ele><time>2026-04-26T07:53:00.999Z</time></trkpt><trkpt lat="44.67018" lon="10.2383783"><ele>334.5</ele><time>2026-04-26T07:53:01.999Z</time></trkpt><trkpt lat="44.6701167" lon="10.2383117"><ele>333.0</ele><time>2026-04-26T07:53:02.999Z</time></trkpt><trkpt lat="44.670055" lon="10.23825"><ele>335.3333333333333</ele><time>2026-04-26T07:53:04Z</time></trkpt><trkpt lat="44.6699917" lon="10.2381967"><ele>337.6666666666667</ele><time>2026-04-26T07:53:04.999Z</time></trkpt><trkpt lat="44.6699167" lon="10.2381467"><ele>340.0</ele><time>2026-04-26T07:53:05.999Z</time></trkpt><trkpt lat="44.6698433" lon="10.2380833"><ele>342.33333333333337</ele><time>2026-04-26T07:53:06.999Z</time></trkpt><trkpt lat="44.6697783" lon="10.2380367"><ele>344.6666666666667</ele><time>2026-04-26T07:53:07.999Z</time></trkpt><trkpt lat="44.66971" lon="10.2379867"><ele>347.0</ele><time>2026-04-26T07:53:08.999Z</time></trkpt><trkpt lat="44.669645" lon="10.2379333"><ele>347.0</ele><time>2026-04-26T07:53:10Z</time></trkpt><trkpt lat="44.6695917" lon="10.237855"><ele>347.0</ele><time>2026-04-26T07:53:10.999Z</time></trkpt><trkpt lat="44.669565" lon="10.2377633"><ele>347.0</ele><time>2026-04-26T07:53:11.999Z</time></trkpt><trkpt lat="44.66956" lon="10.23765"><ele>347.0</ele><time>2026-04-26T07:53:12.999Z</time></trkpt><trkpt lat="44.6695767" lon="10.2375283"><ele>347.0</ele><time>2026-04-26T07:53:13.999Z</time></trkpt><trkpt lat="44.6696183" lon="10.2374133"><ele>347.0</ele><time>2026-04-26T07:53:15Z</time></trkpt><trkpt lat="44.669675" lon="10.2373183"><ele>346.8</ele><time>2026-04-26T07:53:15.999Z</time></trkpt><trkpt lat="44.669735" lon="10.23723"><ele>346.6</ele><time>2026-04-26T07:53:16.999Z</time></trkpt><trkpt lat="44.669805" lon="10.2371283"><ele>346.40000000000003</ele><time>2026-04-26T07:53:17.999Z</time></trkpt><trkpt lat="44.669865" lon="10.2370133"><ele>346.20000000000005</ele><time>2026-04-26T07:53:18.999Z</time></trkpt><trkpt lat="44.6699217" lon="10.2368967"><ele>346.0</ele><time>2026-04-26T07:53:19.999Z</time></trkpt><trkpt lat="44.66998" lon="10.2367833"><ele>346.0</ele><time>2026-04-26T07:53:21Z</time></trkpt><trkpt lat="44.67003" lon="10.2366617"><ele>346.0</ele><time>2026-04-26T07:53:21.999Z</time></trkpt><trkpt lat="44.670075" lon="10.2365367"><ele>346.0</ele><time>2026-04-26T07:53:22.999Z</time></trkpt><trkpt lat="44.6701283" lon="10.236415"><ele>346.0</ele><time>2026-04-26T07:53:23.999Z</time></trkpt><trkpt lat="44.67018" lon="10.236295"><ele>346.0</ele><time>2026-04-26T07:53:24.999Z</time></trkpt><trkpt lat="44.67024" lon="10.23618"><ele>346.0</ele><time>2026-04-26T07:53:25.999Z</time></trkpt><trkpt lat="44.6703067" lon="10.2360717"><ele>346.0</ele><time>2026-04-26T07:53:26.999Z</time></trkpt><trkpt lat="44.6703683" lon="10.2359633"><ele>346.0</ele><time>2026-04-26T07:53:28Z</time></trkpt><trkpt lat="44.6704333" lon="10.2358583"><ele>346.0</ele><time>2026-04-26T07:53:28.999Z</time></trkpt><trkpt lat="44.670495" lon="10.23575"><ele>346.0</ele><time>2026-04-26T07:53:29.999Z</time></trkpt><trkpt lat="44.6705533" lon="10.2356367"><ele>346.0</ele><time>2026-04-26T07:53:30.999Z</time></trkpt><trkpt lat="44.6706067" lon="10.235525"><ele>346.0</ele><time>2026-04-26T07:53:31.999Z</time></trkpt><trkpt lat="44.6706567" lon="10.2354117"><ele>346.0</ele><time>2026-04-26T07:53:32.999Z</time></trkpt><trkpt lat="44.6707017" lon="10.2353033"><ele>346.0</ele><time>2026-04-26T07:53:34Z</time></trkpt><trkpt lat="44.6707533" lon="10.2351933"><ele>346.0</ele><time>2026-04-26T07:53:34.999Z</time></trkpt><trkpt lat="44.6708067" lon="10.2350917"><ele>346.0</ele><time>2026-04-26T07:53:36Z</time></trkpt><trkpt lat="44.67086" lon="10.235015"><ele>346.0</ele><time>2026-04-26T07:53:37Z</time></trkpt><trkpt lat="44.6709183" lon="10.234945"><ele>346.0</ele><time>2026-04-26T07:53:37.999Z</time></trkpt><trkpt lat="44.6709883" lon="10.2348917"><ele>346.0</ele><time>2026-04-26T07:53:38.999Z</time></trkpt><trkpt lat="44.6710583" lon="10.2348533"><ele>346.0</ele><time>2026-04-26T07:53:40Z</time></trkpt><trkpt lat="44.6711283" lon="10.2348133"><ele>346.0</ele><time>2026-04-26T07:53:41Z</time></trkpt><trkpt lat="44.67119" lon="10.2347817"><ele>346.0</ele><time>2026-04-26T07:53:41.999Z</time></trkpt><trkpt lat="44.67125" lon="10.23474"><ele>344.85714285714283</ele><time>2026-04-26T07:53:42.999Z</time></trkpt><trkpt lat="44.6713117" lon="10.2346867"><ele>343.7142857142857</ele><time>2026-04-26T07:53:43.999Z</time></trkpt><trkpt lat="44.671375" lon="10.2346367"><ele>342.57142857142856</ele><time>2026-04-26T07:53:44.999Z</time></trkpt><trkpt lat="44.671435" lon="10.23458"><ele>341.42857142857144</ele><time>2026-04-26T07:53:46Z</time></trkpt><trkpt lat="44.6714917" lon="10.2345217"><ele>340.2857142857143</ele><time>2026-04-26T07:53:46.999Z</time></trkpt><trkpt lat="44.6715483" lon="10.23446"><ele>339.14285714285717</ele><time>2026-04-26T07:53:47.999Z</time></trkpt><trkpt lat="44.6716117" lon="10.2343967"><ele>338.0</ele><time>2026-04-26T07:53:48.999Z</time></trkpt><trkpt lat="44.6716717" lon="10.2343283"><ele>338.0</ele><time>2026-04-26T07:53:49.999Z</time></trkpt><trkpt lat="44.67173" lon="10.2342617"><ele>338.0</ele><time>2026-04-26T07:53:50.999Z</time></trkpt><trkpt lat="44.6717867" lon="10.2341967"><ele>338.0</ele><time>2026-04-26T07:53:51.999Z</time></trkpt><trkpt lat="44.67185" lon="10.2341317"><ele>338.0</ele><time>2026-04-26T07:53:52.999Z</time></trkpt><trkpt lat="44.6719117" lon="10.2340683"><ele>338.0</ele><time>2026-04-26T07:53:53.999Z</time></trkpt><trkpt lat="44.6719967" lon="10.2340283"><ele>338.0</ele><time>2026-04-26T07:53:54.999Z</time></trkpt><trkpt lat="44.67209" lon="10.2339967"><ele>336.59999999999997</ele><time>2026-04-26T07:53:55.999Z</time></trkpt><trkpt lat="44.672175" lon="10.23396"><ele>335.2</ele><time>2026-04-26T07:53:56.999Z</time></trkpt><trkpt lat="44.6722667" lon="10.233915"><ele>333.8</ele><time>2026-04-26T07:53:58Z</time></trkpt><trkpt lat="44.6723367" lon="10.233845"><ele>332.4</ele><time>2026-04-26T07:53:58.999Z</time></trkpt><trkpt lat="44.6724117" lon="10.2337667"><ele>331.0</ele><time>2026-04-26T07:53:59.999Z</time></trkpt><trkpt lat="44.672455" lon="10.233655"><ele>331.0</ele><time>2026-04-26T07:54:00.999Z</time></trkpt><trkpt lat="44.6725067" lon="10.23355"><ele>331.0</ele><time>2026-04-26T07:54:01.999Z</time></trkpt><trkpt lat="44.6725817" lon="10.2334467"><ele>331.0</ele><time>2026-04-26T07:54:02.999Z</time></trkpt><trkpt lat="44.6726583" lon="10.2333433"><ele>331.0</ele><time>2026-04-26T07:54:03.999Z</time></trkpt><trkpt lat="44.6727333" lon="10.23325"><ele>331.0</ele><time>2026-04-26T07:54:04.999Z</time></trkpt><trkpt lat="44.6728183" lon="10.23316"><ele>327.40000000000003</ele><time>2026-04-26T07:54:05.999Z</time></trkpt><trkpt lat="44.672905" lon="10.2330783"><ele>323.8</ele><time>2026-04-26T07:54:06.999Z</time></trkpt><trkpt lat="44.6729917" lon="10.2330033"><ele>320.20000000000005</ele><time>2026-04-26T07:54:08Z</time></trkpt><trkpt lat="44.6730933" lon="10.2329267"><ele>316.6</ele><time>2026-04-26T07:54:08.999Z</time></trkpt><trkpt lat="44.6732017" lon="10.2328467"><ele>313.0</ele><time>2026-04-26T07:54:09.999Z</time></trkpt><trkpt lat="44.67329" lon="10.232745"><ele>313.0</ele><time>2026-04-26T07:54:11Z</time></trkpt><trkpt lat="44.6733917" lon="10.23267"><ele>313.0</ele><time>2026-04-26T07:54:12Z</time></trkpt><trkpt lat="44.6735017" lon="10.2326117"><ele>313.0</ele><time>2026-04-26T07:54:12.999Z</time></trkpt><trkpt lat="44.67362" lon="10.2325683"><ele>313.0</ele><time>2026-04-26T07:54:14Z</time></trkpt><trkpt lat="44.6737333" lon="10.2325633"><ele>312.2</ele><time>2026-04-26T07:54:14.999Z</time></trkpt><trkpt lat="44.67384" lon="10.2325917"><ele>311.4</ele><time>2026-04-26T07:54:16Z</time></trkpt><trkpt lat="44.6739317" lon="10.2326233"><ele>310.59999999999997</ele><time>2026-04-26T07:54:16.999Z</time></trkpt><trkpt lat="44.6740033" lon="10.2326983"><ele>309.8</ele><time>2026-04-26T07:54:17.999Z</time></trkpt><trkpt lat="44.6740417" lon="10.2328317"><ele>309.0</ele><time>2026-04-26T07:54:18.999Z</time></trkpt><trkpt lat="44.6740617" lon="10.2330017"><ele>309.0</ele><time>2026-04-26T07:54:19.999Z</time></trkpt><trkpt lat="44.6740717" lon="10.2331383"><ele>309.0</ele><time>2026-04-26T07:54:20.999Z</time></trkpt><trkpt lat="44.674095" lon="10.2332633"><ele>309.0</ele><time>2026-04-26T07:54:21.999Z</time></trkpt><trkpt lat="44.6741233" lon="10.233365"><ele>309.0</ele><time>2026-04-26T07:54:23Z</time></trkpt><trkpt lat="44.6741633" lon="10.2334633"><ele>309.0</ele><time>2026-04-26T07:54:23.999Z</time></trkpt><trkpt lat="44.6742333" lon="10.2335433"><ele>309.0</ele><time>2026-04-26T07:54:25Z</time></trkpt><trkpt lat="44.67431" lon="10.2335967"><ele>307.2</ele><time>2026-04-26T07:54:25.999Z</time></trkpt><trkpt lat="44.6743983" lon="10.23359"><ele>305.4</ele><time>2026-04-26T07:54:27Z</time></trkpt><trkpt lat="44.6744783" lon="10.2335633"><ele>303.6</ele><time>2026-04-26T07:54:28Z</time></trkpt><trkpt lat="44.6745383" lon="10.2335233"><ele>301.8</ele><time>2026-04-26T07:54:28.999Z</time></trkpt><trkpt lat="44.6744933" lon="10.23331"><ele>300.0</ele><time>2026-04-26T07:54:30.999Z</time></trkpt><trkpt lat="44.6744167" lon="10.23321"><ele>299.1666666666667</ele><time>2026-04-26T07:54:31.999Z</time></trkpt><trkpt lat="44.6744" lon="10.2330833"><ele>298.3333333333333</ele><time>2026-04-26T07:54:32.999Z</time></trkpt><trkpt lat="44.6743883" lon="10.2329667"><ele>297.5</ele><time>2026-04-26T07:54:33.999Z</time></trkpt><trkpt lat="44.67441" lon="10.2328433"><ele>296.66666666666663</ele><time>2026-04-26T07:54:35Z</time></trkpt><trkpt lat="44.6744483" lon="10.232735"><ele>295.8333333333333</ele><time>2026-04-26T07:54:35.999Z</time></trkpt><trkpt lat="44.6745017" lon="10.23263"><ele>295.0</ele><time>2026-04-26T07:54:36.999Z</time></trkpt><trkpt lat="44.6745533" lon="10.2325233"><ele>295.0</ele><time>2026-04-26T07:54:38Z</time></trkpt><trkpt lat="44.6746033" lon="10.2324083"><ele>295.0</ele><time>2026-04-26T07:54:38.999Z</time></trkpt><trkpt lat="44.67467" lon="10.2323017"><ele>295.0</ele><time>2026-04-26T07:54:39.999Z</time></trkpt><trkpt lat="44.67474" lon="10.2322033"><ele>295.0</ele><time>2026-04-26T07:54:40.999Z</time></trkpt><trkpt lat="44.6748183" lon="10.23211"><ele>295.0</ele><time>2026-04-26T07:54:41.999Z</time></trkpt><trkpt lat="44.6748967" lon="10.23202"><ele>295.8</ele><time>2026-04-26T07:54:43Z</time></trkpt><trkpt lat="44.6749817" lon="10.2319417"><ele>296.6</ele><time>2026-04-26T07:54:44Z</time></trkpt><trkpt lat="44.6750767" lon="10.2318583"><ele>297.4</ele><time>2026-04-26T07:54:44.999Z</time></trkpt><trkpt lat="44.6751733" lon="10.2317883"><ele>298.2</ele><time>2026-04-26T07:54:45.999Z</time></trkpt><trkpt lat="44.67528" lon="10.2317167"><ele>299.0</ele><time>2026-04-26T07:54:46.999Z</time></trkpt><trkpt lat="44.6753733" lon="10.2316433"><ele>297.0</ele><time>2026-04-26T07:54:47.999Z</time></trkpt><trkpt lat="44.67547" lon="10.231575"><ele>295.0</ele><time>2026-04-26T07:54:48.999Z</time></trkpt><trkpt lat="44.6755633" lon="10.2315217"><ele>293.0</ele><time>2026-04-26T07:54:49.999Z</time></trkpt><trkpt lat="44.67565" lon="10.23145"><ele>291.0</ele><time>2026-04-26T07:54:50.999Z</time></trkpt><trkpt lat="44.6757317" lon="10.2313733"><ele>289.0</ele><time>2026-04-26T07:54:51.999Z</time></trkpt><trkpt lat="44.6757917" lon="10.231275"><ele>289.0</ele><time>2026-04-26T07:54:52.999Z</time></trkpt><trkpt lat="44.6758183" lon="10.23116"><ele>289.0</ele><time>2026-04-26T07:54:53.999Z</time></trkpt><trkpt lat="44.675835" lon="10.23103"><ele>289.0</ele><time>2026-04-26T07:54:54.999Z</time></trkpt><trkpt lat="44.675845" lon="10.2308967"><ele>289.0</ele><time>2026-04-26T07:54:56Z</time></trkpt><trkpt lat="44.6758467" lon="10.2307467"><ele>289.0</ele><time>2026-04-26T07:54:56.999Z</time></trkpt><trkpt lat="44.67584" lon="10.230605"><ele>288.2</ele><time>2026-04-26T07:54:57.999Z</time></trkpt><trkpt lat="44.6758283" lon="10.2304683"><ele>287.4</ele><time>2026-04-26T07:54:58.999Z</time></trkpt><trkpt lat="44.675815" lon="10.230335"><ele>286.6</ele><time>2026-04-26T07:55:00Z</time></trkpt><trkpt lat="44.675815" lon="10.2302017"><ele>285.8</ele><time>2026-04-26T07:55:00.999Z</time></trkpt><trkpt lat="44.6758383" lon="10.2300683"><ele>285.0</ele><time>2026-04-26T07:55:02Z</time></trkpt><trkpt lat="44.6758933" lon="10.229945"><ele>285.0</ele><time>2026-04-26T07:55:02.999Z</time></trkpt><trkpt lat="44.6759667" lon="10.2298483"><ele>285.0</ele><time>2026-04-26T07:55:03.999Z</time></trkpt><trkpt lat="44.6760517" lon="10.2297767"><ele>285.0</ele><time>2026-04-26T07:55:04.999Z</time></trkpt><trkpt lat="44.6761517" lon="10.2297233"><ele>285.0</ele><time>2026-04-26T07:55:05.998Z</time></trkpt><trkpt lat="44.6762517" lon="10.2296883"><ele>285.0</ele><time>2026-04-26T07:55:06.998Z</time></trkpt><trkpt lat="44.676355" lon="10.2296733"><ele>284.2</ele><time>2026-04-26T07:55:07.998Z</time></trkpt><trkpt lat="44.6764533" lon="10.2296733"><ele>283.4</ele><time>2026-04-26T07:55:08.998Z</time></trkpt><trkpt lat="44.6765517" lon="10.2297067"><ele>282.6</ele><time>2026-04-26T07:55:09.998Z</time></trkpt><trkpt lat="44.67664" lon="10.2297583"><ele>281.8</ele><time>2026-04-26T07:55:10.998Z</time></trkpt><trkpt lat="44.6767183" lon="10.22983"><ele>281.0</ele><time>2026-04-26T07:55:11.998Z</time></trkpt><trkpt lat="44.6767933" lon="10.2299133"><ele>281.0</ele><time>2026-04-26T07:55:12.998Z</time></trkpt><trkpt lat="44.6768617" lon="10.229995"><ele>281.0</ele><time>2026-04-26T07:55:13.998Z</time></trkpt><trkpt lat="44.676925" lon="10.230085"><ele>281.0</ele><time>2026-04-26T07:55:14.998Z</time></trkpt><trkpt lat="44.67699" lon="10.2301767"><ele>281.0</ele><time>2026-04-26T07:55:15.998Z</time></trkpt><trkpt lat="44.6770583" lon="10.2302733"><ele>281.0</ele><time>2026-04-26T07:55:16.998Z</time></trkpt><trkpt lat="44.6771267" lon="10.230365"><ele>279.6</ele><time>2026-04-26T07:55:17.998Z</time></trkpt><trkpt lat="44.6771917" lon="10.2304533"><ele>278.20000000000005</ele><time>2026-04-26T07:55:18.998Z</time></trkpt><trkpt lat="44.6772583" lon="10.2305383"><ele>276.79999999999995</ele><time>2026-04-26T07:55:19.998Z</time></trkpt><trkpt lat="44.6773317" lon="10.23062"><ele>275.4</ele><time>2026-04-26T07:55:20.998Z</time></trkpt><trkpt lat="44.677405" lon="10.2306917"><ele>274.0</ele><time>2026-04-26T07:55:21.998Z</time></trkpt><trkpt lat="44.67748" lon="10.2307667"><ele>274.0</ele><time>2026-04-26T07:55:22.998Z</time></trkpt><trkpt lat="44.677555" lon="10.2308517"><ele>274.0</ele><time>2026-04-26T07:55:23.998Z</time></trkpt><trkpt lat="44.67763" lon="10.23094"><ele>274.0</ele><time>2026-04-26T07:55:24.998Z</time></trkpt><trkpt lat="44.6777033" lon="10.2310283"><ele>274.0</ele><time>2026-04-26T07:55:25.998Z</time></trkpt><trkpt lat="44.677765" lon="10.2311133"><ele>274.0</ele><time>2026-04-26T07:55:26.998Z</time></trkpt><trkpt lat="44.6778233" lon="10.2312017"><ele>274.0</ele><time>2026-04-26T07:55:27.999Z</time></trkpt><trkpt lat="44.6778767" lon="10.2313083"><ele>274.0</ele><time>2026-04-26T07:55:28.998Z</time></trkpt><trkpt lat="44.6779217" lon="10.2313967"><ele>274.0</ele><time>2026-04-26T07:55:29.998Z</time></trkpt><trkpt lat="44.6779683" lon="10.2314817"><ele>274.0</ele><time>2026-04-26T07:55:30.998Z</time></trkpt><trkpt lat="44.6780167" lon="10.231565"><ele>274.0</ele><time>2026-04-26T07:55:31.998Z</time></trkpt><trkpt lat="44.6780633" lon="10.2316533"><ele>274.0</ele><time>2026-04-26T07:55:32.998Z</time></trkpt><trkpt lat="44.67811" lon="10.2317417"><ele>274.00000000000006</ele><time>2026-04-26T07:55:33.998Z</time></trkpt><trkpt lat="44.678155" lon="10.23181"><ele>274.0</ele><time>2026-04-26T07:55:34.998Z</time></trkpt><trkpt lat="44.6782083" lon="10.2318583"><ele>274.0</ele><time>2026-04-26T07:55:35.998Z</time></trkpt><trkpt lat="44.67827" lon="10.2319067"><ele>274.0</ele><time>2026-04-26T07:55:36.998Z</time></trkpt><trkpt lat="44.678345" lon="10.2319367"><ele>274.0</ele><time>2026-04-26T07:55:37.998Z</time></trkpt><trkpt lat="44.6784117" lon="10.2319617"><ele>274.00000000000006</ele><time>2026-04-26T07:55:38.998Z</time></trkpt><trkpt lat="44.6784767" lon="10.231985"><ele>274.0</ele><time>2026-04-26T07:55:39.999Z</time></trkpt><trkpt lat="44.6785383" lon="10.2320067"><ele>274.3333333333333</ele><time>2026-04-26T07:55:40.998Z</time></trkpt><trkpt lat="44.6786033" lon="10.23205"><ele>274.66666666666663</ele><time>2026-04-26T07:55:41.998Z</time></trkpt><trkpt lat="44.6786667" lon="10.2320917"><ele>275.0</ele><time>2026-04-26T07:55:42.998Z</time></trkpt><trkpt lat="44.67873" lon="10.2321333"><ele>275.3333333333333</ele><time>2026-04-26T07:55:43.998Z</time></trkpt><trkpt lat="44.678835" lon="10.2322167"><ele>275.6666666666667</ele><time>2026-04-26T07:55:45.999Z</time></trkpt><trkpt lat="44.6788883" lon="10.2322667"><ele>276.0</ele><time>2026-04-26T07:55:46.998Z</time></trkpt><trkpt lat="44.67894" lon="10.2323183"><ele>276.0</ele><time>2026-04-26T07:55:47.998Z</time></trkpt><trkpt lat="44.679035" lon="10.23242"><ele>276.0</ele><time>2026-04-26T07:55:49.999Z</time></trkpt><trkpt lat="44.6791233" lon="10.2325383"><ele>276.0</ele><time>2026-04-26T07:55:51.998Z</time></trkpt><trkpt lat="44.6792117" lon="10.2326617"><ele>276.0</ele><time>2026-04-26T07:55:53.998Z</time></trkpt><trkpt lat="44.6792983" lon="10.2327683"><ele>276.0</ele><time>2026-04-26T07:55:55.999Z</time></trkpt><trkpt lat="44.6793767" lon="10.2328867"><ele>276.0</ele><time>2026-04-26T07:55:57.999Z</time></trkpt><trkpt lat="44.6794533" lon="10.23298"><ele>276.0</ele><time>2026-04-26T07:55:59.998Z</time></trkpt><trkpt lat="44.6795283" lon="10.233075"><ele>276.0</ele><time>2026-04-26T07:56:01.998Z</time></trkpt><trkpt lat="44.6796067" lon="10.2331467"><ele>276.0</ele><time>2026-04-26T07:56:03.998Z</time></trkpt><trkpt lat="44.679695" lon="10.2332367"><ele>275.5</ele><time>2026-04-26T07:56:05.998Z</time></trkpt><trkpt lat="44.6798017" lon="10.233325"><ele>275.0</ele><time>2026-04-26T07:56:07.999Z</time></trkpt><trkpt lat="44.67986" lon="10.2333733"><ele>274.5</ele><time>2026-04-26T07:56:08.998Z</time></trkpt><trkpt lat="44.679925" lon="10.23343"><ele>274.0</ele><time>2026-04-26T07:56:09.998Z</time></trkpt><trkpt lat="44.679985" lon="10.2334833"><ele>273.5</ele><time>2026-04-26T07:56:10.998Z</time></trkpt><trkpt lat="44.6800417" lon="10.2335317"><ele>273.0</ele><time>2026-04-26T07:56:11.999Z</time></trkpt><trkpt lat="44.6800983" lon="10.2335817"><ele>273.0</ele><time>2026-04-26T07:56:12.998Z</time></trkpt><trkpt lat="44.6801567" lon="10.233635"><ele>273.0</ele><time>2026-04-26T07:56:13.999Z</time></trkpt><trkpt lat="44.6802183" lon="10.2336767"><ele>273.0</ele><time>2026-04-26T07:56:14.998Z</time></trkpt><trkpt lat="44.6803233" lon="10.233765"><ele>273.0</ele><time>2026-04-26T07:56:16.998Z</time></trkpt><trkpt lat="44.6804317" lon="10.23385"><ele>273.0</ele><time>2026-04-26T07:56:18.998Z</time></trkpt><trkpt lat="44.680545" lon="10.233915"><ele>272.1666666666667</ele><time>2026-04-26T07:56:20.999Z</time></trkpt><trkpt lat="44.68061" lon="10.2339533"><ele>271.3333333333333</ele><time>2026-04-26T07:56:21.998Z</time></trkpt><trkpt lat="44.6806767" lon="10.2339917"><ele>270.5</ele><time>2026-04-26T07:56:22.998Z</time></trkpt><trkpt lat="44.6807467" lon="10.2340317"><ele>269.66666666666663</ele><time>2026-04-26T07:56:23.998Z</time></trkpt><trkpt lat="44.6808233" lon="10.2340733"><ele>268.8333333333333</ele><time>2026-04-26T07:56:24.998Z</time></trkpt><trkpt lat="44.6808983" lon="10.2341117"><ele>268.0</ele><time>2026-04-26T07:56:25.998Z</time></trkpt><trkpt lat="44.6809767" lon="10.2341533"><ele>268.0</ele><time>2026-04-26T07:56:26.999Z</time></trkpt><trkpt lat="44.6810583" lon="10.2342017"><ele>268.0</ele><time>2026-04-26T07:56:27.998Z</time></trkpt><trkpt lat="44.6811383" lon="10.2342567"><ele>268.0</ele><time>2026-04-26T07:56:28.998Z</time></trkpt><trkpt lat="44.6812183" lon="10.234315"><ele>268.0</ele><time>2026-04-26T07:56:29.998Z</time></trkpt><trkpt lat="44.681305" lon="10.2343767"><ele>268.0</ele><time>2026-04-26T07:56:30.998Z</time></trkpt><trkpt lat="44.6813867" lon="10.23443"><ele>266.5</ele><time>2026-04-26T07:56:31.998Z</time></trkpt><trkpt lat="44.68147" lon="10.2344867"><ele>265.0</ele><time>2026-04-26T07:56:32.998Z</time></trkpt><trkpt lat="44.6815483" lon="10.2345533"><ele>263.5</ele><time>2026-04-26T07:56:33.998Z</time></trkpt><trkpt lat="44.6816267" lon="10.234605"><ele>262.0</ele><time>2026-04-26T07:56:34.998Z</time></trkpt><trkpt lat="44.6817017" lon="10.2346533"><ele>260.5</ele><time>2026-04-26T07:56:35.998Z</time></trkpt><trkpt lat="44.6817783" lon="10.2347"><ele>259.0</ele><time>2026-04-26T07:56:36.999Z</time></trkpt><trkpt lat="44.6818483" lon="10.2347467"><ele>259.0</ele><time>2026-04-26T07:56:37.998Z</time></trkpt><trkpt lat="44.68192" lon="10.2347967"><ele>259.0</ele><time>2026-04-26T07:56:38.999Z</time></trkpt><trkpt lat="44.6819867" lon="10.2348533"><ele>259.0</ele><time>2026-04-26T07:56:39.999Z</time></trkpt><trkpt lat="44.6820517" lon="10.23491"><ele>259.0</ele><time>2026-04-26T07:56:40.999Z</time></trkpt><trkpt lat="44.68212" lon="10.2349633"><ele>259.0</ele><time>2026-04-26T07:56:41.998Z</time></trkpt><trkpt lat="44.6821817" lon="10.2350133"><ele>259.0</ele><time>2026-04-26T07:56:42.998Z</time></trkpt><trkpt lat="44.6822383" lon="10.235065"><ele>259.5</ele><time>2026-04-26T07:56:43.998Z</time></trkpt><trkpt lat="44.6823017" lon="10.2351283"><ele>260.0</ele><time>2026-04-26T07:56:44.998Z</time></trkpt><trkpt lat="44.682365" lon="10.23519"><ele>260.5</ele><time>2026-04-26T07:56:45.998Z</time></trkpt><trkpt lat="44.6824283" lon="10.235255"><ele>261.0</ele><time>2026-04-26T07:56:46.998Z</time></trkpt><trkpt lat="44.6824883" lon="10.235315"><ele>261.5</ele><time>2026-04-26T07:56:47.998Z</time></trkpt><trkpt lat="44.68255" lon="10.235385"><ele>262.0</ele><time>2026-04-26T07:56:48.998Z</time></trkpt><trkpt lat="44.6826133" lon="10.2354583"><ele>262.0</ele><time>2026-04-26T07:56:49.999Z</time></trkpt><trkpt lat="44.6826733" lon="10.2355333"><ele>262.0</ele><time>2026-04-26T07:56:50.998Z</time></trkpt><trkpt lat="44.6827367" lon="10.2356017"><ele>262.0</ele><time>2026-04-26T07:56:51.998Z</time></trkpt><trkpt lat="44.6828017" lon="10.2356767"><ele>262.0</ele><time>2026-04-26T07:56:52.998Z</time></trkpt><trkpt lat="44.68286" lon="10.2357383"><ele>262.0</ele><time>2026-04-26T07:56:53.998Z</time></trkpt><trkpt lat="44.6829183" lon="10.235805"><ele>262.0</ele><time>2026-04-26T07:56:54.998Z</time></trkpt><trkpt lat="44.6829767" lon="10.2358633"><ele>263.0</ele><time>2026-04-26T07:56:55.998Z</time></trkpt><trkpt lat="44.6830383" lon="10.235915"><ele>264.0</ele><time>2026-04-26T07:56:56.998Z</time></trkpt><trkpt lat="44.683105" lon="10.235945"><ele>265.0</ele><time>2026-04-26T07:56:57.999Z</time></trkpt><trkpt lat="44.6831683" lon="10.23596"><ele>266.0</ele><time>2026-04-26T07:56:58.999Z</time></trkpt><trkpt lat="44.6832367" lon="10.235955"><ele>267.0</ele><time>2026-04-26T07:56:59.998Z</time></trkpt><trkpt lat="44.683315" lon="10.2359233"><ele>268.0</ele><time>2026-04-26T07:57:00.998Z</time></trkpt><trkpt lat="44.683385" lon="10.2358833"><ele>269.0</ele><time>2026-04-26T07:57:01.998Z</time></trkpt><trkpt lat="44.683455" lon="10.2358333"><ele>269.0</ele><time>2026-04-26T07:57:02.998Z</time></trkpt><trkpt lat="44.6835267" lon="10.2357817"><ele>269.0</ele><time>2026-04-26T07:57:03.999Z</time></trkpt><trkpt lat="44.683605" lon="10.2357217"><ele>269.0</ele><time>2026-04-26T07:57:04.999Z</time></trkpt><trkpt lat="44.6836883" lon="10.2356567"><ele>269.0</ele><time>2026-04-26T07:57:05.998Z</time></trkpt><trkpt lat="44.6837767" lon="10.2355833"><ele>269.0</ele><time>2026-04-26T07:57:06.998Z</time></trkpt><trkpt lat="44.6838633" lon="10.2355"><ele>265.0</ele><time>2026-04-26T07:57:07.998Z</time></trkpt><trkpt lat="44.6839483" lon="10.2354333"><ele>261.0</ele><time>2026-04-26T07:57:08.999Z</time></trkpt><trkpt lat="44.6840217" lon="10.235375"><ele>257.0</ele><time>2026-04-26T07:57:09.998Z</time></trkpt><trkpt lat="44.6840883" lon="10.235325"><ele>253.0</ele><time>2026-04-26T07:57:10.998Z</time></trkpt><trkpt lat="44.6841717" lon="10.2352067"><ele>249.0</ele><time>2026-04-26T07:57:12.998Z</time></trkpt><trkpt lat="44.684105" lon="10.235115"><ele>249.0</ele><time>2026-04-26T07:57:14.998Z</time></trkpt><trkpt lat="44.6840417" lon="10.2351033"><ele>249.0</ele><time>2026-04-26T07:57:15.999Z</time></trkpt><trkpt lat="44.6839633" lon="10.235105"><ele>249.0</ele><time>2026-04-26T07:57:16.998Z</time></trkpt><trkpt lat="44.683865" lon="10.23515"><ele>249.0</ele><time>2026-04-26T07:57:17.998Z</time></trkpt><trkpt lat="44.6837733" lon="10.235195"><ele>249.0</ele><time>2026-04-26T07:57:18.998Z</time></trkpt><trkpt lat="44.6836933" lon="10.2352433"><ele>249.0</ele><time>2026-04-26T07:57:19.999Z</time></trkpt><trkpt lat="44.6836083" lon="10.2352733"><ele>249.0</ele><time>2026-04-26T07:57:20.998Z</time></trkpt><trkpt lat="44.68353" lon="10.2352733"><ele>248.99999999999997</ele><time>2026-04-26T07:57:21.999Z</time></trkpt><trkpt lat="44.6834583" lon="10.2352633"><ele>248.99999999999997</ele><time>2026-04-26T07:57:22.998Z</time></trkpt><trkpt lat="44.6833967" lon="10.2351617"><ele>249.0</ele><time>2026-04-26T07:57:24.998Z</time></trkpt><trkpt lat="44.6835267" lon="10.2350483"><ele>249.0</ele><time>2026-04-26T07:57:26.998Z</time></trkpt><trkpt lat="44.6836233" lon="10.2350067"><ele>249.0</ele><time>2026-04-26T07:57:27.998Z</time></trkpt><trkpt lat="44.683715" lon="10.2349683"><ele>248.99999999999997</ele><time>2026-04-26T07:57:28.998Z</time></trkpt><trkpt lat="44.6838017" lon="10.2349233"><ele>248.99999999999997</ele><time>2026-04-26T07:57:29.998Z</time></trkpt><trkpt lat="44.6838917" lon="10.2348767"><ele>249.0</ele><time>2026-04-26T07:57:30.999Z</time></trkpt><trkpt lat="44.6839817" lon="10.234835"><ele>249.0</ele><time>2026-04-26T07:57:31.998Z</time></trkpt><trkpt lat="44.68408" lon="10.2347917"><ele>244.79999999999998</ele><time>2026-04-26T07:57:32.999Z</time></trkpt><trkpt lat="44.6841883" lon="10.2347567"><ele>240.59999999999997</ele><time>2026-04-26T07:57:33.999Z</time></trkpt><trkpt lat="44.6842983" lon="10.23472"><ele>236.4</ele><time>2026-04-26T07:57:34.998Z</time></trkpt><trkpt lat="44.6843983" lon="10.234675"><ele>232.2</ele><time>2026-04-26T07:57:35.998Z</time></trkpt><trkpt lat="44.6845" lon="10.2346383"><ele>228.0</ele><time>2026-04-26T07:57:36.999Z</time></trkpt><trkpt lat="44.6846083" lon="10.2345917"><ele>226.5</ele><time>2026-04-26T07:57:37.998Z</time></trkpt><trkpt lat="44.6847267" lon="10.2345567"><ele>225.0</ele><time>2026-04-26T07:57:38.998Z</time></trkpt><trkpt lat="44.6848467" lon="10.2345283"><ele>223.5</ele><time>2026-04-26T07:57:39.999Z</time></trkpt><trkpt lat="44.684965" lon="10.2345617"><ele>222.0</ele><time>2026-04-26T07:57:40.999Z</time></trkpt><trkpt lat="44.6850917" lon="10.2346083"><ele>222.0</ele><time>2026-04-26T07:57:41.998Z</time></trkpt><trkpt lat="44.6852183" lon="10.2346683"><ele>222.0</ele><time>2026-04-26T07:57:42.998Z</time></trkpt><trkpt lat="44.6853333" lon="10.2347233"><ele>222.0</ele><time>2026-04-26T07:57:43.998Z</time></trkpt><trkpt lat="44.68545" lon="10.2347833"><ele>222.0</ele><time>2026-04-26T07:57:44.998Z</time></trkpt><trkpt lat="44.6855717" lon="10.2348333"><ele>223.75</ele><time>2026-04-26T07:57:45.998Z</time></trkpt><trkpt lat="44.68569" lon="10.2348883"><ele>225.5</ele><time>2026-04-26T07:57:46.999Z</time></trkpt><trkpt lat="44.68581" lon="10.2349433"><ele>227.25</ele><time>2026-04-26T07:57:47.999Z</time></trkpt><trkpt lat="44.6859233" lon="10.2350167"><ele>229.0</ele><time>2026-04-26T07:57:48.998Z</time></trkpt><trkpt lat="44.6860467" lon="10.235065"><ele>224.75</ele><time>2026-04-26T07:57:49.998Z</time></trkpt><trkpt lat="44.6861533" lon="10.2351367"><ele>220.5</ele><time>2026-04-26T07:57:50.998Z</time></trkpt><trkpt lat="44.68625" lon="10.2352233"><ele>216.25</ele><time>2026-04-26T07:57:51.998Z</time></trkpt><trkpt lat="44.6863483" lon="10.23532"><ele>212.0</ele><time>2026-04-26T07:57:52.998Z</time></trkpt><trkpt lat="44.686435" lon="10.2354267"><ele>212.0</ele><time>2026-04-26T07:57:53.999Z</time></trkpt><trkpt lat="44.6865317" lon="10.23554"><ele>212.0</ele><time>2026-04-26T07:57:54.998Z</time></trkpt><trkpt lat="44.6866233" lon="10.2356317"><ele>212.0</ele><time>2026-04-26T07:57:55.998Z</time></trkpt><trkpt lat="44.6867067" lon="10.2357167"><ele>212.0</ele><time>2026-04-26T07:57:56.998Z</time></trkpt><trkpt lat="44.68681" lon="10.2358017"><ele>211.6</ele><time>2026-04-26T07:57:57.998Z</time></trkpt><trkpt lat="44.6869033" lon="10.2358833"><ele>211.2</ele><time>2026-04-26T07:57:58.998Z</time></trkpt><trkpt lat="44.686985" lon="10.2359583"><ele>210.8</ele><time>2026-04-26T07:57:59.998Z</time></trkpt><trkpt lat="44.68706" lon="10.2360317"><ele>210.4</ele><time>2026-04-26T07:58:00.998Z</time></trkpt><trkpt lat="44.68714" lon="10.236095"><ele>210.0</ele><time>2026-04-26T07:58:01.998Z</time></trkpt><trkpt lat="44.6872217" lon="10.236155"><ele>210.0</ele><time>2026-04-26T07:58:02.998Z</time></trkpt><trkpt lat="44.687305" lon="10.2362233"><ele>210.0</ele><time>2026-04-26T07:58:03.998Z</time></trkpt><trkpt lat="44.6873917" lon="10.23628"><ele>210.0</ele><time>2026-04-26T07:58:04.998Z</time></trkpt><trkpt lat="44.6874767" lon="10.2363283"><ele>210.0</ele><time>2026-04-26T07:58:05.999Z</time></trkpt><trkpt lat="44.6875683" lon="10.236375"><ele>210.0</ele><time>2026-04-26T07:58:06.998Z</time></trkpt><trkpt lat="44.6876583" lon="10.23642"><ele>210.0</ele><time>2026-04-26T07:58:07.999Z</time></trkpt><trkpt lat="44.6877433" lon="10.236465"><ele>210.0</ele><time>2026-04-26T07:58:08.998Z</time></trkpt><trkpt lat="44.6878267" lon="10.2365133"><ele>210.0</ele><time>2026-04-26T07:58:09.998Z</time></trkpt><trkpt lat="44.6879217" lon="10.2365667"><ele>210.0</ele><time>2026-04-26T07:58:10.998Z</time></trkpt><trkpt lat="44.6880167" lon="10.2366267"><ele>210.0</ele><time>2026-04-26T07:58:11.998Z</time></trkpt><trkpt lat="44.68811" lon="10.236685"><ele>209.6</ele><time>2026-04-26T07:58:12.998Z</time></trkpt><trkpt lat="44.6882033" lon="10.2367483"><ele>209.2</ele><time>2026-04-26T07:58:13.998Z</time></trkpt><trkpt lat="44.6883" lon="10.2367983"><ele>208.8</ele><time>2026-04-26T07:58:14.998Z</time></trkpt><trkpt lat="44.6883933" lon="10.2368933"><ele>208.4</ele><time>2026-04-26T07:58:15.998Z</time></trkpt><trkpt lat="44.6884883" lon="10.236975"><ele>208.0</ele><time>2026-04-26T07:58:16.998Z</time></trkpt><trkpt lat="44.6885717" lon="10.237065"><ele>208.0</ele><time>2026-04-26T07:58:17.998Z</time></trkpt><trkpt lat="44.6886567" lon="10.2371467"><ele>208.0</ele><time>2026-04-26T07:58:18.999Z</time></trkpt><trkpt lat="44.6887383" lon="10.2372233"><ele>208.0</ele><time>2026-04-26T07:58:19.998Z</time></trkpt><trkpt lat="44.6888117" lon="10.2373017"><ele>208.0</ele><time>2026-04-26T07:58:20.998Z</time></trkpt><trkpt lat="44.6888833" lon="10.2373717"><ele>208.0</ele><time>2026-04-26T07:58:21.998Z</time></trkpt><trkpt lat="44.688955" lon="10.23744"><ele>208.0</ele><time>2026-04-26T07:58:22.999Z</time></trkpt><trkpt lat="44.6890283" lon="10.2375283"><ele>208.0</ele><time>2026-04-26T07:58:23.998Z</time></trkpt><trkpt lat="44.689105" lon="10.23762"><ele>208.0</ele><time>2026-04-26T07:58:24.998Z</time></trkpt><trkpt lat="44.68918" lon="10.2377017"><ele>208.0</ele><time>2026-04-26T07:58:25.998Z</time></trkpt><trkpt lat="44.689255" lon="10.2377867"><ele>208.0</ele><time>2026-04-26T07:58:26.998Z</time></trkpt><trkpt lat="44.6893267" lon="10.2378683"><ele>208.0</ele><time>2026-04-26T07:58:27.998Z</time></trkpt><trkpt lat="44.68939" lon="10.2379633"><ele>208.0</ele><time>2026-04-26T07:58:28.998Z</time></trkpt><trkpt lat="44.689455" lon="10.2380467"><ele>208.0</ele><time>2026-04-26T07:58:29.998Z</time></trkpt><trkpt lat="44.6895117" lon="10.2381467"><ele>208.0</ele><time>2026-04-26T07:58:30.998Z</time></trkpt><trkpt lat="44.6895667" lon="10.2382583"><ele>208.0</ele><time>2026-04-26T07:58:31.998Z</time></trkpt><trkpt lat="44.6896183" lon="10.238365"><ele>207.83333333333331</ele><time>2026-04-26T07:58:32.998Z</time></trkpt><trkpt lat="44.68967" lon="10.23847"><ele>207.66666666666666</ele><time>2026-04-26T07:58:33.999Z</time></trkpt><trkpt lat="44.6897167" lon="10.2385683"><ele>207.5</ele><time>2026-04-26T07:58:34.998Z</time></trkpt><trkpt lat="44.689765" lon="10.2386717"><ele>207.33333333333331</ele><time>2026-04-26T07:58:35.999Z</time></trkpt><trkpt lat="44.6898117" lon="10.2387667"><ele>207.16666666666666</ele><time>2026-04-26T07:58:36.998Z</time></trkpt><trkpt lat="44.6898583" lon="10.238875"><ele>207.0</ele><time>2026-04-26T07:58:37.998Z</time></trkpt><trkpt lat="44.6899083" lon="10.2389867"><ele>207.0</ele><time>2026-04-26T07:58:38.998Z</time></trkpt><trkpt lat="44.6899567" lon="10.2390967"><ele>207.0</ele><time>2026-04-26T07:58:39.999Z</time></trkpt><trkpt lat="44.6900083" lon="10.2392017"><ele>207.0</ele><time>2026-04-26T07:58:40.999Z</time></trkpt><trkpt lat="44.6900517" lon="10.2393067"><ele>207.0</ele><time>2026-04-26T07:58:41.998Z</time></trkpt><trkpt lat="44.6901017" lon="10.2394067"><ele>207.0</ele><time>2026-04-26T07:58:42.998Z</time></trkpt><trkpt lat="44.6901483" lon="10.2395067"><ele>207.0</ele><time>2026-04-26T07:58:43.999Z</time></trkpt><trkpt lat="44.69019" lon="10.2396033"><ele>207.0</ele><time>2026-04-26T07:58:44.999Z</time></trkpt><trkpt lat="44.6902333" lon="10.2397"><ele>207.0</ele><time>2026-04-26T07:58:45.998Z</time></trkpt><trkpt lat="44.69028" lon="10.2397983"><ele>207.0</ele><time>2026-04-26T07:58:46.998Z</time></trkpt><trkpt lat="44.6903233" lon="10.2398833"><ele>207.0</ele><time>2026-04-26T07:58:47.999Z</time></trkpt><trkpt lat="44.690365" lon="10.2399767"><ele>207.0</ele><time>2026-04-26T07:58:48.998Z</time></trkpt><trkpt lat="44.6904033" lon="10.2400683"><ele>207.0</ele><time>2026-04-26T07:58:49.999Z</time></trkpt><trkpt lat="44.69046" lon="10.2401417"><ele>207.0</ele><time>2026-04-26T07:58:50.999Z</time></trkpt><trkpt lat="44.6905183" lon="10.2402283"><ele>207.0</ele><time>2026-04-26T07:58:51.998Z</time></trkpt><trkpt lat="44.69057" lon="10.2403233"><ele>207.0</ele><time>2026-04-26T07:58:52.998Z</time></trkpt><trkpt lat="44.6906217" lon="10.2404167"><ele>207.0</ele><time>2026-04-26T07:58:53.998Z</time></trkpt><trkpt lat="44.6906633" lon="10.2405"><ele>207.0</ele><time>2026-04-26T07:58:54.998Z</time></trkpt><trkpt lat="44.6907083" lon="10.2405733"><ele>207.0</ele><time>2026-04-26T07:58:55.998Z</time></trkpt><trkpt lat="44.6907633" lon="10.2406483"><ele>207.0</ele><time>2026-04-26T07:58:56.998Z</time></trkpt><trkpt lat="44.6908317" lon="10.2407233"><ele>207.0</ele><time>2026-04-26T07:58:57.998Z</time></trkpt><trkpt lat="44.6909017" lon="10.24079"><ele>207.0</ele><time>2026-04-26T07:58:58.999Z</time></trkpt><trkpt lat="44.6909833" lon="10.24086"><ele>207.0</ele><time>2026-04-26T07:58:59.998Z</time></trkpt><trkpt lat="44.691065" lon="10.2409283"><ele>207.0</ele><time>2026-04-26T07:59:00.999Z</time></trkpt><trkpt lat="44.6911517" lon="10.240985"><ele>205.0</ele><time>2026-04-26T07:59:01.998Z</time></trkpt><trkpt lat="44.6912383" lon="10.2410567"><ele>203.0</ele><time>2026-04-26T07:59:02.998Z</time></trkpt><trkpt lat="44.6913233" lon="10.2411117"><ele>201.0</ele><time>2026-04-26T07:59:03.998Z</time></trkpt><trkpt lat="44.691405" lon="10.241145"><ele>199.0</ele><time>2026-04-26T07:59:04.998Z</time></trkpt><trkpt lat="44.6914883" lon="10.2411833"><ele>197.0</ele><time>2026-04-26T07:59:05.998Z</time></trkpt><trkpt lat="44.691565" lon="10.2412183"><ele>195.0</ele><time>2026-04-26T07:59:06.998Z</time></trkpt><trkpt lat="44.6916433" lon="10.2412633"><ele>195.0</ele><time>2026-04-26T07:59:07.998Z</time></trkpt><trkpt lat="44.691725" lon="10.241295"><ele>195.0</ele><time>2026-04-26T07:59:08.998Z</time></trkpt><trkpt lat="44.6918" lon="10.2413283"><ele>195.0</ele><time>2026-04-26T07:59:09.998Z</time></trkpt><trkpt lat="44.69187" lon="10.241355"><ele>195.0</ele><time>2026-04-26T07:59:10.999Z</time></trkpt><trkpt lat="44.6919417" lon="10.2413733"><ele>195.0</ele><time>2026-04-26T07:59:11.998Z</time></trkpt><trkpt lat="44.6920717" lon="10.2414383"><ele>195.0</ele><time>2026-04-26T07:59:13.998Z</time></trkpt><trkpt lat="44.69216" lon="10.241475"><ele>194.2</ele><time>2026-04-26T07:59:14.998Z</time></trkpt><trkpt lat="44.6922533" lon="10.2415183"><ele>193.4</ele><time>2026-04-26T07:59:15.999Z</time></trkpt><trkpt lat="44.6923667" lon="10.2415333"><ele>192.60000000000002</ele><time>2026-04-26T07:59:16.998Z</time></trkpt><trkpt lat="44.6924617" lon="10.2415717"><ele>191.8</ele><time>2026-04-26T07:59:17.998Z</time></trkpt><trkpt lat="44.69255" lon="10.2416083"><ele>191.0</ele><time>2026-04-26T07:59:18.998Z</time></trkpt><trkpt lat="44.6926267" lon="10.2416383"><ele>191.0</ele><time>2026-04-26T07:59:19.999Z</time></trkpt><trkpt lat="44.6927" lon="10.2416783"><ele>191.0</ele><time>2026-04-26T07:59:20.999Z</time></trkpt><trkpt lat="44.6927683" lon="10.2417183"><ele>191.0</ele><time>2026-04-26T07:59:21.998Z</time></trkpt><trkpt lat="44.6928417" lon="10.241745"><ele>191.0</ele><time>2026-04-26T07:59:22.998Z</time></trkpt><trkpt lat="44.6929033" lon="10.2417833"><ele>191.0</ele><time>2026-04-26T07:59:23.999Z</time></trkpt><trkpt lat="44.69296" lon="10.24184"><ele>191.0</ele><time>2026-04-26T07:59:24.998Z</time></trkpt><trkpt lat="44.6930183" lon="10.2418967"><ele>191.0</ele><time>2026-04-26T07:59:25.998Z</time></trkpt><trkpt lat="44.6931367" lon="10.241945"><ele>190.60000000000002</ele><time>2026-04-26T07:59:27.999Z</time></trkpt><trkpt lat="44.6932083" lon="10.2419767"><ele>190.2</ele><time>2026-04-26T07:59:28.998Z</time></trkpt><trkpt lat="44.6932767" lon="10.2419733"><ele>189.8</ele><time>2026-04-26T07:59:29.998Z</time></trkpt><trkpt lat="44.6934017" lon="10.241985"><ele>189.39999999999998</ele><time>2026-04-26T07:59:31.998Z</time></trkpt><trkpt lat="44.6934633" lon="10.242025"><ele>189.0</ele><time>2026-04-26T07:59:32.998Z</time></trkpt><trkpt lat="44.6935767" lon="10.2420567"><ele>188.85714285714286</ele><time>2026-04-26T07:59:34.998Z</time></trkpt><trkpt lat="44.6936433" lon="10.24205"><ele>188.71428571428572</ele><time>2026-04-26T07:59:35.998Z</time></trkpt><trkpt lat="44.6937117" lon="10.2420217"><ele>188.57142857142856</ele><time>2026-04-26T07:59:36.998Z</time></trkpt><trkpt lat="44.693785" lon="10.2419983"><ele>188.42857142857144</ele><time>2026-04-26T07:59:37.998Z</time></trkpt><trkpt lat="44.6938517" lon="10.241985"><ele>188.28571428571428</ele><time>2026-04-26T07:59:38.999Z</time></trkpt><trkpt lat="44.693925" lon="10.2419617"><ele>188.14285714285714</ele><time>2026-04-26T07:59:39.999Z</time></trkpt><trkpt lat="44.6939967" lon="10.2419267"><ele>188.0</ele><time>2026-04-26T07:59:40.998Z</time></trkpt><trkpt lat="44.69408" lon="10.2419017"><ele>188.0</ele><time>2026-04-26T07:59:41.998Z</time></trkpt><trkpt lat="44.6941583" lon="10.2418833"><ele>188.0</ele><time>2026-04-26T07:59:42.998Z</time></trkpt><trkpt lat="44.694225" lon="10.241865"><ele>188.0</ele><time>2026-04-26T07:59:43.998Z</time></trkpt><trkpt lat="44.6943" lon="10.241865"><ele>188.0</ele><time>2026-04-26T07:59:44.999Z</time></trkpt><trkpt lat="44.6943683" lon="10.2418733"><ele>188.0</ele><time>2026-04-26T07:59:45.999Z</time></trkpt><trkpt lat="44.694435" lon="10.2418833"><ele>188.0</ele><time>2026-04-26T07:59:46.998Z</time></trkpt><trkpt lat="44.6945" lon="10.2418917"><ele>188.0</ele><time>2026-04-26T07:59:47.998Z</time></trkpt><trkpt lat="44.6946267" lon="10.2419083"><ele>187.85714285714286</ele><time>2026-04-26T07:59:49.999Z</time></trkpt><trkpt lat="44.694695" lon="10.2419233"><ele>187.71428571428572</ele><time>2026-04-26T07:59:50.998Z</time></trkpt><trkpt lat="44.6947583" lon="10.241925"><ele>187.57142857142856</ele><time>2026-04-26T07:59:51.998Z</time></trkpt><trkpt lat="44.6948233" lon="10.2419267"><ele>187.42857142857144</ele><time>2026-04-26T07:59:52.998Z</time></trkpt><trkpt lat="44.6948917" lon="10.24193"><ele>187.2857142857143</ele><time>2026-04-26T07:59:53.998Z</time></trkpt><trkpt lat="44.6949583" lon="10.2419283"><ele>187.14285714285714</ele><time>2026-04-26T07:59:54.998Z</time></trkpt><trkpt lat="44.695025" lon="10.2419167"><ele>187.0</ele><time>2026-04-26T07:59:55.998Z</time></trkpt><trkpt lat="44.69509" lon="10.2418883"><ele>187.0</ele><time>2026-04-26T07:59:56.998Z</time></trkpt><trkpt lat="44.6951533" lon="10.24185"><ele>187.0</ele><time>2026-04-26T07:59:57.998Z</time></trkpt><trkpt lat="44.6952083" lon="10.2417917"><ele>187.0</ele><time>2026-04-26T07:59:58.998Z</time></trkpt><trkpt lat="44.6952667" lon="10.2417367"><ele>187.0</ele><time>2026-04-26T07:59:59.998Z</time></trkpt><trkpt lat="44.6953233" lon="10.241675"><ele>187.0</ele><time>2026-04-26T08:00:00.999Z</time></trkpt><trkpt lat="44.6953867" lon="10.2416117"><ele>187.0</ele><time>2026-04-26T08:00:01.998Z</time></trkpt><trkpt lat="44.6954533" lon="10.24154"><ele>187.0</ele><time>2026-04-26T08:00:02.999Z</time></trkpt><trkpt lat="44.695515" lon="10.2414767"><ele>187.0</ele><time>2026-04-26T08:00:03.998Z</time></trkpt><trkpt lat="44.6955783" lon="10.2414117"><ele>187.0</ele><time>2026-04-26T08:00:04.998Z</time></trkpt><trkpt lat="44.6956467" lon="10.2413533"><ele>187.0</ele><time>2026-04-26T08:00:05.998Z</time></trkpt><trkpt lat="44.6957067" lon="10.2413067"><ele>187.0</ele><time>2026-04-26T08:00:06.998Z</time></trkpt><trkpt lat="44.695765" lon="10.241255"><ele>187.0</ele><time>2026-04-26T08:00:07.998Z</time></trkpt><trkpt lat="44.6958333" lon="10.2412183"><ele>187.0</ele><time>2026-04-26T08:00:08.999Z</time></trkpt><trkpt lat="44.6958933" lon="10.2411817"><ele>187.0</ele><time>2026-04-26T08:00:09.998Z</time></trkpt><trkpt lat="44.695955" lon="10.2411367"><ele>187.0</ele><time>2026-04-26T08:00:10.999Z</time></trkpt><trkpt lat="44.6960683" lon="10.2410417"><ele>187.0</ele><time>2026-04-26T08:00:12.998Z</time></trkpt><trkpt lat="44.696135" lon="10.240985"><ele>187.0</ele><time>2026-04-26T08:00:13.998Z</time></trkpt><trkpt lat="44.696205" lon="10.2409367"><ele>187.0</ele><time>2026-04-26T08:00:14.998Z</time></trkpt><trkpt lat="44.69627" lon="10.2408867"><ele>187.0</ele><time>2026-04-26T08:00:15.998Z</time></trkpt><trkpt lat="44.6963333" lon="10.2408367"><ele>187.0</ele><time>2026-04-26T08:00:16.998Z</time></trkpt><trkpt lat="44.6963883" lon="10.2407867"><ele>186.33333333333334</ele><time>2026-04-26T08:00:17.998Z</time></trkpt><trkpt lat="44.6964483" lon="10.2407333"><ele>185.66666666666669</ele><time>2026-04-26T08:00:18.998Z</time></trkpt><trkpt lat="44.6965083" lon="10.2406733"><ele>185.0</ele><time>2026-04-26T08:00:19.998Z</time></trkpt><trkpt lat="44.6965633" lon="10.2406033"><ele>184.33333333333334</ele><time>2026-04-26T08:00:20.998Z</time></trkpt><trkpt lat="44.696625" lon="10.2405367"><ele>183.66666666666666</ele><time>2026-04-26T08:00:21.998Z</time></trkpt><trkpt lat="44.69669" lon="10.2404683"><ele>183.0</ele><time>2026-04-26T08:00:22.999Z</time></trkpt><trkpt lat="44.6967583" lon="10.2404067"><ele>183.0</ele><time>2026-04-26T08:00:23.998Z</time></trkpt><trkpt lat="44.69682" lon="10.2403483"><ele>183.0</ele><time>2026-04-26T08:00:24.998Z</time></trkpt><trkpt lat="44.6968767" lon="10.2402767"><ele>183.0</ele><time>2026-04-26T08:00:25.998Z</time></trkpt><trkpt lat="44.69693" lon="10.2402083"><ele>183.0</ele><time>2026-04-26T08:00:26.998Z</time></trkpt><trkpt lat="44.697035" lon="10.240095"><ele>183.0</ele><time>2026-04-26T08:00:28.999Z</time></trkpt><trkpt lat="44.6970933" lon="10.2400383"><ele>183.0</ele><time>2026-04-26T08:00:29.998Z</time></trkpt><trkpt lat="44.6971533" lon="10.23998"><ele>182.85714285714286</ele><time>2026-04-26T08:00:30.998Z</time></trkpt><trkpt lat="44.697215" lon="10.23993"><ele>182.71428571428572</ele><time>2026-04-26T08:00:31.998Z</time></trkpt><trkpt lat="44.6972817" lon="10.2398867"><ele>182.57142857142856</ele><time>2026-04-26T08:00:32.998Z</time></trkpt><trkpt lat="44.69735" lon="10.23984"><ele>182.42857142857144</ele><time>2026-04-26T08:00:33.998Z</time></trkpt><trkpt lat="44.6974083" lon="10.2397867"><ele>182.28571428571428</ele><time>2026-04-26T08:00:34.998Z</time></trkpt><trkpt lat="44.6974667" lon="10.23973"><ele>182.14285714285714</ele><time>2026-04-26T08:00:35.998Z</time></trkpt><trkpt lat="44.697525" lon="10.2396867"><ele>182.0</ele><time>2026-04-26T08:00:36.998Z</time></trkpt><trkpt lat="44.69758" lon="10.2396433"><ele>181.8</ele><time>2026-04-26T08:00:37.998Z</time></trkpt><trkpt lat="44.6976917" lon="10.2395417"><ele>181.6</ele><time>2026-04-26T08:00:39.999Z</time></trkpt><trkpt lat="44.6977517" lon="10.2394883"><ele>181.4</ele><time>2026-04-26T08:00:40.998Z</time></trkpt><trkpt lat="44.69781" lon="10.2394333"><ele>181.20000000000002</ele><time>2026-04-26T08:00:41.998Z</time></trkpt><trkpt lat="44.6978617" lon="10.23938"><ele>181.0</ele><time>2026-04-26T08:00:42.998Z</time></trkpt><trkpt lat="44.6979717" lon="10.2392533"><ele>181.0</ele><time>2026-04-26T08:00:44.998Z</time></trkpt><trkpt lat="44.6980433" lon="10.239195"><ele>181.0</ele><time>2026-04-26T08:00:45.998Z</time></trkpt><trkpt lat="44.69811" lon="10.2391533"><ele>181.0</ele><time>2026-04-26T08:00:46.998Z</time></trkpt><trkpt lat="44.698165" lon="10.23911"><ele>181.0</ele><time>2026-04-26T08:00:47.998Z</time></trkpt><trkpt lat="44.69822" lon="10.23906"><ele>181.0</ele><time>2026-04-26T08:00:48.998Z</time></trkpt><trkpt lat="44.698285" lon="10.2390067"><ele>181.0</ele><time>2026-04-26T08:00:49.999Z</time></trkpt><trkpt lat="44.6983433" lon="10.2389583"><ele>181.0</ele><time>2026-04-26T08:00:50.998Z</time></trkpt><trkpt lat="44.6984583" lon="10.2388683"><ele>181.0</ele><time>2026-04-26T08:00:52.998Z</time></trkpt><trkpt lat="44.698515" lon="10.2388217"><ele>181.0</ele><time>2026-04-26T08:00:53.998Z</time></trkpt><trkpt lat="44.69863" lon="10.2387333"><ele>181.0</ele><time>2026-04-26T08:00:55.998Z</time></trkpt><trkpt lat="44.6986883" lon="10.2386733"><ele>181.0</ele><time>2026-04-26T08:00:56.998Z</time></trkpt><trkpt lat="44.6987467" lon="10.2386267"><ele>181.0</ele><time>2026-04-26T08:00:57.998Z</time></trkpt><trkpt lat="44.6988183" lon="10.238585"><ele>181.0</ele><time>2026-04-26T08:00:58.998Z</time></trkpt><trkpt lat="44.6988817" lon="10.23854"><ele>181.0</ele><time>2026-04-26T08:00:59.999Z</time></trkpt><trkpt lat="44.698945" lon="10.2384817"><ele>181.0</ele><time>2026-04-26T08:01:00.998Z</time></trkpt><trkpt lat="44.6990083" lon="10.2384233"><ele>181.0</ele><time>2026-04-26T08:01:01.998Z</time></trkpt><trkpt lat="44.6990733" lon="10.238365"><ele>181.0</ele><time>2026-04-26T08:01:02.998Z</time></trkpt><trkpt lat="44.6991433" lon="10.2382983"><ele>181.0</ele><time>2026-04-26T08:01:03.998Z</time></trkpt><trkpt lat="44.69921" lon="10.2382317"><ele>181.0</ele><time>2026-04-26T08:01:04.999Z</time></trkpt><trkpt lat="44.6992683" lon="10.23817"><ele>180.85714285714286</ele><time>2026-04-26T08:01:05.998Z</time></trkpt><trkpt lat="44.6993283" lon="10.2381217"><ele>180.71428571428572</ele><time>2026-04-26T08:01:06.998Z</time></trkpt><trkpt lat="44.699395" lon="10.2380683"><ele>180.57142857142856</ele><time>2026-04-26T08:01:07.999Z</time></trkpt><trkpt lat="44.6994667" lon="10.2380183"><ele>180.42857142857144</ele><time>2026-04-26T08:01:08.998Z</time></trkpt><trkpt lat="44.6995283" lon="10.2379717"><ele>180.2857142857143</ele><time>2026-04-26T08:01:09.998Z</time></trkpt><trkpt lat="44.6995933" lon="10.2379267"><ele>180.14285714285714</ele><time>2026-04-26T08:01:10.998Z</time></trkpt><trkpt lat="44.699655" lon="10.237875"><ele>180.0</ele><time>2026-04-26T08:01:11.998Z</time></trkpt><trkpt lat="44.6997267" lon="10.2378283"><ele>180.0</ele><time>2026-04-26T08:01:12.999Z</time></trkpt><trkpt lat="44.699805" lon="10.237775"><ele>180.0</ele><time>2026-04-26T08:01:13.998Z</time></trkpt><trkpt lat="44.69988" lon="10.2377167"><ele>180.0</ele><time>2026-04-26T08:01:14.998Z</time></trkpt><trkpt lat="44.6999567" lon="10.2376583"><ele>180.0</ele><time>2026-04-26T08:01:15.998Z</time></trkpt><trkpt lat="44.7000267" lon="10.2376017"><ele>180.0</ele><time>2026-04-26T08:01:16.999Z</time></trkpt><trkpt lat="44.7000917" lon="10.2375533"><ele>180.0</ele><time>2026-04-26T08:01:17.998Z</time></trkpt><trkpt lat="44.7001567" lon="10.2374917"><ele>180.0</ele><time>2026-04-26T08:01:18.998Z</time></trkpt><trkpt lat="44.7002217" lon="10.237425"><ele>180.0</ele><time>2026-04-26T08:01:19.999Z</time></trkpt><trkpt lat="44.7002817" lon="10.23737"><ele>180.0</ele><time>2026-04-26T08:01:20.999Z</time></trkpt><trkpt lat="44.700365" lon="10.2372583"><ele>180.0</ele><time>2026-04-26T08:01:22.998Z</time></trkpt><trkpt lat="44.70046" lon="10.2371433"><ele>180.0</ele><time>2026-04-26T08:01:24.998Z</time></trkpt><trkpt lat="44.7005133" lon="10.23709"><ele>180.0</ele><time>2026-04-26T08:01:25.999Z</time></trkpt><trkpt lat="44.7005683" lon="10.2370433"><ele>180.0</ele><time>2026-04-26T08:01:26.998Z</time></trkpt><trkpt lat="44.7006283" lon="10.2369833"><ele>180.0</ele><time>2026-04-26T08:01:27.998Z</time></trkpt><trkpt lat="44.7006933" lon="10.236935"><ele>180.0</ele><time>2026-04-26T08:01:28.998Z</time></trkpt><trkpt lat="44.70075" lon="10.2368767"><ele>180.0</ele><time>2026-04-26T08:01:29.998Z</time></trkpt><trkpt lat="44.7008083" lon="10.2368217"><ele>180.0</ele><time>2026-04-26T08:01:30.998Z</time></trkpt><trkpt lat="44.7008633" lon="10.236775"><ele>180.0</ele><time>2026-04-26T08:01:31.998Z</time></trkpt><trkpt lat="44.7009217" lon="10.2367267"><ele>180.0</ele><time>2026-04-26T08:01:32.998Z</time></trkpt><trkpt lat="44.700985" lon="10.2366833"><ele>180.0</ele><time>2026-04-26T08:01:33.998Z</time></trkpt><trkpt lat="44.70109" lon="10.23667"><ele>180.0</ele><time>2026-04-26T08:01:35.998Z</time></trkpt><trkpt lat="44.7011283" lon="10.2367417"><ele>180.0</ele><time>2026-04-26T08:01:36.998Z</time></trkpt><trkpt lat="44.7011733" lon="10.236815"><ele>180.0</ele><time>2026-04-26T08:01:37.998Z</time></trkpt><trkpt lat="44.7012233" lon="10.23689"><ele>180.0</ele><time>2026-04-26T08:01:38.998Z</time></trkpt><trkpt lat="44.70128" lon="10.236965"><ele>179.83333333333334</ele><time>2026-04-26T08:01:39.999Z</time></trkpt><trkpt lat="44.70136" lon="10.237025"><ele>179.66666666666666</ele><time>2026-04-26T08:01:40.999Z</time></trkpt><trkpt lat="44.7014283" lon="10.2370767"><ele>179.5</ele><time>2026-04-26T08:01:41.998Z</time></trkpt><trkpt lat="44.7014983" lon="10.2371283"><ele>179.33333333333331</ele><time>2026-04-26T08:01:42.998Z</time></trkpt><trkpt lat="44.7015733" lon="10.2371833"><ele>179.16666666666666</ele><time>2026-04-26T08:01:43.998Z</time></trkpt><trkpt lat="44.70164" lon="10.2372367"><ele>179.0</ele><time>2026-04-26T08:01:44.999Z</time></trkpt><trkpt lat="44.7017" lon="10.2372867"><ele>178.83333333333331</ele><time>2026-04-26T08:01:45.998Z</time></trkpt><trkpt lat="44.7017567" lon="10.2373383"><ele>178.66666666666666</ele><time>2026-04-26T08:01:46.998Z</time></trkpt><trkpt lat="44.7018183" lon="10.2373867"><ele>178.5</ele><time>2026-04-26T08:01:47.998Z</time></trkpt><trkpt lat="44.7019217" lon="10.2374433"><ele>178.33333333333334</ele><time>2026-04-26T08:01:49.999Z</time></trkpt><trkpt lat="44.7020067" lon="10.2375083"><ele>178.16666666666669</ele><time>2026-04-26T08:01:51.998Z</time></trkpt><trkpt lat="44.7020733" lon="10.2375817"><ele>178.0</ele><time>2026-04-26T08:01:53.998Z</time></trkpt><trkpt lat="44.7021633" lon="10.2376733"><ele>177.5</ele><time>2026-04-26T08:01:55.999Z</time></trkpt><trkpt lat="44.7022183" lon="10.2377333"><ele>177.0</ele><time>2026-04-26T08:01:56.998Z</time></trkpt><trkpt lat="44.7022967" lon="10.2378283"><ele>176.5</ele><time>2026-04-26T08:01:58.998Z</time></trkpt><trkpt lat="44.702375" lon="10.2379383"><ele>176.0</ele><time>2026-04-26T08:02:00.998Z</time></trkpt><trkpt lat="44.7024233" lon="10.2380033"><ele>175.5</ele><time>2026-04-26T08:02:01.998Z</time></trkpt><trkpt lat="44.70249" lon="10.238065"><ele>175.0</ele><time>2026-04-26T08:02:02.998Z</time></trkpt><trkpt lat="44.7025517" lon="10.2381267"><ele>174.8</ele><time>2026-04-26T08:02:03.998Z</time></trkpt><trkpt lat="44.7026217" lon="10.2381967"><ele>174.6</ele><time>2026-04-26T08:02:04.998Z</time></trkpt><trkpt lat="44.7026917" lon="10.23826"><ele>174.39999999999998</ele><time>2026-04-26T08:02:05.998Z</time></trkpt><trkpt lat="44.702755" lon="10.238305"><ele>174.2</ele><time>2026-04-26T08:02:06.998Z</time></trkpt><trkpt lat="44.7028667" lon="10.2383483"><ele>174.0</ele><time>2026-04-26T08:02:08.998Z</time></trkpt><trkpt lat="44.7029617" lon="10.2382817"><ele>173.6</ele><time>2026-04-26T08:02:10.998Z</time></trkpt><trkpt lat="44.7030383" lon="10.2382333"><ele>173.2</ele><time>2026-04-26T08:02:12.998Z</time></trkpt><trkpt lat="44.7031883" lon="10.23824"><ele>172.79999999999998</ele><time>2026-04-26T08:02:30.998Z</time></trkpt><trkpt lat="44.7032367" lon="10.23818"><ele>172.39999999999998</ele><time>2026-04-26T08:02:32.998Z</time></trkpt><trkpt lat="44.70331" lon="10.2381667"><ele>172.0</ele><time>2026-04-26T08:02:35.998Z</time></trkpt><trkpt lat="44.7034033" lon="10.238165"><ele>172.0</ele><time>2026-04-26T08:02:47.999Z</time></trkpt><trkpt lat="44.7033817" lon="10.2380317"><ele>172.0</ele><time>2026-04-26T08:02:55.998Z</time></trkpt><trkpt lat="44.7033233" lon="10.23796"><ele>172.0</ele><time>2026-04-26T08:03:00.998Z</time></trkpt><trkpt lat="44.7033133" lon="10.2378517"><ele>172.0</ele><time>2026-04-26T08:03:04.998Z</time></trkpt><trkpt lat="44.7033617" lon="10.237705"><ele>172.0</ele><time>2026-04-26T08:03:24.998Z</time></trkpt><trkpt lat="44.7032867" lon="10.2377083"><ele>172.0</ele><time>2026-04-26T08:03:53.999Z</time></trkpt><trkpt lat="44.703155" lon="10.237665"><ele>172.0</ele><time>2026-04-26T08:04:21.998Z</time></trkpt><trkpt lat="44.7030533" lon="10.2376267"><ele>172.0</ele><time>2026-04-26T08:05:27.999Z</time></trkpt><trkpt lat="44.70297" lon="10.2375317"><ele>172.0</ele><time>2026-04-26T08:05:42.998Z</time></trkpt><trkpt lat="44.70301" lon="10.237615"><ele>172.0</ele><time>2026-04-26T08:06:01.998Z</time></trkpt><trkpt lat="44.7029517" lon="10.2377317"><ele>172.0</ele><time>2026-04-26T08:06:18.998Z</time></trkpt><trkpt lat="44.7029333" lon="10.237625"><ele>172.0</ele><time>2026-04-26T08:09:29.998Z</time></trkpt><trkpt lat="44.7029867" lon="10.2375467"><ele>172.0</ele><time>2026-04-26T08:09:50.998Z</time></trkpt><trkpt lat="44.70302" lon="10.2376833"><ele>172.0</ele><time>2026-04-26T08:10:12.998Z</time></trkpt><trkpt lat="44.7029867" lon="10.23781"><ele>172.0</ele><time>2026-04-26T08:10:17.998Z</time></trkpt><trkpt lat="44.70295" lon="10.23762"><ele>172.0</ele><time>2026-04-26T08:10:33.998Z</time></trkpt><trkpt lat="44.70298" lon="10.237525"><ele>172.0</ele><time>2026-04-26T08:11:23.998Z</time></trkpt><trkpt lat="44.7030317" lon="10.2374617"><ele>172.0</ele><time>2026-04-26T08:11:25.998Z</time></trkpt><trkpt lat="44.7030017" lon="10.2375767"><ele>172.0</ele><time>2026-04-26T08:11:43.998Z</time></trkpt><trkpt lat="44.703055" lon="10.2376283"><ele>172.0</ele><time>2026-04-26T08:12:08.998Z</time></trkpt><trkpt lat="44.7030283" lon="10.2377333"><ele>172.0</ele><time>2026-04-26T08:12:28.999Z</time></trkpt><trkpt lat="44.70304" lon="10.2376133"><ele>172.0</ele><time>2026-04-26T08:13:48.998Z</time></trkpt><trkpt lat="44.702965" lon="10.237685"><ele>172.0</ele><time>2026-04-26T08:14:25.999Z</time></trkpt><trkpt lat="44.703055" lon="10.2377117"><ele>172.0</ele><time>2026-04-26T08:14:33.998Z</time></trkpt><trkpt lat="44.703025" lon="10.2375867"><ele>172.0</ele><time>2026-04-26T08:14:50.998Z</time></trkpt><trkpt lat="44.703" lon="10.237495"><ele>172.0</ele><time>2026-04-26T08:14:57.998Z</time></trkpt><trkpt lat="44.7029183" lon="10.2375567"><ele>172.0</ele><time>2026-04-26T08:15:11.998Z</time></trkpt><trkpt lat="44.7029567" lon="10.237635"><ele>172.0</ele><time>2026-04-26T08:15:18.998Z</time></trkpt><trkpt lat="44.703025" lon="10.23767"><ele>172.0</ele><time>2026-04-26T08:16:34.998Z</time></trkpt><trkpt lat="44.703115" lon="10.2377117"><ele>172.0</ele><time>2026-04-26T08:16:37.998Z</time></trkpt><trkpt lat="44.7032067" lon="10.2376817"><ele>172.0</ele><time>2026-04-26T08:17:23.998Z</time></trkpt><trkpt lat="44.7032976" lon="10.2375987"><ele>172.0</ele><time>2026-04-26T08:17:54.099Z</time></trkpt><trkpt lat="44.7032854" lon="10.2376872"><ele>172.0</ele><time>2026-04-26T08:20:30.065Z</time></trkpt><trkpt lat="44.7033733" lon="10.2377417"><ele>172.0</ele><time>2026-04-26T08:21:19.998Z</time></trkpt><trkpt lat="44.7033583" lon="10.2376533"><ele>172.0</ele><time>2026-04-26T08:21:35.998Z</time></trkpt><trkpt lat="44.7032867" lon="10.2375717"><ele>172.0</ele><time>2026-04-26T08:21:36.998Z</time></trkpt><trkpt lat="44.7033477" lon="10.2374449"><ele>172.0</ele><time>2026-04-26T08:22:36.048Z</time></trkpt><trkpt lat="44.7034138" lon="10.2373313"><ele>172.0</ele><time>2026-04-26T08:22:54.05Z</time></trkpt><trkpt lat="44.7034703" lon="10.237249"><ele>172.16666666666669</ele><time>2026-04-26T08:23:18.041Z</time></trkpt><trkpt lat="44.7035417" lon="10.2371733"><ele>172.33333333333334</ele><time>2026-04-26T08:24:10.998Z</time></trkpt><trkpt lat="44.7036117" lon="10.237165"><ele>172.5</ele><time>2026-04-26T08:24:13.998Z</time></trkpt><trkpt lat="44.7036833" lon="10.2371767"><ele>172.66666666666666</ele><time>2026-04-26T08:24:16.998Z</time></trkpt><trkpt lat="44.703775" lon="10.2371833"><ele>172.83333333333331</ele><time>2026-04-26T08:24:22.999Z</time></trkpt><trkpt lat="44.7038633" lon="10.2372217"><ele>173.0</ele><time>2026-04-26T08:24:25.998Z</time></trkpt><trkpt lat="44.7039533" lon="10.23726"><ele>172.8</ele><time>2026-04-26T08:24:28.998Z</time></trkpt><trkpt lat="44.70402" lon="10.2373"><ele>172.60000000000002</ele><time>2026-04-26T08:24:30.999Z</time></trkpt><trkpt lat="44.7041" lon="10.2373583"><ele>172.39999999999998</ele><time>2026-04-26T08:24:32.998Z</time></trkpt><trkpt lat="44.7041967" lon="10.2374283"><ele>172.2</ele><time>2026-04-26T08:24:34.998Z</time></trkpt><trkpt lat="44.704305" lon="10.2375067"><ele>172.0</ele><time>2026-04-26T08:24:36.998Z</time></trkpt><trkpt lat="44.7044133" lon="10.2375883"><ele>172.33333333333334</ele><time>2026-04-26T08:24:38.998Z</time></trkpt><trkpt lat="44.70452" lon="10.23767"><ele>172.66666666666669</ele><time>2026-04-26T08:24:40.998Z</time></trkpt><trkpt lat="44.7045783" lon="10.23771"><ele>173.0</ele><time>2026-04-26T08:24:41.999Z</time></trkpt><trkpt lat="44.704695" lon="10.2377883"><ele>173.33333333333334</ele><time>2026-04-26T08:24:43.998Z</time></trkpt><trkpt lat="44.70475" lon="10.2378367"><ele>173.66666666666666</ele><time>2026-04-26T08:24:44.998Z</time></trkpt><trkpt lat="44.7048033" lon="10.2378883"><ele>174.0</ele><time>2026-04-26T08:24:45.998Z</time></trkpt><trkpt lat="44.704855" lon="10.23794"><ele>174.0</ele><time>2026-04-26T08:24:46.998Z</time></trkpt><trkpt lat="44.7049083" lon="10.2379983"><ele>174.0</ele><time>2026-04-26T08:24:47.998Z</time></trkpt><trkpt lat="44.704995" lon="10.2381167"><ele>174.0</ele><time>2026-04-26T08:24:49.998Z</time></trkpt><trkpt lat="44.7050633" lon="10.238265"><ele>174.0</ele><time>2026-04-26T08:24:51.998Z</time></trkpt><trkpt lat="44.7050833" lon="10.23835"><ele>174.0</ele><time>2026-04-26T08:24:52.998Z</time></trkpt><trkpt lat="44.7051117" lon="10.2385167"><ele>173.79999999999998</ele><time>2026-04-26T08:24:54.998Z</time></trkpt><trkpt lat="44.7051567" lon="10.238685"><ele>173.6</ele><time>2026-04-26T08:24:56.999Z</time></trkpt><trkpt lat="44.7052017" lon="10.238765"><ele>173.4</ele><time>2026-04-26T08:24:57.998Z</time></trkpt><trkpt lat="44.7053183" lon="10.2388367"><ele>173.2</ele><time>2026-04-26T08:24:59.998Z</time></trkpt><trkpt lat="44.7053883" lon="10.2388367"><ele>173.0</ele><time>2026-04-26T08:25:00.999Z</time></trkpt><trkpt lat="44.7054517" lon="10.2388033"><ele>172.57142857142856</ele><time>2026-04-26T08:25:01.998Z</time></trkpt><trkpt lat="44.7055167" lon="10.2387583"><ele>172.14285714285717</ele><time>2026-04-26T08:25:02.999Z</time></trkpt><trkpt lat="44.7055817" lon="10.2387183"><ele>171.71428571428572</ele><time>2026-04-26T08:25:03.998Z</time></trkpt><trkpt lat="44.7056483" lon="10.238695"><ele>171.28571428571428</ele><time>2026-04-26T08:25:04.998Z</time></trkpt><trkpt lat="44.7057133" lon="10.2386833"><ele>170.85714285714283</ele><time>2026-04-26T08:25:05.998Z</time></trkpt><trkpt lat="44.7057783" lon="10.2386883"><ele>170.42857142857144</ele><time>2026-04-26T08:25:06.998Z</time></trkpt><trkpt lat="44.7058417" lon="10.2386983"><ele>170.0</ele><time>2026-04-26T08:25:07.999Z</time></trkpt><trkpt lat="44.7059117" lon="10.2387167"><ele>170.0</ele><time>2026-04-26T08:25:08.998Z</time></trkpt><trkpt lat="44.7059817" lon="10.2387333"><ele>170.0</ele><time>2026-04-26T08:25:09.998Z</time></trkpt><trkpt lat="44.7060517" lon="10.23875"><ele>170.0</ele><time>2026-04-26T08:25:10.998Z</time></trkpt><trkpt lat="44.7061217" lon="10.2387767"><ele>170.0</ele><time>2026-04-26T08:25:11.998Z</time></trkpt><trkpt lat="44.7061917" lon="10.23881"><ele>170.0</ele><time>2026-04-26T08:25:12.998Z</time></trkpt><trkpt lat="44.706255" lon="10.2388533"><ele>170.0</ele><time>2026-04-26T08:25:13.998Z</time></trkpt><trkpt lat="44.70633" lon="10.2388967"><ele>170.0</ele><time>2026-04-26T08:25:14.999Z</time></trkpt><trkpt lat="44.7063917" lon="10.2389367"><ele>170.2857142857143</ele><time>2026-04-26T08:25:15.998Z</time></trkpt><trkpt lat="44.7064517" lon="10.238975"><ele>170.57142857142856</ele><time>2026-04-26T08:25:16.998Z</time></trkpt><trkpt lat="44.7065133" lon="10.23901"><ele>170.85714285714286</ele><time>2026-04-26T08:25:17.998Z</time></trkpt><trkpt lat="44.7065783" lon="10.2390467"><ele>171.14285714285717</ele><time>2026-04-26T08:25:18.998Z</time></trkpt><trkpt lat="44.7066467" lon="10.23909"><ele>171.42857142857144</ele><time>2026-04-26T08:25:19.998Z</time></trkpt><trkpt lat="44.7067133" lon="10.2391367"><ele>171.71428571428572</ele><time>2026-04-26T08:25:20.998Z</time></trkpt><trkpt lat="44.70678" lon="10.2391867"><ele>172.0</ele><time>2026-04-26T08:25:21.999Z</time></trkpt><trkpt lat="44.7068467" lon="10.239235"><ele>171.85714285714286</ele><time>2026-04-26T08:25:22.998Z</time></trkpt><trkpt lat="44.706915" lon="10.2392833"><ele>171.71428571428572</ele><time>2026-04-26T08:25:23.998Z</time></trkpt><trkpt lat="44.7069783" lon="10.239325"><ele>171.57142857142856</ele><time>2026-04-26T08:25:24.999Z</time></trkpt><trkpt lat="44.7070433" lon="10.239365"><ele>171.42857142857144</ele><time>2026-04-26T08:25:25.998Z</time></trkpt><trkpt lat="44.7071083" lon="10.239405"><ele>171.28571428571428</ele><time>2026-04-26T08:25:26.998Z</time></trkpt><trkpt lat="44.7071733" lon="10.2394483"><ele>171.14285714285714</ele><time>2026-04-26T08:25:27.998Z</time></trkpt><trkpt lat="44.707235" lon="10.23949"><ele>171.0</ele><time>2026-04-26T08:25:28.999Z</time></trkpt><trkpt lat="44.7072983" lon="10.2395267"><ele>170.99999999999997</ele><time>2026-04-26T08:25:29.999Z</time></trkpt><trkpt lat="44.7073617" lon="10.23956"><ele>171.0</ele><time>2026-04-26T08:25:30.998Z</time></trkpt><trkpt lat="44.7074283" lon="10.2396"><ele>171.0</ele><time>2026-04-26T08:25:31.998Z</time></trkpt><trkpt lat="44.7074883" lon="10.239645"><ele>171.0</ele><time>2026-04-26T08:25:32.998Z</time></trkpt><trkpt lat="44.70755" lon="10.2396867"><ele>171.0</ele><time>2026-04-26T08:25:33.998Z</time></trkpt><trkpt lat="44.70762" lon="10.2397283"><ele>170.99999999999997</ele><time>2026-04-26T08:25:34.998Z</time></trkpt><trkpt lat="44.7076833" lon="10.2397667"><ele>171.0</ele><time>2026-04-26T08:25:35.998Z</time></trkpt><trkpt lat="44.707745" lon="10.2398033"><ele>170.99999999999997</ele><time>2026-04-26T08:25:36.999Z</time></trkpt><trkpt lat="44.7078083" lon="10.2398383"><ele>171.0</ele><time>2026-04-26T08:25:37.998Z</time></trkpt><trkpt lat="44.707875" lon="10.2398683"><ele>171.0</ele><time>2026-04-26T08:25:38.998Z</time></trkpt><trkpt lat="44.7079417" lon="10.2399017"><ele>171.0</ele><time>2026-04-26T08:25:39.998Z</time></trkpt><trkpt lat="44.7080167" lon="10.239925"><ele>171.0</ele><time>2026-04-26T08:25:40.998Z</time></trkpt><trkpt lat="44.7080883" lon="10.23995"><ele>170.99999999999997</ele><time>2026-04-26T08:25:41.998Z</time></trkpt><trkpt lat="44.7081617" lon="10.23997"><ele>171.0</ele><time>2026-04-26T08:25:42.998Z</time></trkpt><trkpt lat="44.7082333" lon="10.2399867"><ele>171.0</ele><time>2026-04-26T08:25:43.998Z</time></trkpt><trkpt lat="44.7083033" lon="10.24"><ele>171.0</ele><time>2026-04-26T08:25:44.998Z</time></trkpt><trkpt lat="44.7083717" lon="10.2400133"><ele>171.0</ele><time>2026-04-26T08:25:45.998Z</time></trkpt><trkpt lat="44.708435" lon="10.2400383"><ele>171.0</ele><time>2026-04-26T08:25:46.998Z</time></trkpt><trkpt lat="44.7085083" lon="10.2401033"><ele>171.0</ele><time>2026-04-26T08:25:48.998Z</time></trkpt><trkpt lat="44.708555" lon="10.2401667"><ele>171.0</ele><time>2026-04-26T08:25:50.999Z</time></trkpt><trkpt lat="44.7086417" lon="10.24024"><ele>170.60000000000002</ele><time>2026-04-26T08:25:52.998Z</time></trkpt><trkpt lat="44.7087567" lon="10.2402833"><ele>170.2</ele><time>2026-04-26T08:25:54.998Z</time></trkpt><trkpt lat="44.708875" lon="10.2402433"><ele>169.8</ele><time>2026-04-26T08:25:56.998Z</time></trkpt><trkpt lat="44.7089317" lon="10.2401883"><ele>169.39999999999998</ele><time>2026-04-26T08:25:57.998Z</time></trkpt><trkpt lat="44.70899" lon="10.24004"><ele>169.0</ele><time>2026-04-26T08:25:59.998Z</time></trkpt><trkpt lat="44.70901" lon="10.23995"><ele>169.0</ele><time>2026-04-26T08:26:00.999Z</time></trkpt><trkpt lat="44.7090233" lon="10.23985"><ele>169.0</ele><time>2026-04-26T08:26:01.998Z</time></trkpt><trkpt lat="44.7090317" lon="10.2397467"><ele>169.0</ele><time>2026-04-26T08:26:02.998Z</time></trkpt><trkpt lat="44.7090483" lon="10.239645"><ele>169.0</ele><time>2026-04-26T08:26:03.998Z</time></trkpt><trkpt lat="44.7090767" lon="10.23956"><ele>169.0</ele><time>2026-04-26T08:26:04.998Z</time></trkpt><trkpt lat="44.70911" lon="10.2394783"><ele>169.0</ele><time>2026-04-26T08:26:05.999Z</time></trkpt><trkpt lat="44.7091517" lon="10.2393967"><ele>169.0</ele><time>2026-04-26T08:26:06.998Z</time></trkpt><trkpt lat="44.7091917" lon="10.239315"><ele>169.0</ele><time>2026-04-26T08:26:07.999Z</time></trkpt><trkpt lat="44.70923" lon="10.2392317"><ele>169.0</ele><time>2026-04-26T08:26:08.998Z</time></trkpt><trkpt lat="44.7092683" lon="10.2391533"><ele>169.0</ele><time>2026-04-26T08:26:09.998Z</time></trkpt><trkpt lat="44.7093067" lon="10.2390783"><ele>169.0</ele><time>2026-04-26T08:26:10.998Z</time></trkpt><trkpt lat="44.7093483" lon="10.238995"><ele>169.0</ele><time>2026-04-26T08:26:11.998Z</time></trkpt><trkpt lat="44.7093817" lon="10.238915"><ele>169.0</ele><time>2026-04-26T08:26:12.999Z</time></trkpt><trkpt lat="44.7094183" lon="10.2388317"><ele>169.0</ele><time>2026-04-26T08:26:13.999Z</time></trkpt><trkpt lat="44.70945" lon="10.23875"><ele>168.66666666666669</ele><time>2026-04-26T08:26:14.998Z</time></trkpt><trkpt lat="44.70948" lon="10.2386717"><ele>168.33333333333334</ele><time>2026-04-26T08:26:15.998Z</time></trkpt><trkpt lat="44.70951" lon="10.2385867"><ele>168.0</ele><time>2026-04-26T08:26:16.999Z</time></trkpt><trkpt lat="44.70954" lon="10.2385083"><ele>167.66666666666666</ele><time>2026-04-26T08:26:17.998Z</time></trkpt><trkpt lat="44.709595" lon="10.2383567"><ele>167.33333333333331</ele><time>2026-04-26T08:26:19.998Z</time></trkpt><trkpt lat="44.7096533" lon="10.23822"><ele>167.0</ele><time>2026-04-26T08:26:21.998Z</time></trkpt><trkpt lat="44.7097267" lon="10.2380783"><ele>166.8</ele><time>2026-04-26T08:26:23.998Z</time></trkpt><trkpt lat="44.7097867" lon="10.237935"><ele>166.6</ele><time>2026-04-26T08:26:25.998Z</time></trkpt><trkpt lat="44.7098233" lon="10.23786"><ele>166.4</ele><time>2026-04-26T08:26:26.998Z</time></trkpt><trkpt lat="44.709885" lon="10.2377267"><ele>166.20000000000002</ele><time>2026-04-26T08:26:28.998Z</time></trkpt><trkpt lat="44.7099417" lon="10.2375933"><ele>166.0</ele><time>2026-04-26T08:26:30.998Z</time></trkpt><trkpt lat="44.7099917" lon="10.237455"><ele>166.0</ele><time>2026-04-26T08:26:32.998Z</time></trkpt><trkpt lat="44.7100567" lon="10.2373133"><ele>166.0</ele><time>2026-04-26T08:26:34.998Z</time></trkpt><trkpt lat="44.7101133" lon="10.2371617"><ele>166.0</ele><time>2026-04-26T08:26:36.998Z</time></trkpt><trkpt lat="44.710155" lon="10.2370783"><ele>166.0</ele><time>2026-04-26T08:26:37.998Z</time></trkpt><trkpt lat="44.7102117" lon="10.236945"><ele>166.0</ele><time>2026-04-26T08:26:39.998Z</time></trkpt><trkpt lat="44.71027" lon="10.236815"><ele>165.5</ele><time>2026-04-26T08:26:41.998Z</time></trkpt><trkpt lat="44.71033" lon="10.2366783"><ele>165.0</ele><time>2026-04-26T08:26:43.998Z</time></trkpt><trkpt lat="44.71036" lon="10.2366"><ele>164.5</ele><time>2026-04-26T08:26:44.998Z</time></trkpt><trkpt lat="44.7103917" lon="10.2365233"><ele>164.0</ele><time>2026-04-26T08:26:45.998Z</time></trkpt><trkpt lat="44.710465" lon="10.2363783"><ele>163.5</ele><time>2026-04-26T08:26:47.998Z</time></trkpt><trkpt lat="44.7104967" lon="10.2362967"><ele>163.0</ele><time>2026-04-26T08:26:48.998Z</time></trkpt><trkpt lat="44.7105317" lon="10.2362167"><ele>163.0</ele><time>2026-04-26T08:26:49.998Z</time></trkpt><trkpt lat="44.710565" lon="10.236135"><ele>163.0</ele><time>2026-04-26T08:26:50.998Z</time></trkpt><trkpt lat="44.7106017" lon="10.2360483"><ele>163.0</ele><time>2026-04-26T08:26:51.998Z</time></trkpt><trkpt lat="44.7106367" lon="10.2359683"><ele>163.0</ele><time>2026-04-26T08:26:52.998Z</time></trkpt><trkpt lat="44.710675" lon="10.2358833"><ele>163.0</ele><time>2026-04-26T08:26:53.998Z</time></trkpt><trkpt lat="44.7107083" lon="10.2358017"><ele>163.0</ele><time>2026-04-26T08:26:54.998Z</time></trkpt><trkpt lat="44.7107433" lon="10.23572"><ele>163.0</ele><time>2026-04-26T08:26:55.998Z</time></trkpt><trkpt lat="44.71078" lon="10.2356367"><ele>163.14285714285714</ele><time>2026-04-26T08:26:56.998Z</time></trkpt><trkpt lat="44.7108183" lon="10.235555"><ele>163.28571428571428</ele><time>2026-04-26T08:26:57.998Z</time></trkpt><trkpt lat="44.7108517" lon="10.2354733"><ele>163.42857142857142</ele><time>2026-04-26T08:26:58.998Z</time></trkpt><trkpt lat="44.7108817" lon="10.2353933"><ele>163.57142857142856</ele><time>2026-04-26T08:26:59.999Z</time></trkpt><trkpt lat="44.7109133" lon="10.23531"><ele>163.71428571428572</ele><time>2026-04-26T08:27:00.998Z</time></trkpt><trkpt lat="44.710945" lon="10.2352317"><ele>163.85714285714283</ele><time>2026-04-26T08:27:01.998Z</time></trkpt><trkpt lat="44.71098" lon="10.23515"><ele>164.0</ele><time>2026-04-26T08:27:02.998Z</time></trkpt><trkpt lat="44.7110133" lon="10.2350683"><ele>163.99999999999997</ele><time>2026-04-26T08:27:03.998Z</time></trkpt><trkpt lat="44.7110467" lon="10.2349883"><ele>164.0</ele><time>2026-04-26T08:27:04.998Z</time></trkpt><trkpt lat="44.7110817" lon="10.2349033"><ele>164.0</ele><time>2026-04-26T08:27:05.998Z</time></trkpt><trkpt lat="44.7111183" lon="10.234815"><ele>164.0</ele><time>2026-04-26T08:27:06.998Z</time></trkpt><trkpt lat="44.7111533" lon="10.23474"><ele>164.0</ele><time>2026-04-26T08:27:07.998Z</time></trkpt><trkpt lat="44.71119" lon="10.2346617"><ele>163.99999999999997</ele><time>2026-04-26T08:27:08.998Z</time></trkpt><trkpt lat="44.7112233" lon="10.23458"><ele>164.0</ele><time>2026-04-26T08:27:09.998Z</time></trkpt><trkpt lat="44.7112617" lon="10.2344933"><ele>163.99999999999997</ele><time>2026-04-26T08:27:10.998Z</time></trkpt><trkpt lat="44.7112983" lon="10.2344067"><ele>164.0</ele><time>2026-04-26T08:27:11.998Z</time></trkpt><trkpt lat="44.7113333" lon="10.23433"><ele>164.0</ele><time>2026-04-26T08:27:12.998Z</time></trkpt><trkpt lat="44.7113717" lon="10.2342433"><ele>164.0</ele><time>2026-04-26T08:27:13.999Z</time></trkpt><trkpt lat="44.7114067" lon="10.2341617"><ele>164.0</ele><time>2026-04-26T08:27:14.998Z</time></trkpt><trkpt lat="44.7114417" lon="10.2340783"><ele>163.99999999999997</ele><time>2026-04-26T08:27:15.998Z</time></trkpt><trkpt lat="44.711475" lon="10.2339917"><ele>164.0</ele><time>2026-04-26T08:27:16.998Z</time></trkpt><trkpt lat="44.7115083" lon="10.2339083"><ele>164.42857142857142</ele><time>2026-04-26T08:27:17.998Z</time></trkpt><trkpt lat="44.7115467" lon="10.2338217"><ele>164.85714285714286</ele><time>2026-04-26T08:27:18.998Z</time></trkpt><trkpt lat="44.7115833" lon="10.2337367"><ele>165.28571428571428</ele><time>2026-04-26T08:27:19.998Z</time></trkpt><trkpt lat="44.71162" lon="10.2336533"><ele>165.71428571428572</ele><time>2026-04-26T08:27:20.998Z</time></trkpt><trkpt lat="44.71166" lon="10.2335633"><ele>166.14285714285714</ele><time>2026-04-26T08:27:21.998Z</time></trkpt><trkpt lat="44.711695" lon="10.23348"><ele>166.57142857142856</ele><time>2026-04-26T08:27:22.998Z</time></trkpt><trkpt lat="44.7117283" lon="10.2334"><ele>167.0</ele><time>2026-04-26T08:27:23.998Z</time></trkpt><trkpt lat="44.7117667" lon="10.2333233"><ele>167.0</ele><time>2026-04-26T08:27:24.998Z</time></trkpt><trkpt lat="44.7118067" lon="10.23324"><ele>167.0</ele><time>2026-04-26T08:27:25.998Z</time></trkpt><trkpt lat="44.7118433" lon="10.23315"><ele>167.0</ele><time>2026-04-26T08:27:26.998Z</time></trkpt><trkpt lat="44.71188" lon="10.233065"><ele>167.0</ele><time>2026-04-26T08:27:27.998Z</time></trkpt><trkpt lat="44.7119217" lon="10.2329783"><ele>167.0</ele><time>2026-04-26T08:27:28.998Z</time></trkpt><trkpt lat="44.71197" lon="10.2328933"><ele>167.0</ele><time>2026-04-26T08:27:29.998Z</time></trkpt><trkpt lat="44.71201" lon="10.2328033"><ele>167.0</ele><time>2026-04-26T08:27:30.998Z</time></trkpt><trkpt lat="44.71205" lon="10.2327033"><ele>167.0</ele><time>2026-04-26T08:27:31.999Z</time></trkpt><trkpt lat="44.7120883" lon="10.2326"><ele>167.0</ele><time>2026-04-26T08:27:32.998Z</time></trkpt><trkpt lat="44.7121267" lon="10.2325117"><ele>167.0</ele><time>2026-04-26T08:27:33.998Z</time></trkpt><trkpt lat="44.7121583" lon="10.2324167"><ele>167.0</ele><time>2026-04-26T08:27:34.998Z</time></trkpt><trkpt lat="44.7121933" lon="10.2323317"><ele>167.0</ele><time>2026-04-26T08:27:35.998Z</time></trkpt><trkpt lat="44.7122617" lon="10.2321833"><ele>167.0</ele><time>2026-04-26T08:27:37.998Z</time></trkpt><trkpt lat="44.7122967" lon="10.232095"><ele>166.8</ele><time>2026-04-26T08:27:38.998Z</time></trkpt><trkpt lat="44.7123483" lon="10.2319183"><ele>166.6</ele><time>2026-04-26T08:27:40.998Z</time></trkpt><trkpt lat="44.7123667" lon="10.2318333"><ele>166.4</ele><time>2026-04-26T08:27:41.998Z</time></trkpt><trkpt lat="44.7124167" lon="10.231675"><ele>166.20000000000002</ele><time>2026-04-26T08:27:43.998Z</time></trkpt><trkpt lat="44.7124483" lon="10.2315983"><ele>166.0</ele><time>2026-04-26T08:27:44.998Z</time></trkpt><trkpt lat="44.7124833" lon="10.23152"><ele>166.4</ele><time>2026-04-26T08:27:45.998Z</time></trkpt><trkpt lat="44.7125533" lon="10.2313833"><ele>166.8</ele><time>2026-04-26T08:27:47.998Z</time></trkpt><trkpt lat="44.712625" lon="10.2312367"><ele>167.20000000000002</ele><time>2026-04-26T08:27:49.998Z</time></trkpt><trkpt lat="44.712705" lon="10.2310883"><ele>167.60000000000002</ele><time>2026-04-26T08:27:51.998Z</time></trkpt><trkpt lat="44.7127483" lon="10.231015"><ele>168.0</ele><time>2026-04-26T08:27:52.998Z</time></trkpt><trkpt lat="44.712805" lon="10.23088"><ele>168.0</ele><time>2026-04-26T08:27:54.998Z</time></trkpt><trkpt lat="44.712835" lon="10.2307433"><ele>168.0</ele><time>2026-04-26T08:27:56.999Z</time></trkpt><trkpt lat="44.7128717" lon="10.2305767"><ele>168.0</ele><time>2026-04-26T08:27:58.999Z</time></trkpt><trkpt lat="44.7128867" lon="10.23048"><ele>168.0</ele><time>2026-04-26T08:27:59.998Z</time></trkpt><trkpt lat="44.7128933" lon="10.2303867"><ele>168.0</ele><time>2026-04-26T08:28:00.998Z</time></trkpt><trkpt lat="44.7128983" lon="10.2302983"><ele>168.0</ele><time>2026-04-26T08:28:01.998Z</time></trkpt><trkpt lat="44.712925" lon="10.2301133"><ele>167.83333333333334</ele><time>2026-04-26T08:28:03.998Z</time></trkpt><trkpt lat="44.7129383" lon="10.2300267"><ele>167.66666666666666</ele><time>2026-04-26T08:28:04.998Z</time></trkpt><trkpt lat="44.71297" lon="10.2298533"><ele>167.5</ele><time>2026-04-26T08:28:06.998Z</time></trkpt><trkpt lat="44.712985" lon="10.2297667"><ele>167.33333333333331</ele><time>2026-04-26T08:28:07.998Z</time></trkpt><trkpt lat="44.7129983" lon="10.2296783"><ele>167.16666666666666</ele><time>2026-04-26T08:28:08.998Z</time></trkpt><trkpt lat="44.7130333" lon="10.2295133"><ele>167.0</ele><time>2026-04-26T08:28:10.999Z</time></trkpt><trkpt lat="44.71307" lon="10.229365"><ele>167.0</ele><time>2026-04-26T08:28:12.998Z</time></trkpt><trkpt lat="44.7131017" lon="10.229205"><ele>167.0</ele><time>2026-04-26T08:28:14.998Z</time></trkpt><trkpt lat="44.7131283" lon="10.229075"><ele>167.0</ele><time>2026-04-26T08:28:16.998Z</time></trkpt><trkpt lat="44.7131567" lon="10.22894"><ele>167.0</ele><time>2026-04-26T08:28:18.998Z</time></trkpt><trkpt lat="44.71318" lon="10.2288317"><ele>167.0</ele><time>2026-04-26T08:28:20.999Z</time></trkpt><trkpt lat="44.7132" lon="10.228725"><ele>167.71428571428572</ele><time>2026-04-26T08:28:22.998Z</time></trkpt><trkpt lat="44.7132267" lon="10.2286083"><ele>168.42857142857144</ele><time>2026-04-26T08:28:24.998Z</time></trkpt><trkpt lat="44.7132417" lon="10.2285"><ele>169.14285714285717</ele><time>2026-04-26T08:28:26.998Z</time></trkpt><trkpt lat="44.7132567" lon="10.2284067"><ele>169.85714285714286</ele><time>2026-04-26T08:28:28.998Z</time></trkpt><trkpt lat="44.7132717" lon="10.2283167"><ele>170.57142857142858</ele><time>2026-04-26T08:28:30.998Z</time></trkpt><trkpt lat="44.71329" lon="10.2282233"><ele>171.2857142857143</ele><time>2026-04-26T08:28:32.998Z</time></trkpt><trkpt lat="44.7133117" lon="10.228135"><ele>172.0</ele><time>2026-04-26T08:28:34.998Z</time></trkpt><trkpt lat="44.713345" lon="10.2280567"><ele>172.5</ele><time>2026-04-26T08:28:36.998Z</time></trkpt><trkpt lat="44.7134117" lon="10.2279867"><ele>173.0</ele><time>2026-04-26T08:28:39.999Z</time></trkpt><trkpt lat="44.7134583" lon="10.227905"><ele>173.5</ele><time>2026-04-26T08:28:43.998Z</time></trkpt><trkpt lat="44.7134733" lon="10.2277967"><ele>174.0</ele><time>2026-04-26T08:28:47.998Z</time></trkpt><trkpt lat="44.7135117" lon="10.227685"><ele>174.5</ele><time>2026-04-26T08:28:50.998Z</time></trkpt><trkpt lat="44.7135367" lon="10.2275883"><ele>175.0</ele><time>2026-04-26T08:28:53.998Z</time></trkpt><trkpt lat="44.7135767" lon="10.2274833"><ele>175.0</ele><time>2026-04-26T08:28:56.998Z</time></trkpt><trkpt lat="44.7136167" lon="10.22735"><ele>175.0</ele><time>2026-04-26T08:28:59.998Z</time></trkpt><trkpt lat="44.71365" lon="10.22725"><ele>175.0</ele><time>2026-04-26T08:29:01.999Z</time></trkpt><trkpt lat="44.7137133" lon="10.22716"><ele>175.0</ele><time>2026-04-26T08:29:05.998Z</time></trkpt><trkpt lat="44.7137683" lon="10.2270817"><ele>175.0</ele><time>2026-04-26T08:29:07.998Z</time></trkpt><trkpt lat="44.7138067" lon="10.2270083"><ele>175.0</ele><time>2026-04-26T08:29:08.998Z</time></trkpt><trkpt lat="44.71385" lon="10.2268783"><ele>175.16666666666669</ele><time>2026-04-26T08:29:10.998Z</time></trkpt><trkpt lat="44.7138917" lon="10.2267683"><ele>175.33333333333334</ele><time>2026-04-26T08:29:12.998Z</time></trkpt><trkpt lat="44.7139233" lon="10.22667"><ele>175.5</ele><time>2026-04-26T08:29:14.998Z</time></trkpt><trkpt lat="44.7139667" lon="10.2265667"><ele>175.66666666666666</ele><time>2026-04-26T08:29:17.998Z</time></trkpt><trkpt lat="44.71397" lon="10.226475"><ele>175.83333333333331</ele><time>2026-04-26T08:29:18.999Z</time></trkpt><trkpt lat="44.713965" lon="10.2263233"><ele>176.0</ele><time>2026-04-26T08:29:20.999Z</time></trkpt><trkpt lat="44.713985" lon="10.226165"><ele>176.0</ele><time>2026-04-26T08:29:22.998Z</time></trkpt><trkpt lat="44.7140117" lon="10.226005"><ele>176.0</ele><time>2026-04-26T08:29:24.998Z</time></trkpt><trkpt lat="44.7140333" lon="10.2258967"><ele>176.0</ele><time>2026-04-26T08:29:25.998Z</time></trkpt><trkpt lat="44.714005" lon="10.22576"><ele>176.0</ele><time>2026-04-26T08:29:26.998Z</time></trkpt><trkpt lat="44.7140267" lon="10.2256467"><ele>176.0</ele><time>2026-04-26T08:29:27.998Z</time></trkpt><trkpt lat="44.71406" lon="10.2255367"><ele>175.60000000000002</ele><time>2026-04-26T08:29:28.998Z</time></trkpt><trkpt lat="44.7141067" lon="10.225385"><ele>175.2</ele><time>2026-04-26T08:29:30.998Z</time></trkpt><trkpt lat="44.7141717" lon="10.225295"><ele>174.8</ele><time>2026-04-26T08:29:32.998Z</time></trkpt><trkpt lat="44.7142167" lon="10.2252083"><ele>174.39999999999998</ele><time>2026-04-26T08:29:34.998Z</time></trkpt><trkpt lat="44.7142967" lon="10.22514"><ele>174.0</ele><time>2026-04-26T08:29:36.998Z</time></trkpt><trkpt lat="44.7143283" lon="10.2250267"><ele>174.0</ele><time>2026-04-26T08:29:38.998Z</time></trkpt><trkpt lat="44.7143567" lon="10.2249117"><ele>174.0</ele><time>2026-04-26T08:29:40.998Z</time></trkpt><trkpt lat="44.71438" lon="10.2247967"><ele>174.0</ele><time>2026-04-26T08:29:42.998Z</time></trkpt><trkpt lat="44.7144067" lon="10.224685"><ele>174.0</ele><time>2026-04-26T08:29:44.998Z</time></trkpt><trkpt lat="44.7144483" lon="10.2245317"><ele>174.0</ele><time>2026-04-26T08:29:46.999Z</time></trkpt><trkpt lat="44.71447" lon="10.22444"><ele>174.0</ele><time>2026-04-26T08:29:47.998Z</time></trkpt><trkpt lat="44.71452" lon="10.224265"><ele>174.2</ele><time>2026-04-26T08:29:49.998Z</time></trkpt><trkpt lat="44.7145433" lon="10.2241667"><ele>174.39999999999998</ele><time>2026-04-26T08:29:50.998Z</time></trkpt><trkpt lat="44.7145667" lon="10.2240767"><ele>174.6</ele><time>2026-04-26T08:29:51.998Z</time></trkpt><trkpt lat="44.714625" lon="10.2239333"><ele>174.8</ele><time>2026-04-26T08:29:53.998Z</time></trkpt><trkpt lat="44.7146933" lon="10.2238083"><ele>175.0</ele><time>2026-04-26T08:29:55.998Z</time></trkpt><trkpt lat="44.7147467" lon="10.2237167"><ele>175.0</ele><time>2026-04-26T08:29:56.999Z</time></trkpt><trkpt lat="44.7147417" lon="10.22362"><ele>175.0</ele><time>2026-04-26T08:29:58.998Z</time></trkpt><trkpt lat="44.7147633" lon="10.2234867"><ele>175.0</ele><time>2026-04-26T08:30:00.998Z</time></trkpt><trkpt lat="44.71478" lon="10.2233933"><ele>175.0</ele><time>2026-04-26T08:30:02.998Z</time></trkpt><trkpt lat="44.714795" lon="10.2233033"><ele>175.0</ele><time>2026-04-26T08:30:04.999Z</time></trkpt><trkpt lat="44.71483" lon="10.2231817"><ele>175.0</ele><time>2026-04-26T08:30:06.998Z</time></trkpt><trkpt lat="44.7148633" lon="10.2230433"><ele>175.2</ele><time>2026-04-26T08:30:08.998Z</time></trkpt><trkpt lat="44.7149" lon="10.2228883"><ele>175.4</ele><time>2026-04-26T08:30:10.999Z</time></trkpt><trkpt lat="44.714935" lon="10.2227433"><ele>175.60000000000002</ele><time>2026-04-26T08:30:12.998Z</time></trkpt><trkpt lat="44.714955" lon="10.2226017"><ele>175.8</ele><time>2026-04-26T08:30:14.998Z</time></trkpt><trkpt lat="44.714985" lon="10.2224683"><ele>176.0</ele><time>2026-04-26T08:30:16.998Z</time></trkpt><trkpt lat="44.7150117" lon="10.22234"><ele>176.66666666666666</ele><time>2026-04-26T08:30:18.999Z</time></trkpt><trkpt lat="44.71504" lon="10.2221983"><ele>177.33333333333331</ele><time>2026-04-26T08:30:20.999Z</time></trkpt><trkpt lat="44.7150683" lon="10.2220717"><ele>178.0</ele><time>2026-04-26T08:30:22.998Z</time></trkpt><trkpt lat="44.7151" lon="10.2219717"><ele>178.66666666666666</ele><time>2026-04-26T08:30:24.998Z</time></trkpt><trkpt lat="44.7151383" lon="10.2218833"><ele>179.33333333333334</ele><time>2026-04-26T08:30:26.998Z</time></trkpt><trkpt lat="44.7151717" lon="10.2217833"><ele>180.0</ele><time>2026-04-26T08:30:30.998Z</time></trkpt><trkpt lat="44.7151883" lon="10.2216833"><ele>180.0</ele><time>2026-04-26T08:30:34.999Z</time></trkpt><trkpt lat="44.7152083" lon="10.2215967"><ele>180.0</ele><time>2026-04-26T08:30:37.998Z</time></trkpt><trkpt lat="44.7152467" lon="10.22151"><ele>180.0</ele><time>2026-04-26T08:30:39.998Z</time></trkpt><trkpt lat="44.7152783" lon="10.221415"><ele>180.0</ele><time>2026-04-26T08:30:41.999Z</time></trkpt><trkpt lat="44.71529" lon="10.22132"><ele>180.0</ele><time>2026-04-26T08:30:43.998Z</time></trkpt><trkpt lat="44.71531" lon="10.221235"><ele>180.0</ele><time>2026-04-26T08:30:45.998Z</time></trkpt><trkpt lat="44.7153433" lon="10.2211317"><ele>180.0</ele><time>2026-04-26T08:30:47.998Z</time></trkpt><trkpt lat="44.7153833" lon="10.2209983"><ele>179.8</ele><time>2026-04-26T08:30:49.998Z</time></trkpt><trkpt lat="44.71542" lon="10.2208983"><ele>179.6</ele><time>2026-04-26T08:30:51.998Z</time></trkpt><trkpt lat="44.7154483" lon="10.220785"><ele>179.39999999999998</ele><time>2026-04-26T08:30:53.998Z</time></trkpt><trkpt lat="44.7154867" lon="10.220635"><ele>179.2</ele><time>2026-04-26T08:30:55.999Z</time></trkpt><trkpt lat="44.715525" lon="10.2205083"><ele>179.0</ele><time>2026-04-26T08:30:57.998Z</time></trkpt><trkpt lat="44.71556" lon="10.2203833"><ele>179.39999999999998</ele><time>2026-04-26T08:30:59.998Z</time></trkpt><trkpt lat="44.7155817" lon="10.2202667"><ele>179.8</ele><time>2026-04-26T08:31:01.998Z</time></trkpt><trkpt lat="44.7156283" lon="10.2201467"><ele>180.2</ele><time>2026-04-26T08:31:03.998Z</time></trkpt><trkpt lat="44.7156683" lon="10.220015"><ele>180.60000000000002</ele><time>2026-04-26T08:31:05.998Z</time></trkpt><trkpt lat="44.7156983" lon="10.21986"><ele>181.0</ele><time>2026-04-26T08:31:07.998Z</time></trkpt><trkpt lat="44.7157367" lon="10.2197117"><ele>181.4</ele><time>2026-04-26T08:31:09.998Z</time></trkpt><trkpt lat="44.7157733" lon="10.2195433"><ele>181.8</ele><time>2026-04-26T08:31:11.998Z</time></trkpt><trkpt lat="44.7158017" lon="10.219395"><ele>182.20000000000002</ele><time>2026-04-26T08:31:13.998Z</time></trkpt><trkpt lat="44.7158483" lon="10.21925"><ele>182.60000000000002</ele><time>2026-04-26T08:31:15.998Z</time></trkpt><trkpt lat="44.7158833" lon="10.21912"><ele>183.0</ele><time>2026-04-26T08:31:17.998Z</time></trkpt><trkpt lat="44.7159033" lon="10.2189933"><ele>183.60000000000002</ele><time>2026-04-26T08:31:19.998Z</time></trkpt><trkpt lat="44.7159267" lon="10.2188967"><ele>184.20000000000002</ele><time>2026-04-26T08:31:21.998Z</time></trkpt><trkpt lat="44.715965" lon="10.2187933"><ele>184.8</ele><time>2026-04-26T08:31:23.998Z</time></trkpt><trkpt lat="44.7160067" lon="10.2186567"><ele>185.4</ele><time>2026-04-26T08:31:25.999Z</time></trkpt><trkpt lat="44.7160367" lon="10.2185267"><ele>186.0</ele><time>2026-04-26T08:31:27.998Z</time></trkpt><trkpt lat="44.7160667" lon="10.2183867"><ele>185.20000000000002</ele><time>2026-04-26T08:31:29.998Z</time></trkpt><trkpt lat="44.7160933" lon="10.21825"><ele>184.4</ele><time>2026-04-26T08:31:31.999Z</time></trkpt><trkpt lat="44.7161233" lon="10.2181217"><ele>183.6</ele><time>2026-04-26T08:31:33.998Z</time></trkpt><trkpt lat="44.716165" lon="10.218005"><ele>182.8</ele><time>2026-04-26T08:31:35.998Z</time></trkpt><trkpt lat="44.7162" lon="10.2178833"><ele>182.0</ele><time>2026-04-26T08:31:37.999Z</time></trkpt><trkpt lat="44.716235" lon="10.2177617"><ele>181.66666666666666</ele><time>2026-04-26T08:31:39.998Z</time></trkpt><trkpt lat="44.716265" lon="10.2176617"><ele>181.33333333333331</ele><time>2026-04-26T08:31:41.999Z</time></trkpt><trkpt lat="44.7162933" lon="10.2175617"><ele>181.0</ele><time>2026-04-26T08:31:43.998Z</time></trkpt><trkpt lat="44.7163217" lon="10.2174567"><ele>180.66666666666666</ele><time>2026-04-26T08:31:45.999Z</time></trkpt><trkpt lat="44.7163467" lon="10.2173533"><ele>180.33333333333334</ele><time>2026-04-26T08:31:47.998Z</time></trkpt><trkpt lat="44.7163717" lon="10.21723"><ele>180.0</ele><time>2026-04-26T08:31:49.998Z</time></trkpt><trkpt lat="44.71638" lon="10.2170933"><ele>179.4</ele><time>2026-04-26T08:31:51.998Z</time></trkpt><trkpt lat="44.7163833" lon="10.2169267"><ele>178.8</ele><time>2026-04-26T08:31:53.998Z</time></trkpt><trkpt lat="44.7163867" lon="10.2167467"><ele>178.2</ele><time>2026-04-26T08:31:55.999Z</time></trkpt><trkpt lat="44.71637" lon="10.2166467"><ele>177.6</ele><time>2026-04-26T08:31:56.998Z</time></trkpt><trkpt lat="44.7163467" lon="10.2165417"><ele>177.0</ele><time>2026-04-26T08:31:57.998Z</time></trkpt><trkpt lat="44.716325" lon="10.2164267"><ele>176.2</ele><time>2026-04-26T08:31:58.999Z</time></trkpt><trkpt lat="44.716305" lon="10.216315"><ele>175.39999999999998</ele><time>2026-04-26T08:31:59.998Z</time></trkpt><trkpt lat="44.7162817" lon="10.2161917"><ele>174.60000000000002</ele><time>2026-04-26T08:32:00.998Z</time></trkpt><trkpt lat="44.7162783" lon="10.216065"><ele>173.8</ele><time>2026-04-26T08:32:01.998Z</time></trkpt><trkpt lat="44.7162917" lon="10.2159417"><ele>173.0</ele><time>2026-04-26T08:32:02.998Z</time></trkpt><trkpt lat="44.71632" lon="10.2158033"><ele>173.0</ele><time>2026-04-26T08:32:03.998Z</time></trkpt><trkpt lat="44.716365" lon="10.2156717"><ele>173.0</ele><time>2026-04-26T08:32:04.998Z</time></trkpt><trkpt lat="44.7164267" lon="10.2155833"><ele>173.0</ele><time>2026-04-26T08:32:05.998Z</time></trkpt><trkpt lat="44.71649" lon="10.2154817"><ele>173.0</ele><time>2026-04-26T08:32:06.998Z</time></trkpt><trkpt lat="44.71655" lon="10.2153867"><ele>173.0</ele><time>2026-04-26T08:32:07.998Z</time></trkpt><trkpt lat="44.7166033" lon="10.215295"><ele>173.66666666666666</ele><time>2026-04-26T08:32:08.998Z</time></trkpt><trkpt lat="44.7166517" lon="10.2152017"><ele>174.33333333333331</ele><time>2026-04-26T08:32:09.998Z</time></trkpt><trkpt lat="44.7167017" lon="10.215135"><ele>175.0</ele><time>2026-04-26T08:32:10.998Z</time></trkpt><trkpt lat="44.7167567" lon="10.215075"><ele>175.66666666666666</ele><time>2026-04-26T08:32:11.998Z</time></trkpt><trkpt lat="44.7168183" lon="10.2150183"><ele>176.33333333333334</ele><time>2026-04-26T08:32:12.998Z</time></trkpt><trkpt lat="44.7168767" lon="10.2149617"><ele>177.0</ele><time>2026-04-26T08:32:13.998Z</time></trkpt><trkpt lat="44.71699" lon="10.2148717"><ele>178.66666666666666</ele><time>2026-04-26T08:32:15.998Z</time></trkpt><trkpt lat="44.7170733" lon="10.214795"><ele>180.33333333333334</ele><time>2026-04-26T08:32:17.998Z</time></trkpt><trkpt lat="44.7171333" lon="10.214755"><ele>182.0</ele><time>2026-04-26T08:32:19.999Z</time></trkpt><trkpt lat="44.7172083" lon="10.2147767"><ele>183.66666666666669</ele><time>2026-04-26T08:32:22.998Z</time></trkpt><trkpt lat="44.7172983" lon="10.2148017"><ele>185.33333333333334</ele><time>2026-04-26T08:32:25.998Z</time></trkpt><trkpt lat="44.7173617" lon="10.214805"><ele>187.0</ele><time>2026-04-26T08:32:27.998Z</time></trkpt><trkpt lat="44.71744" lon="10.2148267"><ele>187.0</ele><time>2026-04-26T08:32:30.999Z</time></trkpt><trkpt lat="44.7175133" lon="10.214855"><ele>187.0</ele><time>2026-04-26T08:32:34.998Z</time></trkpt><trkpt lat="44.7175867" lon="10.2148333"><ele>187.0</ele><time>2026-04-26T08:32:39.998Z</time></trkpt><trkpt lat="44.717665" lon="10.2148083"><ele>187.0</ele><time>2026-04-26T08:32:43.998Z</time></trkpt><trkpt lat="44.7177333" lon="10.2148067"><ele>187.0</ele><time>2026-04-26T08:32:47.998Z</time></trkpt><trkpt lat="44.7178083" lon="10.2147433"><ele>187.0</ele><time>2026-04-26T08:32:52.998Z</time></trkpt><trkpt lat="44.7178833" lon="10.2147133"><ele>187.66666666666669</ele><time>2026-04-26T08:32:54.998Z</time></trkpt><trkpt lat="44.7179483" lon="10.2147033"><ele>188.33333333333334</ele><time>2026-04-26T08:32:56.998Z</time></trkpt><trkpt lat="44.71802" lon="10.2146783"><ele>189.0</ele><time>2026-04-26T08:33:00.998Z</time></trkpt><trkpt lat="44.71807" lon="10.2145967"><ele>189.66666666666666</ele><time>2026-04-26T08:33:04.998Z</time></trkpt><trkpt lat="44.7181217" lon="10.2145133"><ele>190.33333333333331</ele><time>2026-04-26T08:33:08.999Z</time></trkpt><trkpt lat="44.718135" lon="10.2143983"><ele>191.0</ele><time>2026-04-26T08:33:12.998Z</time></trkpt><trkpt lat="44.718135" lon="10.2142933"><ele>191.0</ele><time>2026-04-26T08:33:15.998Z</time></trkpt><trkpt lat="44.7181533" lon="10.2141783"><ele>191.0</ele><time>2026-04-26T08:33:17.998Z</time></trkpt><trkpt lat="44.71817" lon="10.2140633"><ele>191.0</ele><time>2026-04-26T08:33:20.998Z</time></trkpt><trkpt lat="44.71818" lon="10.21396"><ele>191.0</ele><time>2026-04-26T08:33:23.999Z</time></trkpt><trkpt lat="44.718195" lon="10.2138617"><ele>191.0</ele><time>2026-04-26T08:33:26.998Z</time></trkpt><trkpt lat="44.7182167" lon="10.2137317"><ele>191.0</ele><time>2026-04-26T08:33:29.998Z</time></trkpt><trkpt lat="44.7182367" lon="10.21363"><ele>191.33333333333331</ele><time>2026-04-26T08:33:31.998Z</time></trkpt><trkpt lat="44.7182517" lon="10.2135183"><ele>191.66666666666666</ele><time>2026-04-26T08:33:33.998Z</time></trkpt><trkpt lat="44.7182633" lon="10.2134017"><ele>192.0</ele><time>2026-04-26T08:33:35.998Z</time></trkpt><trkpt lat="44.71828" lon="10.213285"><ele>192.33333333333331</ele><time>2026-04-26T08:33:37.998Z</time></trkpt><trkpt lat="44.7182917" lon="10.2131733"><ele>192.66666666666666</ele><time>2026-04-26T08:33:39.999Z</time></trkpt><trkpt lat="44.7182917" lon="10.21308"><ele>193.0</ele><time>2026-04-26T08:33:41.998Z</time></trkpt><trkpt lat="44.718285" lon="10.21297"><ele>193.66666666666666</ele><time>2026-04-26T08:33:44.998Z</time></trkpt><trkpt lat="44.7182983" lon="10.2128483"><ele>194.33333333333331</ele><time>2026-04-26T08:33:47.998Z</time></trkpt><trkpt lat="44.7183133" lon="10.2127417"><ele>195.0</ele><time>2026-04-26T08:33:49.998Z</time></trkpt><trkpt lat="44.71833" lon="10.2126533"><ele>195.66666666666669</ele><time>2026-04-26T08:33:51.998Z</time></trkpt><trkpt lat="44.7183417" lon="10.2125417"><ele>196.33333333333334</ele><time>2026-04-26T08:33:54.998Z</time></trkpt><trkpt lat="44.7183483" lon="10.2124167"><ele>197.0</ele><time>2026-04-26T08:33:57.998Z</time></trkpt><trkpt lat="44.7183467" lon="10.2123217"><ele>197.50000000000003</ele><time>2026-04-26T08:33:59.998Z</time></trkpt><trkpt lat="44.7183483" lon="10.2121883"><ele>198.0</ele><time>2026-04-26T08:34:01.998Z</time></trkpt><trkpt lat="44.71835" lon="10.2120633"><ele>198.5</ele><time>2026-04-26T08:34:03.998Z</time></trkpt><trkpt lat="44.7183617" lon="10.2119567"><ele>199.0</ele><time>2026-04-26T08:34:05.998Z</time></trkpt><trkpt lat="44.7183733" lon="10.2118567"><ele>199.50000000000003</ele><time>2026-04-26T08:34:07.998Z</time></trkpt><trkpt lat="44.7183783" lon="10.2117667"><ele>200.0</ele><time>2026-04-26T08:34:09.998Z</time></trkpt><trkpt lat="44.71839" lon="10.211625"><ele>200.00000000000003</ele><time>2026-04-26T08:34:12.998Z</time></trkpt><trkpt lat="44.71841" lon="10.211505"><ele>200.0</ele><time>2026-04-26T08:34:14.998Z</time></trkpt><trkpt lat="44.7184267" lon="10.211415"><ele>200.0</ele><time>2026-04-26T08:34:16.998Z</time></trkpt><trkpt lat="44.7184433" lon="10.21131"><ele>200.0</ele><time>2026-04-26T08:34:18.998Z</time></trkpt><trkpt lat="44.7184583" lon="10.2112033"><ele>200.00000000000003</ele><time>2026-04-26T08:34:20.999Z</time></trkpt><trkpt lat="44.7184783" lon="10.2110767"><ele>200.0</ele><time>2026-04-26T08:34:22.999Z</time></trkpt><trkpt lat="44.7184833" lon="10.2109667"><ele>199.83333333333334</ele><time>2026-04-26T08:34:24.998Z</time></trkpt><trkpt lat="44.7184967" lon="10.21086"><ele>199.66666666666669</ele><time>2026-04-26T08:34:26.998Z</time></trkpt><trkpt lat="44.718505" lon="10.2107517"><ele>199.5</ele><time>2026-04-26T08:34:28.998Z</time></trkpt><trkpt lat="44.7185217" lon="10.210635"><ele>199.33333333333331</ele><time>2026-04-26T08:34:30.998Z</time></trkpt><trkpt lat="44.718545" lon="10.2105467"><ele>199.16666666666666</ele><time>2026-04-26T08:34:32.998Z</time></trkpt><trkpt lat="44.71856" lon="10.2104217"><ele>199.0</ele><time>2026-04-26T08:34:35.999Z</time></trkpt><trkpt lat="44.7185617" lon="10.2103133"><ele>199.28571428571428</ele><time>2026-04-26T08:34:38.998Z</time></trkpt><trkpt lat="44.7185767" lon="10.2102017"><ele>199.57142857142856</ele><time>2026-04-26T08:34:42.998Z</time></trkpt><trkpt lat="44.71858" lon="10.2101117"><ele>199.85714285714283</ele><time>2026-04-26T08:34:45.998Z</time></trkpt><trkpt lat="44.718585" lon="10.2100167"><ele>200.14285714285714</ele><time>2026-04-26T08:34:47.999Z</time></trkpt><trkpt lat="44.7185867" lon="10.2099267"><ele>200.42857142857144</ele><time>2026-04-26T08:34:49.998Z</time></trkpt><trkpt lat="44.7185867" lon="10.2098117"><ele>200.7142857142857</ele><time>2026-04-26T08:34:52.999Z</time></trkpt><trkpt lat="44.718585" lon="10.2097167"><ele>201.0</ele><time>2026-04-26T08:34:56.999Z</time></trkpt><trkpt lat="44.7186117" lon="10.2096217"><ele>201.33333333333334</ele><time>2026-04-26T08:34:59.998Z</time></trkpt><trkpt lat="44.7186333" lon="10.2094983"><ele>201.66666666666669</ele><time>2026-04-26T08:35:02.998Z</time></trkpt><trkpt lat="44.7186317" lon="10.20939"><ele>202.0</ele><time>2026-04-26T08:35:04.998Z</time></trkpt><trkpt lat="44.71863" lon="10.20926"><ele>202.33333333333334</ele><time>2026-04-26T08:35:06.998Z</time></trkpt><trkpt lat="44.7186267" lon="10.209155"><ele>202.66666666666669</ele><time>2026-04-26T08:35:08.998Z</time></trkpt><trkpt lat="44.7186133" lon="10.2090483"><ele>203.0</ele><time>2026-04-26T08:35:10.998Z</time></trkpt><trkpt lat="44.7186133" lon="10.2089267"><ele>203.00000000000003</ele><time>2026-04-26T08:35:12.998Z</time></trkpt><trkpt lat="44.71861" lon="10.2088133"><ele>203.0</ele><time>2026-04-26T08:35:14.998Z</time></trkpt><trkpt lat="44.7186133" lon="10.208675"><ele>203.0</ele><time>2026-04-26T08:35:16.998Z</time></trkpt><trkpt lat="44.7186133" lon="10.208555"><ele>203.0</ele><time>2026-04-26T08:35:18.999Z</time></trkpt><trkpt lat="44.71861" lon="10.2084033"><ele>203.00000000000003</ele><time>2026-04-26T08:35:20.998Z</time></trkpt><trkpt lat="44.71861" lon="10.2083067"><ele>203.0</ele><time>2026-04-26T08:35:21.998Z</time></trkpt><trkpt lat="44.71862" lon="10.2081483"><ele>203.5</ele><time>2026-04-26T08:35:23.998Z</time></trkpt><trkpt lat="44.7186417" lon="10.2079633"><ele>204.0</ele><time>2026-04-26T08:35:25.998Z</time></trkpt><trkpt lat="44.7186367" lon="10.2078017"><ele>204.5</ele><time>2026-04-26T08:35:27.998Z</time></trkpt><trkpt lat="44.7186167" lon="10.2076617"><ele>205.0</ele><time>2026-04-26T08:35:29.998Z</time></trkpt><trkpt lat="44.718595" lon="10.2075083"><ele>205.0</ele><time>2026-04-26T08:35:31.999Z</time></trkpt><trkpt lat="44.7186" lon="10.2073433"><ele>205.0</ele><time>2026-04-26T08:35:33.998Z</time></trkpt><trkpt lat="44.71863" lon="10.20725"><ele>205.0</ele><time>2026-04-26T08:35:34.998Z</time></trkpt><trkpt lat="44.7187083" lon="10.2071067"><ele>205.0</ele><time>2026-04-26T08:35:36.999Z</time></trkpt><trkpt lat="44.7187633" lon="10.207055"><ele>205.0</ele><time>2026-04-26T08:35:37.998Z</time></trkpt><trkpt lat="44.7188317" lon="10.20702"><ele>205.83333333333331</ele><time>2026-04-26T08:35:38.998Z</time></trkpt><trkpt lat="44.7189017" lon="10.2069733"><ele>206.66666666666666</ele><time>2026-04-26T08:35:39.998Z</time></trkpt><trkpt lat="44.7189733" lon="10.20692"><ele>207.5</ele><time>2026-04-26T08:35:40.999Z</time></trkpt><trkpt lat="44.7190567" lon="10.20689"><ele>208.33333333333331</ele><time>2026-04-26T08:35:41.998Z</time></trkpt><trkpt lat="44.7191383" lon="10.2068567"><ele>209.16666666666666</ele><time>2026-04-26T08:35:42.998Z</time></trkpt><trkpt lat="44.7192383" lon="10.2068433"><ele>210.0</ele><time>2026-04-26T08:35:43.998Z</time></trkpt><trkpt lat="44.7193517" lon="10.20685"><ele>207.5</ele><time>2026-04-26T08:35:44.999Z</time></trkpt><trkpt lat="44.7194633" lon="10.2068383"><ele>205.0</ele><time>2026-04-26T08:35:45.999Z</time></trkpt><trkpt lat="44.719565" lon="10.2068217"><ele>202.5</ele><time>2026-04-26T08:35:46.998Z</time></trkpt><trkpt lat="44.719675" lon="10.2068133"><ele>200.0</ele><time>2026-04-26T08:35:47.999Z</time></trkpt><trkpt lat="44.7198033" lon="10.206815"><ele>200.0</ele><time>2026-04-26T08:35:48.998Z</time></trkpt><trkpt lat="44.7199433" lon="10.2067983"><ele>200.0</ele><time>2026-04-26T08:35:49.999Z</time></trkpt><trkpt lat="44.7200517" lon="10.2067583"><ele>200.0</ele><time>2026-04-26T08:35:50.998Z</time></trkpt><trkpt lat="44.7201667" lon="10.20671"><ele>200.0</ele><time>2026-04-26T08:35:51.998Z</time></trkpt><trkpt lat="44.720275" lon="10.2066583"><ele>199.16666666666669</ele><time>2026-04-26T08:35:52.999Z</time></trkpt><trkpt lat="44.7203733" lon="10.2066117"><ele>198.33333333333334</ele><time>2026-04-26T08:35:53.998Z</time></trkpt><trkpt lat="44.7204567" lon="10.2065683"><ele>197.5</ele><time>2026-04-26T08:35:54.999Z</time></trkpt><trkpt lat="44.7205217" lon="10.206545"><ele>196.66666666666669</ele><time>2026-04-26T08:35:55.998Z</time></trkpt><trkpt lat="44.720585" lon="10.2065367"><ele>195.83333333333334</ele><time>2026-04-26T08:35:56.998Z</time></trkpt><trkpt lat="44.7205883" lon="10.206415"><ele>195.0</ele><time>2026-04-26T08:35:59.998Z</time></trkpt><trkpt lat="44.7205133" lon="10.2063483"><ele>192.33333333333334</ele><time>2026-04-26T08:36:00.998Z</time></trkpt><trkpt lat="44.7204583" lon="10.206285"><ele>189.66666666666666</ele><time>2026-04-26T08:36:01.998Z</time></trkpt><trkpt lat="44.7203967" lon="10.2061967"><ele>187.0</ele><time>2026-04-26T08:36:02.999Z</time></trkpt><trkpt lat="44.7203467" lon="10.2061067"><ele>184.33333333333331</ele><time>2026-04-26T08:36:03.998Z</time></trkpt><trkpt lat="44.72033" lon="10.206"><ele>181.66666666666666</ele><time>2026-04-26T08:36:04.999Z</time></trkpt><trkpt lat="44.7203217" lon="10.2059017"><ele>179.0</ele><time>2026-04-26T08:36:05.999Z</time></trkpt><trkpt lat="44.72032" lon="10.2057317"><ele>179.16666666666666</ele><time>2026-04-26T08:36:07.998Z</time></trkpt><trkpt lat="44.7203583" lon="10.205655"><ele>179.33333333333331</ele><time>2026-04-26T08:36:08.998Z</time></trkpt><trkpt lat="44.7204" lon="10.205585"><ele>179.5</ele><time>2026-04-26T08:36:09.998Z</time></trkpt><trkpt lat="44.7204567" lon="10.2054617"><ele>179.66666666666666</ele><time>2026-04-26T08:36:11.999Z</time></trkpt><trkpt lat="44.7205167" lon="10.2053483"><ele>179.83333333333334</ele><time>2026-04-26T08:36:13.998Z</time></trkpt><trkpt lat="44.7205683" lon="10.2052367"><ele>180.0</ele><time>2026-04-26T08:36:15.998Z</time></trkpt><trkpt lat="44.7206117" lon="10.2051517"><ele>180.0</ele><time>2026-04-26T08:36:17.999Z</time></trkpt><trkpt lat="44.7206683" lon="10.205065"><ele>180.0</ele><time>2026-04-26T08:36:19.998Z</time></trkpt><trkpt lat="44.7207217" lon="10.204995"><ele>180.0</ele><time>2026-04-26T08:36:21.998Z</time></trkpt><trkpt lat="44.720795" lon="10.2048967"><ele>180.0</ele><time>2026-04-26T08:36:24.998Z</time></trkpt><trkpt lat="44.7208417" lon="10.2048133"><ele>180.0</ele><time>2026-04-26T08:36:26.998Z</time></trkpt><trkpt lat="44.7208817" lon="10.20473"><ele>180.0</ele><time>2026-04-26T08:36:28.998Z</time></trkpt><trkpt lat="44.7209267" lon="10.2046333"><ele>180.0</ele><time>2026-04-26T08:36:31.998Z</time></trkpt><trkpt lat="44.7209683" lon="10.2045433"><ele>180.0</ele><time>2026-04-26T08:36:33.998Z</time></trkpt><trkpt lat="44.7210117" lon="10.204465"><ele>180.0</ele><time>2026-04-26T08:36:35.998Z</time></trkpt><trkpt lat="44.7210733" lon="10.2043883"><ele>180.0</ele><time>2026-04-26T08:36:37.998Z</time></trkpt><trkpt lat="44.7211383" lon="10.2043133"><ele>180.0</ele><time>2026-04-26T08:36:39.999Z</time></trkpt><trkpt lat="44.72121" lon="10.2042333"><ele>180.0</ele><time>2026-04-26T08:36:41.998Z</time></trkpt><trkpt lat="44.7212933" lon="10.2041633"><ele>180.0</ele><time>2026-04-26T08:36:43.998Z</time></trkpt><trkpt lat="44.7213867" lon="10.2041033"><ele>180.0</ele><time>2026-04-26T08:36:45.998Z</time></trkpt><trkpt lat="44.7214683" lon="10.2040467"><ele>180.0</ele><time>2026-04-26T08:36:47.998Z</time></trkpt><trkpt lat="44.72156" lon="10.203985"><ele>180.0</ele><time>2026-04-26T08:36:49.998Z</time></trkpt><trkpt lat="44.721655" lon="10.203915"><ele>180.0</ele><time>2026-04-26T08:36:51.998Z</time></trkpt><trkpt lat="44.7217417" lon="10.20384"><ele>179.8</ele><time>2026-04-26T08:36:53.998Z</time></trkpt><trkpt lat="44.72183" lon="10.2037517"><ele>179.6</ele><time>2026-04-26T08:36:55.998Z</time></trkpt><trkpt lat="44.72191" lon="10.2036517"><ele>179.39999999999998</ele><time>2026-04-26T08:36:57.998Z</time></trkpt><trkpt lat="44.7219733" lon="10.20355"><ele>179.2</ele><time>2026-04-26T08:36:59.998Z</time></trkpt><trkpt lat="44.7220333" lon="10.203425"><ele>179.0</ele><time>2026-04-26T08:37:01.998Z</time></trkpt><trkpt lat="44.7220867" lon="10.203325"><ele>179.0</ele><time>2026-04-26T08:37:03.998Z</time></trkpt><trkpt lat="44.7221417" lon="10.2032083"><ele>179.0</ele><time>2026-04-26T08:37:05.998Z</time></trkpt><trkpt lat="44.7221983" lon="10.2031"><ele>179.0</ele><time>2026-04-26T08:37:07.998Z</time></trkpt><trkpt lat="44.7222433" lon="10.202995"><ele>179.0</ele><time>2026-04-26T08:37:09.998Z</time></trkpt><trkpt lat="44.7222817" lon="10.2028833"><ele>179.0</ele><time>2026-04-26T08:37:11.998Z</time></trkpt><trkpt lat="44.72232" lon="10.2027833"><ele>181.57142857142858</ele><time>2026-04-26T08:37:13.998Z</time></trkpt><trkpt lat="44.72238" lon="10.2027267"><ele>184.14285714285714</ele><time>2026-04-26T08:37:17.999Z</time></trkpt><trkpt lat="44.7224267" lon="10.2026667"><ele>186.71428571428572</ele><time>2026-04-26T08:37:19.998Z</time></trkpt><trkpt lat="44.7224783" lon="10.202595"><ele>189.28571428571428</ele><time>2026-04-26T08:37:21.998Z</time></trkpt><trkpt lat="44.7225317" lon="10.2025267"><ele>191.85714285714286</ele><time>2026-04-26T08:37:23.998Z</time></trkpt><trkpt lat="44.7225817" lon="10.202455"><ele>194.42857142857144</ele><time>2026-04-26T08:37:25.998Z</time></trkpt><trkpt lat="44.72264" lon="10.20237"><ele>197.0</ele><time>2026-04-26T08:37:28.998Z</time></trkpt><trkpt lat="44.72269" lon="10.2022917"><ele>197.57142857142858</ele><time>2026-04-26T08:37:32.998Z</time></trkpt><trkpt lat="44.7227467" lon="10.2022283"><ele>198.14285714285717</ele><time>2026-04-26T08:37:36.998Z</time></trkpt><trkpt lat="44.7228167" lon="10.2021967"><ele>198.71428571428572</ele><time>2026-04-26T08:37:40.998Z</time></trkpt><trkpt lat="44.7228883" lon="10.2021667"><ele>199.28571428571428</ele><time>2026-04-26T08:37:44.999Z</time></trkpt><trkpt lat="44.7229567" lon="10.202125"><ele>199.85714285714286</ele><time>2026-04-26T08:37:48.999Z</time></trkpt><trkpt lat="44.7230267" lon="10.2021083"><ele>200.42857142857142</ele><time>2026-04-26T08:37:52.998Z</time></trkpt><trkpt lat="44.72309" lon="10.2020967"><ele>201.0</ele><time>2026-04-26T08:37:55.998Z</time></trkpt><trkpt lat="44.7231633" lon="10.2020533"><ele>201.0</ele><time>2026-04-26T08:37:58.998Z</time></trkpt><trkpt lat="44.7232283" lon="10.202045"><ele>201.0</ele><time>2026-04-26T08:38:01.998Z</time></trkpt><trkpt lat="44.7233067" lon="10.202035"><ele>201.0</ele><time>2026-04-26T08:38:04.998Z</time></trkpt><trkpt lat="44.723375" lon="10.2020183"><ele>201.0</ele><time>2026-04-26T08:38:07.998Z</time></trkpt><trkpt lat="44.7234433" lon="10.20198"><ele>201.0</ele><time>2026-04-26T08:38:10.998Z</time></trkpt><trkpt lat="44.72352" lon="10.20194"><ele>201.0</ele><time>2026-04-26T08:38:14.999Z</time></trkpt><trkpt lat="44.723585" lon="10.20191"><ele>201.0</ele><time>2026-04-26T08:38:17.998Z</time></trkpt><trkpt lat="44.723645" lon="10.201845"><ele>201.14285714285714</ele><time>2026-04-26T08:38:20.998Z</time></trkpt><trkpt lat="44.7236933" lon="10.20177"><ele>201.2857142857143</ele><time>2026-04-26T08:38:23.999Z</time></trkpt><trkpt lat="44.7237367" lon="10.2016717"><ele>201.42857142857144</ele><time>2026-04-26T08:38:27.998Z</time></trkpt><trkpt lat="44.7237833" lon="10.20161"><ele>201.57142857142856</ele><time>2026-04-26T08:38:31.998Z</time></trkpt><trkpt lat="44.7238033" lon="10.2015233"><ele>201.71428571428572</ele><time>2026-04-26T08:38:35.998Z</time></trkpt><trkpt lat="44.7238267" lon="10.2014133"><ele>201.85714285714286</ele><time>2026-04-26T08:38:39.999Z</time></trkpt><trkpt lat="44.7238417" lon="10.2013117"><ele>202.0</ele><time>2026-04-26T08:38:44.999Z</time></trkpt><trkpt lat="44.7238467" lon="10.2012133"><ele>201.99999999999997</ele><time>2026-04-26T08:38:47.998Z</time></trkpt><trkpt lat="44.7238367" lon="10.20111"><ele>202.0</ele><time>2026-04-26T08:38:50.998Z</time></trkpt><trkpt lat="44.7238317" lon="10.201005"><ele>202.0</ele><time>2026-04-26T08:38:53.999Z</time></trkpt><trkpt lat="44.723805" lon="10.2008983"><ele>202.0</ele><time>2026-04-26T08:38:57.998Z</time></trkpt><trkpt lat="44.7237317" lon="10.2008867"><ele>201.99999999999997</ele><time>2026-04-26T08:39:01.999Z</time></trkpt><trkpt lat="44.7236567" lon="10.20084"><ele>202.0</ele><time>2026-04-26T08:39:03.998Z</time></trkpt><trkpt lat="44.723565" lon="10.200785"><ele>201.83333333333331</ele><time>2026-04-26T08:39:05.998Z</time></trkpt><trkpt lat="44.7234683" lon="10.2007367"><ele>201.66666666666666</ele><time>2026-04-26T08:39:07.998Z</time></trkpt><trkpt lat="44.723365" lon="10.2006683"><ele>201.5</ele><time>2026-04-26T08:39:09.998Z</time></trkpt><trkpt lat="44.723305" lon="10.200625"><ele>201.33333333333331</ele><time>2026-04-26T08:39:10.998Z</time></trkpt><trkpt lat="44.723245" lon="10.2005783"><ele>201.16666666666666</ele><time>2026-04-26T08:39:11.999Z</time></trkpt><trkpt lat="44.7231883" lon="10.2005117"><ele>201.0</ele><time>2026-04-26T08:39:12.998Z</time></trkpt><trkpt lat="44.7231333" lon="10.2004533"><ele>201.0</ele><time>2026-04-26T08:39:13.998Z</time></trkpt><trkpt lat="44.723075" lon="10.2003917"><ele>201.0</ele><time>2026-04-26T08:39:14.998Z</time></trkpt><trkpt lat="44.7230117" lon="10.2003283"><ele>201.0</ele><time>2026-04-26T08:39:15.998Z</time></trkpt><trkpt lat="44.7229467" lon="10.2002583"><ele>201.0</ele><time>2026-04-26T08:39:16.998Z</time></trkpt><trkpt lat="44.7228833" lon="10.2001917"><ele>201.0</ele><time>2026-04-26T08:39:17.998Z</time></trkpt><trkpt lat="44.7228217" lon="10.200125"><ele>201.0</ele><time>2026-04-26T08:39:18.998Z</time></trkpt><trkpt lat="44.7227567" lon="10.2000767"><ele>201.60000000000002</ele><time>2026-04-26T08:39:19.998Z</time></trkpt><trkpt lat="44.72268" lon="10.2000083"><ele>202.2</ele><time>2026-04-26T08:39:20.998Z</time></trkpt><trkpt lat="44.7225883" lon="10.19994"><ele>202.8</ele><time>2026-04-26T08:39:21.999Z</time></trkpt><trkpt lat="44.7225017" lon="10.1998833"><ele>203.39999999999998</ele><time>2026-04-26T08:39:22.998Z</time></trkpt><trkpt lat="44.722405" lon="10.1998717"><ele>204.0</ele><time>2026-04-26T08:39:23.998Z</time></trkpt><trkpt lat="44.72233" lon="10.19987"><ele>204.0</ele><time>2026-04-26T08:39:24.998Z</time></trkpt><trkpt lat="44.72223" lon="10.19987"><ele>204.0</ele><time>2026-04-26T08:39:25.998Z</time></trkpt><trkpt lat="44.7221267" lon="10.19989"><ele>204.0</ele><time>2026-04-26T08:39:26.998Z</time></trkpt><trkpt lat="44.72203" lon="10.1999133"><ele>204.0</ele><time>2026-04-26T08:39:27.998Z</time></trkpt><trkpt lat="44.721945" lon="10.1999317"><ele>204.0</ele><time>2026-04-26T08:39:28.998Z</time></trkpt><trkpt lat="44.721855" lon="10.1999483"><ele>203.66666666666666</ele><time>2026-04-26T08:39:29.998Z</time></trkpt><trkpt lat="44.7217733" lon="10.19996"><ele>203.33333333333331</ele><time>2026-04-26T08:39:30.998Z</time></trkpt><trkpt lat="44.7217067" lon="10.1999517"><ele>203.0</ele><time>2026-04-26T08:39:31.998Z</time></trkpt><trkpt lat="44.7216267" lon="10.1999417"><ele>202.66666666666666</ele><time>2026-04-26T08:39:32.998Z</time></trkpt><trkpt lat="44.7215567" lon="10.1999317"><ele>202.33333333333331</ele><time>2026-04-26T08:39:33.998Z</time></trkpt><trkpt lat="44.721435" lon="10.1999067"><ele>202.0</ele><time>2026-04-26T08:39:35.998Z</time></trkpt><trkpt lat="44.72135" lon="10.1998633"><ele>200.42857142857142</ele><time>2026-04-26T08:39:37.998Z</time></trkpt><trkpt lat="44.7213" lon="10.199805"><ele>198.85714285714283</ele><time>2026-04-26T08:39:39.998Z</time></trkpt><trkpt lat="44.72124" lon="10.1997517"><ele>197.28571428571428</ele><time>2026-04-26T08:39:43.998Z</time></trkpt><trkpt lat="44.7211783" lon="10.1997217"><ele>195.71428571428572</ele><time>2026-04-26T08:39:46.998Z</time></trkpt><trkpt lat="44.7211833" lon="10.1996283"><ele>194.14285714285714</ele><time>2026-04-26T08:39:49.998Z</time></trkpt><trkpt lat="44.7212467" lon="10.1995567"><ele>192.57142857142858</ele><time>2026-04-26T08:39:51.999Z</time></trkpt><trkpt lat="44.72129" lon="10.199445"><ele>191.0</ele><time>2026-04-26T08:39:53.998Z</time></trkpt><trkpt lat="44.7213167" lon="10.1993383"><ele>191.0</ele><time>2026-04-26T08:39:55.998Z</time></trkpt><trkpt lat="44.7213617" lon="10.1992183"><ele>191.0</ele><time>2026-04-26T08:39:57.998Z</time></trkpt><trkpt lat="44.72139" lon="10.19906"><ele>191.0</ele><time>2026-04-26T08:39:59.999Z</time></trkpt><trkpt lat="44.7214067" lon="10.1989067"><ele>191.0</ele><time>2026-04-26T08:40:01.998Z</time></trkpt><trkpt lat="44.7214083" lon="10.19879"><ele>191.0</ele><time>2026-04-26T08:40:03.998Z</time></trkpt><trkpt lat="44.7213633" lon="10.1986633"><ele>189.4</ele><time>2026-04-26T08:40:05.998Z</time></trkpt><trkpt lat="44.72131" lon="10.198555"><ele>187.8</ele><time>2026-04-26T08:40:07.998Z</time></trkpt><trkpt lat="44.7212383" lon="10.1984267"><ele>186.20000000000002</ele><time>2026-04-26T08:40:09.998Z</time></trkpt><trkpt lat="44.7211867" lon="10.19837"><ele>184.60000000000002</ele><time>2026-04-26T08:40:10.998Z</time></trkpt><trkpt lat="44.72113" lon="10.1983067"><ele>183.0</ele><time>2026-04-26T08:40:11.998Z</time></trkpt><trkpt lat="44.7210417" lon="10.198175"><ele>183.8</ele><time>2026-04-26T08:40:13.998Z</time></trkpt><trkpt lat="44.721" lon="10.1981067"><ele>184.60000000000002</ele><time>2026-04-26T08:40:14.998Z</time></trkpt><trkpt lat="44.7209417" lon="10.1979717"><ele>185.39999999999998</ele><time>2026-04-26T08:40:16.998Z</time></trkpt><trkpt lat="44.7208967" lon="10.1978833"><ele>186.2</ele><time>2026-04-26T08:40:17.998Z</time></trkpt><trkpt lat="44.72085" lon="10.197665"><ele>187.0</ele><time>2026-04-26T08:40:18.998Z</time></trkpt><trkpt lat="44.7207817" lon="10.1975383"><ele>187.0</ele><time>2026-04-26T08:40:19.999Z</time></trkpt><trkpt lat="44.720715" lon="10.1974367"><ele>187.0</ele><time>2026-04-26T08:40:20.999Z</time></trkpt><trkpt lat="44.7206617" lon="10.1972917"><ele>187.0</ele><time>2026-04-26T08:40:21.998Z</time></trkpt><trkpt lat="44.72061" lon="10.1971533"><ele>187.0</ele><time>2026-04-26T08:40:22.998Z</time></trkpt><trkpt lat="44.7205683" lon="10.1970083"><ele>187.0</ele><time>2026-04-26T08:40:23.998Z</time></trkpt><trkpt lat="44.7205467" lon="10.1968167"><ele>183.6</ele><time>2026-04-26T08:40:24.998Z</time></trkpt><trkpt lat="44.7204667" lon="10.19672"><ele>180.2</ele><time>2026-04-26T08:40:25.999Z</time></trkpt><trkpt lat="44.7203983" lon="10.1966133"><ele>176.8</ele><time>2026-04-26T08:40:26.998Z</time></trkpt><trkpt lat="44.720325" lon="10.19651"><ele>173.4</ele><time>2026-04-26T08:40:27.998Z</time></trkpt><trkpt lat="44.7202583" lon="10.1964083"><ele>170.0</ele><time>2026-04-26T08:40:28.998Z</time></trkpt><trkpt lat="44.7202" lon="10.19631"><ele>168.5</ele><time>2026-04-26T08:40:29.998Z</time></trkpt><trkpt lat="44.7201333" lon="10.1962067"><ele>167.0</ele><time>2026-04-26T08:40:30.998Z</time></trkpt><trkpt lat="44.7200017" lon="10.19606"><ele>165.5</ele><time>2026-04-26T08:40:31.998Z</time></trkpt><trkpt lat="44.7199567" lon="10.19588"><ele>164.0</ele><time>2026-04-26T08:40:32.998Z</time></trkpt><trkpt lat="44.7199683" lon="10.1957117"><ele>161.0</ele><time>2026-04-26T08:40:33.998Z</time></trkpt><trkpt lat="44.71999" lon="10.19555"><ele>158.0</ele><time>2026-04-26T08:40:34.999Z</time></trkpt><trkpt lat="44.7200183" lon="10.1953817"><ele>155.0</ele><time>2026-04-26T08:40:35.998Z</time></trkpt><trkpt lat="44.7200383" lon="10.1952183"><ele>152.0</ele><time>2026-04-26T08:40:36.998Z</time></trkpt><trkpt lat="44.7200667" lon="10.1950383"><ele>152.0</ele><time>2026-04-26T08:40:37.999Z</time></trkpt><trkpt lat="44.7201033" lon="10.1948633"><ele>152.0</ele><time>2026-04-26T08:40:38.998Z</time></trkpt><trkpt lat="44.7201333" lon="10.1946917"><ele>152.0</ele><time>2026-04-26T08:40:39.998Z</time></trkpt><trkpt lat="44.7201733" lon="10.194515"><ele>152.0</ele><time>2026-04-26T08:40:40.998Z</time></trkpt><trkpt lat="44.720185" lon="10.19435"><ele>150.6</ele><time>2026-04-26T08:40:41.999Z</time></trkpt><trkpt lat="44.7202" lon="10.1941733"><ele>149.2</ele><time>2026-04-26T08:40:42.999Z</time></trkpt><trkpt lat="44.7202083" lon="10.1940183"><ele>147.8</ele><time>2026-04-26T08:40:43.999Z</time></trkpt><trkpt lat="44.7202083" lon="10.1938717"><ele>146.4</ele><time>2026-04-26T08:40:44.998Z</time></trkpt><trkpt lat="44.7202067" lon="10.1937317"><ele>145.0</ele><time>2026-04-26T08:40:45.998Z</time></trkpt><trkpt lat="44.7202017" lon="10.1935817"><ele>144.0</ele><time>2026-04-26T08:40:46.998Z</time></trkpt><trkpt lat="44.7202" lon="10.1934317"><ele>143.0</ele><time>2026-04-26T08:40:47.998Z</time></trkpt><trkpt lat="44.720205" lon="10.19327"><ele>142.0</ele><time>2026-04-26T08:40:48.998Z</time></trkpt><trkpt lat="44.7202083" lon="10.1931267"><ele>141.0</ele><time>2026-04-26T08:40:49.998Z</time></trkpt><trkpt lat="44.720215" lon="10.1929633"><ele>140.0</ele><time>2026-04-26T08:40:50.999Z</time></trkpt><trkpt lat="44.7202033" lon="10.1928"><ele>140.4</ele><time>2026-04-26T08:40:51.999Z</time></trkpt><trkpt lat="44.7202083" lon="10.1926383"><ele>140.8</ele><time>2026-04-26T08:40:52.998Z</time></trkpt><trkpt lat="44.7202183" lon="10.1924867"><ele>141.2</ele><time>2026-04-26T08:40:53.998Z</time></trkpt><trkpt lat="44.7202367" lon="10.192365"><ele>141.6</ele><time>2026-04-26T08:40:54.998Z</time></trkpt><trkpt lat="44.720265" lon="10.192245"><ele>142.0</ele><time>2026-04-26T08:40:55.998Z</time></trkpt><trkpt lat="44.720305" lon="10.1921433"><ele>142.0</ele><time>2026-04-26T08:40:56.998Z</time></trkpt><trkpt lat="44.7203483" lon="10.19205"><ele>142.0</ele><time>2026-04-26T08:40:57.999Z</time></trkpt><trkpt lat="44.7203767" lon="10.19196"><ele>142.0</ele><time>2026-04-26T08:40:58.999Z</time></trkpt><trkpt lat="44.720355" lon="10.1918117"><ele>142.0</ele><time>2026-04-26T08:41:00.998Z</time></trkpt><trkpt lat="44.720265" lon="10.1917683"><ele>142.0</ele><time>2026-04-26T08:41:02.998Z</time></trkpt><trkpt lat="44.7201833" lon="10.1916817"><ele>141.66666666666669</ele><time>2026-04-26T08:41:04.998Z</time></trkpt><trkpt lat="44.7201133" lon="10.1916083"><ele>141.33333333333334</ele><time>2026-04-26T08:41:06.998Z</time></trkpt><trkpt lat="44.7200567" lon="10.1915567"><ele>141.0</ele><time>2026-04-26T08:41:08.998Z</time></trkpt><trkpt lat="44.7199883" lon="10.1914617"><ele>140.66666666666666</ele><time>2026-04-26T08:41:10.998Z</time></trkpt><trkpt lat="44.7199367" lon="10.1914"><ele>140.33333333333331</ele><time>2026-04-26T08:41:12.998Z</time></trkpt><trkpt lat="44.71987" lon="10.191405"><ele>140.0</ele><time>2026-04-26T08:41:14.998Z</time></trkpt><trkpt lat="44.7197983" lon="10.1913183"><ele>140.0</ele><time>2026-04-26T08:41:16.998Z</time></trkpt><trkpt lat="44.7197233" lon="10.1912133"><ele>140.0</ele><time>2026-04-26T08:41:18.998Z</time></trkpt><trkpt lat="44.71968" lon="10.191125"><ele>140.0</ele><time>2026-04-26T08:41:19.998Z</time></trkpt><trkpt lat="44.7196417" lon="10.1910317"><ele>140.0</ele><time>2026-04-26T08:41:20.998Z</time></trkpt><trkpt lat="44.7196133" lon="10.19094"><ele>140.0</ele><time>2026-04-26T08:41:21.998Z</time></trkpt><trkpt lat="44.7195817" lon="10.1908617"><ele>140.0</ele><time>2026-04-26T08:41:22.998Z</time></trkpt><trkpt lat="44.7195133" lon="10.1907367"><ele>139.4</ele><time>2026-04-26T08:41:24.999Z</time></trkpt><trkpt lat="44.7194483" lon="10.19062"><ele>138.8</ele><time>2026-04-26T08:41:26.999Z</time></trkpt><trkpt lat="44.7193783" lon="10.1904933"><ele>138.2</ele><time>2026-04-26T08:41:28.998Z</time></trkpt><trkpt lat="44.7193117" lon="10.1903667"><ele>137.6</ele><time>2026-04-26T08:41:30.998Z</time></trkpt><trkpt lat="44.7192483" lon="10.1902383"><ele>137.0</ele><time>2026-04-26T08:41:32.998Z</time></trkpt><trkpt lat="44.7191783" lon="10.1900933"><ele>137.00000000000003</ele><time>2026-04-26T08:41:34.998Z</time></trkpt><trkpt lat="44.7191367" lon="10.1900233"><ele>137.0</ele><time>2026-04-26T08:41:35.998Z</time></trkpt><trkpt lat="44.7190983" lon="10.1899467"><ele>137.0</ele><time>2026-04-26T08:41:36.998Z</time></trkpt><trkpt lat="44.719055" lon="10.1898733"><ele>137.0</ele><time>2026-04-26T08:41:37.998Z</time></trkpt><trkpt lat="44.7190133" lon="10.1898033"><ele>137.0</ele><time>2026-04-26T08:41:38.999Z</time></trkpt><trkpt lat="44.7189683" lon="10.1897383"><ele>137.00000000000003</ele><time>2026-04-26T08:41:39.998Z</time></trkpt><trkpt lat="44.7189183" lon="10.1896833"><ele>137.0</ele><time>2026-04-26T08:41:40.998Z</time></trkpt><trkpt lat="44.71887" lon="10.189625"><ele>137.33333333333331</ele><time>2026-04-26T08:41:41.998Z</time></trkpt><trkpt lat="44.7188183" lon="10.18957"><ele>137.66666666666666</ele><time>2026-04-26T08:41:42.998Z</time></trkpt><trkpt lat="44.718765" lon="10.1895183"><ele>138.0</ele><time>2026-04-26T08:41:43.999Z</time></trkpt><trkpt lat="44.7187117" lon="10.189465"><ele>138.33333333333334</ele><time>2026-04-26T08:41:44.998Z</time></trkpt><trkpt lat="44.7186183" lon="10.1893517"><ele>138.66666666666669</ele><time>2026-04-26T08:41:46.998Z</time></trkpt><trkpt lat="44.718525" lon="10.189235"><ele>139.0</ele><time>2026-04-26T08:41:48.998Z</time></trkpt><trkpt lat="44.7184233" lon="10.1891217"><ele>139.0</ele><time>2026-04-26T08:41:50.998Z</time></trkpt><trkpt lat="44.7183283" lon="10.18902"><ele>139.0</ele><time>2026-04-26T08:41:52.998Z</time></trkpt><trkpt lat="44.7182283" lon="10.1889133"><ele>139.0</ele><time>2026-04-26T08:41:54.998Z</time></trkpt><trkpt lat="44.7181767" lon="10.1888583"><ele>139.0</ele><time>2026-04-26T08:41:55.998Z</time></trkpt><trkpt lat="44.718075" lon="10.18875"><ele>139.0</ele><time>2026-04-26T08:41:57.999Z</time></trkpt><trkpt lat="44.7179817" lon="10.1886467"><ele>139.0</ele><time>2026-04-26T08:41:59.998Z</time></trkpt><trkpt lat="44.7178867" lon="10.1885417"><ele>139.0</ele><time>2026-04-26T08:42:01.998Z</time></trkpt><trkpt lat="44.7178333" lon="10.1884817"><ele>139.0</ele><time>2026-04-26T08:42:02.998Z</time></trkpt><trkpt lat="44.7177817" lon="10.1884283"><ele>139.0</ele><time>2026-04-26T08:42:03.998Z</time></trkpt><trkpt lat="44.7176917" lon="10.1883333"><ele>139.0</ele><time>2026-04-26T08:42:05.998Z</time></trkpt><trkpt lat="44.7176417" lon="10.188275"><ele>139.0</ele><time>2026-04-26T08:42:06.998Z</time></trkpt><trkpt lat="44.7175417" lon="10.18817"><ele>139.0</ele><time>2026-04-26T08:42:08.998Z</time></trkpt><trkpt lat="44.71745" lon="10.1880733"><ele>139.0</ele><time>2026-04-26T08:42:10.999Z</time></trkpt><trkpt lat="44.7173567" lon="10.18798"><ele>139.0</ele><time>2026-04-26T08:42:12.998Z</time></trkpt><trkpt lat="44.7172617" lon="10.1878883"><ele>139.0</ele><time>2026-04-26T08:42:14.998Z</time></trkpt><trkpt lat="44.7171767" lon="10.18779"><ele>139.0</ele><time>2026-04-26T08:42:16.998Z</time></trkpt><trkpt lat="44.717085" lon="10.187705"><ele>139.0</ele><time>2026-04-26T08:42:18.999Z</time></trkpt><trkpt lat="44.7169917" lon="10.18761"><ele>139.0</ele><time>2026-04-26T08:42:20.998Z</time></trkpt><trkpt lat="44.7168983" lon="10.18751"><ele>139.0</ele><time>2026-04-26T08:42:22.998Z</time></trkpt><trkpt lat="44.7168017" lon="10.1874067"><ele>139.16666666666669</ele><time>2026-04-26T08:42:24.999Z</time></trkpt><trkpt lat="44.7167067" lon="10.1873117"><ele>139.33333333333334</ele><time>2026-04-26T08:42:26.998Z</time></trkpt><trkpt lat="44.7166583" lon="10.187255"><ele>139.5</ele><time>2026-04-26T08:42:27.998Z</time></trkpt><trkpt lat="44.7166067" lon="10.18719"><ele>139.66666666666666</ele><time>2026-04-26T08:42:28.998Z</time></trkpt><trkpt lat="44.7165367" lon="10.1870433"><ele>139.83333333333331</ele><time>2026-04-26T08:42:30.998Z</time></trkpt><trkpt lat="44.7165117" lon="10.18696"><ele>140.0</ele><time>2026-04-26T08:42:31.998Z</time></trkpt><trkpt lat="44.7164967" lon="10.186865"><ele>140.0</ele><time>2026-04-26T08:42:32.998Z</time></trkpt><trkpt lat="44.7164683" lon="10.186695"><ele>140.0</ele><time>2026-04-26T08:42:34.998Z</time></trkpt><trkpt lat="44.71645" lon="10.1865233"><ele>140.0</ele><time>2026-04-26T08:42:36.998Z</time></trkpt><trkpt lat="44.7164283" lon="10.186355"><ele>140.0</ele><time>2026-04-26T08:42:38.998Z</time></trkpt><trkpt lat="44.7163867" lon="10.1861917"><ele>140.66666666666666</ele><time>2026-04-26T08:42:40.998Z</time></trkpt><trkpt lat="44.7163233" lon="10.1860417"><ele>141.33333333333331</ele><time>2026-04-26T08:42:42.998Z</time></trkpt><trkpt lat="44.7162867" lon="10.1859667"><ele>142.0</ele><time>2026-04-26T08:42:43.999Z</time></trkpt><trkpt lat="44.71625" lon="10.1858867"><ele>142.66666666666666</ele><time>2026-04-26T08:42:44.998Z</time></trkpt><trkpt lat="44.7162133" lon="10.1858133"><ele>143.33333333333334</ele><time>2026-04-26T08:42:45.998Z</time></trkpt><trkpt lat="44.7161317" lon="10.1856967"><ele>144.0</ele><time>2026-04-26T08:42:47.998Z</time></trkpt><trkpt lat="44.71605" lon="10.18558"><ele>144.0</ele><time>2026-04-26T08:42:49.998Z</time></trkpt><trkpt lat="44.7159567" lon="10.1854783"><ele>144.0</ele><time>2026-04-26T08:42:51.998Z</time></trkpt><trkpt lat="44.7158667" lon="10.185385"><ele>144.0</ele><time>2026-04-26T08:42:53.999Z</time></trkpt><trkpt lat="44.7157767" lon="10.1852817"><ele>144.0</ele><time>2026-04-26T08:42:55.998Z</time></trkpt><trkpt lat="44.71569" lon="10.1851867"><ele>144.0</ele><time>2026-04-26T08:42:57.998Z</time></trkpt><trkpt lat="44.7156017" lon="10.1850967"><ele>144.0</ele><time>2026-04-26T08:42:59.998Z</time></trkpt><trkpt lat="44.715515" lon="10.185"><ele>144.0</ele><time>2026-04-26T08:43:01.998Z</time></trkpt><trkpt lat="44.715425" lon="10.1849033"><ele>144.0</ele><time>2026-04-26T08:43:03.998Z</time></trkpt><trkpt lat="44.7153833" lon="10.1848367"><ele>144.0</ele><time>2026-04-26T08:43:04.999Z</time></trkpt><trkpt lat="44.7152933" lon="10.1847233"><ele>144.16666666666666</ele><time>2026-04-26T08:43:06.998Z</time></trkpt><trkpt lat="44.715205" lon="10.1846283"><ele>144.33333333333334</ele><time>2026-04-26T08:43:08.999Z</time></trkpt><trkpt lat="44.715115" lon="10.1845283"><ele>144.5</ele><time>2026-04-26T08:43:10.998Z</time></trkpt><trkpt lat="44.71507" lon="10.1844533"><ele>144.66666666666669</ele><time>2026-04-26T08:43:11.999Z</time></trkpt><trkpt lat="44.7150233" lon="10.1843883"><ele>144.83333333333334</ele><time>2026-04-26T08:43:12.998Z</time></trkpt><trkpt lat="44.7149783" lon="10.1843217"><ele>145.0</ele><time>2026-04-26T08:43:13.998Z</time></trkpt><trkpt lat="44.714935" lon="10.1842483"><ele>145.0</ele><time>2026-04-26T08:43:14.998Z</time></trkpt><trkpt lat="44.7148917" lon="10.18418"><ele>145.0</ele><time>2026-04-26T08:43:15.999Z</time></trkpt><trkpt lat="44.7148467" lon="10.1841167"><ele>145.0</ele><time>2026-04-26T08:43:16.998Z</time></trkpt><trkpt lat="44.7148" lon="10.184055"><ele>145.0</ele><time>2026-04-26T08:43:17.998Z</time></trkpt><trkpt lat="44.714755" lon="10.1839917"><ele>145.0</ele><time>2026-04-26T08:43:18.998Z</time></trkpt><trkpt lat="44.7146667" lon="10.1838817"><ele>145.0</ele><time>2026-04-26T08:43:20.998Z</time></trkpt><trkpt lat="44.7145733" lon="10.1837733"><ele>145.4</ele><time>2026-04-26T08:43:22.998Z</time></trkpt><trkpt lat="44.7144833" lon="10.18367"><ele>145.8</ele><time>2026-04-26T08:43:24.998Z</time></trkpt><trkpt lat="44.7143933" lon="10.1836"><ele>146.2</ele><time>2026-04-26T08:43:26.999Z</time></trkpt><trkpt lat="44.7143083" lon="10.183565"><ele>146.6</ele><time>2026-04-26T08:43:28.998Z</time></trkpt><trkpt lat="44.7142317" lon="10.1835483"><ele>147.0</ele><time>2026-04-26T08:43:30.999Z</time></trkpt><trkpt lat="44.7141633" lon="10.1835367"><ele>147.0</ele><time>2026-04-26T08:43:32.998Z</time></trkpt><trkpt lat="44.7140867" lon="10.1835317"><ele>147.0</ele><time>2026-04-26T08:43:36.999Z</time></trkpt><trkpt lat="44.7140067" lon="10.18356"><ele>147.0</ele><time>2026-04-26T08:43:40.998Z</time></trkpt><trkpt lat="44.7139333" lon="10.1835967"><ele>147.0</ele><time>2026-04-26T08:43:44.999Z</time></trkpt><trkpt lat="44.713865" lon="10.1836267"><ele>147.0</ele><time>2026-04-26T08:43:47.998Z</time></trkpt><trkpt lat="44.7137967" lon="10.1836167"><ele>147.0</ele><time>2026-04-26T08:43:50.998Z</time></trkpt><trkpt lat="44.7137333" lon="10.1836133"><ele>147.0</ele><time>2026-04-26T08:43:52.998Z</time></trkpt><trkpt lat="44.7136367" lon="10.18363"><ele>147.5</ele><time>2026-04-26T08:43:55.998Z</time></trkpt><trkpt lat="44.7135417" lon="10.1836417"><ele>148.0</ele><time>2026-04-26T08:43:58.998Z</time></trkpt><trkpt lat="44.71347" lon="10.1836483"><ele>148.5</ele><time>2026-04-26T08:44:00.998Z</time></trkpt><trkpt lat="44.713395" lon="10.183645"><ele>149.0</ele><time>2026-04-26T08:44:02.999Z</time></trkpt><trkpt lat="44.7133133" lon="10.1836367"><ele>149.5</ele><time>2026-04-26T08:44:05.998Z</time></trkpt><trkpt lat="44.7132317" lon="10.1836517"><ele>150.0</ele><time>2026-04-26T08:44:08.998Z</time></trkpt><trkpt lat="44.7131583" lon="10.1836583"><ele>150.0</ele><time>2026-04-26T08:44:12.998Z</time></trkpt><trkpt lat="44.7130683" lon="10.1836517"><ele>150.0</ele><time>2026-04-26T08:44:16.998Z</time></trkpt><trkpt lat="44.7129983" lon="10.18366"><ele>150.0</ele><time>2026-04-26T08:44:18.999Z</time></trkpt><trkpt lat="44.7129333" lon="10.1836733"><ele>150.0</ele><time>2026-04-26T08:44:20.998Z</time></trkpt><trkpt lat="44.7128583" lon="10.1836883"><ele>150.0</ele><time>2026-04-26T08:44:23.998Z</time></trkpt><trkpt lat="44.7127867" lon="10.1837117"><ele>150.0</ele><time>2026-04-26T08:44:28.999Z</time></trkpt><trkpt lat="44.7127083" lon="10.18373"><ele>151.14285714285714</ele><time>2026-04-26T08:44:31.998Z</time></trkpt><trkpt lat="44.71264" lon="10.1837333"><ele>152.28571428571428</ele><time>2026-04-26T08:44:33.999Z</time></trkpt><trkpt lat="44.712575" lon="10.1837383"><ele>153.42857142857144</ele><time>2026-04-26T08:44:36.999Z</time></trkpt><trkpt lat="44.7125" lon="10.18375"><ele>154.57142857142856</ele><time>2026-04-26T08:44:39.998Z</time></trkpt><trkpt lat="44.712425" lon="10.1837583"><ele>155.71428571428572</ele><time>2026-04-26T08:44:41.998Z</time></trkpt><trkpt lat="44.7123533" lon="10.18376"><ele>156.85714285714286</ele><time>2026-04-26T08:44:43.998Z</time></trkpt><trkpt lat="44.7122767" lon="10.183765"><ele>158.0</ele><time>2026-04-26T08:44:45.998Z</time></trkpt><trkpt lat="44.71219" lon="10.1837683"><ele>158.0</ele><time>2026-04-26T08:44:47.998Z</time></trkpt><trkpt lat="44.7120783" lon="10.1837633"><ele>158.0</ele><time>2026-04-26T08:44:49.999Z</time></trkpt><trkpt lat="44.7119733" lon="10.18375"><ele>158.0</ele><time>2026-04-26T08:44:51.999Z</time></trkpt><trkpt lat="44.7118617" lon="10.1837333"><ele>158.0</ele><time>2026-04-26T08:44:53.998Z</time></trkpt><trkpt lat="44.711795" lon="10.1837183"><ele>158.0</ele><time>2026-04-26T08:44:54.998Z</time></trkpt><trkpt lat="44.71168" lon="10.1837033"><ele>158.20000000000002</ele><time>2026-04-26T08:44:56.998Z</time></trkpt><trkpt lat="44.711565" lon="10.1836883"><ele>158.4</ele><time>2026-04-26T08:44:58.998Z</time></trkpt><trkpt lat="44.7115" lon="10.1836717"><ele>158.60000000000002</ele><time>2026-04-26T08:44:59.998Z</time></trkpt><trkpt lat="44.7113833" lon="10.18364"><ele>158.8</ele><time>2026-04-26T08:45:01.998Z</time></trkpt><trkpt lat="44.7112717" lon="10.1836167"><ele>159.0</ele><time>2026-04-26T08:45:03.998Z</time></trkpt><trkpt lat="44.7111567" lon="10.1835883"><ele>158.66666666666666</ele><time>2026-04-26T08:45:05.998Z</time></trkpt><trkpt lat="44.7110433" lon="10.1835583"><ele>158.33333333333334</ele><time>2026-04-26T08:45:07.998Z</time></trkpt><trkpt lat="44.7109817" lon="10.18354"><ele>158.0</ele><time>2026-04-26T08:45:08.998Z</time></trkpt><trkpt lat="44.7109133" lon="10.183515"><ele>157.66666666666669</ele><time>2026-04-26T08:45:09.998Z</time></trkpt><trkpt lat="44.7108517" lon="10.1834967"><ele>157.33333333333334</ele><time>2026-04-26T08:45:10.998Z</time></trkpt><trkpt lat="44.7107367" lon="10.1834667"><ele>157.0</ele><time>2026-04-26T08:45:12.998Z</time></trkpt><trkpt lat="44.7106133" lon="10.1834483"><ele>157.0</ele><time>2026-04-26T08:45:14.998Z</time></trkpt><trkpt lat="44.7105017" lon="10.1834267"><ele>157.0</ele><time>2026-04-26T08:45:16.998Z</time></trkpt><trkpt lat="44.7104333" lon="10.1834017"><ele>157.0</ele><time>2026-04-26T08:45:18.998Z</time></trkpt><trkpt lat="44.710325" lon="10.183365"><ele>157.0</ele><time>2026-04-26T08:45:20.999Z</time></trkpt><trkpt lat="44.710265" lon="10.1833317"><ele>157.0</ele><time>2026-04-26T08:45:21.998Z</time></trkpt><trkpt lat="44.71016" lon="10.1833017"><ele>156.6</ele><time>2026-04-26T08:45:23.998Z</time></trkpt><trkpt lat="44.71006" lon="10.183295"><ele>156.2</ele><time>2026-04-26T08:45:25.998Z</time></trkpt><trkpt lat="44.7099483" lon="10.18326"><ele>155.8</ele><time>2026-04-26T08:45:27.997Z</time></trkpt><trkpt lat="44.7098767" lon="10.183235"><ele>155.4</ele><time>2026-04-26T08:45:28.997Z</time></trkpt><trkpt lat="44.70981" lon="10.183215"><ele>155.0</ele><time>2026-04-26T08:45:29.998Z</time></trkpt><trkpt lat="44.7096933" lon="10.183185"><ele>154.8</ele><time>2026-04-26T08:45:31.998Z</time></trkpt><trkpt lat="44.709575" lon="10.183165"><ele>154.6</ele><time>2026-04-26T08:45:33.997Z</time></trkpt><trkpt lat="44.7094517" lon="10.1831783"><ele>154.4</ele><time>2026-04-26T08:45:35.997Z</time></trkpt><trkpt lat="44.7093883" lon="10.1831933"><ele>154.2</ele><time>2026-04-26T08:45:36.997Z</time></trkpt><trkpt lat="44.709275" lon="10.1832333"><ele>154.0</ele><time>2026-04-26T08:45:38.997Z</time></trkpt><trkpt lat="44.70916" lon="10.183285"><ele>154.0</ele><time>2026-04-26T08:45:40.997Z</time></trkpt><trkpt lat="44.70907" lon="10.1833383"><ele>154.0</ele><time>2026-04-26T08:45:42.997Z</time></trkpt><trkpt lat="44.7089983" lon="10.183365"><ele>154.0</ele><time>2026-04-26T08:45:43.997Z</time></trkpt><trkpt lat="44.7089133" lon="10.18339"><ele>154.0</ele><time>2026-04-26T08:45:44.997Z</time></trkpt><trkpt lat="44.708825" lon="10.1834083"><ele>154.0</ele><time>2026-04-26T08:45:45.997Z</time></trkpt><trkpt lat="44.708735" lon="10.1834"><ele>154.0</ele><time>2026-04-26T08:45:46.998Z</time></trkpt><trkpt lat="44.708645" lon="10.1833883"><ele>154.16666666666669</ele><time>2026-04-26T08:45:47.998Z</time></trkpt><trkpt lat="44.7085533" lon="10.1833833"><ele>154.33333333333334</ele><time>2026-04-26T08:45:48.997Z</time></trkpt><trkpt lat="44.708475" lon="10.1833767"><ele>154.5</ele><time>2026-04-26T08:45:49.997Z</time></trkpt><trkpt lat="44.7084083" lon="10.1833733"><ele>154.66666666666666</ele><time>2026-04-26T08:45:50.997Z</time></trkpt><trkpt lat="44.7083283" lon="10.18337"><ele>154.83333333333331</ele><time>2026-04-26T08:45:51.997Z</time></trkpt><trkpt lat="44.70824" lon="10.183385"><ele>155.0</ele><time>2026-04-26T08:45:52.997Z</time></trkpt><trkpt lat="44.708155" lon="10.183415"><ele>155.0</ele><time>2026-04-26T08:45:53.997Z</time></trkpt><trkpt lat="44.7080683" lon="10.1834433"><ele>155.0</ele><time>2026-04-26T08:45:54.997Z</time></trkpt><trkpt lat="44.7079933" lon="10.1834883"><ele>155.0</ele><time>2026-04-26T08:45:55.997Z</time></trkpt><trkpt lat="44.7079267" lon="10.1835383"><ele>155.0</ele><time>2026-04-26T08:45:56.997Z</time></trkpt><trkpt lat="44.7078717" lon="10.1835867"><ele>155.0</ele><time>2026-04-26T08:45:57.997Z</time></trkpt><trkpt lat="44.7078167" lon="10.1836333"><ele>155.0</ele><time>2026-04-26T08:45:58.997Z</time></trkpt><trkpt lat="44.7077067" lon="10.1837217"><ele>154.8</ele><time>2026-04-26T08:46:00.998Z</time></trkpt><trkpt lat="44.7075883" lon="10.1837867"><ele>154.6</ele><time>2026-04-26T08:46:02.998Z</time></trkpt><trkpt lat="44.707525" lon="10.183805"><ele>154.4</ele><time>2026-04-26T08:46:03.997Z</time></trkpt><trkpt lat="44.70744" lon="10.1838367"><ele>154.2</ele><time>2026-04-26T08:46:05.997Z</time></trkpt><trkpt lat="44.7073233" lon="10.1838433"><ele>154.0</ele><time>2026-04-26T08:46:07.997Z</time></trkpt><trkpt lat="44.7072017" lon="10.1838033"><ele>154.0</ele><time>2026-04-26T08:46:09.997Z</time></trkpt><trkpt lat="44.7071217" lon="10.1837283"><ele>154.0</ele><time>2026-04-26T08:46:11.997Z</time></trkpt><trkpt lat="44.7070483" lon="10.18362"><ele>154.0</ele><time>2026-04-26T08:46:13.997Z</time></trkpt><trkpt lat="44.7069783" lon="10.1835067"><ele>154.0</ele><time>2026-04-26T08:46:15.997Z</time></trkpt><trkpt lat="44.7068917" lon="10.1833817"><ele>154.0</ele><time>2026-04-26T08:46:17.997Z</time></trkpt><trkpt lat="44.7068217" lon="10.1832467"><ele>154.2</ele><time>2026-04-26T08:46:19.997Z</time></trkpt><trkpt lat="44.7067717" lon="10.1831017"><ele>154.4</ele><time>2026-04-26T08:46:21.997Z</time></trkpt><trkpt lat="44.7067117" lon="10.1829517"><ele>154.6</ele><time>2026-04-26T08:46:23.997Z</time></trkpt><trkpt lat="44.7066967" lon="10.1828633"><ele>154.8</ele><time>2026-04-26T08:46:24.997Z</time></trkpt><trkpt lat="44.7066633" lon="10.1827"><ele>155.0</ele><time>2026-04-26T08:46:26.998Z</time></trkpt><trkpt lat="44.70663" lon="10.182545"><ele>155.0</ele><time>2026-04-26T08:46:28.997Z</time></trkpt><trkpt lat="44.7066083" lon="10.1824567"><ele>155.0</ele><time>2026-04-26T08:46:29.997Z</time></trkpt><trkpt lat="44.70657" lon="10.18229"><ele>155.0</ele><time>2026-04-26T08:46:31.998Z</time></trkpt><trkpt lat="44.7065433" lon="10.1821267"><ele>155.0</ele><time>2026-04-26T08:46:33.997Z</time></trkpt><trkpt lat="44.7065233" lon="10.1819667"><ele>155.0</ele><time>2026-04-26T08:46:35.997Z</time></trkpt><trkpt lat="44.7065067" lon="10.1817983"><ele>155.0</ele><time>2026-04-26T08:46:37.997Z</time></trkpt><trkpt lat="44.706505" lon="10.181705"><ele>155.0</ele><time>2026-04-26T08:46:38.997Z</time></trkpt><trkpt lat="44.7065083" lon="10.1815367"><ele>155.0</ele><time>2026-04-26T08:46:40.997Z</time></trkpt><trkpt lat="44.7065183" lon="10.1813817"><ele>155.0</ele><time>2026-04-26T08:46:42.997Z</time></trkpt><trkpt lat="44.7065283" lon="10.181235"><ele>155.0</ele><time>2026-04-26T08:46:44.997Z</time></trkpt><trkpt lat="44.7065283" lon="10.18108"><ele>155.6</ele><time>2026-04-26T08:46:46.997Z</time></trkpt><trkpt lat="44.70652" lon="10.1809067"><ele>156.2</ele><time>2026-04-26T08:46:48.998Z</time></trkpt><trkpt lat="44.7065067" lon="10.1808183"><ele>156.8</ele><time>2026-04-26T08:46:49.997Z</time></trkpt><trkpt lat="44.7064667" lon="10.18066"><ele>157.4</ele><time>2026-04-26T08:46:51.997Z</time></trkpt><trkpt lat="44.7063983" lon="10.1805567"><ele>158.0</ele><time>2026-04-26T08:46:53.997Z</time></trkpt><trkpt lat="44.70633" lon="10.1804483"><ele>158.60000000000002</ele><time>2026-04-26T08:46:55.997Z</time></trkpt><trkpt lat="44.706265" lon="10.18034"><ele>159.20000000000002</ele><time>2026-04-26T08:46:57.997Z</time></trkpt><trkpt lat="44.7061967" lon="10.1802317"><ele>159.8</ele><time>2026-04-26T08:46:59.997Z</time></trkpt><trkpt lat="44.7061367" lon="10.1801317"><ele>160.4</ele><time>2026-04-26T08:47:01.997Z</time></trkpt><trkpt lat="44.7060617" lon="10.180065"><ele>161.0</ele><time>2026-04-26T08:47:03.997Z</time></trkpt><trkpt lat="44.7059867" lon="10.1799833"><ele>161.0</ele><time>2026-04-26T08:47:05.997Z</time></trkpt><trkpt lat="44.7059167" lon="10.1798833"><ele>161.0</ele><time>2026-04-26T08:47:07.997Z</time></trkpt><trkpt lat="44.7058433" lon="10.1797883"><ele>161.0</ele><time>2026-04-26T08:47:09.997Z</time></trkpt><trkpt lat="44.7057767" lon="10.1796917"><ele>161.0</ele><time>2026-04-26T08:47:11.997Z</time></trkpt><trkpt lat="44.70572" lon="10.1795967"><ele>161.0</ele><time>2026-04-26T08:47:13.997Z</time></trkpt><trkpt lat="44.7056633" lon="10.1794767"><ele>161.20000000000002</ele><time>2026-04-26T08:47:15.997Z</time></trkpt><trkpt lat="44.7055883" lon="10.1793583"><ele>161.4</ele><time>2026-04-26T08:47:17.997Z</time></trkpt><trkpt lat="44.7055467" lon="10.1792067"><ele>161.6</ele><time>2026-04-26T08:47:19.997Z</time></trkpt><trkpt lat="44.7055233" lon="10.179095"><ele>161.8</ele><time>2026-04-26T08:47:21.998Z</time></trkpt><trkpt lat="44.7055" lon="10.1789767"><ele>162.0</ele><time>2026-04-26T08:47:23.997Z</time></trkpt><trkpt lat="44.7054683" lon="10.1788567"><ele>162.33333333333334</ele><time>2026-04-26T08:47:25.997Z</time></trkpt><trkpt lat="44.70543" lon="10.1787517"><ele>162.66666666666666</ele><time>2026-04-26T08:47:27.997Z</time></trkpt><trkpt lat="44.7053683" lon="10.178665"><ele>163.0</ele><time>2026-04-26T08:47:29.998Z</time></trkpt><trkpt lat="44.7053" lon="10.1785517"><ele>163.33333333333331</ele><time>2026-04-26T08:47:31.998Z</time></trkpt><trkpt lat="44.70523" lon="10.17849"><ele>163.66666666666666</ele><time>2026-04-26T08:47:33.997Z</time></trkpt><trkpt lat="44.705165" lon="10.1784067"><ele>164.0</ele><time>2026-04-26T08:47:35.997Z</time></trkpt><trkpt lat="44.7050867" lon="10.1782967"><ele>164.0</ele><time>2026-04-26T08:47:37.997Z</time></trkpt><trkpt lat="44.7050033" lon="10.1781917"><ele>164.0</ele><time>2026-04-26T08:47:39.997Z</time></trkpt><trkpt lat="44.704905" lon="10.1781167"><ele>164.0</ele><time>2026-04-26T08:47:41.997Z</time></trkpt><trkpt lat="44.7048433" lon="10.1780483"><ele>164.0</ele><time>2026-04-26T08:47:43.997Z</time></trkpt><trkpt lat="44.7047767" lon="10.1779517"><ele>164.0</ele><time>2026-04-26T08:47:45.997Z</time></trkpt><trkpt lat="44.7047083" lon="10.177835"><ele>164.2</ele><time>2026-04-26T08:47:47.998Z</time></trkpt><trkpt lat="44.704635" lon="10.177715"><ele>164.39999999999998</ele><time>2026-04-26T08:47:49.997Z</time></trkpt><trkpt lat="44.704555" lon="10.1776"><ele>164.6</ele><time>2026-04-26T08:47:51.997Z</time></trkpt><trkpt lat="44.7045033" lon="10.1774633"><ele>164.8</ele><time>2026-04-26T08:47:53.997Z</time></trkpt><trkpt lat="44.7044483" lon="10.1773367"><ele>165.0</ele><time>2026-04-26T08:47:55.997Z</time></trkpt><trkpt lat="44.7043933" lon="10.1772267"><ele>165.2</ele><time>2026-04-26T08:47:57.997Z</time></trkpt><trkpt lat="44.7043283" lon="10.1771267"><ele>165.4</ele><time>2026-04-26T08:47:59.997Z</time></trkpt><trkpt lat="44.704265" lon="10.1770417"><ele>165.60000000000002</ele><time>2026-04-26T08:48:01.997Z</time></trkpt><trkpt lat="44.7041967" lon="10.1769383"><ele>165.8</ele><time>2026-04-26T08:48:03.998Z</time></trkpt><trkpt lat="44.7041067" lon="10.17685"><ele>166.0</ele><time>2026-04-26T08:48:05.997Z</time></trkpt><trkpt lat="44.7040267" lon="10.176755"><ele>166.0</ele><time>2026-04-26T08:48:07.997Z</time></trkpt><trkpt lat="44.7039583" lon="10.1766583"><ele>166.0</ele><time>2026-04-26T08:48:09.998Z</time></trkpt><trkpt lat="44.7038967" lon="10.1765533"><ele>166.0</ele><time>2026-04-26T08:48:11.997Z</time></trkpt><trkpt lat="44.7038333" lon="10.1764467"><ele>166.0</ele><time>2026-04-26T08:48:13.998Z</time></trkpt><trkpt lat="44.7037833" lon="10.1763483"><ele>166.0</ele><time>2026-04-26T08:48:15.997Z</time></trkpt><trkpt lat="44.7037117" lon="10.1762683"><ele>166.0</ele><time>2026-04-26T08:48:17.997Z</time></trkpt><trkpt lat="44.7036467" lon="10.1761617"><ele>166.0</ele><time>2026-04-26T08:48:19.997Z</time></trkpt><trkpt lat="44.7035817" lon="10.17604"><ele>166.0</ele><time>2026-04-26T08:48:21.997Z</time></trkpt><trkpt lat="44.7035317" lon="10.17593"><ele>166.0</ele><time>2026-04-26T08:48:23.997Z</time></trkpt><trkpt lat="44.7034717" lon="10.175835"><ele>166.0</ele><time>2026-04-26T08:48:25.997Z</time></trkpt><trkpt lat="44.7033983" lon="10.1757767"><ele>166.0</ele><time>2026-04-26T08:48:27.997Z</time></trkpt><trkpt lat="44.703315" lon="10.1756917"><ele>166.0</ele><time>2026-04-26T08:48:29.997Z</time></trkpt><trkpt lat="44.703235" lon="10.1755983"><ele>166.0</ele><time>2026-04-26T08:48:31.997Z</time></trkpt><trkpt lat="44.7031567" lon="10.1755167"><ele>166.0</ele><time>2026-04-26T08:48:33.997Z</time></trkpt><trkpt lat="44.7030817" lon="10.1754367"><ele>166.0</ele><time>2026-04-26T08:48:35.997Z</time></trkpt><trkpt lat="44.70302" lon="10.1753783"><ele>166.16666666666669</ele><time>2026-04-26T08:48:37.997Z</time></trkpt><trkpt lat="44.7029633" lon="10.1753367"><ele>166.33333333333334</ele><time>2026-04-26T08:48:39.997Z</time></trkpt><trkpt lat="44.7029033" lon="10.1752717"><ele>166.5</ele><time>2026-04-26T08:48:41.997Z</time></trkpt><trkpt lat="44.7028417" lon="10.1752067"><ele>166.66666666666666</ele><time>2026-04-26T08:48:43.997Z</time></trkpt><trkpt lat="44.702775" lon="10.1751333"><ele>166.83333333333331</ele><time>2026-04-26T08:48:45.997Z</time></trkpt><trkpt lat="44.7027117" lon="10.17505"><ele>167.0</ele><time>2026-04-26T08:48:47.997Z</time></trkpt><trkpt lat="44.702625" lon="10.1749617"><ele>167.0</ele><time>2026-04-26T08:48:49.997Z</time></trkpt><trkpt lat="44.7025367" lon="10.1748867"><ele>167.0</ele><time>2026-04-26T08:48:51.997Z</time></trkpt><trkpt lat="44.7024433" lon="10.1747933"><ele>167.0</ele><time>2026-04-26T08:48:53.997Z</time></trkpt><trkpt lat="44.7023533" lon="10.1747133"><ele>167.0</ele><time>2026-04-26T08:48:55.997Z</time></trkpt><trkpt lat="44.7022617" lon="10.1746417"><ele>167.0</ele><time>2026-04-26T08:48:57.997Z</time></trkpt><trkpt lat="44.7021733" lon="10.1745783"><ele>167.8</ele><time>2026-04-26T08:48:59.997Z</time></trkpt><trkpt lat="44.702085" lon="10.1745183"><ele>168.6</ele><time>2026-04-26T08:49:01.997Z</time></trkpt><trkpt lat="44.702005" lon="10.174455"><ele>169.4</ele><time>2026-04-26T08:49:03.998Z</time></trkpt><trkpt lat="44.7019217" lon="10.1743983"><ele>170.20000000000002</ele><time>2026-04-26T08:49:05.997Z</time></trkpt><trkpt lat="44.7018317" lon="10.1743467"><ele>171.0</ele><time>2026-04-26T08:49:07.997Z</time></trkpt><trkpt lat="44.7017367" lon="10.1742983"><ele>171.0</ele><time>2026-04-26T08:49:09.997Z</time></trkpt><trkpt lat="44.7016583" lon="10.1742633"><ele>171.0</ele><time>2026-04-26T08:49:11.998Z</time></trkpt><trkpt lat="44.7015467" lon="10.1742033"><ele>171.0</ele><time>2026-04-26T08:49:13.997Z</time></trkpt><trkpt lat="44.7014483" lon="10.174135"><ele>171.0</ele><time>2026-04-26T08:49:15.997Z</time></trkpt><trkpt lat="44.7013367" lon="10.1740583"><ele>171.0</ele><time>2026-04-26T08:49:17.997Z</time></trkpt><trkpt lat="44.7012767" lon="10.174025"><ele>171.60000000000002</ele><time>2026-04-26T08:49:18.998Z</time></trkpt><trkpt lat="44.70116" lon="10.1739567"><ele>172.2</ele><time>2026-04-26T08:49:20.998Z</time></trkpt><trkpt lat="44.7010583" lon="10.1739033"><ele>172.8</ele><time>2026-04-26T08:49:22.997Z</time></trkpt><trkpt lat="44.700965" lon="10.17385"><ele>173.39999999999998</ele><time>2026-04-26T08:49:24.997Z</time></trkpt><trkpt lat="44.7008667" lon="10.173785"><ele>174.0</ele><time>2026-04-26T08:49:26.997Z</time></trkpt><trkpt lat="44.70077" lon="10.173735"><ele>174.0</ele><time>2026-04-26T08:49:28.997Z</time></trkpt><trkpt lat="44.7006717" lon="10.1736767"><ele>174.0</ele><time>2026-04-26T08:49:30.997Z</time></trkpt><trkpt lat="44.7005617" lon="10.1736083"><ele>174.0</ele><time>2026-04-26T08:49:32.997Z</time></trkpt><trkpt lat="44.7004583" lon="10.173545"><ele>174.0</ele><time>2026-04-26T08:49:34.997Z</time></trkpt><trkpt lat="44.70035" lon="10.1734883"><ele>174.0</ele><time>2026-04-26T08:49:36.998Z</time></trkpt><trkpt lat="44.7002517" lon="10.1734467"><ele>174.0</ele><time>2026-04-26T08:49:38.997Z</time></trkpt><trkpt lat="44.7001633" lon="10.1733967"><ele>174.0</ele><time>2026-04-26T08:49:40.997Z</time></trkpt><trkpt lat="44.7000733" lon="10.17335"><ele>174.0</ele><time>2026-04-26T08:49:42.997Z</time></trkpt><trkpt lat="44.69998" lon="10.1733033"><ele>174.0</ele><time>2026-04-26T08:49:44.997Z</time></trkpt><trkpt lat="44.69989" lon="10.1732483"><ele>173.6</ele><time>2026-04-26T08:49:46.997Z</time></trkpt><trkpt lat="44.69979" lon="10.1732067"><ele>173.2</ele><time>2026-04-26T08:49:48.998Z</time></trkpt><trkpt lat="44.6997083" lon="10.17316"><ele>172.79999999999998</ele><time>2026-04-26T08:49:50.997Z</time></trkpt><trkpt lat="44.699625" lon="10.1731017"><ele>172.39999999999998</ele><time>2026-04-26T08:49:52.997Z</time></trkpt><trkpt lat="44.6995233" lon="10.1730383"><ele>172.0</ele><time>2026-04-26T08:49:54.997Z</time></trkpt><trkpt lat="44.69942" lon="10.1729833"><ele>172.39999999999998</ele><time>2026-04-26T08:49:56.997Z</time></trkpt><trkpt lat="44.6993333" lon="10.1729233"><ele>172.79999999999998</ele><time>2026-04-26T08:49:58.998Z</time></trkpt><trkpt lat="44.6992417" lon="10.1728617"><ele>173.2</ele><time>2026-04-26T08:50:00.997Z</time></trkpt><trkpt lat="44.6991433" lon="10.172805"><ele>173.6</ele><time>2026-04-26T08:50:02.997Z</time></trkpt><trkpt lat="44.6990517" lon="10.1727517"><ele>174.0</ele><time>2026-04-26T08:50:04.997Z</time></trkpt><trkpt lat="44.6989667" lon="10.1727133"><ele>174.0</ele><time>2026-04-26T08:50:06.998Z</time></trkpt><trkpt lat="44.698865" lon="10.1726667"><ele>174.0</ele><time>2026-04-26T08:50:08.997Z</time></trkpt><trkpt lat="44.6987783" lon="10.17262"><ele>174.0</ele><time>2026-04-26T08:50:10.998Z</time></trkpt><trkpt lat="44.6987017" lon="10.17257"><ele>174.0</ele><time>2026-04-26T08:50:13.997Z</time></trkpt><trkpt lat="44.6986217" lon="10.1725383"><ele>174.0</ele><time>2026-04-26T08:50:16.997Z</time></trkpt><trkpt lat="44.69858" lon="10.1724667"><ele>174.0</ele><time>2026-04-26T08:50:19.997Z</time></trkpt><trkpt lat="44.6985567" lon="10.1723767"><ele>174.66666666666666</ele><time>2026-04-26T08:50:21.997Z</time></trkpt><trkpt lat="44.6985367" lon="10.1722917"><ele>175.33333333333334</ele><time>2026-04-26T08:50:24.997Z</time></trkpt><trkpt lat="44.6985567" lon="10.17218"><ele>176.0</ele><time>2026-04-26T08:50:27.997Z</time></trkpt><trkpt lat="44.698585" lon="10.1720767"><ele>176.66666666666669</ele><time>2026-04-26T08:50:30.997Z</time></trkpt><trkpt lat="44.6986317" lon="10.1719817"><ele>177.33333333333334</ele><time>2026-04-26T08:50:33.997Z</time></trkpt><trkpt lat="44.6985967" lon="10.1717867"><ele>178.0</ele><time>2026-04-26T08:51:05.998Z</time></trkpt><trkpt lat="44.698685" lon="10.1716533"><ele>178.0</ele><time>2026-04-26T08:51:30.998Z</time></trkpt></trkseg></trk></gpx>